<?xml version="1.0" encoding="UTF-8" standalone="no" ?>
<gpx xmlns="http://www.topografix.com/GPX/1/1" xmlns:xsi="http://www.w3.org/2001/XMLSchema-instance" xsi:schemaLocation="http://www.topografix.com/GPX/1/1 http://www.topografix.com/GPX/1/1/gpx.xsd" version="1.1" creator="VisuGPX - https://www.visugpx.com">
  <metadata>
    <name>Virade de l'espoir 2019</name>
    <desc><![CDATA[circuit 23 km des Virades de l'espoir 2019 au départ de Pelussin. ]]></desc>
  </metadata>
  <trk>
    <name><![CDATA[Virade de l'espoir 2019]]></name>
    <trkseg>
      <trkpt lat="45.4198" lon="4.67518">
        <ele>451.79998779297</ele>
        <time>2019-09-29T07:05:48.000Z</time>
      </trkpt>
      <trkpt lat="45.41982" lon="4.67517">
        <ele>451</ele>
        <time>2019-09-29T07:06:42.000Z</time>
      </trkpt>
      <trkpt lat="45.41984" lon="4.67516">
        <ele>451</ele>
        <time>2019-09-29T07:06:44.000Z</time>
      </trkpt>
      <trkpt lat="45.41987" lon="4.67517">
        <ele>451</ele>
        <time>2019-09-29T07:06:45.000Z</time>
      </trkpt>
      <trkpt lat="45.41989" lon="4.67519">
        <ele>451</ele>
        <time>2019-09-29T07:06:46.000Z</time>
      </trkpt>
      <trkpt lat="45.41992" lon="4.67522">
        <ele>451</ele>
        <time>2019-09-29T07:06:47.000Z</time>
      </trkpt>
      <trkpt lat="45.41995" lon="4.67526">
        <ele>450.74000307204</ele>
        <time>2019-09-29T07:06:48.000Z</time>
      </trkpt>
      <trkpt lat="45.41997" lon="4.67531">
        <ele>450</ele>
        <time>2019-09-29T07:06:49.000Z</time>
      </trkpt>
      <trkpt lat="45.42" lon="4.67536">
        <ele>450</ele>
        <time>2019-09-29T07:06:50.000Z</time>
      </trkpt>
      <trkpt lat="45.42001" lon="4.67541">
        <ele>450</ele>
        <time>2019-09-29T07:06:51.000Z</time>
      </trkpt>
      <trkpt lat="45.42003" lon="4.67546">
        <ele>450</ele>
        <time>2019-09-29T07:06:52.000Z</time>
      </trkpt>
      <trkpt lat="45.42004" lon="4.67549">
        <ele>450</ele>
        <time>2019-09-29T07:06:53.000Z</time>
      </trkpt>
      <trkpt lat="45.42005" lon="4.67552">
        <ele>450</ele>
        <time>2019-09-29T07:06:54.000Z</time>
      </trkpt>
      <trkpt lat="45.42007" lon="4.67556">
        <ele>450</ele>
        <time>2019-09-29T07:06:55.000Z</time>
      </trkpt>
      <trkpt lat="45.42008" lon="4.67559">
        <ele>450</ele>
        <time>2019-09-29T07:06:56.000Z</time>
      </trkpt>
      <trkpt lat="45.42009" lon="4.67563">
        <ele>450</ele>
        <time>2019-09-29T07:06:57.000Z</time>
      </trkpt>
      <trkpt lat="45.42011" lon="4.67566">
        <ele>449.80620355027</ele>
        <time>2019-09-29T07:06:58.000Z</time>
      </trkpt>
      <trkpt lat="45.42012" lon="4.67569">
        <ele>449.03100782886</ele>
        <time>2019-09-29T07:06:59.000Z</time>
      </trkpt>
      <trkpt lat="45.42013" lon="4.67572">
        <ele>449</ele>
        <time>2019-09-29T07:07:00.000Z</time>
      </trkpt>
      <trkpt lat="45.42012" lon="4.67574">
        <ele>449</ele>
        <time>2019-09-29T07:07:05.000Z</time>
      </trkpt>
      <trkpt lat="45.42012" lon="4.67578">
        <ele>449</ele>
        <time>2019-09-29T07:07:08.000Z</time>
      </trkpt>
      <trkpt lat="45.42013" lon="4.67581">
        <ele>449</ele>
        <time>2019-09-29T07:07:10.000Z</time>
      </trkpt>
      <trkpt lat="45.42013" lon="4.67584">
        <ele>449</ele>
        <time>2019-09-29T07:07:11.000Z</time>
      </trkpt>
      <trkpt lat="45.42015" lon="4.67587">
        <ele>449</ele>
        <time>2019-09-29T07:07:12.000Z</time>
      </trkpt>
      <trkpt lat="45.42017" lon="4.6759">
        <ele>448.73999692804</ele>
        <time>2019-09-29T07:07:13.000Z</time>
      </trkpt>
      <trkpt lat="45.4202" lon="4.67594">
        <ele>448</ele>
        <time>2019-09-29T07:07:14.000Z</time>
      </trkpt>
      <trkpt lat="45.42024" lon="4.67598">
        <ele>448</ele>
        <time>2019-09-29T07:07:15.000Z</time>
      </trkpt>
      <trkpt lat="45.42028" lon="4.67602">
        <ele>447.74000307204</ele>
        <time>2019-09-29T07:07:16.000Z</time>
      </trkpt>
      <trkpt lat="45.42032" lon="4.67608">
        <ele>447</ele>
        <time>2019-09-29T07:07:17.000Z</time>
      </trkpt>
      <trkpt lat="45.42037" lon="4.67613">
        <ele>447</ele>
        <time>2019-09-29T07:07:18.000Z</time>
      </trkpt>
      <trkpt lat="45.42041" lon="4.67619">
        <ele>447</ele>
        <time>2019-09-29T07:07:19.000Z</time>
      </trkpt>
      <trkpt lat="45.42046" lon="4.67625">
        <ele>446</ele>
        <time>2019-09-29T07:07:20.000Z</time>
      </trkpt>
      <trkpt lat="45.42051" lon="4.67631">
        <ele>446</ele>
        <time>2019-09-29T07:07:21.000Z</time>
      </trkpt>
      <trkpt lat="45.42056" lon="4.67636">
        <ele>445.79845407368</ele>
        <time>2019-09-29T07:07:22.000Z</time>
      </trkpt>
      <trkpt lat="45.42061" lon="4.67641">
        <ele>445.02325835227</ele>
        <time>2019-09-29T07:07:23.000Z</time>
      </trkpt>
      <trkpt lat="45.42066" lon="4.67646">
        <ele>445</ele>
        <time>2019-09-29T07:07:24.000Z</time>
      </trkpt>
      <trkpt lat="45.42071" lon="4.67651">
        <ele>444.73999692804</ele>
        <time>2019-09-29T07:07:25.000Z</time>
      </trkpt>
      <trkpt lat="45.42075" lon="4.67655">
        <ele>444</ele>
        <time>2019-09-29T07:07:26.000Z</time>
      </trkpt>
      <trkpt lat="45.42079" lon="4.67659">
        <ele>443.80152231689</ele>
        <time>2019-09-29T07:07:27.000Z</time>
      </trkpt>
      <trkpt lat="45.42083" lon="4.67663">
        <ele>443.03816540295</ele>
        <time>2019-09-29T07:07:28.000Z</time>
      </trkpt>
      <trkpt lat="45.42087" lon="4.67666">
        <ele>443</ele>
        <time>2019-09-29T07:07:29.000Z</time>
      </trkpt>
      <trkpt lat="45.4209" lon="4.67669">
        <ele>442.74257977847</ele>
        <time>2019-09-29T07:07:30.000Z</time>
      </trkpt>
      <trkpt lat="45.42093" lon="4.67672">
        <ele>442</ele>
        <time>2019-09-29T07:07:31.000Z</time>
      </trkpt>
      <trkpt lat="45.42096" lon="4.67674">
        <ele>442</ele>
        <time>2019-09-29T07:07:32.000Z</time>
      </trkpt>
      <trkpt lat="45.42099" lon="4.67677">
        <ele>442</ele>
        <time>2019-09-29T07:07:33.000Z</time>
      </trkpt>
      <trkpt lat="45.42102" lon="4.67679">
        <ele>442</ele>
        <time>2019-09-29T07:07:34.000Z</time>
      </trkpt>
      <trkpt lat="45.42105" lon="4.67681">
        <ele>441.7500032</ele>
        <time>2019-09-29T07:07:35.000Z</time>
      </trkpt>
      <trkpt lat="45.42109" lon="4.67682">
        <ele>441</ele>
        <time>2019-09-29T07:07:36.000Z</time>
      </trkpt>
      <trkpt lat="45.42112" lon="4.67684">
        <ele>441</ele>
        <time>2019-09-29T07:07:37.000Z</time>
      </trkpt>
      <trkpt lat="45.42116" lon="4.67685">
        <ele>441</ele>
        <time>2019-09-29T07:07:38.000Z</time>
      </trkpt>
      <trkpt lat="45.42121" lon="4.67687">
        <ele>440.73999692804</ele>
        <time>2019-09-29T07:07:39.000Z</time>
      </trkpt>
      <trkpt lat="45.42126" lon="4.67687">
        <ele>440</ele>
        <time>2019-09-29T07:07:40.000Z</time>
      </trkpt>
      <trkpt lat="45.42132" lon="4.67688">
        <ele>440</ele>
        <time>2019-09-29T07:07:41.000Z</time>
      </trkpt>
      <trkpt lat="45.42138" lon="4.67689">
        <ele>439.03030616467</ele>
        <time>2019-09-29T07:07:42.000Z</time>
      </trkpt>
      <trkpt lat="45.42143" lon="4.6769">
        <ele>439</ele>
        <time>2019-09-29T07:07:43.000Z</time>
      </trkpt>
      <trkpt lat="45.42149" lon="4.67691">
        <ele>439</ele>
        <time>2019-09-29T07:07:44.000Z</time>
      </trkpt>
      <trkpt lat="45.42155" lon="4.67693">
        <ele>438.73999692804</ele>
        <time>2019-09-29T07:07:45.000Z</time>
      </trkpt>
      <trkpt lat="45.42161" lon="4.67695">
        <ele>438</ele>
        <time>2019-09-29T07:07:46.000Z</time>
      </trkpt>
      <trkpt lat="45.42166" lon="4.67697">
        <ele>438</ele>
        <time>2019-09-29T07:07:47.000Z</time>
      </trkpt>
      <trkpt lat="45.42172" lon="4.67701">
        <ele>437.80153014862</ele>
        <time>2019-09-29T07:07:48.000Z</time>
      </trkpt>
      <trkpt lat="45.42178" lon="4.67704">
        <ele>437.03816577587</ele>
        <time>2019-09-29T07:07:49.000Z</time>
      </trkpt>
      <trkpt lat="45.42183" lon="4.67709">
        <ele>437</ele>
        <time>2019-09-29T07:07:50.000Z</time>
      </trkpt>
      <trkpt lat="45.42189" lon="4.67713">
        <ele>437</ele>
        <time>2019-09-29T07:07:51.000Z</time>
      </trkpt>
      <trkpt lat="45.42194" lon="4.67717">
        <ele>436.74000307204</ele>
        <time>2019-09-29T07:07:52.000Z</time>
      </trkpt>
      <trkpt lat="45.422" lon="4.67722">
        <ele>436</ele>
        <time>2019-09-29T07:07:53.000Z</time>
      </trkpt>
      <trkpt lat="45.42206" lon="4.67726">
        <ele>436</ele>
        <time>2019-09-29T07:07:54.000Z</time>
      </trkpt>
      <trkpt lat="45.42211" lon="4.6773">
        <ele>436</ele>
        <time>2019-09-29T07:07:55.000Z</time>
      </trkpt>
      <trkpt lat="45.42217" lon="4.67735">
        <ele>435.80153014862</ele>
        <time>2019-09-29T07:07:56.000Z</time>
      </trkpt>
      <trkpt lat="45.42223" lon="4.67739">
        <ele>435.03816577587</ele>
        <time>2019-09-29T07:07:57.000Z</time>
      </trkpt>
      <trkpt lat="45.42229" lon="4.67743">
        <ele>435</ele>
        <time>2019-09-29T07:07:58.000Z</time>
      </trkpt>
      <trkpt lat="45.42235" lon="4.67748">
        <ele>434.73999692804</ele>
        <time>2019-09-29T07:07:59.000Z</time>
      </trkpt>
      <trkpt lat="45.42241" lon="4.67753">
        <ele>434</ele>
        <time>2019-09-29T07:08:00.000Z</time>
      </trkpt>
      <trkpt lat="45.42247" lon="4.67757">
        <ele>434</ele>
        <time>2019-09-29T07:08:01.000Z</time>
      </trkpt>
      <trkpt lat="45.42253" lon="4.67762">
        <ele>433</ele>
        <time>2019-09-29T07:08:02.000Z</time>
      </trkpt>
      <trkpt lat="45.42259" lon="4.67766">
        <ele>433</ele>
        <time>2019-09-29T07:08:03.000Z</time>
      </trkpt>
      <trkpt lat="45.42264" lon="4.67771">
        <ele>433</ele>
        <time>2019-09-29T07:08:04.000Z</time>
      </trkpt>
      <trkpt lat="45.4227" lon="4.67775">
        <ele>432</ele>
        <time>2019-09-29T07:08:05.000Z</time>
      </trkpt>
      <trkpt lat="45.42276" lon="4.67779">
        <ele>432</ele>
        <time>2019-09-29T07:08:06.000Z</time>
      </trkpt>
      <trkpt lat="45.42282" lon="4.67784">
        <ele>431.73999692804</ele>
        <time>2019-09-29T07:08:07.000Z</time>
      </trkpt>
      <trkpt lat="45.42288" lon="4.67788">
        <ele>431</ele>
        <time>2019-09-29T07:08:08.000Z</time>
      </trkpt>
      <trkpt lat="45.42294" lon="4.67793">
        <ele>431</ele>
        <time>2019-09-29T07:08:09.000Z</time>
      </trkpt>
      <trkpt lat="45.42299" lon="4.67797">
        <ele>430.74747553108</ele>
        <time>2019-09-29T07:08:10.000Z</time>
      </trkpt>
      <trkpt lat="45.42304" lon="4.67801">
        <ele>430</ele>
        <time>2019-09-29T07:08:11.000Z</time>
      </trkpt>
      <trkpt lat="45.42308" lon="4.67805">
        <ele>430</ele>
        <time>2019-09-29T07:08:12.000Z</time>
      </trkpt>
      <trkpt lat="45.42309" lon="4.67807">
        <ele>430</ele>
        <time>2019-09-29T07:08:13.000Z</time>
      </trkpt>
      <trkpt lat="45.42312" lon="4.6781">
        <ele>429</ele>
        <time>2019-09-29T07:08:40.000Z</time>
      </trkpt>
      <trkpt lat="45.42314" lon="4.67812">
        <ele>429</ele>
        <time>2019-09-29T07:08:41.000Z</time>
      </trkpt>
      <trkpt lat="45.42317" lon="4.67815">
        <ele>429</ele>
        <time>2019-09-29T07:08:42.000Z</time>
      </trkpt>
      <trkpt lat="45.4232" lon="4.67818">
        <ele>429</ele>
        <time>2019-09-29T07:08:43.000Z</time>
      </trkpt>
      <trkpt lat="45.42323" lon="4.67822">
        <ele>428.74000307204</ele>
        <time>2019-09-29T07:08:44.000Z</time>
      </trkpt>
      <trkpt lat="45.42326" lon="4.67827">
        <ele>428</ele>
        <time>2019-09-29T07:08:45.000Z</time>
      </trkpt>
      <trkpt lat="45.42329" lon="4.67832">
        <ele>428</ele>
        <time>2019-09-29T07:08:46.000Z</time>
      </trkpt>
      <trkpt lat="45.42333" lon="4.67838">
        <ele>428</ele>
        <time>2019-09-29T07:08:47.000Z</time>
      </trkpt>
      <trkpt lat="45.42336" lon="4.67844">
        <ele>428</ele>
        <time>2019-09-29T07:08:48.000Z</time>
      </trkpt>
      <trkpt lat="45.4234" lon="4.6785">
        <ele>427.80152231689</ele>
        <time>2019-09-29T07:08:49.000Z</time>
      </trkpt>
      <trkpt lat="45.42344" lon="4.67857">
        <ele>427.03816540295</ele>
        <time>2019-09-29T07:08:50.000Z</time>
      </trkpt>
      <trkpt lat="45.42347" lon="4.67864">
        <ele>427</ele>
        <time>2019-09-29T07:08:51.000Z</time>
      </trkpt>
      <trkpt lat="45.42351" lon="4.67871">
        <ele>427</ele>
        <time>2019-09-29T07:08:52.000Z</time>
      </trkpt>
      <trkpt lat="45.42354" lon="4.67877">
        <ele>427</ele>
        <time>2019-09-29T07:08:53.000Z</time>
      </trkpt>
      <trkpt lat="45.42357" lon="4.67882">
        <ele>427</ele>
        <time>2019-09-29T07:08:54.000Z</time>
      </trkpt>
      <trkpt lat="45.4236" lon="4.67887">
        <ele>427</ele>
        <time>2019-09-29T07:08:55.000Z</time>
      </trkpt>
      <trkpt lat="45.42363" lon="4.67893">
        <ele>427</ele>
        <time>2019-09-29T07:08:56.000Z</time>
      </trkpt>
      <trkpt lat="45.42366" lon="4.67898">
        <ele>426.7984461511</ele>
        <time>2019-09-29T07:08:57.000Z</time>
      </trkpt>
      <trkpt lat="45.42368" lon="4.67904">
        <ele>426.02325812149</ele>
        <time>2019-09-29T07:08:58.000Z</time>
      </trkpt>
      <trkpt lat="45.42371" lon="4.6791">
        <ele>426</ele>
        <time>2019-09-29T07:08:59.000Z</time>
      </trkpt>
      <trkpt lat="45.42375" lon="4.67915">
        <ele>426</ele>
        <time>2019-09-29T07:09:00.000Z</time>
      </trkpt>
      <trkpt lat="45.42378" lon="4.67921">
        <ele>425.73999692804</ele>
        <time>2019-09-29T07:09:01.000Z</time>
      </trkpt>
      <trkpt lat="45.42379" lon="4.67924">
        <ele>425</ele>
        <time>2019-09-29T07:09:02.000Z</time>
      </trkpt>
      <trkpt lat="45.42378" lon="4.67921">
        <ele>424</ele>
        <time>2019-09-29T07:09:07.000Z</time>
      </trkpt>
      <trkpt lat="45.42376" lon="4.67919">
        <ele>424</ele>
        <time>2019-09-29T07:09:09.000Z</time>
      </trkpt>
      <trkpt lat="45.42375" lon="4.67922">
        <ele>424</ele>
        <time>2019-09-29T07:09:24.000Z</time>
      </trkpt>
      <trkpt lat="45.42376" lon="4.67919">
        <ele>423</ele>
        <time>2019-09-29T07:09:35.000Z</time>
      </trkpt>
      <trkpt lat="45.42378" lon="4.67922">
        <ele>423</ele>
        <time>2019-09-29T07:09:37.000Z</time>
      </trkpt>
      <trkpt lat="45.4238" lon="4.67924">
        <ele>423</ele>
        <time>2019-09-29T07:09:38.000Z</time>
      </trkpt>
      <trkpt lat="45.42381" lon="4.67928">
        <ele>423</ele>
        <time>2019-09-29T07:09:39.000Z</time>
      </trkpt>
      <trkpt lat="45.42384" lon="4.67932">
        <ele>422.74000307204</ele>
        <time>2019-09-29T07:09:40.000Z</time>
      </trkpt>
      <trkpt lat="45.42386" lon="4.67937">
        <ele>422</ele>
        <time>2019-09-29T07:09:41.000Z</time>
      </trkpt>
      <trkpt lat="45.42389" lon="4.67942">
        <ele>422</ele>
        <time>2019-09-29T07:09:42.000Z</time>
      </trkpt>
      <trkpt lat="45.42392" lon="4.67946">
        <ele>422</ele>
        <time>2019-09-29T07:09:43.000Z</time>
      </trkpt>
      <trkpt lat="45.42395" lon="4.6795">
        <ele>421.79845407368</ele>
        <time>2019-09-29T07:09:44.000Z</time>
      </trkpt>
      <trkpt lat="45.42399" lon="4.6795">
        <ele>421.02325835227</ele>
        <time>2019-09-29T07:09:45.000Z</time>
      </trkpt>
      <trkpt lat="45.42404" lon="4.67948">
        <ele>421</ele>
        <time>2019-09-29T07:09:46.000Z</time>
      </trkpt>
      <trkpt lat="45.42408" lon="4.67944">
        <ele>420.73999692804</ele>
        <time>2019-09-29T07:09:47.000Z</time>
      </trkpt>
      <trkpt lat="45.42413" lon="4.67941">
        <ele>420</ele>
        <time>2019-09-29T07:09:48.000Z</time>
      </trkpt>
      <trkpt lat="45.42417" lon="4.67937">
        <ele>420</ele>
        <time>2019-09-29T07:09:49.000Z</time>
      </trkpt>
      <trkpt lat="45.42422" lon="4.67934">
        <ele>420</ele>
        <time>2019-09-29T07:09:50.000Z</time>
      </trkpt>
      <trkpt lat="45.42427" lon="4.67932">
        <ele>420</ele>
        <time>2019-09-29T07:09:51.000Z</time>
      </trkpt>
      <trkpt lat="45.42431" lon="4.67933">
        <ele>419.74000307204</ele>
        <time>2019-09-29T07:09:52.000Z</time>
      </trkpt>
      <trkpt lat="45.42436" lon="4.67937">
        <ele>419</ele>
        <time>2019-09-29T07:09:53.000Z</time>
      </trkpt>
      <trkpt lat="45.42439" lon="4.67943">
        <ele>419</ele>
        <time>2019-09-29T07:09:54.000Z</time>
      </trkpt>
      <trkpt lat="45.42442" lon="4.67949">
        <ele>419</ele>
        <time>2019-09-29T07:09:55.000Z</time>
      </trkpt>
      <trkpt lat="45.42446" lon="4.67955">
        <ele>419</ele>
        <time>2019-09-29T07:09:56.000Z</time>
      </trkpt>
      <trkpt lat="45.42449" lon="4.67962">
        <ele>419</ele>
        <time>2019-09-29T07:09:57.000Z</time>
      </trkpt>
      <trkpt lat="45.42451" lon="4.6797">
        <ele>418.74000307204</ele>
        <time>2019-09-29T07:09:58.000Z</time>
      </trkpt>
      <trkpt lat="45.42455" lon="4.67979">
        <ele>418</ele>
        <time>2019-09-29T07:09:59.000Z</time>
      </trkpt>
      <trkpt lat="45.42458" lon="4.67986">
        <ele>418</ele>
        <time>2019-09-29T07:10:00.000Z</time>
      </trkpt>
      <trkpt lat="45.42462" lon="4.67993">
        <ele>418</ele>
        <time>2019-09-29T07:10:01.000Z</time>
      </trkpt>
      <trkpt lat="45.42467" lon="4.67999">
        <ele>418</ele>
        <time>2019-09-29T07:10:02.000Z</time>
      </trkpt>
      <trkpt lat="45.42471" lon="4.68005">
        <ele>418</ele>
        <time>2019-09-29T07:10:03.000Z</time>
      </trkpt>
      <trkpt lat="45.42475" lon="4.68011">
        <ele>418</ele>
        <time>2019-09-29T07:10:04.000Z</time>
      </trkpt>
      <trkpt lat="45.42479" lon="4.68017">
        <ele>417.73999692804</ele>
        <time>2019-09-29T07:10:05.000Z</time>
      </trkpt>
      <trkpt lat="45.42483" lon="4.68023">
        <ele>417</ele>
        <time>2019-09-29T07:10:06.000Z</time>
      </trkpt>
      <trkpt lat="45.42487" lon="4.68028">
        <ele>417</ele>
        <time>2019-09-29T07:10:07.000Z</time>
      </trkpt>
      <trkpt lat="45.4249" lon="4.68035">
        <ele>417</ele>
        <time>2019-09-29T07:10:08.000Z</time>
      </trkpt>
      <trkpt lat="45.42493" lon="4.68041">
        <ele>417</ele>
        <time>2019-09-29T07:10:09.000Z</time>
      </trkpt>
      <trkpt lat="45.42497" lon="4.68048">
        <ele>416.74000307204</ele>
        <time>2019-09-29T07:10:10.000Z</time>
      </trkpt>
      <trkpt lat="45.425" lon="4.68055">
        <ele>416</ele>
        <time>2019-09-29T07:10:11.000Z</time>
      </trkpt>
      <trkpt lat="45.42504" lon="4.68062">
        <ele>416</ele>
        <time>2019-09-29T07:10:12.000Z</time>
      </trkpt>
      <trkpt lat="45.42508" lon="4.68068">
        <ele>416</ele>
        <time>2019-09-29T07:10:13.000Z</time>
      </trkpt>
      <trkpt lat="45.42513" lon="4.68075">
        <ele>416</ele>
        <time>2019-09-29T07:10:14.000Z</time>
      </trkpt>
      <trkpt lat="45.42517" lon="4.68082">
        <ele>415.73999692804</ele>
        <time>2019-09-29T07:10:15.000Z</time>
      </trkpt>
      <trkpt lat="45.42521" lon="4.68089">
        <ele>415</ele>
        <time>2019-09-29T07:10:16.000Z</time>
      </trkpt>
      <trkpt lat="45.42525" lon="4.68096">
        <ele>415</ele>
        <time>2019-09-29T07:10:17.000Z</time>
      </trkpt>
      <trkpt lat="45.42529" lon="4.68104">
        <ele>415</ele>
        <time>2019-09-29T07:10:18.000Z</time>
      </trkpt>
      <trkpt lat="45.42533" lon="4.68111">
        <ele>415</ele>
        <time>2019-09-29T07:10:19.000Z</time>
      </trkpt>
      <trkpt lat="45.42536" lon="4.68118">
        <ele>414.74000307204</ele>
        <time>2019-09-29T07:10:20.000Z</time>
      </trkpt>
      <trkpt lat="45.4254" lon="4.68125">
        <ele>414</ele>
        <time>2019-09-29T07:10:21.000Z</time>
      </trkpt>
      <trkpt lat="45.42544" lon="4.68132">
        <ele>414</ele>
        <time>2019-09-29T07:10:22.000Z</time>
      </trkpt>
      <trkpt lat="45.42549" lon="4.68139">
        <ele>413.73999692804</ele>
        <time>2019-09-29T07:10:23.000Z</time>
      </trkpt>
      <trkpt lat="45.42553" lon="4.68145">
        <ele>413</ele>
        <time>2019-09-29T07:10:24.000Z</time>
      </trkpt>
      <trkpt lat="45.42556" lon="4.68152">
        <ele>413</ele>
        <time>2019-09-29T07:10:25.000Z</time>
      </trkpt>
      <trkpt lat="45.42558" lon="4.6816">
        <ele>412.74000307204</ele>
        <time>2019-09-29T07:10:26.000Z</time>
      </trkpt>
      <trkpt lat="45.42559" lon="4.68168">
        <ele>412</ele>
        <time>2019-09-29T07:10:27.000Z</time>
      </trkpt>
      <trkpt lat="45.42559" lon="4.68176">
        <ele>412</ele>
        <time>2019-09-29T07:10:28.000Z</time>
      </trkpt>
      <trkpt lat="45.4256" lon="4.68184">
        <ele>412</ele>
        <time>2019-09-29T07:10:29.000Z</time>
      </trkpt>
      <trkpt lat="45.4256" lon="4.68191">
        <ele>411.74000307204</ele>
        <time>2019-09-29T07:10:30.000Z</time>
      </trkpt>
      <trkpt lat="45.4256" lon="4.68198">
        <ele>411</ele>
        <time>2019-09-29T07:10:31.000Z</time>
      </trkpt>
      <trkpt lat="45.42561" lon="4.68204">
        <ele>411</ele>
        <time>2019-09-29T07:10:32.000Z</time>
      </trkpt>
      <trkpt lat="45.42561" lon="4.68211">
        <ele>411</ele>
        <time>2019-09-29T07:10:33.000Z</time>
      </trkpt>
      <trkpt lat="45.42561" lon="4.68217">
        <ele>411</ele>
        <time>2019-09-29T07:10:34.000Z</time>
      </trkpt>
      <trkpt lat="45.42561" lon="4.68223">
        <ele>411</ele>
        <time>2019-09-29T07:10:35.000Z</time>
      </trkpt>
      <trkpt lat="45.42561" lon="4.68229">
        <ele>411</ele>
        <time>2019-09-29T07:10:36.000Z</time>
      </trkpt>
      <trkpt lat="45.42561" lon="4.68235">
        <ele>410.7984461511</ele>
        <time>2019-09-29T07:10:37.000Z</time>
      </trkpt>
      <trkpt lat="45.4256" lon="4.68241">
        <ele>410.02325812149</ele>
        <time>2019-09-29T07:10:38.000Z</time>
      </trkpt>
      <trkpt lat="45.4256" lon="4.68247">
        <ele>410</ele>
        <time>2019-09-29T07:10:39.000Z</time>
      </trkpt>
      <trkpt lat="45.4256" lon="4.68252">
        <ele>410</ele>
        <time>2019-09-29T07:10:40.000Z</time>
      </trkpt>
      <trkpt lat="45.42559" lon="4.68258">
        <ele>410</ele>
        <time>2019-09-29T07:10:41.000Z</time>
      </trkpt>
      <trkpt lat="45.42559" lon="4.68263">
        <ele>410</ele>
        <time>2019-09-29T07:10:42.000Z</time>
      </trkpt>
      <trkpt lat="45.42558" lon="4.68269">
        <ele>409.73999692804</ele>
        <time>2019-09-29T07:10:43.000Z</time>
      </trkpt>
      <trkpt lat="45.42557" lon="4.68275">
        <ele>409</ele>
        <time>2019-09-29T07:10:44.000Z</time>
      </trkpt>
      <trkpt lat="45.42556" lon="4.6828">
        <ele>409</ele>
        <time>2019-09-29T07:10:45.000Z</time>
      </trkpt>
      <trkpt lat="45.42555" lon="4.68286">
        <ele>409</ele>
        <time>2019-09-29T07:10:46.000Z</time>
      </trkpt>
      <trkpt lat="45.42555" lon="4.68291">
        <ele>409</ele>
        <time>2019-09-29T07:10:47.000Z</time>
      </trkpt>
      <trkpt lat="45.42554" lon="4.68296">
        <ele>409</ele>
        <time>2019-09-29T07:10:48.000Z</time>
      </trkpt>
      <trkpt lat="45.42554" lon="4.68299">
        <ele>408.73999692804</ele>
        <time>2019-09-29T07:10:49.000Z</time>
      </trkpt>
      <trkpt lat="45.42556" lon="4.68296">
        <ele>407.73999692804</ele>
        <time>2019-09-29T07:10:57.000Z</time>
      </trkpt>
      <trkpt lat="45.42556" lon="4.68291">
        <ele>407</ele>
        <time>2019-09-29T07:10:59.000Z</time>
      </trkpt>
      <trkpt lat="45.42556" lon="4.68287">
        <ele>407</ele>
        <time>2019-09-29T07:11:01.000Z</time>
      </trkpt>
      <trkpt lat="45.42556" lon="4.68282">
        <ele>407</ele>
        <time>2019-09-29T07:11:03.000Z</time>
      </trkpt>
      <trkpt lat="45.42557" lon="4.6828">
        <ele>407</ele>
        <time>2019-09-29T07:11:04.000Z</time>
      </trkpt>
      <trkpt lat="45.42558" lon="4.68277">
        <ele>407</ele>
        <time>2019-09-29T07:11:05.000Z</time>
      </trkpt>
      <trkpt lat="45.42559" lon="4.68279">
        <ele>407</ele>
        <time>2019-09-29T07:11:08.000Z</time>
      </trkpt>
      <trkpt lat="45.42557" lon="4.68283">
        <ele>406.73999692804</ele>
        <time>2019-09-29T07:11:09.000Z</time>
      </trkpt>
      <trkpt lat="45.42556" lon="4.68287">
        <ele>406</ele>
        <time>2019-09-29T07:11:10.000Z</time>
      </trkpt>
      <trkpt lat="45.42555" lon="4.68292">
        <ele>406</ele>
        <time>2019-09-29T07:11:11.000Z</time>
      </trkpt>
      <trkpt lat="45.42554" lon="4.68298">
        <ele>406</ele>
        <time>2019-09-29T07:11:12.000Z</time>
      </trkpt>
      <trkpt lat="45.42554" lon="4.68305">
        <ele>406</ele>
        <time>2019-09-29T07:11:13.000Z</time>
      </trkpt>
      <trkpt lat="45.42554" lon="4.68313">
        <ele>405.74000307204</ele>
        <time>2019-09-29T07:11:14.000Z</time>
      </trkpt>
      <trkpt lat="45.42554" lon="4.68321">
        <ele>405</ele>
        <time>2019-09-29T07:11:15.000Z</time>
      </trkpt>
      <trkpt lat="45.42554" lon="4.68329">
        <ele>405</ele>
        <time>2019-09-29T07:11:16.000Z</time>
      </trkpt>
      <trkpt lat="45.42554" lon="4.68339">
        <ele>405</ele>
        <time>2019-09-29T07:11:17.000Z</time>
      </trkpt>
      <trkpt lat="45.42553" lon="4.68348">
        <ele>404</ele>
        <time>2019-09-29T07:11:18.000Z</time>
      </trkpt>
      <trkpt lat="45.42553" lon="4.68358">
        <ele>403.73999692804</ele>
        <time>2019-09-29T07:11:19.000Z</time>
      </trkpt>
      <trkpt lat="45.42553" lon="4.68368">
        <ele>402.74000307204</ele>
        <time>2019-09-29T07:11:20.000Z</time>
      </trkpt>
      <trkpt lat="45.42553" lon="4.68378">
        <ele>402</ele>
        <time>2019-09-29T07:11:21.000Z</time>
      </trkpt>
      <trkpt lat="45.42553" lon="4.68388">
        <ele>401.74000307204</ele>
        <time>2019-09-29T07:11:22.000Z</time>
      </trkpt>
      <trkpt lat="45.42552" lon="4.68398">
        <ele>400.79999606156</ele>
        <time>2019-09-29T07:11:23.000Z</time>
      </trkpt>
      <trkpt lat="45.42552" lon="4.68407">
        <ele>400.03076907929</ele>
        <time>2019-09-29T07:11:24.000Z</time>
      </trkpt>
      <trkpt lat="45.42551" lon="4.68417">
        <ele>399</ele>
        <time>2019-09-29T07:11:25.000Z</time>
      </trkpt>
      <trkpt lat="45.4255" lon="4.68427">
        <ele>398.74000307204</ele>
        <time>2019-09-29T07:11:26.000Z</time>
      </trkpt>
      <trkpt lat="45.4255" lon="4.68437">
        <ele>397.73999692804</ele>
        <time>2019-09-29T07:11:27.000Z</time>
      </trkpt>
      <trkpt lat="45.42548" lon="4.68448">
        <ele>397</ele>
        <time>2019-09-29T07:11:28.000Z</time>
      </trkpt>
      <trkpt lat="45.42547" lon="4.68458">
        <ele>396.79687</ele>
        <time>2019-09-29T07:11:29.000Z</time>
      </trkpt>
      <trkpt lat="45.42545" lon="4.68468">
        <ele>396.01562</ele>
        <time>2019-09-29T07:11:30.000Z</time>
      </trkpt>
      <trkpt lat="45.42543" lon="4.68478">
        <ele>395.04854043172</ele>
        <time>2019-09-29T07:11:31.000Z</time>
      </trkpt>
      <trkpt lat="45.42542" lon="4.68486">
        <ele>394.74000307204</ele>
        <time>2019-09-29T07:11:32.000Z</time>
      </trkpt>
      <trkpt lat="45.4254" lon="4.68494">
        <ele>394</ele>
        <time>2019-09-29T07:11:33.000Z</time>
      </trkpt>
      <trkpt lat="45.42538" lon="4.68502">
        <ele>394</ele>
        <time>2019-09-29T07:11:34.000Z</time>
      </trkpt>
      <trkpt lat="45.42536" lon="4.6851">
        <ele>393.73999692804</ele>
        <time>2019-09-29T07:11:35.000Z</time>
      </trkpt>
      <trkpt lat="45.42534" lon="4.68517">
        <ele>393</ele>
        <time>2019-09-29T07:11:36.000Z</time>
      </trkpt>
      <trkpt lat="45.42532" lon="4.68523">
        <ele>393</ele>
        <time>2019-09-29T07:11:37.000Z</time>
      </trkpt>
      <trkpt lat="45.42531" lon="4.68525">
        <ele>392.74000307204</ele>
        <time>2019-09-29T07:11:38.000Z</time>
      </trkpt>
      <trkpt lat="45.42532" lon="4.68523">
        <ele>391.74747553108</ele>
        <time>2019-09-29T07:11:44.000Z</time>
      </trkpt>
      <trkpt lat="45.42533" lon="4.68521">
        <ele>391</ele>
        <time>2019-09-29T07:11:46.000Z</time>
      </trkpt>
      <trkpt lat="45.42532" lon="4.68524">
        <ele>390</ele>
        <time>2019-09-29T07:11:50.000Z</time>
      </trkpt>
      <trkpt lat="45.42531" lon="4.6853">
        <ele>390</ele>
        <time>2019-09-29T07:11:52.000Z</time>
      </trkpt>
      <trkpt lat="45.42531" lon="4.68533">
        <ele>389.80152231689</ele>
        <time>2019-09-29T07:11:53.000Z</time>
      </trkpt>
      <trkpt lat="45.4253" lon="4.68537">
        <ele>389.03816540295</ele>
        <time>2019-09-29T07:11:54.000Z</time>
      </trkpt>
      <trkpt lat="45.42529" lon="4.68541">
        <ele>389</ele>
        <time>2019-09-29T07:11:55.000Z</time>
      </trkpt>
      <trkpt lat="45.42528" lon="4.68545">
        <ele>388.74000307204</ele>
        <time>2019-09-29T07:11:56.000Z</time>
      </trkpt>
      <trkpt lat="45.42527" lon="4.6855">
        <ele>388</ele>
        <time>2019-09-29T07:11:57.000Z</time>
      </trkpt>
      <trkpt lat="45.42525" lon="4.68555">
        <ele>388</ele>
        <time>2019-09-29T07:11:58.000Z</time>
      </trkpt>
      <trkpt lat="45.42524" lon="4.6856">
        <ele>387.73999692804</ele>
        <time>2019-09-29T07:11:59.000Z</time>
      </trkpt>
      <trkpt lat="45.42523" lon="4.68565">
        <ele>387</ele>
        <time>2019-09-29T07:12:00.000Z</time>
      </trkpt>
      <trkpt lat="45.42521" lon="4.68571">
        <ele>386.73999692804</ele>
        <time>2019-09-29T07:12:01.000Z</time>
      </trkpt>
      <trkpt lat="45.4252" lon="4.68577">
        <ele>386</ele>
        <time>2019-09-29T07:12:02.000Z</time>
      </trkpt>
      <trkpt lat="45.42518" lon="4.68583">
        <ele>386</ele>
        <time>2019-09-29T07:12:03.000Z</time>
      </trkpt>
      <trkpt lat="45.42517" lon="4.68588">
        <ele>385.74000307204</ele>
        <time>2019-09-29T07:12:04.000Z</time>
      </trkpt>
      <trkpt lat="45.42515" lon="4.68593">
        <ele>385</ele>
        <time>2019-09-29T07:12:05.000Z</time>
      </trkpt>
      <trkpt lat="45.42514" lon="4.68599">
        <ele>385</ele>
        <time>2019-09-29T07:12:06.000Z</time>
      </trkpt>
      <trkpt lat="45.42512" lon="4.68605">
        <ele>385</ele>
        <time>2019-09-29T07:12:07.000Z</time>
      </trkpt>
      <trkpt lat="45.42509" lon="4.68612">
        <ele>384.0300032</ele>
        <time>2019-09-29T07:12:08.000Z</time>
      </trkpt>
      <trkpt lat="45.42507" lon="4.68618">
        <ele>383.73999692804</ele>
        <time>2019-09-29T07:12:09.000Z</time>
      </trkpt>
      <trkpt lat="45.42504" lon="4.68625">
        <ele>383</ele>
        <time>2019-09-29T07:12:10.000Z</time>
      </trkpt>
      <trkpt lat="45.42501" lon="4.68631">
        <ele>383</ele>
        <time>2019-09-29T07:12:11.000Z</time>
      </trkpt>
      <trkpt lat="45.42499" lon="4.68638">
        <ele>383</ele>
        <time>2019-09-29T07:12:12.000Z</time>
      </trkpt>
      <trkpt lat="45.42496" lon="4.68644">
        <ele>383</ele>
        <time>2019-09-29T07:12:13.000Z</time>
      </trkpt>
      <trkpt lat="45.42493" lon="4.68651">
        <ele>382.76288251673</ele>
        <time>2019-09-29T07:12:14.000Z</time>
      </trkpt>
      <trkpt lat="45.4249" lon="4.68657">
        <ele>382</ele>
        <time>2019-09-29T07:12:15.000Z</time>
      </trkpt>
      <trkpt lat="45.42488" lon="4.68664">
        <ele>382</ele>
        <time>2019-09-29T07:12:16.000Z</time>
      </trkpt>
      <trkpt lat="45.42486" lon="4.68671">
        <ele>381.73999692804</ele>
        <time>2019-09-29T07:12:17.000Z</time>
      </trkpt>
      <trkpt lat="45.42484" lon="4.68677">
        <ele>381</ele>
        <time>2019-09-29T07:12:18.000Z</time>
      </trkpt>
      <trkpt lat="45.42482" lon="4.68683">
        <ele>381</ele>
        <time>2019-09-29T07:12:19.000Z</time>
      </trkpt>
      <trkpt lat="45.42481" lon="4.68689">
        <ele>380.74000307204</ele>
        <time>2019-09-29T07:12:20.000Z</time>
      </trkpt>
      <trkpt lat="45.42481" lon="4.68693">
        <ele>380</ele>
        <time>2019-09-29T07:12:21.000Z</time>
      </trkpt>
      <trkpt lat="45.42481" lon="4.68696">
        <ele>380</ele>
        <time>2019-09-29T07:12:22.000Z</time>
      </trkpt>
      <trkpt lat="45.42483" lon="4.68699">
        <ele>379</ele>
        <time>2019-09-29T07:12:24.000Z</time>
      </trkpt>
      <trkpt lat="45.42485" lon="4.68701">
        <ele>378</ele>
        <time>2019-09-29T07:12:26.000Z</time>
      </trkpt>
      <trkpt lat="45.42486" lon="4.68704">
        <ele>378</ele>
        <time>2019-09-29T07:12:27.000Z</time>
      </trkpt>
      <trkpt lat="45.42488" lon="4.68707">
        <ele>377.74000307204</ele>
        <time>2019-09-29T07:12:28.000Z</time>
      </trkpt>
      <trkpt lat="45.42489" lon="4.68709">
        <ele>377</ele>
        <time>2019-09-29T07:12:29.000Z</time>
      </trkpt>
      <trkpt lat="45.4249" lon="4.68713">
        <ele>377</ele>
        <time>2019-09-29T07:12:30.000Z</time>
      </trkpt>
      <trkpt lat="45.4249" lon="4.68717">
        <ele>377</ele>
        <time>2019-09-29T07:12:31.000Z</time>
      </trkpt>
      <trkpt lat="45.4249" lon="4.6872">
        <ele>376.74510271437</ele>
        <time>2019-09-29T07:12:32.000Z</time>
      </trkpt>
      <trkpt lat="45.42489" lon="4.68725">
        <ele>376</ele>
        <time>2019-09-29T07:12:33.000Z</time>
      </trkpt>
      <trkpt lat="45.42488" lon="4.6873">
        <ele>376</ele>
        <time>2019-09-29T07:12:34.000Z</time>
      </trkpt>
      <trkpt lat="45.42487" lon="4.68735">
        <ele>375</ele>
        <time>2019-09-29T07:12:35.000Z</time>
      </trkpt>
      <trkpt lat="45.42486" lon="4.68743">
        <ele>375</ele>
        <time>2019-09-29T07:12:36.000Z</time>
      </trkpt>
      <trkpt lat="45.42484" lon="4.68749">
        <ele>374.73999692804</ele>
        <time>2019-09-29T07:12:37.000Z</time>
      </trkpt>
      <trkpt lat="45.42481" lon="4.68755">
        <ele>374</ele>
        <time>2019-09-29T07:12:38.000Z</time>
      </trkpt>
      <trkpt lat="45.42477" lon="4.68761">
        <ele>374</ele>
        <time>2019-09-29T07:12:39.000Z</time>
      </trkpt>
      <trkpt lat="45.42473" lon="4.68766">
        <ele>373.74000307204</ele>
        <time>2019-09-29T07:12:40.000Z</time>
      </trkpt>
      <trkpt lat="45.42469" lon="4.68771">
        <ele>373</ele>
        <time>2019-09-29T07:12:41.000Z</time>
      </trkpt>
      <trkpt lat="45.42465" lon="4.68776">
        <ele>372.74000307204</ele>
        <time>2019-09-29T07:12:42.000Z</time>
      </trkpt>
      <trkpt lat="45.42461" lon="4.68781">
        <ele>372</ele>
        <time>2019-09-29T07:12:43.000Z</time>
      </trkpt>
      <trkpt lat="45.42459" lon="4.68787">
        <ele>372</ele>
        <time>2019-09-29T07:12:44.000Z</time>
      </trkpt>
      <trkpt lat="45.42457" lon="4.68792">
        <ele>371</ele>
        <time>2019-09-29T07:12:45.000Z</time>
      </trkpt>
      <trkpt lat="45.42455" lon="4.68796">
        <ele>371</ele>
        <time>2019-09-29T07:12:46.000Z</time>
      </trkpt>
      <trkpt lat="45.42453" lon="4.688">
        <ele>369.73999692804</ele>
        <time>2019-09-29T07:12:47.000Z</time>
      </trkpt>
      <trkpt lat="45.4245" lon="4.68804">
        <ele>369</ele>
        <time>2019-09-29T07:12:48.000Z</time>
      </trkpt>
      <trkpt lat="45.42447" lon="4.68806">
        <ele>368.73999692804</ele>
        <time>2019-09-29T07:12:49.000Z</time>
      </trkpt>
      <trkpt lat="45.42445" lon="4.68805">
        <ele>368</ele>
        <time>2019-09-29T07:12:50.000Z</time>
      </trkpt>
      <trkpt lat="45.42443" lon="4.68803">
        <ele>368</ele>
        <time>2019-09-29T07:12:51.000Z</time>
      </trkpt>
      <trkpt lat="45.42441" lon="4.68801">
        <ele>368</ele>
        <time>2019-09-29T07:12:52.000Z</time>
      </trkpt>
      <trkpt lat="45.42438" lon="4.68801">
        <ele>367.73999692804</ele>
        <time>2019-09-29T07:12:53.000Z</time>
      </trkpt>
      <trkpt lat="45.42435" lon="4.68803">
        <ele>367</ele>
        <time>2019-09-29T07:12:54.000Z</time>
      </trkpt>
      <trkpt lat="45.42431" lon="4.68807">
        <ele>366.73999692804</ele>
        <time>2019-09-29T07:12:55.000Z</time>
      </trkpt>
      <trkpt lat="45.42428" lon="4.6881">
        <ele>366</ele>
        <time>2019-09-29T07:12:56.000Z</time>
      </trkpt>
      <trkpt lat="45.42425" lon="4.68813">
        <ele>366</ele>
        <time>2019-09-29T07:12:57.000Z</time>
      </trkpt>
      <trkpt lat="45.42423" lon="4.68814">
        <ele>366</ele>
        <time>2019-09-29T07:12:58.000Z</time>
      </trkpt>
      <trkpt lat="45.42421" lon="4.68815">
        <ele>366</ele>
        <time>2019-09-29T07:12:59.000Z</time>
      </trkpt>
      <trkpt lat="45.42421" lon="4.68813">
        <ele>363.80153014862</ele>
        <time>2019-09-29T07:13:04.000Z</time>
      </trkpt>
      <trkpt lat="45.4242" lon="4.68816">
        <ele>362.74000307204</ele>
        <time>2019-09-29T07:13:08.000Z</time>
      </trkpt>
      <trkpt lat="45.42418" lon="4.68818">
        <ele>361.73999692804</ele>
        <time>2019-09-29T07:13:11.000Z</time>
      </trkpt>
      <trkpt lat="45.42419" lon="4.6882">
        <ele>360</ele>
        <time>2019-09-29T07:13:17.000Z</time>
      </trkpt>
      <trkpt lat="45.42421" lon="4.68818">
        <ele>358</ele>
        <time>2019-09-29T07:13:24.000Z</time>
      </trkpt>
      <trkpt lat="45.42422" lon="4.68815">
        <ele>357.74000307204</ele>
        <time>2019-09-29T07:13:26.000Z</time>
      </trkpt>
      <trkpt lat="45.42424" lon="4.68814">
        <ele>356</ele>
        <time>2019-09-29T07:13:29.000Z</time>
      </trkpt>
      <trkpt lat="45.42426" lon="4.68814">
        <ele>355</ele>
        <time>2019-09-29T07:13:32.000Z</time>
      </trkpt>
      <trkpt lat="45.42427" lon="4.68812">
        <ele>354</ele>
        <time>2019-09-29T07:13:36.000Z</time>
      </trkpt>
      <trkpt lat="45.42425" lon="4.68811">
        <ele>354</ele>
        <time>2019-09-29T07:13:39.000Z</time>
      </trkpt>
      <trkpt lat="45.42424" lon="4.68815">
        <ele>353.73999692804</ele>
        <time>2019-09-29T07:13:41.000Z</time>
      </trkpt>
      <trkpt lat="45.42423" lon="4.68817">
        <ele>353</ele>
        <time>2019-09-29T07:13:42.000Z</time>
      </trkpt>
      <trkpt lat="45.42423" lon="4.68822">
        <ele>353</ele>
        <time>2019-09-29T07:13:43.000Z</time>
      </trkpt>
      <trkpt lat="45.42424" lon="4.68827">
        <ele>352.74000307204</ele>
        <time>2019-09-29T07:13:44.000Z</time>
      </trkpt>
      <trkpt lat="45.42425" lon="4.68832">
        <ele>351.73999692804</ele>
        <time>2019-09-29T07:13:45.000Z</time>
      </trkpt>
      <trkpt lat="45.42428" lon="4.68837">
        <ele>351</ele>
        <time>2019-09-29T07:13:46.000Z</time>
      </trkpt>
      <trkpt lat="45.42431" lon="4.68842">
        <ele>350.7984461511</ele>
        <time>2019-09-29T07:13:47.000Z</time>
      </trkpt>
      <trkpt lat="45.42435" lon="4.68846">
        <ele>350.02325812149</ele>
        <time>2019-09-29T07:13:48.000Z</time>
      </trkpt>
      <trkpt lat="45.42438" lon="4.68851">
        <ele>349.73999692804</ele>
        <time>2019-09-29T07:13:49.000Z</time>
      </trkpt>
      <trkpt lat="45.42442" lon="4.68855">
        <ele>349</ele>
        <time>2019-09-29T07:13:50.000Z</time>
      </trkpt>
      <trkpt lat="45.42444" lon="4.68858">
        <ele>349</ele>
        <time>2019-09-29T07:13:51.000Z</time>
      </trkpt>
      <trkpt lat="45.42447" lon="4.68861">
        <ele>348.74000307204</ele>
        <time>2019-09-29T07:13:52.000Z</time>
      </trkpt>
      <trkpt lat="45.42449" lon="4.68863">
        <ele>348</ele>
        <time>2019-09-29T07:13:53.000Z</time>
      </trkpt>
      <trkpt lat="45.42451" lon="4.68865">
        <ele>348</ele>
        <time>2019-09-29T07:13:54.000Z</time>
      </trkpt>
      <trkpt lat="45.42452" lon="4.68868">
        <ele>348</ele>
        <time>2019-09-29T07:13:55.000Z</time>
      </trkpt>
      <trkpt lat="45.42453" lon="4.6887">
        <ele>347.74000307204</ele>
        <time>2019-09-29T07:13:56.000Z</time>
      </trkpt>
      <trkpt lat="45.42456" lon="4.68873">
        <ele>347</ele>
        <time>2019-09-29T07:13:58.000Z</time>
      </trkpt>
      <trkpt lat="45.42458" lon="4.68875">
        <ele>346</ele>
        <time>2019-09-29T07:14:00.000Z</time>
      </trkpt>
      <trkpt lat="45.42459" lon="4.68879">
        <ele>346</ele>
        <time>2019-09-29T07:14:02.000Z</time>
      </trkpt>
      <trkpt lat="45.42459" lon="4.68882">
        <ele>346</ele>
        <time>2019-09-29T07:14:04.000Z</time>
      </trkpt>
      <trkpt lat="45.4246" lon="4.68885">
        <ele>345.74000307204</ele>
        <time>2019-09-29T07:14:06.000Z</time>
      </trkpt>
      <trkpt lat="45.42461" lon="4.68887">
        <ele>345</ele>
        <time>2019-09-29T07:14:11.000Z</time>
      </trkpt>
      <trkpt lat="45.42463" lon="4.68891">
        <ele>345</ele>
        <time>2019-09-29T07:14:13.000Z</time>
      </trkpt>
      <trkpt lat="45.42464" lon="4.68895">
        <ele>345</ele>
        <time>2019-09-29T07:14:15.000Z</time>
      </trkpt>
      <trkpt lat="45.42464" lon="4.68899">
        <ele>344.73999692804</ele>
        <time>2019-09-29T07:14:17.000Z</time>
      </trkpt>
      <trkpt lat="45.42465" lon="4.68902">
        <ele>344</ele>
        <time>2019-09-29T07:14:19.000Z</time>
      </trkpt>
      <trkpt lat="45.42466" lon="4.68906">
        <ele>344</ele>
        <time>2019-09-29T07:14:21.000Z</time>
      </trkpt>
      <trkpt lat="45.42467" lon="4.6891">
        <ele>344</ele>
        <time>2019-09-29T07:14:23.000Z</time>
      </trkpt>
      <trkpt lat="45.42467" lon="4.68913">
        <ele>344</ele>
        <time>2019-09-29T07:14:25.000Z</time>
      </trkpt>
      <trkpt lat="45.42467" lon="4.68918">
        <ele>344</ele>
        <time>2019-09-29T07:14:27.000Z</time>
      </trkpt>
      <trkpt lat="45.42467" lon="4.68922">
        <ele>344</ele>
        <time>2019-09-29T07:14:29.000Z</time>
      </trkpt>
      <trkpt lat="45.42468" lon="4.68926">
        <ele>344</ele>
        <time>2019-09-29T07:14:31.000Z</time>
      </trkpt>
      <trkpt lat="45.42468" lon="4.6893">
        <ele>344.25742963235</ele>
        <time>2019-09-29T07:14:33.000Z</time>
      </trkpt>
      <trkpt lat="45.42469" lon="4.68934">
        <ele>345</ele>
        <time>2019-09-29T07:14:35.000Z</time>
      </trkpt>
      <trkpt lat="45.4247" lon="4.68938">
        <ele>345</ele>
        <time>2019-09-29T07:14:37.000Z</time>
      </trkpt>
      <trkpt lat="45.42471" lon="4.68942">
        <ele>345</ele>
        <time>2019-09-29T07:14:39.000Z</time>
      </trkpt>
      <trkpt lat="45.42472" lon="4.68946">
        <ele>345</ele>
        <time>2019-09-29T07:14:41.000Z</time>
      </trkpt>
      <trkpt lat="45.42472" lon="4.6895">
        <ele>345</ele>
        <time>2019-09-29T07:14:43.000Z</time>
      </trkpt>
      <trkpt lat="45.42473" lon="4.68953">
        <ele>346</ele>
        <time>2019-09-29T07:14:45.000Z</time>
      </trkpt>
      <trkpt lat="45.42473" lon="4.68956">
        <ele>346</ele>
        <time>2019-09-29T07:14:47.000Z</time>
      </trkpt>
      <trkpt lat="45.42473" lon="4.6896">
        <ele>346</ele>
        <time>2019-09-29T07:14:49.000Z</time>
      </trkpt>
      <trkpt lat="45.42474" lon="4.68964">
        <ele>346</ele>
        <time>2019-09-29T07:14:51.000Z</time>
      </trkpt>
      <trkpt lat="45.42474" lon="4.68968">
        <ele>347</ele>
        <time>2019-09-29T07:14:53.000Z</time>
      </trkpt>
      <trkpt lat="45.42474" lon="4.68971">
        <ele>347</ele>
        <time>2019-09-29T07:14:55.000Z</time>
      </trkpt>
      <trkpt lat="45.42474" lon="4.68974">
        <ele>348</ele>
        <time>2019-09-29T07:15:02.000Z</time>
      </trkpt>
      <trkpt lat="45.42475" lon="4.68977">
        <ele>349</ele>
        <time>2019-09-29T07:15:12.000Z</time>
      </trkpt>
      <trkpt lat="45.42475" lon="4.68979">
        <ele>349</ele>
        <time>2019-09-29T07:15:14.000Z</time>
      </trkpt>
      <trkpt lat="45.42475" lon="4.68983">
        <ele>349</ele>
        <time>2019-09-29T07:15:16.000Z</time>
      </trkpt>
      <trkpt lat="45.42477" lon="4.68988">
        <ele>349.97656</ele>
        <time>2019-09-29T07:15:18.000Z</time>
      </trkpt>
      <trkpt lat="45.42478" lon="4.68992">
        <ele>350</ele>
        <time>2019-09-29T07:15:20.000Z</time>
      </trkpt>
      <trkpt lat="45.42479" lon="4.68995">
        <ele>350</ele>
        <time>2019-09-29T07:15:21.000Z</time>
      </trkpt>
      <trkpt lat="45.4248" lon="4.68997">
        <ele>350.25999692796</ele>
        <time>2019-09-29T07:15:22.000Z</time>
      </trkpt>
      <trkpt lat="45.42481" lon="4.69001">
        <ele>351</ele>
        <time>2019-09-29T07:15:24.000Z</time>
      </trkpt>
      <trkpt lat="45.42482" lon="4.69006">
        <ele>351</ele>
        <time>2019-09-29T07:15:26.000Z</time>
      </trkpt>
      <trkpt lat="45.42483" lon="4.6901">
        <ele>351</ele>
        <time>2019-09-29T07:15:28.000Z</time>
      </trkpt>
      <trkpt lat="45.42483" lon="4.69013">
        <ele>351</ele>
        <time>2019-09-29T07:15:29.000Z</time>
      </trkpt>
      <trkpt lat="45.42484" lon="4.69017">
        <ele>351.26000307196</ele>
        <time>2019-09-29T07:15:31.000Z</time>
      </trkpt>
      <trkpt lat="45.42485" lon="4.69021">
        <ele>352</ele>
        <time>2019-09-29T07:15:33.000Z</time>
      </trkpt>
      <trkpt lat="45.42487" lon="4.69025">
        <ele>352</ele>
        <time>2019-09-29T07:15:35.000Z</time>
      </trkpt>
      <trkpt lat="45.42488" lon="4.69029">
        <ele>352</ele>
        <time>2019-09-29T07:15:37.000Z</time>
      </trkpt>
      <trkpt lat="45.42489" lon="4.69033">
        <ele>352</ele>
        <time>2019-09-29T07:15:39.000Z</time>
      </trkpt>
      <trkpt lat="45.4249" lon="4.69036">
        <ele>352.96183422413</ele>
        <time>2019-09-29T07:15:41.000Z</time>
      </trkpt>
      <trkpt lat="45.42492" lon="4.6904">
        <ele>353</ele>
        <time>2019-09-29T07:15:43.000Z</time>
      </trkpt>
      <trkpt lat="45.42493" lon="4.69043">
        <ele>354</ele>
        <time>2019-09-29T07:15:45.000Z</time>
      </trkpt>
      <trkpt lat="45.42495" lon="4.69047">
        <ele>354</ele>
        <time>2019-09-29T07:15:47.000Z</time>
      </trkpt>
      <trkpt lat="45.42496" lon="4.69051">
        <ele>354</ele>
        <time>2019-09-29T07:15:49.000Z</time>
      </trkpt>
      <trkpt lat="45.42497" lon="4.69055">
        <ele>354.26000307196</ele>
        <time>2019-09-29T07:15:51.000Z</time>
      </trkpt>
      <trkpt lat="45.42498" lon="4.69059">
        <ele>355</ele>
        <time>2019-09-29T07:15:53.000Z</time>
      </trkpt>
      <trkpt lat="45.42498" lon="4.69064">
        <ele>355</ele>
        <time>2019-09-29T07:15:55.000Z</time>
      </trkpt>
      <trkpt lat="45.42499" lon="4.69069">
        <ele>355</ele>
        <time>2019-09-29T07:15:57.000Z</time>
      </trkpt>
      <trkpt lat="45.42499" lon="4.69071">
        <ele>355.25999692796</ele>
        <time>2019-09-29T07:15:58.000Z</time>
      </trkpt>
      <trkpt lat="45.42501" lon="4.69075">
        <ele>356</ele>
        <time>2019-09-29T07:16:00.000Z</time>
      </trkpt>
      <trkpt lat="45.42502" lon="4.69079">
        <ele>356</ele>
        <time>2019-09-29T07:16:02.000Z</time>
      </trkpt>
      <trkpt lat="45.42503" lon="4.69084">
        <ele>356.25999692796</ele>
        <time>2019-09-29T07:16:04.000Z</time>
      </trkpt>
      <trkpt lat="45.42504" lon="4.69086">
        <ele>357</ele>
        <time>2019-09-29T07:16:05.000Z</time>
      </trkpt>
      <trkpt lat="45.42505" lon="4.69091">
        <ele>357</ele>
        <time>2019-09-29T07:16:07.000Z</time>
      </trkpt>
      <trkpt lat="45.42505" lon="4.69096">
        <ele>357.25490663588</ele>
        <time>2019-09-29T07:16:09.000Z</time>
      </trkpt>
      <trkpt lat="45.42506" lon="4.69099">
        <ele>358</ele>
        <time>2019-09-29T07:16:10.000Z</time>
      </trkpt>
      <trkpt lat="45.42506" lon="4.69101">
        <ele>358</ele>
        <time>2019-09-29T07:16:11.000Z</time>
      </trkpt>
      <trkpt lat="45.42507" lon="4.69106">
        <ele>358</ele>
        <time>2019-09-29T07:16:13.000Z</time>
      </trkpt>
      <trkpt lat="45.42508" lon="4.69109">
        <ele>359</ele>
        <time>2019-09-29T07:16:15.000Z</time>
      </trkpt>
      <trkpt lat="45.42508" lon="4.69114">
        <ele>359.26000307196</ele>
        <time>2019-09-29T07:16:17.000Z</time>
      </trkpt>
      <trkpt lat="45.42508" lon="4.69117">
        <ele>360</ele>
        <time>2019-09-29T07:16:18.000Z</time>
      </trkpt>
      <trkpt lat="45.42509" lon="4.6912">
        <ele>360</ele>
        <time>2019-09-29T07:16:19.000Z</time>
      </trkpt>
      <trkpt lat="45.42509" lon="4.69123">
        <ele>360</ele>
        <time>2019-09-29T07:16:20.000Z</time>
      </trkpt>
      <trkpt lat="45.4251" lon="4.69126">
        <ele>360.24489635986</ele>
        <time>2019-09-29T07:16:21.000Z</time>
      </trkpt>
      <trkpt lat="45.4251" lon="4.69129">
        <ele>361</ele>
        <time>2019-09-29T07:16:22.000Z</time>
      </trkpt>
      <trkpt lat="45.4251" lon="4.69131">
        <ele>361</ele>
        <time>2019-09-29T07:16:23.000Z</time>
      </trkpt>
      <trkpt lat="45.42511" lon="4.69134">
        <ele>361</ele>
        <time>2019-09-29T07:16:24.000Z</time>
      </trkpt>
      <trkpt lat="45.42511" lon="4.69137">
        <ele>361</ele>
        <time>2019-09-29T07:16:25.000Z</time>
      </trkpt>
      <trkpt lat="45.42512" lon="4.6914">
        <ele>361.25999692796</ele>
        <time>2019-09-29T07:16:26.000Z</time>
      </trkpt>
      <trkpt lat="45.42513" lon="4.69144">
        <ele>362</ele>
        <time>2019-09-29T07:16:28.000Z</time>
      </trkpt>
      <trkpt lat="45.42513" lon="4.69148">
        <ele>362</ele>
        <time>2019-09-29T07:16:30.000Z</time>
      </trkpt>
      <trkpt lat="45.42515" lon="4.69152">
        <ele>362</ele>
        <time>2019-09-29T07:16:55.000Z</time>
      </trkpt>
      <trkpt lat="45.42516" lon="4.69154">
        <ele>362</ele>
        <time>2019-09-29T07:16:56.000Z</time>
      </trkpt>
      <trkpt lat="45.42517" lon="4.69157">
        <ele>362</ele>
        <time>2019-09-29T07:16:57.000Z</time>
      </trkpt>
      <trkpt lat="45.42519" lon="4.69159">
        <ele>362</ele>
        <time>2019-09-29T07:16:58.000Z</time>
      </trkpt>
      <trkpt lat="45.4252" lon="4.69161">
        <ele>362</ele>
        <time>2019-09-29T07:16:59.000Z</time>
      </trkpt>
      <trkpt lat="45.42522" lon="4.69165">
        <ele>362.26000307196</ele>
        <time>2019-09-29T07:17:01.000Z</time>
      </trkpt>
      <trkpt lat="45.42523" lon="4.69169">
        <ele>363</ele>
        <time>2019-09-29T07:17:03.000Z</time>
      </trkpt>
      <trkpt lat="45.42525" lon="4.69172">
        <ele>363</ele>
        <time>2019-09-29T07:17:05.000Z</time>
      </trkpt>
      <trkpt lat="45.42527" lon="4.69176">
        <ele>363</ele>
        <time>2019-09-29T07:17:07.000Z</time>
      </trkpt>
      <trkpt lat="45.42529" lon="4.69179">
        <ele>363</ele>
        <time>2019-09-29T07:17:08.000Z</time>
      </trkpt>
      <trkpt lat="45.42531" lon="4.69182">
        <ele>363</ele>
        <time>2019-09-29T07:17:09.000Z</time>
      </trkpt>
      <trkpt lat="45.42532" lon="4.69185">
        <ele>363</ele>
        <time>2019-09-29T07:17:10.000Z</time>
      </trkpt>
      <trkpt lat="45.42534" lon="4.69188">
        <ele>363</ele>
        <time>2019-09-29T07:17:11.000Z</time>
      </trkpt>
      <trkpt lat="45.42536" lon="4.6919">
        <ele>363</ele>
        <time>2019-09-29T07:17:12.000Z</time>
      </trkpt>
      <trkpt lat="45.42538" lon="4.69193">
        <ele>363</ele>
        <time>2019-09-29T07:17:13.000Z</time>
      </trkpt>
      <trkpt lat="45.42539" lon="4.69195">
        <ele>363</ele>
        <time>2019-09-29T07:17:14.000Z</time>
      </trkpt>
      <trkpt lat="45.42541" lon="4.69198">
        <ele>363</ele>
        <time>2019-09-29T07:17:15.000Z</time>
      </trkpt>
      <trkpt lat="45.42543" lon="4.69201">
        <ele>363</ele>
        <time>2019-09-29T07:17:16.000Z</time>
      </trkpt>
      <trkpt lat="45.42544" lon="4.69204">
        <ele>363</ele>
        <time>2019-09-29T07:17:17.000Z</time>
      </trkpt>
      <trkpt lat="45.42546" lon="4.69207">
        <ele>363</ele>
        <time>2019-09-29T07:17:18.000Z</time>
      </trkpt>
      <trkpt lat="45.42548" lon="4.69211">
        <ele>363</ele>
        <time>2019-09-29T07:17:19.000Z</time>
      </trkpt>
      <trkpt lat="45.4255" lon="4.69214">
        <ele>363</ele>
        <time>2019-09-29T07:17:20.000Z</time>
      </trkpt>
      <trkpt lat="45.42552" lon="4.69218">
        <ele>363</ele>
        <time>2019-09-29T07:17:21.000Z</time>
      </trkpt>
      <trkpt lat="45.42554" lon="4.69221">
        <ele>363</ele>
        <time>2019-09-29T07:17:22.000Z</time>
      </trkpt>
      <trkpt lat="45.42556" lon="4.69224">
        <ele>363</ele>
        <time>2019-09-29T07:17:23.000Z</time>
      </trkpt>
      <trkpt lat="45.42559" lon="4.69227">
        <ele>363.74000307204</ele>
        <time>2019-09-29T07:17:24.000Z</time>
      </trkpt>
      <trkpt lat="45.42561" lon="4.69231">
        <ele>363</ele>
        <time>2019-09-29T07:17:25.000Z</time>
      </trkpt>
      <trkpt lat="45.42563" lon="4.69235">
        <ele>363</ele>
        <time>2019-09-29T07:17:26.000Z</time>
      </trkpt>
      <trkpt lat="45.42565" lon="4.69238">
        <ele>363</ele>
        <time>2019-09-29T07:17:27.000Z</time>
      </trkpt>
      <trkpt lat="45.42567" lon="4.69242">
        <ele>363</ele>
        <time>2019-09-29T07:17:28.000Z</time>
      </trkpt>
      <trkpt lat="45.42569" lon="4.69246">
        <ele>363</ele>
        <time>2019-09-29T07:17:29.000Z</time>
      </trkpt>
      <trkpt lat="45.42571" lon="4.6925">
        <ele>363</ele>
        <time>2019-09-29T07:17:30.000Z</time>
      </trkpt>
      <trkpt lat="45.42573" lon="4.69255">
        <ele>363</ele>
        <time>2019-09-29T07:17:31.000Z</time>
      </trkpt>
      <trkpt lat="45.42574" lon="4.6926">
        <ele>363</ele>
        <time>2019-09-29T07:17:32.000Z</time>
      </trkpt>
      <trkpt lat="45.42575" lon="4.69265">
        <ele>363</ele>
        <time>2019-09-29T07:17:33.000Z</time>
      </trkpt>
      <trkpt lat="45.42576" lon="4.69271">
        <ele>363</ele>
        <time>2019-09-29T07:17:34.000Z</time>
      </trkpt>
      <trkpt lat="45.42576" lon="4.69276">
        <ele>363</ele>
        <time>2019-09-29T07:17:35.000Z</time>
      </trkpt>
      <trkpt lat="45.42576" lon="4.69281">
        <ele>363</ele>
        <time>2019-09-29T07:17:36.000Z</time>
      </trkpt>
      <trkpt lat="45.42575" lon="4.69285">
        <ele>363</ele>
        <time>2019-09-29T07:17:37.000Z</time>
      </trkpt>
      <trkpt lat="45.42574" lon="4.6929">
        <ele>363</ele>
        <time>2019-09-29T07:17:38.000Z</time>
      </trkpt>
      <trkpt lat="45.42573" lon="4.69294">
        <ele>363</ele>
        <time>2019-09-29T07:17:39.000Z</time>
      </trkpt>
      <trkpt lat="45.42572" lon="4.69297">
        <ele>363</ele>
        <time>2019-09-29T07:17:40.000Z</time>
      </trkpt>
      <trkpt lat="45.42572" lon="4.693">
        <ele>363</ele>
        <time>2019-09-29T07:17:44.000Z</time>
      </trkpt>
      <trkpt lat="45.42572" lon="4.69305">
        <ele>363</ele>
        <time>2019-09-29T07:17:46.000Z</time>
      </trkpt>
      <trkpt lat="45.42572" lon="4.69311">
        <ele>363</ele>
        <time>2019-09-29T07:17:47.000Z</time>
      </trkpt>
      <trkpt lat="45.42572" lon="4.69318">
        <ele>363</ele>
        <time>2019-09-29T07:17:48.000Z</time>
      </trkpt>
      <trkpt lat="45.42571" lon="4.69323">
        <ele>363</ele>
        <time>2019-09-29T07:17:49.000Z</time>
      </trkpt>
      <trkpt lat="45.42571" lon="4.69329">
        <ele>363</ele>
        <time>2019-09-29T07:17:50.000Z</time>
      </trkpt>
      <trkpt lat="45.42571" lon="4.69334">
        <ele>363</ele>
        <time>2019-09-29T07:17:51.000Z</time>
      </trkpt>
      <trkpt lat="45.4257" lon="4.69337">
        <ele>363</ele>
        <time>2019-09-29T07:17:52.000Z</time>
      </trkpt>
      <trkpt lat="45.4257" lon="4.69341">
        <ele>363</ele>
        <time>2019-09-29T07:17:53.000Z</time>
      </trkpt>
      <trkpt lat="45.42569" lon="4.69346">
        <ele>363</ele>
        <time>2019-09-29T07:17:54.000Z</time>
      </trkpt>
      <trkpt lat="45.42569" lon="4.69351">
        <ele>363</ele>
        <time>2019-09-29T07:17:55.000Z</time>
      </trkpt>
      <trkpt lat="45.42568" lon="4.69355">
        <ele>363</ele>
        <time>2019-09-29T07:17:56.000Z</time>
      </trkpt>
      <trkpt lat="45.42567" lon="4.69359">
        <ele>363.26000307196</ele>
        <time>2019-09-29T07:17:57.000Z</time>
      </trkpt>
      <trkpt lat="45.42567" lon="4.69363">
        <ele>364</ele>
        <time>2019-09-29T07:17:58.000Z</time>
      </trkpt>
      <trkpt lat="45.42567" lon="4.69366">
        <ele>364</ele>
        <time>2019-09-29T07:17:59.000Z</time>
      </trkpt>
      <trkpt lat="45.42566" lon="4.69371">
        <ele>364</ele>
        <time>2019-09-29T07:18:00.000Z</time>
      </trkpt>
      <trkpt lat="45.42565" lon="4.69374">
        <ele>364</ele>
        <time>2019-09-29T07:18:01.000Z</time>
      </trkpt>
      <trkpt lat="45.42565" lon="4.69378">
        <ele>364</ele>
        <time>2019-09-29T07:18:02.000Z</time>
      </trkpt>
      <trkpt lat="45.42564" lon="4.69381">
        <ele>364</ele>
        <time>2019-09-29T07:18:03.000Z</time>
      </trkpt>
      <trkpt lat="45.42563" lon="4.69384">
        <ele>364</ele>
        <time>2019-09-29T07:18:04.000Z</time>
      </trkpt>
      <trkpt lat="45.42562" lon="4.69387">
        <ele>364</ele>
        <time>2019-09-29T07:18:05.000Z</time>
      </trkpt>
      <trkpt lat="45.42561" lon="4.69389">
        <ele>364.25999692796</ele>
        <time>2019-09-29T07:18:06.000Z</time>
      </trkpt>
      <trkpt lat="45.4256" lon="4.69392">
        <ele>365</ele>
        <time>2019-09-29T07:18:07.000Z</time>
      </trkpt>
      <trkpt lat="45.42558" lon="4.69396">
        <ele>365</ele>
        <time>2019-09-29T07:18:09.000Z</time>
      </trkpt>
      <trkpt lat="45.42557" lon="4.694">
        <ele>365</ele>
        <time>2019-09-29T07:18:11.000Z</time>
      </trkpt>
      <trkpt lat="45.42556" lon="4.69405">
        <ele>366</ele>
        <time>2019-09-29T07:18:13.000Z</time>
      </trkpt>
      <trkpt lat="45.42556" lon="4.69407">
        <ele>366</ele>
        <time>2019-09-29T07:18:14.000Z</time>
      </trkpt>
      <trkpt lat="45.42557" lon="4.6941">
        <ele>366</ele>
        <time>2019-09-29T07:18:15.000Z</time>
      </trkpt>
      <trkpt lat="45.42557" lon="4.69413">
        <ele>366</ele>
        <time>2019-09-29T07:18:16.000Z</time>
      </trkpt>
      <trkpt lat="45.42558" lon="4.69416">
        <ele>366</ele>
        <time>2019-09-29T07:18:17.000Z</time>
      </trkpt>
      <trkpt lat="45.42558" lon="4.69419">
        <ele>366.19846985138</ele>
        <time>2019-09-29T07:18:18.000Z</time>
      </trkpt>
      <trkpt lat="45.42559" lon="4.69422">
        <ele>366.96183422413</ele>
        <time>2019-09-29T07:18:19.000Z</time>
      </trkpt>
      <trkpt lat="45.4256" lon="4.69425">
        <ele>367</ele>
        <time>2019-09-29T07:18:20.000Z</time>
      </trkpt>
      <trkpt lat="45.42561" lon="4.69428">
        <ele>367</ele>
        <time>2019-09-29T07:18:21.000Z</time>
      </trkpt>
      <trkpt lat="45.42562" lon="4.69431">
        <ele>367</ele>
        <time>2019-09-29T07:18:22.000Z</time>
      </trkpt>
      <trkpt lat="45.42563" lon="4.69434">
        <ele>367</ele>
        <time>2019-09-29T07:18:23.000Z</time>
      </trkpt>
      <trkpt lat="45.42563" lon="4.69436">
        <ele>367.25999692796</ele>
        <time>2019-09-29T07:18:24.000Z</time>
      </trkpt>
      <trkpt lat="45.42564" lon="4.69441">
        <ele>368</ele>
        <time>2019-09-29T07:18:26.000Z</time>
      </trkpt>
      <trkpt lat="45.42565" lon="4.69446">
        <ele>368</ele>
        <time>2019-09-29T07:18:28.000Z</time>
      </trkpt>
      <trkpt lat="45.42565" lon="4.69449">
        <ele>368</ele>
        <time>2019-09-29T07:18:30.000Z</time>
      </trkpt>
      <trkpt lat="45.42567" lon="4.69451">
        <ele>368</ele>
        <time>2019-09-29T07:18:32.000Z</time>
      </trkpt>
      <trkpt lat="45.42569" lon="4.69456">
        <ele>368</ele>
        <time>2019-09-29T07:18:34.000Z</time>
      </trkpt>
      <trkpt lat="45.4257" lon="4.69459">
        <ele>368</ele>
        <time>2019-09-29T07:18:35.000Z</time>
      </trkpt>
      <trkpt lat="45.4257" lon="4.69463">
        <ele>368.25999692796</ele>
        <time>2019-09-29T07:18:36.000Z</time>
      </trkpt>
      <trkpt lat="45.42571" lon="4.69466">
        <ele>369</ele>
        <time>2019-09-29T07:18:37.000Z</time>
      </trkpt>
      <trkpt lat="45.42571" lon="4.6947">
        <ele>369</ele>
        <time>2019-09-29T07:18:38.000Z</time>
      </trkpt>
      <trkpt lat="45.42571" lon="4.69474">
        <ele>369</ele>
        <time>2019-09-29T07:18:39.000Z</time>
      </trkpt>
      <trkpt lat="45.42572" lon="4.69478">
        <ele>369</ele>
        <time>2019-09-29T07:18:40.000Z</time>
      </trkpt>
      <trkpt lat="45.42572" lon="4.69482">
        <ele>369</ele>
        <time>2019-09-29T07:18:41.000Z</time>
      </trkpt>
      <trkpt lat="45.42572" lon="4.69486">
        <ele>369</ele>
        <time>2019-09-29T07:18:42.000Z</time>
      </trkpt>
      <trkpt lat="45.42573" lon="4.6949">
        <ele>369</ele>
        <time>2019-09-29T07:18:43.000Z</time>
      </trkpt>
      <trkpt lat="45.42573" lon="4.69493">
        <ele>369</ele>
        <time>2019-09-29T07:18:44.000Z</time>
      </trkpt>
      <trkpt lat="45.42573" lon="4.69497">
        <ele>369</ele>
        <time>2019-09-29T07:18:45.000Z</time>
      </trkpt>
      <trkpt lat="45.42573" lon="4.695">
        <ele>369</ele>
        <time>2019-09-29T07:18:54.000Z</time>
      </trkpt>
      <trkpt lat="45.42574" lon="4.69505">
        <ele>369.25999692796</ele>
        <time>2019-09-29T07:18:56.000Z</time>
      </trkpt>
      <trkpt lat="45.42574" lon="4.69508">
        <ele>370</ele>
        <time>2019-09-29T07:18:57.000Z</time>
      </trkpt>
      <trkpt lat="45.42574" lon="4.69511">
        <ele>370</ele>
        <time>2019-09-29T07:18:58.000Z</time>
      </trkpt>
      <trkpt lat="45.42574" lon="4.69514">
        <ele>370</ele>
        <time>2019-09-29T07:18:59.000Z</time>
      </trkpt>
      <trkpt lat="45.42575" lon="4.69517">
        <ele>370</ele>
        <time>2019-09-29T07:19:00.000Z</time>
      </trkpt>
      <trkpt lat="45.42575" lon="4.6952">
        <ele>370</ele>
        <time>2019-09-29T07:19:01.000Z</time>
      </trkpt>
      <trkpt lat="45.42575" lon="4.69523">
        <ele>370</ele>
        <time>2019-09-29T07:19:02.000Z</time>
      </trkpt>
      <trkpt lat="45.42575" lon="4.69527">
        <ele>370.26000307196</ele>
        <time>2019-09-29T07:19:03.000Z</time>
      </trkpt>
      <trkpt lat="45.42575" lon="4.6953">
        <ele>371</ele>
        <time>2019-09-29T07:19:04.000Z</time>
      </trkpt>
      <trkpt lat="45.42575" lon="4.69533">
        <ele>371</ele>
        <time>2019-09-29T07:19:05.000Z</time>
      </trkpt>
      <trkpt lat="45.42575" lon="4.69537">
        <ele>371</ele>
        <time>2019-09-29T07:19:07.000Z</time>
      </trkpt>
      <trkpt lat="45.42577" lon="4.69538">
        <ele>372</ele>
        <time>2019-09-29T07:19:29.000Z</time>
      </trkpt>
      <trkpt lat="45.42577" lon="4.69541">
        <ele>373</ele>
        <time>2019-09-29T07:19:32.000Z</time>
      </trkpt>
      <trkpt lat="45.42576" lon="4.69544">
        <ele>373</ele>
        <time>2019-09-29T07:19:34.000Z</time>
      </trkpt>
      <trkpt lat="45.42577" lon="4.69547">
        <ele>373</ele>
        <time>2019-09-29T07:19:35.000Z</time>
      </trkpt>
      <trkpt lat="45.42577" lon="4.69551">
        <ele>373</ele>
        <time>2019-09-29T07:19:36.000Z</time>
      </trkpt>
      <trkpt lat="45.42578" lon="4.69554">
        <ele>373</ele>
        <time>2019-09-29T07:19:37.000Z</time>
      </trkpt>
      <trkpt lat="45.42578" lon="4.69557">
        <ele>373</ele>
        <time>2019-09-29T07:19:38.000Z</time>
      </trkpt>
      <trkpt lat="45.42579" lon="4.69561">
        <ele>373</ele>
        <time>2019-09-29T07:19:39.000Z</time>
      </trkpt>
      <trkpt lat="45.42579" lon="4.69565">
        <ele>373</ele>
        <time>2019-09-29T07:19:40.000Z</time>
      </trkpt>
      <trkpt lat="45.42579" lon="4.69569">
        <ele>373</ele>
        <time>2019-09-29T07:19:41.000Z</time>
      </trkpt>
      <trkpt lat="45.4258" lon="4.69573">
        <ele>373.25999692796</ele>
        <time>2019-09-29T07:19:42.000Z</time>
      </trkpt>
      <trkpt lat="45.4258" lon="4.69577">
        <ele>374</ele>
        <time>2019-09-29T07:19:43.000Z</time>
      </trkpt>
      <trkpt lat="45.4258" lon="4.69581">
        <ele>374</ele>
        <time>2019-09-29T07:19:44.000Z</time>
      </trkpt>
      <trkpt lat="45.42581" lon="4.69585">
        <ele>374</ele>
        <time>2019-09-29T07:19:45.000Z</time>
      </trkpt>
      <trkpt lat="45.42581" lon="4.69589">
        <ele>374</ele>
        <time>2019-09-29T07:19:46.000Z</time>
      </trkpt>
      <trkpt lat="45.42581" lon="4.69593">
        <ele>374</ele>
        <time>2019-09-29T07:19:47.000Z</time>
      </trkpt>
      <trkpt lat="45.42582" lon="4.69596">
        <ele>374</ele>
        <time>2019-09-29T07:19:48.000Z</time>
      </trkpt>
      <trkpt lat="45.42582" lon="4.696">
        <ele>374</ele>
        <time>2019-09-29T07:19:49.000Z</time>
      </trkpt>
      <trkpt lat="45.42582" lon="4.69603">
        <ele>374</ele>
        <time>2019-09-29T07:19:50.000Z</time>
      </trkpt>
      <trkpt lat="45.42582" lon="4.69606">
        <ele>374.26000307196</ele>
        <time>2019-09-29T07:19:51.000Z</time>
      </trkpt>
      <trkpt lat="45.42583" lon="4.6961">
        <ele>375</ele>
        <time>2019-09-29T07:19:52.000Z</time>
      </trkpt>
      <trkpt lat="45.42583" lon="4.69614">
        <ele>375</ele>
        <time>2019-09-29T07:19:53.000Z</time>
      </trkpt>
      <trkpt lat="45.42583" lon="4.69618">
        <ele>375</ele>
        <time>2019-09-29T07:19:54.000Z</time>
      </trkpt>
      <trkpt lat="45.42584" lon="4.69622">
        <ele>375</ele>
        <time>2019-09-29T07:19:55.000Z</time>
      </trkpt>
      <trkpt lat="45.42585" lon="4.69626">
        <ele>375</ele>
        <time>2019-09-29T07:19:56.000Z</time>
      </trkpt>
      <trkpt lat="45.42587" lon="4.6963">
        <ele>375</ele>
        <time>2019-09-29T07:19:57.000Z</time>
      </trkpt>
      <trkpt lat="45.42588" lon="4.69633">
        <ele>375.25999692796</ele>
        <time>2019-09-29T07:19:58.000Z</time>
      </trkpt>
      <trkpt lat="45.42589" lon="4.69636">
        <ele>376</ele>
        <time>2019-09-29T07:19:59.000Z</time>
      </trkpt>
      <trkpt lat="45.4259" lon="4.69639">
        <ele>376</ele>
        <time>2019-09-29T07:20:00.000Z</time>
      </trkpt>
      <trkpt lat="45.42592" lon="4.69641">
        <ele>377</ele>
        <time>2019-09-29T07:20:28.000Z</time>
      </trkpt>
      <trkpt lat="45.42593" lon="4.69643">
        <ele>377.26000307196</ele>
        <time>2019-09-29T07:20:29.000Z</time>
      </trkpt>
      <trkpt lat="45.42595" lon="4.69645">
        <ele>378</ele>
        <time>2019-09-29T07:20:30.000Z</time>
      </trkpt>
      <trkpt lat="45.42596" lon="4.69648">
        <ele>378</ele>
        <time>2019-09-29T07:20:31.000Z</time>
      </trkpt>
      <trkpt lat="45.42598" lon="4.6965">
        <ele>378</ele>
        <time>2019-09-29T07:20:32.000Z</time>
      </trkpt>
      <trkpt lat="45.42599" lon="4.69653">
        <ele>378</ele>
        <time>2019-09-29T07:20:33.000Z</time>
      </trkpt>
      <trkpt lat="45.426" lon="4.69656">
        <ele>378</ele>
        <time>2019-09-29T07:20:34.000Z</time>
      </trkpt>
      <trkpt lat="45.42601" lon="4.69658">
        <ele>378</ele>
        <time>2019-09-29T07:20:35.000Z</time>
      </trkpt>
      <trkpt lat="45.42602" lon="4.69661">
        <ele>378</ele>
        <time>2019-09-29T07:20:36.000Z</time>
      </trkpt>
      <trkpt lat="45.42604" lon="4.69665">
        <ele>378</ele>
        <time>2019-09-29T07:20:38.000Z</time>
      </trkpt>
      <trkpt lat="45.42605" lon="4.69668">
        <ele>378</ele>
        <time>2019-09-29T07:20:39.000Z</time>
      </trkpt>
      <trkpt lat="45.42606" lon="4.69671">
        <ele>378</ele>
        <time>2019-09-29T07:20:40.000Z</time>
      </trkpt>
      <trkpt lat="45.42607" lon="4.69674">
        <ele>378</ele>
        <time>2019-09-29T07:20:41.000Z</time>
      </trkpt>
      <trkpt lat="45.42608" lon="4.69677">
        <ele>379</ele>
        <time>2019-09-29T07:20:42.000Z</time>
      </trkpt>
      <trkpt lat="45.42609" lon="4.6968">
        <ele>379</ele>
        <time>2019-09-29T07:20:43.000Z</time>
      </trkpt>
      <trkpt lat="45.4261" lon="4.69682">
        <ele>379</ele>
        <time>2019-09-29T07:20:44.000Z</time>
      </trkpt>
      <trkpt lat="45.42611" lon="4.69687">
        <ele>379</ele>
        <time>2019-09-29T07:20:46.000Z</time>
      </trkpt>
      <trkpt lat="45.42612" lon="4.69691">
        <ele>379</ele>
        <time>2019-09-29T07:20:47.000Z</time>
      </trkpt>
      <trkpt lat="45.42613" lon="4.69694">
        <ele>379</ele>
        <time>2019-09-29T07:20:48.000Z</time>
      </trkpt>
      <trkpt lat="45.42614" lon="4.69697">
        <ele>379</ele>
        <time>2019-09-29T07:20:49.000Z</time>
      </trkpt>
      <trkpt lat="45.42616" lon="4.69701">
        <ele>379</ele>
        <time>2019-09-29T07:20:50.000Z</time>
      </trkpt>
      <trkpt lat="45.42617" lon="4.69704">
        <ele>379</ele>
        <time>2019-09-29T07:20:51.000Z</time>
      </trkpt>
      <trkpt lat="45.42619" lon="4.69708">
        <ele>379</ele>
        <time>2019-09-29T07:20:52.000Z</time>
      </trkpt>
      <trkpt lat="45.4262" lon="4.69712">
        <ele>379</ele>
        <time>2019-09-29T07:20:53.000Z</time>
      </trkpt>
      <trkpt lat="45.42621" lon="4.69716">
        <ele>379</ele>
        <time>2019-09-29T07:20:54.000Z</time>
      </trkpt>
      <trkpt lat="45.42622" lon="4.69721">
        <ele>379</ele>
        <time>2019-09-29T07:20:55.000Z</time>
      </trkpt>
      <trkpt lat="45.42623" lon="4.69725">
        <ele>379</ele>
        <time>2019-09-29T07:20:56.000Z</time>
      </trkpt>
      <trkpt lat="45.42624" lon="4.69729">
        <ele>379.2499968</ele>
        <time>2019-09-29T07:20:57.000Z</time>
      </trkpt>
      <trkpt lat="45.42624" lon="4.69734">
        <ele>379.7500032</ele>
        <time>2019-09-29T07:20:58.000Z</time>
      </trkpt>
      <trkpt lat="45.42624" lon="4.69739">
        <ele>379</ele>
        <time>2019-09-29T07:20:59.000Z</time>
      </trkpt>
      <trkpt lat="45.42625" lon="4.69744">
        <ele>379</ele>
        <time>2019-09-29T07:21:00.000Z</time>
      </trkpt>
      <trkpt lat="45.42626" lon="4.69749">
        <ele>379</ele>
        <time>2019-09-29T07:21:01.000Z</time>
      </trkpt>
      <trkpt lat="45.42626" lon="4.69754">
        <ele>379</ele>
        <time>2019-09-29T07:21:02.000Z</time>
      </trkpt>
      <trkpt lat="45.42626" lon="4.69759">
        <ele>379</ele>
        <time>2019-09-29T07:21:03.000Z</time>
      </trkpt>
      <trkpt lat="45.42627" lon="4.69764">
        <ele>380</ele>
        <time>2019-09-29T07:21:04.000Z</time>
      </trkpt>
      <trkpt lat="45.42627" lon="4.69769">
        <ele>379.73999692804</ele>
        <time>2019-09-29T07:21:05.000Z</time>
      </trkpt>
      <trkpt lat="45.42628" lon="4.69773">
        <ele>379</ele>
        <time>2019-09-29T07:21:06.000Z</time>
      </trkpt>
      <trkpt lat="45.42628" lon="4.69777">
        <ele>379</ele>
        <time>2019-09-29T07:21:07.000Z</time>
      </trkpt>
      <trkpt lat="45.42628" lon="4.69781">
        <ele>379</ele>
        <time>2019-09-29T07:21:08.000Z</time>
      </trkpt>
      <trkpt lat="45.42629" lon="4.69786">
        <ele>379</ele>
        <time>2019-09-29T07:21:09.000Z</time>
      </trkpt>
      <trkpt lat="45.42629" lon="4.6979">
        <ele>379</ele>
        <time>2019-09-29T07:21:10.000Z</time>
      </trkpt>
      <trkpt lat="45.42628" lon="4.69795">
        <ele>379</ele>
        <time>2019-09-29T07:21:11.000Z</time>
      </trkpt>
      <trkpt lat="45.42628" lon="4.69801">
        <ele>379</ele>
        <time>2019-09-29T07:21:12.000Z</time>
      </trkpt>
      <trkpt lat="45.42626" lon="4.69806">
        <ele>379</ele>
        <time>2019-09-29T07:21:13.000Z</time>
      </trkpt>
      <trkpt lat="45.42624" lon="4.69811">
        <ele>379.25999692796</ele>
        <time>2019-09-29T07:21:14.000Z</time>
      </trkpt>
      <trkpt lat="45.42622" lon="4.69816">
        <ele>380</ele>
        <time>2019-09-29T07:21:15.000Z</time>
      </trkpt>
      <trkpt lat="45.4262" lon="4.69822">
        <ele>380</ele>
        <time>2019-09-29T07:21:16.000Z</time>
      </trkpt>
      <trkpt lat="45.42618" lon="4.69827">
        <ele>380</ele>
        <time>2019-09-29T07:21:17.000Z</time>
      </trkpt>
      <trkpt lat="45.42616" lon="4.69833">
        <ele>380</ele>
        <time>2019-09-29T07:21:18.000Z</time>
      </trkpt>
      <trkpt lat="45.42614" lon="4.69838">
        <ele>380</ele>
        <time>2019-09-29T07:21:19.000Z</time>
      </trkpt>
      <trkpt lat="45.42612" lon="4.69844">
        <ele>380</ele>
        <time>2019-09-29T07:21:20.000Z</time>
      </trkpt>
      <trkpt lat="45.4261" lon="4.69849">
        <ele>380</ele>
        <time>2019-09-29T07:21:21.000Z</time>
      </trkpt>
      <trkpt lat="45.42607" lon="4.69855">
        <ele>380</ele>
        <time>2019-09-29T07:21:22.000Z</time>
      </trkpt>
      <trkpt lat="45.42605" lon="4.6986">
        <ele>380</ele>
        <time>2019-09-29T07:21:23.000Z</time>
      </trkpt>
      <trkpt lat="45.42603" lon="4.69864">
        <ele>379.74000307204</ele>
        <time>2019-09-29T07:21:24.000Z</time>
      </trkpt>
      <trkpt lat="45.426" lon="4.69869">
        <ele>379</ele>
        <time>2019-09-29T07:21:25.000Z</time>
      </trkpt>
      <trkpt lat="45.42598" lon="4.69873">
        <ele>379</ele>
        <time>2019-09-29T07:21:26.000Z</time>
      </trkpt>
      <trkpt lat="45.42596" lon="4.69877">
        <ele>379</ele>
        <time>2019-09-29T07:21:27.000Z</time>
      </trkpt>
      <trkpt lat="45.42594" lon="4.69881">
        <ele>379</ele>
        <time>2019-09-29T07:21:28.000Z</time>
      </trkpt>
      <trkpt lat="45.42592" lon="4.69886">
        <ele>379</ele>
        <time>2019-09-29T07:21:29.000Z</time>
      </trkpt>
      <trkpt lat="45.42591" lon="4.69889">
        <ele>378.74000307204</ele>
        <time>2019-09-29T07:21:30.000Z</time>
      </trkpt>
      <trkpt lat="45.4259" lon="4.69893">
        <ele>378</ele>
        <time>2019-09-29T07:21:31.000Z</time>
      </trkpt>
      <trkpt lat="45.4259" lon="4.69897">
        <ele>378</ele>
        <time>2019-09-29T07:21:32.000Z</time>
      </trkpt>
      <trkpt lat="45.42589" lon="4.699">
        <ele>378</ele>
        <time>2019-09-29T07:21:33.000Z</time>
      </trkpt>
      <trkpt lat="45.42588" lon="4.69904">
        <ele>378</ele>
        <time>2019-09-29T07:21:34.000Z</time>
      </trkpt>
      <trkpt lat="45.42587" lon="4.69908">
        <ele>378</ele>
        <time>2019-09-29T07:21:35.000Z</time>
      </trkpt>
      <trkpt lat="45.42586" lon="4.69912">
        <ele>377.74747553108</ele>
        <time>2019-09-29T07:21:36.000Z</time>
      </trkpt>
      <trkpt lat="45.42585" lon="4.69916">
        <ele>377</ele>
        <time>2019-09-29T07:21:37.000Z</time>
      </trkpt>
      <trkpt lat="45.42584" lon="4.69918">
        <ele>377</ele>
        <time>2019-09-29T07:21:38.000Z</time>
      </trkpt>
      <trkpt lat="45.42584" lon="4.69922">
        <ele>377</ele>
        <time>2019-09-29T07:21:39.000Z</time>
      </trkpt>
      <trkpt lat="45.42584" lon="4.69925">
        <ele>377</ele>
        <time>2019-09-29T07:21:40.000Z</time>
      </trkpt>
      <trkpt lat="45.42584" lon="4.69929">
        <ele>377</ele>
        <time>2019-09-29T07:21:41.000Z</time>
      </trkpt>
      <trkpt lat="45.42586" lon="4.69933">
        <ele>377</ele>
        <time>2019-09-29T07:21:42.000Z</time>
      </trkpt>
      <trkpt lat="45.42589" lon="4.69936">
        <ele>377</ele>
        <time>2019-09-29T07:21:43.000Z</time>
      </trkpt>
      <trkpt lat="45.42591" lon="4.69939">
        <ele>376.74000307204</ele>
        <time>2019-09-29T07:21:44.000Z</time>
      </trkpt>
      <trkpt lat="45.42594" lon="4.69942">
        <ele>376</ele>
        <time>2019-09-29T07:21:45.000Z</time>
      </trkpt>
      <trkpt lat="45.42597" lon="4.69945">
        <ele>376</ele>
        <time>2019-09-29T07:21:46.000Z</time>
      </trkpt>
      <trkpt lat="45.42599" lon="4.69949">
        <ele>376</ele>
        <time>2019-09-29T07:21:47.000Z</time>
      </trkpt>
      <trkpt lat="45.42601" lon="4.69952">
        <ele>376</ele>
        <time>2019-09-29T07:21:48.000Z</time>
      </trkpt>
      <trkpt lat="45.42603" lon="4.69955">
        <ele>376</ele>
        <time>2019-09-29T07:21:49.000Z</time>
      </trkpt>
      <trkpt lat="45.42606" lon="4.69958">
        <ele>376</ele>
        <time>2019-09-29T07:21:50.000Z</time>
      </trkpt>
      <trkpt lat="45.42608" lon="4.6996">
        <ele>376</ele>
        <time>2019-09-29T07:21:51.000Z</time>
      </trkpt>
      <trkpt lat="45.4261" lon="4.69963">
        <ele>376</ele>
        <time>2019-09-29T07:21:52.000Z</time>
      </trkpt>
      <trkpt lat="45.42612" lon="4.69965">
        <ele>376</ele>
        <time>2019-09-29T07:21:53.000Z</time>
      </trkpt>
      <trkpt lat="45.42614" lon="4.69968">
        <ele>376</ele>
        <time>2019-09-29T07:21:54.000Z</time>
      </trkpt>
      <trkpt lat="45.42617" lon="4.6997">
        <ele>376</ele>
        <time>2019-09-29T07:21:55.000Z</time>
      </trkpt>
      <trkpt lat="45.4262" lon="4.69973">
        <ele>376</ele>
        <time>2019-09-29T07:21:56.000Z</time>
      </trkpt>
      <trkpt lat="45.42622" lon="4.69976">
        <ele>376</ele>
        <time>2019-09-29T07:21:57.000Z</time>
      </trkpt>
      <trkpt lat="45.42625" lon="4.69979">
        <ele>375.74000307204</ele>
        <time>2019-09-29T07:21:58.000Z</time>
      </trkpt>
      <trkpt lat="45.42628" lon="4.69982">
        <ele>375</ele>
        <time>2019-09-29T07:21:59.000Z</time>
      </trkpt>
      <trkpt lat="45.42632" lon="4.69985">
        <ele>375</ele>
        <time>2019-09-29T07:22:00.000Z</time>
      </trkpt>
      <trkpt lat="45.42635" lon="4.69989">
        <ele>375</ele>
        <time>2019-09-29T07:22:01.000Z</time>
      </trkpt>
      <trkpt lat="45.42638" lon="4.69992">
        <ele>375</ele>
        <time>2019-09-29T07:22:02.000Z</time>
      </trkpt>
      <trkpt lat="45.42642" lon="4.69996">
        <ele>375</ele>
        <time>2019-09-29T07:22:03.000Z</time>
      </trkpt>
      <trkpt lat="45.42645" lon="4.7">
        <ele>375</ele>
        <time>2019-09-29T07:22:04.000Z</time>
      </trkpt>
      <trkpt lat="45.42649" lon="4.70004">
        <ele>375</ele>
        <time>2019-09-29T07:22:05.000Z</time>
      </trkpt>
      <trkpt lat="45.42652" lon="4.70008">
        <ele>375</ele>
        <time>2019-09-29T07:22:06.000Z</time>
      </trkpt>
      <trkpt lat="45.42656" lon="4.70012">
        <ele>375</ele>
        <time>2019-09-29T07:22:07.000Z</time>
      </trkpt>
      <trkpt lat="45.42659" lon="4.70016">
        <ele>375</ele>
        <time>2019-09-29T07:22:08.000Z</time>
      </trkpt>
      <trkpt lat="45.42663" lon="4.70021">
        <ele>375</ele>
        <time>2019-09-29T07:22:09.000Z</time>
      </trkpt>
      <trkpt lat="45.42666" lon="4.70024">
        <ele>375</ele>
        <time>2019-09-29T07:22:10.000Z</time>
      </trkpt>
      <trkpt lat="45.4267" lon="4.70028">
        <ele>375</ele>
        <time>2019-09-29T07:22:11.000Z</time>
      </trkpt>
      <trkpt lat="45.42674" lon="4.7003">
        <ele>375</ele>
        <time>2019-09-29T07:22:12.000Z</time>
      </trkpt>
      <trkpt lat="45.42677" lon="4.70031">
        <ele>375</ele>
        <time>2019-09-29T07:22:13.000Z</time>
      </trkpt>
      <trkpt lat="45.4268" lon="4.70032">
        <ele>375</ele>
        <time>2019-09-29T07:22:14.000Z</time>
      </trkpt>
      <trkpt lat="45.42684" lon="4.70033">
        <ele>375</ele>
        <time>2019-09-29T07:22:15.000Z</time>
      </trkpt>
      <trkpt lat="45.42686" lon="4.70033">
        <ele>375</ele>
        <time>2019-09-29T07:22:16.000Z</time>
      </trkpt>
      <trkpt lat="45.42689" lon="4.70033">
        <ele>375</ele>
        <time>2019-09-29T07:22:17.000Z</time>
      </trkpt>
      <trkpt lat="45.42692" lon="4.70033">
        <ele>375</ele>
        <time>2019-09-29T07:22:18.000Z</time>
      </trkpt>
      <trkpt lat="45.42694" lon="4.70033">
        <ele>375</ele>
        <time>2019-09-29T07:22:19.000Z</time>
      </trkpt>
      <trkpt lat="45.42697" lon="4.70033">
        <ele>375</ele>
        <time>2019-09-29T07:22:20.000Z</time>
      </trkpt>
      <trkpt lat="45.427" lon="4.70033">
        <ele>375</ele>
        <time>2019-09-29T07:22:21.000Z</time>
      </trkpt>
      <trkpt lat="45.42704" lon="4.70033">
        <ele>375</ele>
        <time>2019-09-29T07:22:22.000Z</time>
      </trkpt>
      <trkpt lat="45.42707" lon="4.70033">
        <ele>375</ele>
        <time>2019-09-29T07:22:23.000Z</time>
      </trkpt>
      <trkpt lat="45.4271" lon="4.70033">
        <ele>375</ele>
        <time>2019-09-29T07:22:24.000Z</time>
      </trkpt>
      <trkpt lat="45.42713" lon="4.70033">
        <ele>375.26000307196</ele>
        <time>2019-09-29T07:22:25.000Z</time>
      </trkpt>
      <trkpt lat="45.42717" lon="4.70033">
        <ele>376</ele>
        <time>2019-09-29T07:22:26.000Z</time>
      </trkpt>
      <trkpt lat="45.4272" lon="4.70032">
        <ele>376</ele>
        <time>2019-09-29T07:22:27.000Z</time>
      </trkpt>
      <trkpt lat="45.42723" lon="4.70032">
        <ele>376</ele>
        <time>2019-09-29T07:22:28.000Z</time>
      </trkpt>
      <trkpt lat="45.42727" lon="4.70031">
        <ele>376</ele>
        <time>2019-09-29T07:22:29.000Z</time>
      </trkpt>
      <trkpt lat="45.4273" lon="4.70031">
        <ele>376</ele>
        <time>2019-09-29T07:22:30.000Z</time>
      </trkpt>
      <trkpt lat="45.42733" lon="4.7003">
        <ele>376</ele>
        <time>2019-09-29T07:22:31.000Z</time>
      </trkpt>
      <trkpt lat="45.42736" lon="4.70029">
        <ele>376.25999692796</ele>
        <time>2019-09-29T07:22:32.000Z</time>
      </trkpt>
      <trkpt lat="45.42739" lon="4.70028">
        <ele>377</ele>
        <time>2019-09-29T07:22:33.000Z</time>
      </trkpt>
      <trkpt lat="45.42742" lon="4.70027">
        <ele>377</ele>
        <time>2019-09-29T07:22:34.000Z</time>
      </trkpt>
      <trkpt lat="45.42745" lon="4.70027">
        <ele>377</ele>
        <time>2019-09-29T07:22:35.000Z</time>
      </trkpt>
      <trkpt lat="45.42748" lon="4.70026">
        <ele>377</ele>
        <time>2019-09-29T07:22:36.000Z</time>
      </trkpt>
      <trkpt lat="45.42751" lon="4.70026">
        <ele>377.26000307196</ele>
        <time>2019-09-29T07:22:37.000Z</time>
      </trkpt>
      <trkpt lat="45.42754" lon="4.70025">
        <ele>378</ele>
        <time>2019-09-29T07:22:38.000Z</time>
      </trkpt>
      <trkpt lat="45.42758" lon="4.70024">
        <ele>378</ele>
        <time>2019-09-29T07:22:39.000Z</time>
      </trkpt>
      <trkpt lat="45.42761" lon="4.70024">
        <ele>378</ele>
        <time>2019-09-29T07:22:40.000Z</time>
      </trkpt>
      <trkpt lat="45.42764" lon="4.70024">
        <ele>378</ele>
        <time>2019-09-29T07:22:41.000Z</time>
      </trkpt>
      <trkpt lat="45.42767" lon="4.70023">
        <ele>378</ele>
        <time>2019-09-29T07:22:42.000Z</time>
      </trkpt>
      <trkpt lat="45.4277" lon="4.70023">
        <ele>378.26000307196</ele>
        <time>2019-09-29T07:22:43.000Z</time>
      </trkpt>
      <trkpt lat="45.42773" lon="4.70022">
        <ele>379</ele>
        <time>2019-09-29T07:22:44.000Z</time>
      </trkpt>
      <trkpt lat="45.42776" lon="4.70022">
        <ele>379</ele>
        <time>2019-09-29T07:22:45.000Z</time>
      </trkpt>
      <trkpt lat="45.42779" lon="4.70021">
        <ele>379</ele>
        <time>2019-09-29T07:22:46.000Z</time>
      </trkpt>
      <trkpt lat="45.42782" lon="4.70021">
        <ele>379</ele>
        <time>2019-09-29T07:22:47.000Z</time>
      </trkpt>
      <trkpt lat="45.42785" lon="4.70021">
        <ele>379</ele>
        <time>2019-09-29T07:22:48.000Z</time>
      </trkpt>
      <trkpt lat="45.42788" lon="4.70021">
        <ele>379.26000307196</ele>
        <time>2019-09-29T07:22:49.000Z</time>
      </trkpt>
      <trkpt lat="45.42791" lon="4.7002">
        <ele>380</ele>
        <time>2019-09-29T07:22:50.000Z</time>
      </trkpt>
      <trkpt lat="45.42794" lon="4.7002">
        <ele>380</ele>
        <time>2019-09-29T07:22:51.000Z</time>
      </trkpt>
      <trkpt lat="45.42796" lon="4.7002">
        <ele>380</ele>
        <time>2019-09-29T07:22:52.000Z</time>
      </trkpt>
      <trkpt lat="45.42798" lon="4.7002">
        <ele>380</ele>
        <time>2019-09-29T07:22:53.000Z</time>
      </trkpt>
      <trkpt lat="45.42801" lon="4.7002">
        <ele>380</ele>
        <time>2019-09-29T07:22:54.000Z</time>
      </trkpt>
      <trkpt lat="45.42803" lon="4.7002">
        <ele>380.26000307196</ele>
        <time>2019-09-29T07:22:55.000Z</time>
      </trkpt>
      <trkpt lat="45.42805" lon="4.7002">
        <ele>381</ele>
        <time>2019-09-29T07:22:56.000Z</time>
      </trkpt>
      <trkpt lat="45.42808" lon="4.7002">
        <ele>381</ele>
        <time>2019-09-29T07:22:57.000Z</time>
      </trkpt>
      <trkpt lat="45.42812" lon="4.7002">
        <ele>381</ele>
        <time>2019-09-29T07:22:58.000Z</time>
      </trkpt>
      <trkpt lat="45.42815" lon="4.7002">
        <ele>381.26000307196</ele>
        <time>2019-09-29T07:22:59.000Z</time>
      </trkpt>
      <trkpt lat="45.42818" lon="4.7002">
        <ele>382</ele>
        <time>2019-09-29T07:23:00.000Z</time>
      </trkpt>
      <trkpt lat="45.4282" lon="4.7002">
        <ele>382</ele>
        <time>2019-09-29T07:23:01.000Z</time>
      </trkpt>
      <trkpt lat="45.42822" lon="4.70021">
        <ele>382</ele>
        <time>2019-09-29T07:23:02.000Z</time>
      </trkpt>
      <trkpt lat="45.42824" lon="4.70021">
        <ele>382.2015538489</ele>
        <time>2019-09-29T07:23:03.000Z</time>
      </trkpt>
      <trkpt lat="45.42827" lon="4.70021">
        <ele>382.97674187851</ele>
        <time>2019-09-29T07:23:04.000Z</time>
      </trkpt>
      <trkpt lat="45.42829" lon="4.70021">
        <ele>383</ele>
        <time>2019-09-29T07:23:05.000Z</time>
      </trkpt>
      <trkpt lat="45.42831" lon="4.70021">
        <ele>383</ele>
        <time>2019-09-29T07:23:06.000Z</time>
      </trkpt>
      <trkpt lat="45.42834" lon="4.70021">
        <ele>383</ele>
        <time>2019-09-29T07:23:07.000Z</time>
      </trkpt>
      <trkpt lat="45.42836" lon="4.70022">
        <ele>383</ele>
        <time>2019-09-29T07:23:08.000Z</time>
      </trkpt>
      <trkpt lat="45.42839" lon="4.70022">
        <ele>383</ele>
        <time>2019-09-29T07:23:09.000Z</time>
      </trkpt>
      <trkpt lat="45.42841" lon="4.70022">
        <ele>383.25999692796</ele>
        <time>2019-09-29T07:23:10.000Z</time>
      </trkpt>
      <trkpt lat="45.42843" lon="4.70022">
        <ele>384</ele>
        <time>2019-09-29T07:23:11.000Z</time>
      </trkpt>
      <trkpt lat="45.42846" lon="4.70023">
        <ele>384</ele>
        <time>2019-09-29T07:23:12.000Z</time>
      </trkpt>
      <trkpt lat="45.42848" lon="4.70023">
        <ele>384</ele>
        <time>2019-09-29T07:23:13.000Z</time>
      </trkpt>
      <trkpt lat="45.4285" lon="4.70023">
        <ele>384</ele>
        <time>2019-09-29T07:23:14.000Z</time>
      </trkpt>
      <trkpt lat="45.42853" lon="4.70024">
        <ele>384</ele>
        <time>2019-09-29T07:23:15.000Z</time>
      </trkpt>
      <trkpt lat="45.42855" lon="4.70024">
        <ele>384.25999692796</ele>
        <time>2019-09-29T07:23:16.000Z</time>
      </trkpt>
      <trkpt lat="45.42858" lon="4.70024">
        <ele>385</ele>
        <time>2019-09-29T07:23:17.000Z</time>
      </trkpt>
      <trkpt lat="45.4286" lon="4.70025">
        <ele>385</ele>
        <time>2019-09-29T07:23:18.000Z</time>
      </trkpt>
      <trkpt lat="45.42863" lon="4.70025">
        <ele>385</ele>
        <time>2019-09-29T07:23:19.000Z</time>
      </trkpt>
      <trkpt lat="45.42865" lon="4.70026">
        <ele>385</ele>
        <time>2019-09-29T07:23:20.000Z</time>
      </trkpt>
      <trkpt lat="45.42868" lon="4.70026">
        <ele>385</ele>
        <time>2019-09-29T07:23:21.000Z</time>
      </trkpt>
      <trkpt lat="45.4287" lon="4.70027">
        <ele>385.25999692796</ele>
        <time>2019-09-29T07:23:22.000Z</time>
      </trkpt>
      <trkpt lat="45.42873" lon="4.70027">
        <ele>386</ele>
        <time>2019-09-29T07:23:23.000Z</time>
      </trkpt>
      <trkpt lat="45.42875" lon="4.70027">
        <ele>386</ele>
        <time>2019-09-29T07:23:24.000Z</time>
      </trkpt>
      <trkpt lat="45.42878" lon="4.70028">
        <ele>386</ele>
        <time>2019-09-29T07:23:25.000Z</time>
      </trkpt>
      <trkpt lat="45.4288" lon="4.70028">
        <ele>386</ele>
        <time>2019-09-29T07:23:26.000Z</time>
      </trkpt>
      <trkpt lat="45.42883" lon="4.70028">
        <ele>386.26000307196</ele>
        <time>2019-09-29T07:23:27.000Z</time>
      </trkpt>
      <trkpt lat="45.42885" lon="4.70028">
        <ele>387</ele>
        <time>2019-09-29T07:23:28.000Z</time>
      </trkpt>
      <trkpt lat="45.42887" lon="4.70028">
        <ele>387</ele>
        <time>2019-09-29T07:23:29.000Z</time>
      </trkpt>
      <trkpt lat="45.4289" lon="4.70028">
        <ele>387</ele>
        <time>2019-09-29T07:23:30.000Z</time>
      </trkpt>
      <trkpt lat="45.42892" lon="4.70028">
        <ele>387</ele>
        <time>2019-09-29T07:23:31.000Z</time>
      </trkpt>
      <trkpt lat="45.42894" lon="4.70029">
        <ele>387</ele>
        <time>2019-09-29T07:23:32.000Z</time>
      </trkpt>
      <trkpt lat="45.42897" lon="4.70029">
        <ele>387.26000307196</ele>
        <time>2019-09-29T07:23:33.000Z</time>
      </trkpt>
      <trkpt lat="45.42899" lon="4.70029">
        <ele>388</ele>
        <time>2019-09-29T07:23:34.000Z</time>
      </trkpt>
      <trkpt lat="45.42901" lon="4.70029">
        <ele>388</ele>
        <time>2019-09-29T07:23:35.000Z</time>
      </trkpt>
      <trkpt lat="45.42903" lon="4.7003">
        <ele>388</ele>
        <time>2019-09-29T07:23:36.000Z</time>
      </trkpt>
      <trkpt lat="45.42906" lon="4.7003">
        <ele>388</ele>
        <time>2019-09-29T07:23:37.000Z</time>
      </trkpt>
      <trkpt lat="45.42908" lon="4.7003">
        <ele>388.25252446892</ele>
        <time>2019-09-29T07:23:38.000Z</time>
      </trkpt>
      <trkpt lat="45.4291" lon="4.7003">
        <ele>389</ele>
        <time>2019-09-29T07:23:39.000Z</time>
      </trkpt>
      <trkpt lat="45.42912" lon="4.7003">
        <ele>389</ele>
        <time>2019-09-29T07:23:40.000Z</time>
      </trkpt>
      <trkpt lat="45.42914" lon="4.7003">
        <ele>389</ele>
        <time>2019-09-29T07:23:41.000Z</time>
      </trkpt>
      <trkpt lat="45.42916" lon="4.70029">
        <ele>389</ele>
        <time>2019-09-29T07:23:42.000Z</time>
      </trkpt>
      <trkpt lat="45.42918" lon="4.70029">
        <ele>389</ele>
        <time>2019-09-29T07:23:43.000Z</time>
      </trkpt>
      <trkpt lat="45.4292" lon="4.70028">
        <ele>389</ele>
        <time>2019-09-29T07:23:44.000Z</time>
      </trkpt>
      <trkpt lat="45.42923" lon="4.70025">
        <ele>390</ele>
        <time>2019-09-29T07:23:46.000Z</time>
      </trkpt>
      <trkpt lat="45.42926" lon="4.70022">
        <ele>390</ele>
        <time>2019-09-29T07:23:48.000Z</time>
      </trkpt>
      <trkpt lat="45.42928" lon="4.70018">
        <ele>390</ele>
        <time>2019-09-29T07:23:50.000Z</time>
      </trkpt>
      <trkpt lat="45.42929" lon="4.70014">
        <ele>390.25999692796</ele>
        <time>2019-09-29T07:23:52.000Z</time>
      </trkpt>
      <trkpt lat="45.4293" lon="4.70011">
        <ele>391</ele>
        <time>2019-09-29T07:23:54.000Z</time>
      </trkpt>
      <trkpt lat="45.4293" lon="4.70007">
        <ele>393</ele>
        <time>2019-09-29T07:24:12.000Z</time>
      </trkpt>
      <trkpt lat="45.42931" lon="4.70005">
        <ele>393</ele>
        <time>2019-09-29T07:24:14.000Z</time>
      </trkpt>
      <trkpt lat="45.42933" lon="4.70003">
        <ele>393</ele>
        <time>2019-09-29T07:24:16.000Z</time>
      </trkpt>
      <trkpt lat="45.42933" lon="4.69999">
        <ele>394</ele>
        <time>2019-09-29T07:24:18.000Z</time>
      </trkpt>
      <trkpt lat="45.42933" lon="4.69994">
        <ele>394</ele>
        <time>2019-09-29T07:24:20.000Z</time>
      </trkpt>
      <trkpt lat="45.42934" lon="4.6999">
        <ele>394.25999692796</ele>
        <time>2019-09-29T07:24:22.000Z</time>
      </trkpt>
      <trkpt lat="45.42935" lon="4.69986">
        <ele>395</ele>
        <time>2019-09-29T07:24:24.000Z</time>
      </trkpt>
      <trkpt lat="45.42935" lon="4.69983">
        <ele>395</ele>
        <time>2019-09-29T07:24:26.000Z</time>
      </trkpt>
      <trkpt lat="45.42936" lon="4.69979">
        <ele>395.20154592632</ele>
        <time>2019-09-29T07:24:28.000Z</time>
      </trkpt>
      <trkpt lat="45.42936" lon="4.69975">
        <ele>396</ele>
        <time>2019-09-29T07:24:30.000Z</time>
      </trkpt>
      <trkpt lat="45.42937" lon="4.69972">
        <ele>396</ele>
        <time>2019-09-29T07:24:32.000Z</time>
      </trkpt>
      <trkpt lat="45.42937" lon="4.69968">
        <ele>396.2499968</ele>
        <time>2019-09-29T07:24:34.000Z</time>
      </trkpt>
      <trkpt lat="45.42938" lon="4.69964">
        <ele>397</ele>
        <time>2019-09-29T07:24:36.000Z</time>
      </trkpt>
      <trkpt lat="45.42938" lon="4.69961">
        <ele>397.2499968</ele>
        <time>2019-09-29T07:24:38.000Z</time>
      </trkpt>
      <trkpt lat="45.42938" lon="4.69957">
        <ele>398</ele>
        <time>2019-09-29T07:24:40.000Z</time>
      </trkpt>
      <trkpt lat="45.42939" lon="4.69953">
        <ele>398</ele>
        <time>2019-09-29T07:24:42.000Z</time>
      </trkpt>
      <trkpt lat="45.42939" lon="4.6995">
        <ele>399</ele>
        <time>2019-09-29T07:24:44.000Z</time>
      </trkpt>
      <trkpt lat="45.4294" lon="4.69946">
        <ele>399</ele>
        <time>2019-09-29T07:24:46.000Z</time>
      </trkpt>
      <trkpt lat="45.4294" lon="4.69942">
        <ele>399.97674187851</ele>
        <time>2019-09-29T07:24:48.000Z</time>
      </trkpt>
      <trkpt lat="45.4294" lon="4.69937">
        <ele>400</ele>
        <time>2019-09-29T07:24:50.000Z</time>
      </trkpt>
      <trkpt lat="45.42941" lon="4.69934">
        <ele>400</ele>
        <time>2019-09-29T07:24:52.000Z</time>
      </trkpt>
      <trkpt lat="45.42941" lon="4.6993">
        <ele>401</ele>
        <time>2019-09-29T07:24:54.000Z</time>
      </trkpt>
      <trkpt lat="45.42942" lon="4.69926">
        <ele>401</ele>
        <time>2019-09-29T07:24:56.000Z</time>
      </trkpt>
      <trkpt lat="45.42943" lon="4.69923">
        <ele>401</ele>
        <time>2019-09-29T07:24:58.000Z</time>
      </trkpt>
      <trkpt lat="45.42943" lon="4.69919">
        <ele>402</ele>
        <time>2019-09-29T07:25:00.000Z</time>
      </trkpt>
      <trkpt lat="45.42943" lon="4.69916">
        <ele>402</ele>
        <time>2019-09-29T07:25:02.000Z</time>
      </trkpt>
      <trkpt lat="45.42943" lon="4.69912">
        <ele>402.25252446892</ele>
        <time>2019-09-29T07:25:04.000Z</time>
      </trkpt>
      <trkpt lat="45.42943" lon="4.69908">
        <ele>403</ele>
        <time>2019-09-29T07:25:06.000Z</time>
      </trkpt>
      <trkpt lat="45.42943" lon="4.69903">
        <ele>403.25999692796</ele>
        <time>2019-09-29T07:25:08.000Z</time>
      </trkpt>
      <trkpt lat="45.42941" lon="4.69899">
        <ele>404</ele>
        <time>2019-09-29T07:25:10.000Z</time>
      </trkpt>
      <trkpt lat="45.4294" lon="4.69896">
        <ele>404.25999692796</ele>
        <time>2019-09-29T07:25:12.000Z</time>
      </trkpt>
      <trkpt lat="45.42939" lon="4.69892">
        <ele>405</ele>
        <time>2019-09-29T07:25:14.000Z</time>
      </trkpt>
      <trkpt lat="45.42939" lon="4.69888">
        <ele>405</ele>
        <time>2019-09-29T07:25:16.000Z</time>
      </trkpt>
      <trkpt lat="45.42939" lon="4.69884">
        <ele>406</ele>
        <time>2019-09-29T07:25:18.000Z</time>
      </trkpt>
      <trkpt lat="45.42939" lon="4.69879">
        <ele>406</ele>
        <time>2019-09-29T07:25:20.000Z</time>
      </trkpt>
      <trkpt lat="45.4294" lon="4.69876">
        <ele>407</ele>
        <time>2019-09-29T07:25:22.000Z</time>
      </trkpt>
      <trkpt lat="45.42942" lon="4.69872">
        <ele>407</ele>
        <time>2019-09-29T07:25:24.000Z</time>
      </trkpt>
      <trkpt lat="45.42944" lon="4.69869">
        <ele>407</ele>
        <time>2019-09-29T07:25:26.000Z</time>
      </trkpt>
      <trkpt lat="45.42947" lon="4.69867">
        <ele>408</ele>
        <time>2019-09-29T07:25:28.000Z</time>
      </trkpt>
      <trkpt lat="45.42949" lon="4.69865">
        <ele>408</ele>
        <time>2019-09-29T07:25:30.000Z</time>
      </trkpt>
      <trkpt lat="45.42951" lon="4.69864">
        <ele>409</ele>
        <time>2019-09-29T07:26:01.000Z</time>
      </trkpt>
      <trkpt lat="45.42953" lon="4.6986">
        <ele>410</ele>
        <time>2019-09-29T07:26:03.000Z</time>
      </trkpt>
      <trkpt lat="45.42955" lon="4.69857">
        <ele>410</ele>
        <time>2019-09-29T07:26:05.000Z</time>
      </trkpt>
      <trkpt lat="45.42958" lon="4.69854">
        <ele>410</ele>
        <time>2019-09-29T07:26:07.000Z</time>
      </trkpt>
      <trkpt lat="45.4296" lon="4.6985">
        <ele>410</ele>
        <time>2019-09-29T07:26:09.000Z</time>
      </trkpt>
      <trkpt lat="45.42963" lon="4.69847">
        <ele>411</ele>
        <time>2019-09-29T07:26:11.000Z</time>
      </trkpt>
      <trkpt lat="45.42966" lon="4.69845">
        <ele>411</ele>
        <time>2019-09-29T07:26:13.000Z</time>
      </trkpt>
      <trkpt lat="45.42969" lon="4.69842">
        <ele>411</ele>
        <time>2019-09-29T07:26:15.000Z</time>
      </trkpt>
      <trkpt lat="45.42972" lon="4.69841">
        <ele>411</ele>
        <time>2019-09-29T07:26:17.000Z</time>
      </trkpt>
      <trkpt lat="45.42975" lon="4.6984">
        <ele>412</ele>
        <time>2019-09-29T07:26:19.000Z</time>
      </trkpt>
      <trkpt lat="45.42977" lon="4.6984">
        <ele>412</ele>
        <time>2019-09-29T07:26:20.000Z</time>
      </trkpt>
      <trkpt lat="45.42981" lon="4.69841">
        <ele>412.19999606152</ele>
        <time>2019-09-29T07:26:22.000Z</time>
      </trkpt>
      <trkpt lat="45.42983" lon="4.69842">
        <ele>412.96923061775</ele>
        <time>2019-09-29T07:26:23.000Z</time>
      </trkpt>
      <trkpt lat="45.42984" lon="4.69844">
        <ele>413</ele>
        <time>2019-09-29T07:26:24.000Z</time>
      </trkpt>
      <trkpt lat="45.42986" lon="4.69846">
        <ele>413</ele>
        <time>2019-09-29T07:26:25.000Z</time>
      </trkpt>
      <trkpt lat="45.42988" lon="4.69848">
        <ele>413</ele>
        <time>2019-09-29T07:26:26.000Z</time>
      </trkpt>
      <trkpt lat="45.4299" lon="4.69851">
        <ele>413</ele>
        <time>2019-09-29T07:26:27.000Z</time>
      </trkpt>
      <trkpt lat="45.42992" lon="4.69854">
        <ele>413</ele>
        <time>2019-09-29T07:26:28.000Z</time>
      </trkpt>
      <trkpt lat="45.42994" lon="4.69857">
        <ele>413</ele>
        <time>2019-09-29T07:26:29.000Z</time>
      </trkpt>
      <trkpt lat="45.42996" lon="4.69861">
        <ele>413</ele>
        <time>2019-09-29T07:26:30.000Z</time>
      </trkpt>
      <trkpt lat="45.42998" lon="4.69864">
        <ele>413</ele>
        <time>2019-09-29T07:26:31.000Z</time>
      </trkpt>
      <trkpt lat="45.42999" lon="4.69867">
        <ele>413</ele>
        <time>2019-09-29T07:26:32.000Z</time>
      </trkpt>
      <trkpt lat="45.43001" lon="4.69871">
        <ele>413</ele>
        <time>2019-09-29T07:26:33.000Z</time>
      </trkpt>
      <trkpt lat="45.43003" lon="4.69875">
        <ele>413</ele>
        <time>2019-09-29T07:26:34.000Z</time>
      </trkpt>
      <trkpt lat="45.43005" lon="4.69878">
        <ele>413</ele>
        <time>2019-09-29T07:26:35.000Z</time>
      </trkpt>
      <trkpt lat="45.43007" lon="4.69882">
        <ele>413.19846985138</ele>
        <time>2019-09-29T07:26:36.000Z</time>
      </trkpt>
      <trkpt lat="45.43009" lon="4.69885">
        <ele>413.96183422413</ele>
        <time>2019-09-29T07:26:37.000Z</time>
      </trkpt>
      <trkpt lat="45.43012" lon="4.69889">
        <ele>414</ele>
        <time>2019-09-29T07:26:38.000Z</time>
      </trkpt>
      <trkpt lat="45.43014" lon="4.69892">
        <ele>414</ele>
        <time>2019-09-29T07:26:39.000Z</time>
      </trkpt>
      <trkpt lat="45.43017" lon="4.69895">
        <ele>414</ele>
        <time>2019-09-29T07:26:40.000Z</time>
      </trkpt>
      <trkpt lat="45.43019" lon="4.69898">
        <ele>414</ele>
        <time>2019-09-29T07:26:41.000Z</time>
      </trkpt>
      <trkpt lat="45.43021" lon="4.69901">
        <ele>414</ele>
        <time>2019-09-29T07:26:42.000Z</time>
      </trkpt>
      <trkpt lat="45.43023" lon="4.69904">
        <ele>414</ele>
        <time>2019-09-29T07:26:43.000Z</time>
      </trkpt>
      <trkpt lat="45.43025" lon="4.69907">
        <ele>414.25999692796</ele>
        <time>2019-09-29T07:26:44.000Z</time>
      </trkpt>
      <trkpt lat="45.43027" lon="4.69909">
        <ele>415</ele>
        <time>2019-09-29T07:26:45.000Z</time>
      </trkpt>
      <trkpt lat="45.4303" lon="4.69911">
        <ele>415</ele>
        <time>2019-09-29T07:26:46.000Z</time>
      </trkpt>
      <trkpt lat="45.43032" lon="4.69913">
        <ele>415</ele>
        <time>2019-09-29T07:26:47.000Z</time>
      </trkpt>
      <trkpt lat="45.43034" lon="4.69915">
        <ele>415</ele>
        <time>2019-09-29T07:26:48.000Z</time>
      </trkpt>
      <trkpt lat="45.43036" lon="4.69916">
        <ele>415</ele>
        <time>2019-09-29T07:26:49.000Z</time>
      </trkpt>
      <trkpt lat="45.43038" lon="4.69915">
        <ele>419</ele>
        <time>2019-09-29T07:28:23.000Z</time>
      </trkpt>
      <trkpt lat="45.4304" lon="4.69917">
        <ele>419</ele>
        <time>2019-09-29T07:28:30.000Z</time>
      </trkpt>
      <trkpt lat="45.43042" lon="4.69918">
        <ele>418</ele>
        <time>2019-09-29T07:28:32.000Z</time>
      </trkpt>
      <trkpt lat="45.43045" lon="4.6992">
        <ele>418</ele>
        <time>2019-09-29T07:28:34.000Z</time>
      </trkpt>
      <trkpt lat="45.43048" lon="4.69922">
        <ele>418</ele>
        <time>2019-09-29T07:28:36.000Z</time>
      </trkpt>
      <trkpt lat="45.4305" lon="4.69923">
        <ele>418</ele>
        <time>2019-09-29T07:28:37.000Z</time>
      </trkpt>
      <trkpt lat="45.43053" lon="4.69924">
        <ele>418</ele>
        <time>2019-09-29T07:28:39.000Z</time>
      </trkpt>
      <trkpt lat="45.43056" lon="4.69924">
        <ele>418</ele>
        <time>2019-09-29T07:28:41.000Z</time>
      </trkpt>
      <trkpt lat="45.43059" lon="4.69926">
        <ele>418</ele>
        <time>2019-09-29T07:28:43.000Z</time>
      </trkpt>
      <trkpt lat="45.43062" lon="4.69928">
        <ele>419</ele>
        <time>2019-09-29T07:28:45.000Z</time>
      </trkpt>
      <trkpt lat="45.43064" lon="4.69929">
        <ele>419</ele>
        <time>2019-09-29T07:28:46.000Z</time>
      </trkpt>
      <trkpt lat="45.43067" lon="4.6993">
        <ele>419</ele>
        <time>2019-09-29T07:28:48.000Z</time>
      </trkpt>
      <trkpt lat="45.43069" lon="4.69931">
        <ele>419</ele>
        <time>2019-09-29T07:28:49.000Z</time>
      </trkpt>
      <trkpt lat="45.43071" lon="4.69931">
        <ele>419</ele>
        <time>2019-09-29T07:28:50.000Z</time>
      </trkpt>
      <trkpt lat="45.43073" lon="4.69932">
        <ele>419</ele>
        <time>2019-09-29T07:28:51.000Z</time>
      </trkpt>
      <trkpt lat="45.43075" lon="4.69933">
        <ele>419</ele>
        <time>2019-09-29T07:28:52.000Z</time>
      </trkpt>
      <trkpt lat="45.43077" lon="4.69934">
        <ele>419</ele>
        <time>2019-09-29T07:28:53.000Z</time>
      </trkpt>
      <trkpt lat="45.43079" lon="4.69934">
        <ele>419</ele>
        <time>2019-09-29T07:28:54.000Z</time>
      </trkpt>
      <trkpt lat="45.43081" lon="4.69934">
        <ele>419</ele>
        <time>2019-09-29T07:28:55.000Z</time>
      </trkpt>
      <trkpt lat="45.43083" lon="4.69935">
        <ele>420</ele>
        <time>2019-09-29T07:28:56.000Z</time>
      </trkpt>
      <trkpt lat="45.43085" lon="4.69936">
        <ele>420</ele>
        <time>2019-09-29T07:28:57.000Z</time>
      </trkpt>
      <trkpt lat="45.43087" lon="4.69937">
        <ele>420</ele>
        <time>2019-09-29T07:28:58.000Z</time>
      </trkpt>
      <trkpt lat="45.43089" lon="4.69938">
        <ele>420</ele>
        <time>2019-09-29T07:28:59.000Z</time>
      </trkpt>
      <trkpt lat="45.43092" lon="4.69938">
        <ele>420</ele>
        <time>2019-09-29T07:29:00.000Z</time>
      </trkpt>
      <trkpt lat="45.43094" lon="4.69939">
        <ele>420</ele>
        <time>2019-09-29T07:29:01.000Z</time>
      </trkpt>
      <trkpt lat="45.43096" lon="4.69939">
        <ele>420</ele>
        <time>2019-09-29T07:29:02.000Z</time>
      </trkpt>
      <trkpt lat="45.43099" lon="4.6994">
        <ele>420</ele>
        <time>2019-09-29T07:29:03.000Z</time>
      </trkpt>
      <trkpt lat="45.43101" lon="4.69941">
        <ele>420</ele>
        <time>2019-09-29T07:29:04.000Z</time>
      </trkpt>
      <trkpt lat="45.43103" lon="4.69941">
        <ele>420</ele>
        <time>2019-09-29T07:29:05.000Z</time>
      </trkpt>
      <trkpt lat="45.43105" lon="4.69942">
        <ele>420</ele>
        <time>2019-09-29T07:29:06.000Z</time>
      </trkpt>
      <trkpt lat="45.43107" lon="4.69943">
        <ele>420.26000307196</ele>
        <time>2019-09-29T07:29:07.000Z</time>
      </trkpt>
      <trkpt lat="45.4311" lon="4.69943">
        <ele>421</ele>
        <time>2019-09-29T07:29:08.000Z</time>
      </trkpt>
      <trkpt lat="45.43112" lon="4.69944">
        <ele>421</ele>
        <time>2019-09-29T07:29:09.000Z</time>
      </trkpt>
      <trkpt lat="45.43115" lon="4.69944">
        <ele>421</ele>
        <time>2019-09-29T07:29:10.000Z</time>
      </trkpt>
      <trkpt lat="45.43117" lon="4.69944">
        <ele>421</ele>
        <time>2019-09-29T07:29:11.000Z</time>
      </trkpt>
      <trkpt lat="45.43119" lon="4.69945">
        <ele>421</ele>
        <time>2019-09-29T07:29:12.000Z</time>
      </trkpt>
      <trkpt lat="45.43122" lon="4.69946">
        <ele>421</ele>
        <time>2019-09-29T07:29:13.000Z</time>
      </trkpt>
      <trkpt lat="45.43124" lon="4.69947">
        <ele>421</ele>
        <time>2019-09-29T07:29:14.000Z</time>
      </trkpt>
      <trkpt lat="45.43127" lon="4.69947">
        <ele>422</ele>
        <time>2019-09-29T07:29:15.000Z</time>
      </trkpt>
      <trkpt lat="45.43129" lon="4.69948">
        <ele>422</ele>
        <time>2019-09-29T07:29:16.000Z</time>
      </trkpt>
      <trkpt lat="45.43131" lon="4.69949">
        <ele>422.26000307196</ele>
        <time>2019-09-29T07:29:17.000Z</time>
      </trkpt>
      <trkpt lat="45.43133" lon="4.6995">
        <ele>423</ele>
        <time>2019-09-29T07:29:18.000Z</time>
      </trkpt>
      <trkpt lat="45.43136" lon="4.6995">
        <ele>423</ele>
        <time>2019-09-29T07:29:19.000Z</time>
      </trkpt>
      <trkpt lat="45.43138" lon="4.69951">
        <ele>423</ele>
        <time>2019-09-29T07:29:20.000Z</time>
      </trkpt>
      <trkpt lat="45.4314" lon="4.69952">
        <ele>423.26000307196</ele>
        <time>2019-09-29T07:29:21.000Z</time>
      </trkpt>
      <trkpt lat="45.43142" lon="4.69953">
        <ele>424</ele>
        <time>2019-09-29T07:29:22.000Z</time>
      </trkpt>
      <trkpt lat="45.43145" lon="4.69954">
        <ele>424</ele>
        <time>2019-09-29T07:29:23.000Z</time>
      </trkpt>
      <trkpt lat="45.43147" lon="4.69956">
        <ele>424</ele>
        <time>2019-09-29T07:29:24.000Z</time>
      </trkpt>
      <trkpt lat="45.43149" lon="4.69956">
        <ele>424</ele>
        <time>2019-09-29T07:29:25.000Z</time>
      </trkpt>
      <trkpt lat="45.43152" lon="4.69957">
        <ele>424.25999692796</ele>
        <time>2019-09-29T07:29:26.000Z</time>
      </trkpt>
      <trkpt lat="45.43154" lon="4.69958">
        <ele>425</ele>
        <time>2019-09-29T07:29:27.000Z</time>
      </trkpt>
      <trkpt lat="45.43157" lon="4.69959">
        <ele>425</ele>
        <time>2019-09-29T07:29:28.000Z</time>
      </trkpt>
      <trkpt lat="45.43159" lon="4.6996">
        <ele>425</ele>
        <time>2019-09-29T07:29:29.000Z</time>
      </trkpt>
      <trkpt lat="45.43161" lon="4.69961">
        <ele>425</ele>
        <time>2019-09-29T07:29:30.000Z</time>
      </trkpt>
      <trkpt lat="45.43163" lon="4.69962">
        <ele>425.26000307196</ele>
        <time>2019-09-29T07:29:31.000Z</time>
      </trkpt>
      <trkpt lat="45.43166" lon="4.69962">
        <ele>426</ele>
        <time>2019-09-29T07:29:32.000Z</time>
      </trkpt>
      <trkpt lat="45.43168" lon="4.69963">
        <ele>426</ele>
        <time>2019-09-29T07:29:33.000Z</time>
      </trkpt>
      <trkpt lat="45.4317" lon="4.69964">
        <ele>426</ele>
        <time>2019-09-29T07:29:34.000Z</time>
      </trkpt>
      <trkpt lat="45.43173" lon="4.69965">
        <ele>426</ele>
        <time>2019-09-29T07:29:35.000Z</time>
      </trkpt>
      <trkpt lat="45.43175" lon="4.69966">
        <ele>426.25999692796</ele>
        <time>2019-09-29T07:29:36.000Z</time>
      </trkpt>
      <trkpt lat="45.43177" lon="4.69967">
        <ele>427</ele>
        <time>2019-09-29T07:29:37.000Z</time>
      </trkpt>
      <trkpt lat="45.4318" lon="4.69968">
        <ele>427</ele>
        <time>2019-09-29T07:29:38.000Z</time>
      </trkpt>
      <trkpt lat="45.43182" lon="4.69969">
        <ele>427</ele>
        <time>2019-09-29T07:29:39.000Z</time>
      </trkpt>
      <trkpt lat="45.43184" lon="4.6997">
        <ele>427.25999692796</ele>
        <time>2019-09-29T07:29:40.000Z</time>
      </trkpt>
      <trkpt lat="45.43187" lon="4.69971">
        <ele>428</ele>
        <time>2019-09-29T07:29:41.000Z</time>
      </trkpt>
      <trkpt lat="45.43189" lon="4.69972">
        <ele>428</ele>
        <time>2019-09-29T07:29:42.000Z</time>
      </trkpt>
      <trkpt lat="45.43191" lon="4.69973">
        <ele>428.26000307196</ele>
        <time>2019-09-29T07:29:43.000Z</time>
      </trkpt>
      <trkpt lat="45.43193" lon="4.69974">
        <ele>429</ele>
        <time>2019-09-29T07:29:44.000Z</time>
      </trkpt>
      <trkpt lat="45.43195" lon="4.69975">
        <ele>429</ele>
        <time>2019-09-29T07:29:45.000Z</time>
      </trkpt>
      <trkpt lat="45.43197" lon="4.69976">
        <ele>429</ele>
        <time>2019-09-29T07:29:46.000Z</time>
      </trkpt>
      <trkpt lat="45.43199" lon="4.69977">
        <ele>429</ele>
        <time>2019-09-29T07:29:47.000Z</time>
      </trkpt>
      <trkpt lat="45.43202" lon="4.69978">
        <ele>429.25999692796</ele>
        <time>2019-09-29T07:29:48.000Z</time>
      </trkpt>
      <trkpt lat="45.43204" lon="4.69979">
        <ele>430</ele>
        <time>2019-09-29T07:29:49.000Z</time>
      </trkpt>
      <trkpt lat="45.43206" lon="4.6998">
        <ele>430</ele>
        <time>2019-09-29T07:29:50.000Z</time>
      </trkpt>
      <trkpt lat="45.43208" lon="4.69981">
        <ele>430</ele>
        <time>2019-09-29T07:29:51.000Z</time>
      </trkpt>
      <trkpt lat="45.43211" lon="4.69983">
        <ele>430</ele>
        <time>2019-09-29T07:29:52.000Z</time>
      </trkpt>
      <trkpt lat="45.43213" lon="4.69984">
        <ele>430</ele>
        <time>2019-09-29T07:29:53.000Z</time>
      </trkpt>
      <trkpt lat="45.43215" lon="4.69985">
        <ele>430.25999692796</ele>
        <time>2019-09-29T07:29:54.000Z</time>
      </trkpt>
      <trkpt lat="45.43217" lon="4.69985">
        <ele>431</ele>
        <time>2019-09-29T07:29:55.000Z</time>
      </trkpt>
      <trkpt lat="45.43219" lon="4.69986">
        <ele>431</ele>
        <time>2019-09-29T07:29:56.000Z</time>
      </trkpt>
      <trkpt lat="45.4322" lon="4.69987">
        <ele>431</ele>
        <time>2019-09-29T07:29:57.000Z</time>
      </trkpt>
      <trkpt lat="45.43222" lon="4.69988">
        <ele>431</ele>
        <time>2019-09-29T07:29:58.000Z</time>
      </trkpt>
      <trkpt lat="45.43224" lon="4.69989">
        <ele>431</ele>
        <time>2019-09-29T07:29:59.000Z</time>
      </trkpt>
      <trkpt lat="45.43226" lon="4.6999">
        <ele>431</ele>
        <time>2019-09-29T07:30:00.000Z</time>
      </trkpt>
      <trkpt lat="45.43228" lon="4.69991">
        <ele>431.26000307196</ele>
        <time>2019-09-29T07:30:01.000Z</time>
      </trkpt>
      <trkpt lat="45.4323" lon="4.69992">
        <ele>432</ele>
        <time>2019-09-29T07:30:02.000Z</time>
      </trkpt>
      <trkpt lat="45.43232" lon="4.69993">
        <ele>432</ele>
        <time>2019-09-29T07:30:03.000Z</time>
      </trkpt>
      <trkpt lat="45.43234" lon="4.69994">
        <ele>432</ele>
        <time>2019-09-29T07:30:04.000Z</time>
      </trkpt>
      <trkpt lat="45.43236" lon="4.69995">
        <ele>432</ele>
        <time>2019-09-29T07:30:05.000Z</time>
      </trkpt>
      <trkpt lat="45.43238" lon="4.69996">
        <ele>432</ele>
        <time>2019-09-29T07:30:06.000Z</time>
      </trkpt>
      <trkpt lat="45.4324" lon="4.69997">
        <ele>432</ele>
        <time>2019-09-29T07:30:07.000Z</time>
      </trkpt>
      <trkpt lat="45.43242" lon="4.69998">
        <ele>432</ele>
        <time>2019-09-29T07:30:08.000Z</time>
      </trkpt>
      <trkpt lat="45.43244" lon="4.69999">
        <ele>433</ele>
        <time>2019-09-29T07:30:09.000Z</time>
      </trkpt>
      <trkpt lat="45.43245" lon="4.7">
        <ele>433</ele>
        <time>2019-09-29T07:30:10.000Z</time>
      </trkpt>
      <trkpt lat="45.43247" lon="4.70001">
        <ele>433</ele>
        <time>2019-09-29T07:30:11.000Z</time>
      </trkpt>
      <trkpt lat="45.43249" lon="4.70003">
        <ele>433</ele>
        <time>2019-09-29T07:30:12.000Z</time>
      </trkpt>
      <trkpt lat="45.43251" lon="4.70004">
        <ele>433</ele>
        <time>2019-09-29T07:30:13.000Z</time>
      </trkpt>
      <trkpt lat="45.43253" lon="4.70005">
        <ele>433.25999692796</ele>
        <time>2019-09-29T07:30:14.000Z</time>
      </trkpt>
      <trkpt lat="45.43255" lon="4.70006">
        <ele>434</ele>
        <time>2019-09-29T07:30:15.000Z</time>
      </trkpt>
      <trkpt lat="45.43257" lon="4.70006">
        <ele>434</ele>
        <time>2019-09-29T07:30:16.000Z</time>
      </trkpt>
      <trkpt lat="45.43259" lon="4.70007">
        <ele>434</ele>
        <time>2019-09-29T07:30:17.000Z</time>
      </trkpt>
      <trkpt lat="45.4326" lon="4.70008">
        <ele>434</ele>
        <time>2019-09-29T07:30:18.000Z</time>
      </trkpt>
      <trkpt lat="45.43262" lon="4.70009">
        <ele>434</ele>
        <time>2019-09-29T07:30:19.000Z</time>
      </trkpt>
      <trkpt lat="45.43264" lon="4.7001">
        <ele>434</ele>
        <time>2019-09-29T07:30:20.000Z</time>
      </trkpt>
      <trkpt lat="45.43266" lon="4.70011">
        <ele>434</ele>
        <time>2019-09-29T07:30:21.000Z</time>
      </trkpt>
      <trkpt lat="45.43269" lon="4.70013">
        <ele>434</ele>
        <time>2019-09-29T07:30:23.000Z</time>
      </trkpt>
      <trkpt lat="45.43272" lon="4.70015">
        <ele>435</ele>
        <time>2019-09-29T07:30:25.000Z</time>
      </trkpt>
      <trkpt lat="45.43274" lon="4.70015">
        <ele>435</ele>
        <time>2019-09-29T07:30:26.000Z</time>
      </trkpt>
      <trkpt lat="45.43277" lon="4.70017">
        <ele>435</ele>
        <time>2019-09-29T07:30:28.000Z</time>
      </trkpt>
      <trkpt lat="45.43279" lon="4.70018">
        <ele>435</ele>
        <time>2019-09-29T07:30:29.000Z</time>
      </trkpt>
      <trkpt lat="45.43281" lon="4.70018">
        <ele>435</ele>
        <time>2019-09-29T07:30:30.000Z</time>
      </trkpt>
      <trkpt lat="45.43284" lon="4.70019">
        <ele>436</ele>
        <time>2019-09-29T07:30:32.000Z</time>
      </trkpt>
      <trkpt lat="45.43286" lon="4.70019">
        <ele>436</ele>
        <time>2019-09-29T07:30:33.000Z</time>
      </trkpt>
      <trkpt lat="45.43289" lon="4.7002">
        <ele>436</ele>
        <time>2019-09-29T07:30:35.000Z</time>
      </trkpt>
      <trkpt lat="45.43293" lon="4.70021">
        <ele>437</ele>
        <time>2019-09-29T07:30:37.000Z</time>
      </trkpt>
      <trkpt lat="45.43295" lon="4.70021">
        <ele>437</ele>
        <time>2019-09-29T07:30:38.000Z</time>
      </trkpt>
      <trkpt lat="45.43298" lon="4.70022">
        <ele>437</ele>
        <time>2019-09-29T07:30:40.000Z</time>
      </trkpt>
      <trkpt lat="45.433" lon="4.70023">
        <ele>437</ele>
        <time>2019-09-29T07:30:41.000Z</time>
      </trkpt>
      <trkpt lat="45.43302" lon="4.70023">
        <ele>437</ele>
        <time>2019-09-29T07:30:42.000Z</time>
      </trkpt>
      <trkpt lat="45.43304" lon="4.70024">
        <ele>437</ele>
        <time>2019-09-29T07:30:43.000Z</time>
      </trkpt>
      <trkpt lat="45.43307" lon="4.70024">
        <ele>438</ele>
        <time>2019-09-29T07:30:45.000Z</time>
      </trkpt>
      <trkpt lat="45.43311" lon="4.70025">
        <ele>438</ele>
        <time>2019-09-29T07:30:47.000Z</time>
      </trkpt>
      <trkpt lat="45.43313" lon="4.70026">
        <ele>438</ele>
        <time>2019-09-29T07:30:49.000Z</time>
      </trkpt>
      <trkpt lat="45.43315" lon="4.70027">
        <ele>438</ele>
        <time>2019-09-29T07:30:50.000Z</time>
      </trkpt>
      <trkpt lat="45.43317" lon="4.70027">
        <ele>438</ele>
        <time>2019-09-29T07:30:51.000Z</time>
      </trkpt>
      <trkpt lat="45.4332" lon="4.70027">
        <ele>438.25999692796</ele>
        <time>2019-09-29T07:30:52.000Z</time>
      </trkpt>
      <trkpt lat="45.43321" lon="4.70027">
        <ele>439</ele>
        <time>2019-09-29T07:30:53.000Z</time>
      </trkpt>
      <trkpt lat="45.43323" lon="4.70027">
        <ele>439</ele>
        <time>2019-09-29T07:30:54.000Z</time>
      </trkpt>
      <trkpt lat="45.43325" lon="4.70027">
        <ele>439</ele>
        <time>2019-09-29T07:30:55.000Z</time>
      </trkpt>
      <trkpt lat="45.43327" lon="4.70027">
        <ele>439</ele>
        <time>2019-09-29T07:30:56.000Z</time>
      </trkpt>
      <trkpt lat="45.43329" lon="4.70027">
        <ele>439.26000307196</ele>
        <time>2019-09-29T07:30:57.000Z</time>
      </trkpt>
      <trkpt lat="45.43332" lon="4.70027">
        <ele>440</ele>
        <time>2019-09-29T07:30:59.000Z</time>
      </trkpt>
      <trkpt lat="45.43335" lon="4.70027">
        <ele>440</ele>
        <time>2019-09-29T07:31:01.000Z</time>
      </trkpt>
      <trkpt lat="45.43339" lon="4.70027">
        <ele>440.96154073374</ele>
        <time>2019-09-29T07:31:03.000Z</time>
      </trkpt>
      <trkpt lat="45.43342" lon="4.70027">
        <ele>441</ele>
        <time>2019-09-29T07:31:05.000Z</time>
      </trkpt>
      <trkpt lat="45.43345" lon="4.70027">
        <ele>441</ele>
        <time>2019-09-29T07:31:07.000Z</time>
      </trkpt>
      <trkpt lat="45.43349" lon="4.70028">
        <ele>442</ele>
        <time>2019-09-29T07:31:09.000Z</time>
      </trkpt>
      <trkpt lat="45.4335" lon="4.70029">
        <ele>442</ele>
        <time>2019-09-29T07:31:10.000Z</time>
      </trkpt>
      <trkpt lat="45.43353" lon="4.70029">
        <ele>442.26000307196</ele>
        <time>2019-09-29T07:31:11.000Z</time>
      </trkpt>
      <trkpt lat="45.43354" lon="4.70029">
        <ele>443</ele>
        <time>2019-09-29T07:31:12.000Z</time>
      </trkpt>
      <trkpt lat="45.43356" lon="4.7003">
        <ele>443</ele>
        <time>2019-09-29T07:31:13.000Z</time>
      </trkpt>
      <trkpt lat="45.43358" lon="4.7003">
        <ele>443</ele>
        <time>2019-09-29T07:31:14.000Z</time>
      </trkpt>
      <trkpt lat="45.4336" lon="4.7003">
        <ele>443</ele>
        <time>2019-09-29T07:31:15.000Z</time>
      </trkpt>
      <trkpt lat="45.43362" lon="4.70031">
        <ele>443</ele>
        <time>2019-09-29T07:31:16.000Z</time>
      </trkpt>
      <trkpt lat="45.43364" lon="4.70031">
        <ele>443.26000307196</ele>
        <time>2019-09-29T07:31:17.000Z</time>
      </trkpt>
      <trkpt lat="45.43366" lon="4.70032">
        <ele>444</ele>
        <time>2019-09-29T07:31:18.000Z</time>
      </trkpt>
      <trkpt lat="45.43368" lon="4.70032">
        <ele>444</ele>
        <time>2019-09-29T07:31:19.000Z</time>
      </trkpt>
      <trkpt lat="45.4337" lon="4.70033">
        <ele>444</ele>
        <time>2019-09-29T07:31:20.000Z</time>
      </trkpt>
      <trkpt lat="45.43372" lon="4.70033">
        <ele>444</ele>
        <time>2019-09-29T07:31:21.000Z</time>
      </trkpt>
      <trkpt lat="45.43374" lon="4.70033">
        <ele>444</ele>
        <time>2019-09-29T07:31:22.000Z</time>
      </trkpt>
      <trkpt lat="45.43376" lon="4.70033">
        <ele>444</ele>
        <time>2019-09-29T07:31:23.000Z</time>
      </trkpt>
      <trkpt lat="45.43378" lon="4.70033">
        <ele>444.25999692796</ele>
        <time>2019-09-29T07:31:24.000Z</time>
      </trkpt>
      <trkpt lat="45.4338" lon="4.70033">
        <ele>445</ele>
        <time>2019-09-29T07:31:25.000Z</time>
      </trkpt>
      <trkpt lat="45.43382" lon="4.70033">
        <ele>445</ele>
        <time>2019-09-29T07:31:26.000Z</time>
      </trkpt>
      <trkpt lat="45.43384" lon="4.70032">
        <ele>445</ele>
        <time>2019-09-29T07:31:27.000Z</time>
      </trkpt>
      <trkpt lat="45.43386" lon="4.70031">
        <ele>445.20154592632</ele>
        <time>2019-09-29T07:31:28.000Z</time>
      </trkpt>
      <trkpt lat="45.43387" lon="4.7003">
        <ele>445.97674164773</ele>
        <time>2019-09-29T07:31:29.000Z</time>
      </trkpt>
      <trkpt lat="45.43391" lon="4.70028">
        <ele>446</ele>
        <time>2019-09-29T07:31:31.000Z</time>
      </trkpt>
      <trkpt lat="45.43392" lon="4.70026">
        <ele>446</ele>
        <time>2019-09-29T07:31:33.000Z</time>
      </trkpt>
      <trkpt lat="45.43394" lon="4.70023">
        <ele>447</ele>
        <time>2019-09-29T07:31:41.000Z</time>
      </trkpt>
      <trkpt lat="45.43397" lon="4.7002">
        <ele>447.26000307196</ele>
        <time>2019-09-29T07:31:43.000Z</time>
      </trkpt>
      <trkpt lat="45.43399" lon="4.70016">
        <ele>448</ele>
        <time>2019-09-29T07:31:45.000Z</time>
      </trkpt>
      <trkpt lat="45.43401" lon="4.70013">
        <ele>448.26000307196</ele>
        <time>2019-09-29T07:31:47.000Z</time>
      </trkpt>
      <trkpt lat="45.43402" lon="4.7001">
        <ele>449</ele>
        <time>2019-09-29T07:31:49.000Z</time>
      </trkpt>
      <trkpt lat="45.43404" lon="4.70006">
        <ele>449</ele>
        <time>2019-09-29T07:31:51.000Z</time>
      </trkpt>
      <trkpt lat="45.43405" lon="4.70004">
        <ele>450</ele>
        <time>2019-09-29T07:31:53.000Z</time>
      </trkpt>
      <trkpt lat="45.43406" lon="4.70002">
        <ele>450</ele>
        <time>2019-09-29T07:32:11.000Z</time>
      </trkpt>
      <trkpt lat="45.43408" lon="4.69998">
        <ele>450</ele>
        <time>2019-09-29T07:32:13.000Z</time>
      </trkpt>
      <trkpt lat="45.43409" lon="4.69994">
        <ele>451</ele>
        <time>2019-09-29T07:32:15.000Z</time>
      </trkpt>
      <trkpt lat="45.43411" lon="4.6999">
        <ele>451</ele>
        <time>2019-09-29T07:32:17.000Z</time>
      </trkpt>
      <trkpt lat="45.43413" lon="4.69986">
        <ele>452</ele>
        <time>2019-09-29T07:32:19.000Z</time>
      </trkpt>
      <trkpt lat="45.43415" lon="4.69982">
        <ele>452</ele>
        <time>2019-09-29T07:32:21.000Z</time>
      </trkpt>
      <trkpt lat="45.43417" lon="4.69978">
        <ele>453</ele>
        <time>2019-09-29T07:32:23.000Z</time>
      </trkpt>
      <trkpt lat="45.43418" lon="4.69974">
        <ele>453</ele>
        <time>2019-09-29T07:32:25.000Z</time>
      </trkpt>
      <trkpt lat="45.4342" lon="4.6997">
        <ele>454</ele>
        <time>2019-09-29T07:32:27.000Z</time>
      </trkpt>
      <trkpt lat="45.43422" lon="4.69967">
        <ele>454.26000307196</ele>
        <time>2019-09-29T07:32:29.000Z</time>
      </trkpt>
      <trkpt lat="45.43424" lon="4.69963">
        <ele>455</ele>
        <time>2019-09-29T07:32:31.000Z</time>
      </trkpt>
      <trkpt lat="45.43425" lon="4.69959">
        <ele>455.26000307196</ele>
        <time>2019-09-29T07:32:33.000Z</time>
      </trkpt>
      <trkpt lat="45.43427" lon="4.69955">
        <ele>456</ele>
        <time>2019-09-29T07:32:35.000Z</time>
      </trkpt>
      <trkpt lat="45.43429" lon="4.69952">
        <ele>456</ele>
        <time>2019-09-29T07:32:37.000Z</time>
      </trkpt>
      <trkpt lat="45.43431" lon="4.69949">
        <ele>457</ele>
        <time>2019-09-29T07:32:39.000Z</time>
      </trkpt>
      <trkpt lat="45.43433" lon="4.69946">
        <ele>457</ele>
        <time>2019-09-29T07:32:41.000Z</time>
      </trkpt>
      <trkpt lat="45.43434" lon="4.69942">
        <ele>457</ele>
        <time>2019-09-29T07:32:43.000Z</time>
      </trkpt>
      <trkpt lat="45.43436" lon="4.69939">
        <ele>458</ele>
        <time>2019-09-29T07:32:45.000Z</time>
      </trkpt>
      <trkpt lat="45.43439" lon="4.69936">
        <ele>458</ele>
        <time>2019-09-29T07:32:47.000Z</time>
      </trkpt>
      <trkpt lat="45.43441" lon="4.69932">
        <ele>458.26000307196</ele>
        <time>2019-09-29T07:32:49.000Z</time>
      </trkpt>
      <trkpt lat="45.43442" lon="4.6993">
        <ele>459</ele>
        <time>2019-09-29T07:32:50.000Z</time>
      </trkpt>
      <trkpt lat="45.43445" lon="4.69926">
        <ele>459</ele>
        <time>2019-09-29T07:32:52.000Z</time>
      </trkpt>
      <trkpt lat="45.43446" lon="4.69924">
        <ele>459</ele>
        <time>2019-09-29T07:32:53.000Z</time>
      </trkpt>
      <trkpt lat="45.43449" lon="4.69921">
        <ele>459</ele>
        <time>2019-09-29T07:32:55.000Z</time>
      </trkpt>
      <trkpt lat="45.4345" lon="4.69919">
        <ele>459</ele>
        <time>2019-09-29T07:32:56.000Z</time>
      </trkpt>
      <trkpt lat="45.43451" lon="4.69917">
        <ele>459</ele>
        <time>2019-09-29T07:32:57.000Z</time>
      </trkpt>
      <trkpt lat="45.43453" lon="4.69915">
        <ele>459.25999692796</ele>
        <time>2019-09-29T07:32:58.000Z</time>
      </trkpt>
      <trkpt lat="45.43454" lon="4.69913">
        <ele>460</ele>
        <time>2019-09-29T07:32:59.000Z</time>
      </trkpt>
      <trkpt lat="45.43455" lon="4.69911">
        <ele>460</ele>
        <time>2019-09-29T07:33:00.000Z</time>
      </trkpt>
      <trkpt lat="45.43457" lon="4.69907">
        <ele>460</ele>
        <time>2019-09-29T07:33:02.000Z</time>
      </trkpt>
      <trkpt lat="45.43459" lon="4.69905">
        <ele>460</ele>
        <time>2019-09-29T07:33:03.000Z</time>
      </trkpt>
      <trkpt lat="45.4346" lon="4.69903">
        <ele>460</ele>
        <time>2019-09-29T07:33:04.000Z</time>
      </trkpt>
      <trkpt lat="45.43461" lon="4.699">
        <ele>460</ele>
        <time>2019-09-29T07:33:05.000Z</time>
      </trkpt>
      <trkpt lat="45.43463" lon="4.69898">
        <ele>460</ele>
        <time>2019-09-29T07:33:06.000Z</time>
      </trkpt>
      <trkpt lat="45.43464" lon="4.69895">
        <ele>460</ele>
        <time>2019-09-29T07:33:07.000Z</time>
      </trkpt>
      <trkpt lat="45.43466" lon="4.69893">
        <ele>460</ele>
        <time>2019-09-29T07:33:08.000Z</time>
      </trkpt>
      <trkpt lat="45.43467" lon="4.6989">
        <ele>460</ele>
        <time>2019-09-29T07:33:09.000Z</time>
      </trkpt>
      <trkpt lat="45.43468" lon="4.69888">
        <ele>460</ele>
        <time>2019-09-29T07:33:10.000Z</time>
      </trkpt>
      <trkpt lat="45.4347" lon="4.69885">
        <ele>460</ele>
        <time>2019-09-29T07:33:11.000Z</time>
      </trkpt>
      <trkpt lat="45.43471" lon="4.69883">
        <ele>460</ele>
        <time>2019-09-29T07:33:12.000Z</time>
      </trkpt>
      <trkpt lat="45.43473" lon="4.6988">
        <ele>460</ele>
        <time>2019-09-29T07:33:13.000Z</time>
      </trkpt>
      <trkpt lat="45.43474" lon="4.69878">
        <ele>460.25742022153</ele>
        <time>2019-09-29T07:33:14.000Z</time>
      </trkpt>
      <trkpt lat="45.43476" lon="4.69874">
        <ele>460</ele>
        <time>2019-09-29T07:33:16.000Z</time>
      </trkpt>
      <trkpt lat="45.43477" lon="4.69872">
        <ele>460.26000307196</ele>
        <time>2019-09-29T07:33:17.000Z</time>
      </trkpt>
      <trkpt lat="45.43479" lon="4.69869">
        <ele>461</ele>
        <time>2019-09-29T07:33:18.000Z</time>
      </trkpt>
      <trkpt lat="45.4348" lon="4.69867">
        <ele>461</ele>
        <time>2019-09-29T07:33:19.000Z</time>
      </trkpt>
      <trkpt lat="45.43481" lon="4.69864">
        <ele>461</ele>
        <time>2019-09-29T07:33:20.000Z</time>
      </trkpt>
      <trkpt lat="45.43482" lon="4.69862">
        <ele>461</ele>
        <time>2019-09-29T07:33:21.000Z</time>
      </trkpt>
      <trkpt lat="45.43483" lon="4.69858">
        <ele>461</ele>
        <time>2019-09-29T07:33:23.000Z</time>
      </trkpt>
      <trkpt lat="45.43485" lon="4.69853">
        <ele>461</ele>
        <time>2019-09-29T07:33:25.000Z</time>
      </trkpt>
      <trkpt lat="45.43486" lon="4.69851">
        <ele>461</ele>
        <time>2019-09-29T07:33:26.000Z</time>
      </trkpt>
      <trkpt lat="45.43487" lon="4.69848">
        <ele>461</ele>
        <time>2019-09-29T07:33:27.000Z</time>
      </trkpt>
      <trkpt lat="45.43488" lon="4.69846">
        <ele>461</ele>
        <time>2019-09-29T07:33:28.000Z</time>
      </trkpt>
      <trkpt lat="45.43489" lon="4.69843">
        <ele>461.26000307196</ele>
        <time>2019-09-29T07:33:29.000Z</time>
      </trkpt>
      <trkpt lat="45.43491" lon="4.69839">
        <ele>462</ele>
        <time>2019-09-29T07:33:31.000Z</time>
      </trkpt>
      <trkpt lat="45.43493" lon="4.69836">
        <ele>462</ele>
        <time>2019-09-29T07:33:33.000Z</time>
      </trkpt>
      <trkpt lat="45.43495" lon="4.69832">
        <ele>463</ele>
        <time>2019-09-29T07:33:35.000Z</time>
      </trkpt>
      <trkpt lat="45.43496" lon="4.6983">
        <ele>463</ele>
        <time>2019-09-29T07:33:36.000Z</time>
      </trkpt>
      <trkpt lat="45.43497" lon="4.69827">
        <ele>463</ele>
        <time>2019-09-29T07:33:37.000Z</time>
      </trkpt>
      <trkpt lat="45.43498" lon="4.69825">
        <ele>463</ele>
        <time>2019-09-29T07:33:38.000Z</time>
      </trkpt>
      <trkpt lat="45.435" lon="4.69821">
        <ele>463</ele>
        <time>2019-09-29T07:33:40.000Z</time>
      </trkpt>
      <trkpt lat="45.43501" lon="4.69819">
        <ele>464</ele>
        <time>2019-09-29T07:33:41.000Z</time>
      </trkpt>
      <trkpt lat="45.43502" lon="4.69816">
        <ele>464</ele>
        <time>2019-09-29T07:33:42.000Z</time>
      </trkpt>
      <trkpt lat="45.43502" lon="4.69814">
        <ele>464</ele>
        <time>2019-09-29T07:33:43.000Z</time>
      </trkpt>
      <trkpt lat="45.43503" lon="4.69812">
        <ele>464</ele>
        <time>2019-09-29T07:33:44.000Z</time>
      </trkpt>
      <trkpt lat="45.43504" lon="4.69809">
        <ele>464.26000307196</ele>
        <time>2019-09-29T07:33:45.000Z</time>
      </trkpt>
      <trkpt lat="45.43506" lon="4.69806">
        <ele>465</ele>
        <time>2019-09-29T07:33:46.000Z</time>
      </trkpt>
      <trkpt lat="45.43507" lon="4.69804">
        <ele>465</ele>
        <time>2019-09-29T07:33:47.000Z</time>
      </trkpt>
      <trkpt lat="45.43508" lon="4.69801">
        <ele>465</ele>
        <time>2019-09-29T07:33:48.000Z</time>
      </trkpt>
      <trkpt lat="45.43509" lon="4.69799">
        <ele>465.26000307196</ele>
        <time>2019-09-29T07:33:49.000Z</time>
      </trkpt>
      <trkpt lat="45.4351" lon="4.69796">
        <ele>466</ele>
        <time>2019-09-29T07:33:50.000Z</time>
      </trkpt>
      <trkpt lat="45.43511" lon="4.69794">
        <ele>466</ele>
        <time>2019-09-29T07:33:51.000Z</time>
      </trkpt>
      <trkpt lat="45.43512" lon="4.69792">
        <ele>466.26000307196</ele>
        <time>2019-09-29T07:33:53.000Z</time>
      </trkpt>
      <trkpt lat="45.4351" lon="4.69794">
        <ele>467</ele>
        <time>2019-09-29T07:34:03.000Z</time>
      </trkpt>
      <trkpt lat="45.43509" lon="4.69797">
        <ele>467</ele>
        <time>2019-09-29T07:34:05.000Z</time>
      </trkpt>
      <trkpt lat="45.43508" lon="4.698">
        <ele>467</ele>
        <time>2019-09-29T07:34:07.000Z</time>
      </trkpt>
      <trkpt lat="45.43506" lon="4.69802">
        <ele>467</ele>
        <time>2019-09-29T07:34:09.000Z</time>
      </trkpt>
      <trkpt lat="45.43504" lon="4.69804">
        <ele>467</ele>
        <time>2019-09-29T07:34:11.000Z</time>
      </trkpt>
      <trkpt lat="45.43502" lon="4.69807">
        <ele>467</ele>
        <time>2019-09-29T07:34:13.000Z</time>
      </trkpt>
      <trkpt lat="45.43501" lon="4.69811">
        <ele>467</ele>
        <time>2019-09-29T07:34:15.000Z</time>
      </trkpt>
      <trkpt lat="45.435" lon="4.69813">
        <ele>467</ele>
        <time>2019-09-29T07:34:17.000Z</time>
      </trkpt>
      <trkpt lat="45.43501" lon="4.69811">
        <ele>467</ele>
        <time>2019-09-29T07:34:19.000Z</time>
      </trkpt>
      <trkpt lat="45.43502" lon="4.69809">
        <ele>467</ele>
        <time>2019-09-29T07:34:20.000Z</time>
      </trkpt>
      <trkpt lat="45.43503" lon="4.69806">
        <ele>467.26000307196</ele>
        <time>2019-09-29T07:34:21.000Z</time>
      </trkpt>
      <trkpt lat="45.43504" lon="4.69804">
        <ele>468</ele>
        <time>2019-09-29T07:34:22.000Z</time>
      </trkpt>
      <trkpt lat="45.43505" lon="4.69802">
        <ele>468</ele>
        <time>2019-09-29T07:34:25.000Z</time>
      </trkpt>
      <trkpt lat="45.43506" lon="4.69799">
        <ele>469</ele>
        <time>2019-09-29T07:34:29.000Z</time>
      </trkpt>
      <trkpt lat="45.43508" lon="4.69797">
        <ele>469</ele>
        <time>2019-09-29T07:34:32.000Z</time>
      </trkpt>
      <trkpt lat="45.4351" lon="4.69795">
        <ele>469</ele>
        <time>2019-09-29T07:34:37.000Z</time>
      </trkpt>
      <trkpt lat="45.43511" lon="4.69792">
        <ele>470</ele>
        <time>2019-09-29T07:34:39.000Z</time>
      </trkpt>
      <trkpt lat="45.43512" lon="4.69789">
        <ele>470</ele>
        <time>2019-09-29T07:34:43.000Z</time>
      </trkpt>
      <trkpt lat="45.43514" lon="4.69786">
        <ele>471</ele>
        <time>2019-09-29T07:34:46.000Z</time>
      </trkpt>
      <trkpt lat="45.43515" lon="4.69781">
        <ele>471</ele>
        <time>2019-09-29T07:34:48.000Z</time>
      </trkpt>
      <trkpt lat="45.43516" lon="4.69777">
        <ele>471</ele>
        <time>2019-09-29T07:34:50.000Z</time>
      </trkpt>
      <trkpt lat="45.43517" lon="4.69774">
        <ele>471</ele>
        <time>2019-09-29T07:34:51.000Z</time>
      </trkpt>
      <trkpt lat="45.43518" lon="4.69771">
        <ele>471</ele>
        <time>2019-09-29T07:34:52.000Z</time>
      </trkpt>
      <trkpt lat="45.43519" lon="4.69768">
        <ele>471</ele>
        <time>2019-09-29T07:34:53.000Z</time>
      </trkpt>
      <trkpt lat="45.43519" lon="4.69765">
        <ele>471</ele>
        <time>2019-09-29T07:34:54.000Z</time>
      </trkpt>
      <trkpt lat="45.4352" lon="4.69762">
        <ele>471</ele>
        <time>2019-09-29T07:34:55.000Z</time>
      </trkpt>
      <trkpt lat="45.43521" lon="4.69759">
        <ele>471</ele>
        <time>2019-09-29T07:34:56.000Z</time>
      </trkpt>
      <trkpt lat="45.43522" lon="4.69755">
        <ele>471</ele>
        <time>2019-09-29T07:34:57.000Z</time>
      </trkpt>
      <trkpt lat="45.43523" lon="4.69752">
        <ele>471</ele>
        <time>2019-09-29T07:34:58.000Z</time>
      </trkpt>
      <trkpt lat="45.43525" lon="4.69749">
        <ele>471</ele>
        <time>2019-09-29T07:34:59.000Z</time>
      </trkpt>
      <trkpt lat="45.43526" lon="4.69746">
        <ele>471</ele>
        <time>2019-09-29T07:35:00.000Z</time>
      </trkpt>
      <trkpt lat="45.43527" lon="4.69744">
        <ele>471</ele>
        <time>2019-09-29T07:35:01.000Z</time>
      </trkpt>
      <trkpt lat="45.43529" lon="4.69741">
        <ele>471.24489955853</ele>
        <time>2019-09-29T07:35:02.000Z</time>
      </trkpt>
      <trkpt lat="45.4353" lon="4.69739">
        <ele>472</ele>
        <time>2019-09-29T07:35:03.000Z</time>
      </trkpt>
      <trkpt lat="45.43532" lon="4.69737">
        <ele>472</ele>
        <time>2019-09-29T07:35:04.000Z</time>
      </trkpt>
      <trkpt lat="45.43533" lon="4.69735">
        <ele>472</ele>
        <time>2019-09-29T07:35:05.000Z</time>
      </trkpt>
      <trkpt lat="45.43534" lon="4.69732">
        <ele>472</ele>
        <time>2019-09-29T07:35:06.000Z</time>
      </trkpt>
      <trkpt lat="45.43535" lon="4.6973">
        <ele>472</ele>
        <time>2019-09-29T07:35:07.000Z</time>
      </trkpt>
      <trkpt lat="45.43537" lon="4.69728">
        <ele>472</ele>
        <time>2019-09-29T07:35:08.000Z</time>
      </trkpt>
      <trkpt lat="45.43538" lon="4.69725">
        <ele>472</ele>
        <time>2019-09-29T07:35:09.000Z</time>
      </trkpt>
      <trkpt lat="45.43539" lon="4.69723">
        <ele>472.25999692796</ele>
        <time>2019-09-29T07:35:10.000Z</time>
      </trkpt>
      <trkpt lat="45.43541" lon="4.6972">
        <ele>473</ele>
        <time>2019-09-29T07:35:11.000Z</time>
      </trkpt>
      <trkpt lat="45.43542" lon="4.69718">
        <ele>473</ele>
        <time>2019-09-29T07:35:12.000Z</time>
      </trkpt>
      <trkpt lat="45.43543" lon="4.69716">
        <ele>473</ele>
        <time>2019-09-29T07:35:13.000Z</time>
      </trkpt>
      <trkpt lat="45.43544" lon="4.69714">
        <ele>473</ele>
        <time>2019-09-29T07:35:14.000Z</time>
      </trkpt>
      <trkpt lat="45.43545" lon="4.69712">
        <ele>473</ele>
        <time>2019-09-29T07:35:15.000Z</time>
      </trkpt>
      <trkpt lat="45.43546" lon="4.6971">
        <ele>473</ele>
        <time>2019-09-29T07:35:16.000Z</time>
      </trkpt>
      <trkpt lat="45.43548" lon="4.69708">
        <ele>473</ele>
        <time>2019-09-29T07:35:17.000Z</time>
      </trkpt>
      <trkpt lat="45.43549" lon="4.69706">
        <ele>473</ele>
        <time>2019-09-29T07:35:18.000Z</time>
      </trkpt>
      <trkpt lat="45.4355" lon="4.69703">
        <ele>473</ele>
        <time>2019-09-29T07:35:19.000Z</time>
      </trkpt>
      <trkpt lat="45.43552" lon="4.69701">
        <ele>473</ele>
        <time>2019-09-29T07:35:20.000Z</time>
      </trkpt>
      <trkpt lat="45.43553" lon="4.69699">
        <ele>473</ele>
        <time>2019-09-29T07:35:21.000Z</time>
      </trkpt>
      <trkpt lat="45.43554" lon="4.69697">
        <ele>473</ele>
        <time>2019-09-29T07:35:22.000Z</time>
      </trkpt>
      <trkpt lat="45.43555" lon="4.69694">
        <ele>473</ele>
        <time>2019-09-29T07:35:23.000Z</time>
      </trkpt>
      <trkpt lat="45.43557" lon="4.69691">
        <ele>473.25999692796</ele>
        <time>2019-09-29T07:35:24.000Z</time>
      </trkpt>
      <trkpt lat="45.43558" lon="4.69689">
        <ele>474</ele>
        <time>2019-09-29T07:35:25.000Z</time>
      </trkpt>
      <trkpt lat="45.43559" lon="4.69686">
        <ele>474</ele>
        <time>2019-09-29T07:35:26.000Z</time>
      </trkpt>
      <trkpt lat="45.4356" lon="4.69684">
        <ele>474</ele>
        <time>2019-09-29T07:35:27.000Z</time>
      </trkpt>
      <trkpt lat="45.43561" lon="4.69682">
        <ele>474</ele>
        <time>2019-09-29T07:35:28.000Z</time>
      </trkpt>
      <trkpt lat="45.43562" lon="4.69679">
        <ele>474</ele>
        <time>2019-09-29T07:35:29.000Z</time>
      </trkpt>
      <trkpt lat="45.43563" lon="4.69676">
        <ele>474</ele>
        <time>2019-09-29T07:35:30.000Z</time>
      </trkpt>
      <trkpt lat="45.43564" lon="4.69674">
        <ele>474</ele>
        <time>2019-09-29T07:35:31.000Z</time>
      </trkpt>
      <trkpt lat="45.43565" lon="4.69671">
        <ele>474</ele>
        <time>2019-09-29T07:35:32.000Z</time>
      </trkpt>
      <trkpt lat="45.43566" lon="4.69669">
        <ele>475</ele>
        <time>2019-09-29T07:35:33.000Z</time>
      </trkpt>
      <trkpt lat="45.43566" lon="4.69666">
        <ele>475</ele>
        <time>2019-09-29T07:35:34.000Z</time>
      </trkpt>
      <trkpt lat="45.43568" lon="4.69662">
        <ele>475</ele>
        <time>2019-09-29T07:35:36.000Z</time>
      </trkpt>
      <trkpt lat="45.43569" lon="4.69658">
        <ele>475</ele>
        <time>2019-09-29T07:35:38.000Z</time>
      </trkpt>
      <trkpt lat="45.4357" lon="4.69656">
        <ele>475</ele>
        <time>2019-09-29T07:35:39.000Z</time>
      </trkpt>
      <trkpt lat="45.43571" lon="4.69653">
        <ele>475.25252446892</ele>
        <time>2019-09-29T07:35:40.000Z</time>
      </trkpt>
      <trkpt lat="45.43572" lon="4.6965">
        <ele>476</ele>
        <time>2019-09-29T07:35:41.000Z</time>
      </trkpt>
      <trkpt lat="45.43573" lon="4.69648">
        <ele>476</ele>
        <time>2019-09-29T07:35:42.000Z</time>
      </trkpt>
      <trkpt lat="45.43574" lon="4.69645">
        <ele>476</ele>
        <time>2019-09-29T07:35:43.000Z</time>
      </trkpt>
      <trkpt lat="45.43574" lon="4.69642">
        <ele>476</ele>
        <time>2019-09-29T07:35:44.000Z</time>
      </trkpt>
      <trkpt lat="45.43575" lon="4.6964">
        <ele>476</ele>
        <time>2019-09-29T07:35:45.000Z</time>
      </trkpt>
      <trkpt lat="45.43576" lon="4.69638">
        <ele>476</ele>
        <time>2019-09-29T07:35:46.000Z</time>
      </trkpt>
      <trkpt lat="45.43578" lon="4.69635">
        <ele>476</ele>
        <time>2019-09-29T07:35:47.000Z</time>
      </trkpt>
      <trkpt lat="45.4358" lon="4.69632">
        <ele>477</ele>
        <time>2019-09-29T07:35:49.000Z</time>
      </trkpt>
      <trkpt lat="45.43581" lon="4.6963">
        <ele>477</ele>
        <time>2019-09-29T07:35:50.000Z</time>
      </trkpt>
      <trkpt lat="45.43583" lon="4.69626">
        <ele>477</ele>
        <time>2019-09-29T07:35:52.000Z</time>
      </trkpt>
      <trkpt lat="45.43585" lon="4.69625">
        <ele>478</ele>
        <time>2019-09-29T07:35:56.000Z</time>
      </trkpt>
      <trkpt lat="45.43586" lon="4.69622">
        <ele>478</ele>
        <time>2019-09-29T07:36:01.000Z</time>
      </trkpt>
      <trkpt lat="45.43588" lon="4.69619">
        <ele>478</ele>
        <time>2019-09-29T07:36:03.000Z</time>
      </trkpt>
      <trkpt lat="45.4359" lon="4.69615">
        <ele>478</ele>
        <time>2019-09-29T07:36:05.000Z</time>
      </trkpt>
      <trkpt lat="45.43591" lon="4.69613">
        <ele>478</ele>
        <time>2019-09-29T07:36:06.000Z</time>
      </trkpt>
      <trkpt lat="45.43593" lon="4.69611">
        <ele>478</ele>
        <time>2019-09-29T07:36:07.000Z</time>
      </trkpt>
      <trkpt lat="45.43594" lon="4.69609">
        <ele>478</ele>
        <time>2019-09-29T07:36:08.000Z</time>
      </trkpt>
      <trkpt lat="45.43596" lon="4.69607">
        <ele>478</ele>
        <time>2019-09-29T07:36:09.000Z</time>
      </trkpt>
      <trkpt lat="45.43597" lon="4.69605">
        <ele>478</ele>
        <time>2019-09-29T07:36:10.000Z</time>
      </trkpt>
      <trkpt lat="45.43598" lon="4.69603">
        <ele>478</ele>
        <time>2019-09-29T07:36:11.000Z</time>
      </trkpt>
      <trkpt lat="45.436" lon="4.69601">
        <ele>478</ele>
        <time>2019-09-29T07:36:12.000Z</time>
      </trkpt>
      <trkpt lat="45.43601" lon="4.69599">
        <ele>478</ele>
        <time>2019-09-29T07:36:13.000Z</time>
      </trkpt>
      <trkpt lat="45.43603" lon="4.69597">
        <ele>478</ele>
        <time>2019-09-29T07:36:14.000Z</time>
      </trkpt>
      <trkpt lat="45.43604" lon="4.69595">
        <ele>478.26000307196</ele>
        <time>2019-09-29T07:36:15.000Z</time>
      </trkpt>
      <trkpt lat="45.43606" lon="4.69592">
        <ele>479</ele>
        <time>2019-09-29T07:36:16.000Z</time>
      </trkpt>
      <trkpt lat="45.43607" lon="4.6959">
        <ele>479</ele>
        <time>2019-09-29T07:36:17.000Z</time>
      </trkpt>
      <trkpt lat="45.43609" lon="4.69587">
        <ele>479</ele>
        <time>2019-09-29T07:36:18.000Z</time>
      </trkpt>
      <trkpt lat="45.4361" lon="4.69585">
        <ele>479</ele>
        <time>2019-09-29T07:36:19.000Z</time>
      </trkpt>
      <trkpt lat="45.43612" lon="4.69581">
        <ele>479</ele>
        <time>2019-09-29T07:36:21.000Z</time>
      </trkpt>
      <trkpt lat="45.43614" lon="4.69577">
        <ele>479</ele>
        <time>2019-09-29T07:36:23.000Z</time>
      </trkpt>
      <trkpt lat="45.43615" lon="4.69575">
        <ele>479</ele>
        <time>2019-09-29T07:36:24.000Z</time>
      </trkpt>
      <trkpt lat="45.43617" lon="4.69573">
        <ele>479</ele>
        <time>2019-09-29T07:36:25.000Z</time>
      </trkpt>
      <trkpt lat="45.43618" lon="4.69571">
        <ele>479.25999692796</ele>
        <time>2019-09-29T07:36:26.000Z</time>
      </trkpt>
      <trkpt lat="45.4362" lon="4.69569">
        <ele>480</ele>
        <time>2019-09-29T07:36:27.000Z</time>
      </trkpt>
      <trkpt lat="45.43622" lon="4.69566">
        <ele>480</ele>
        <time>2019-09-29T07:36:29.000Z</time>
      </trkpt>
      <trkpt lat="45.43625" lon="4.69563">
        <ele>480</ele>
        <time>2019-09-29T07:36:31.000Z</time>
      </trkpt>
      <trkpt lat="45.43627" lon="4.69559">
        <ele>480</ele>
        <time>2019-09-29T07:36:33.000Z</time>
      </trkpt>
      <trkpt lat="45.43629" lon="4.69555">
        <ele>480</ele>
        <time>2019-09-29T07:36:35.000Z</time>
      </trkpt>
      <trkpt lat="45.43631" lon="4.69553">
        <ele>480</ele>
        <time>2019-09-29T07:36:36.000Z</time>
      </trkpt>
      <trkpt lat="45.43632" lon="4.69551">
        <ele>480</ele>
        <time>2019-09-29T07:36:37.000Z</time>
      </trkpt>
      <trkpt lat="45.43633" lon="4.69549">
        <ele>480</ele>
        <time>2019-09-29T07:36:38.000Z</time>
      </trkpt>
      <trkpt lat="45.43635" lon="4.69546">
        <ele>480</ele>
        <time>2019-09-29T07:36:39.000Z</time>
      </trkpt>
      <trkpt lat="45.43636" lon="4.69544">
        <ele>480</ele>
        <time>2019-09-29T07:36:40.000Z</time>
      </trkpt>
      <trkpt lat="45.43638" lon="4.69541">
        <ele>480</ele>
        <time>2019-09-29T07:36:41.000Z</time>
      </trkpt>
      <trkpt lat="45.4364" lon="4.69538">
        <ele>480</ele>
        <time>2019-09-29T07:36:42.000Z</time>
      </trkpt>
      <trkpt lat="45.43643" lon="4.69535">
        <ele>480</ele>
        <time>2019-09-29T07:36:43.000Z</time>
      </trkpt>
      <trkpt lat="45.43645" lon="4.69531">
        <ele>480</ele>
        <time>2019-09-29T07:36:44.000Z</time>
      </trkpt>
      <trkpt lat="45.43648" lon="4.69527">
        <ele>480</ele>
        <time>2019-09-29T07:36:45.000Z</time>
      </trkpt>
      <trkpt lat="45.43651" lon="4.69522">
        <ele>480</ele>
        <time>2019-09-29T07:36:46.000Z</time>
      </trkpt>
      <trkpt lat="45.43655" lon="4.69517">
        <ele>480</ele>
        <time>2019-09-29T07:36:47.000Z</time>
      </trkpt>
      <trkpt lat="45.43659" lon="4.69512">
        <ele>480</ele>
        <time>2019-09-29T07:36:48.000Z</time>
      </trkpt>
      <trkpt lat="45.43663" lon="4.69507">
        <ele>480</ele>
        <time>2019-09-29T07:36:49.000Z</time>
      </trkpt>
      <trkpt lat="45.43667" lon="4.69502">
        <ele>479.03061531027</ele>
        <time>2019-09-29T07:36:50.000Z</time>
      </trkpt>
      <trkpt lat="45.43671" lon="4.69497">
        <ele>479</ele>
        <time>2019-09-29T07:36:51.000Z</time>
      </trkpt>
      <trkpt lat="45.43673" lon="4.69493">
        <ele>479</ele>
        <time>2019-09-29T07:36:52.000Z</time>
      </trkpt>
      <trkpt lat="45.43676" lon="4.69489">
        <ele>479</ele>
        <time>2019-09-29T07:36:53.000Z</time>
      </trkpt>
      <trkpt lat="45.43678" lon="4.69487">
        <ele>479</ele>
        <time>2019-09-29T07:36:54.000Z</time>
      </trkpt>
      <trkpt lat="45.43681" lon="4.69485">
        <ele>479</ele>
        <time>2019-09-29T07:36:55.000Z</time>
      </trkpt>
      <trkpt lat="45.43684" lon="4.69483">
        <ele>478.74747553108</ele>
        <time>2019-09-29T07:36:56.000Z</time>
      </trkpt>
      <trkpt lat="45.43687" lon="4.69482">
        <ele>478</ele>
        <time>2019-09-29T07:36:57.000Z</time>
      </trkpt>
      <trkpt lat="45.4369" lon="4.69481">
        <ele>478</ele>
        <time>2019-09-29T07:36:58.000Z</time>
      </trkpt>
      <trkpt lat="45.43694" lon="4.69479">
        <ele>478</ele>
        <time>2019-09-29T07:36:59.000Z</time>
      </trkpt>
      <trkpt lat="45.43697" lon="4.69478">
        <ele>478</ele>
        <time>2019-09-29T07:37:00.000Z</time>
      </trkpt>
      <trkpt lat="45.43701" lon="4.69477">
        <ele>478</ele>
        <time>2019-09-29T07:37:01.000Z</time>
      </trkpt>
      <trkpt lat="45.43705" lon="4.69475">
        <ele>478</ele>
        <time>2019-09-29T07:37:02.000Z</time>
      </trkpt>
      <trkpt lat="45.43709" lon="4.69474">
        <ele>477</ele>
        <time>2019-09-29T07:37:03.000Z</time>
      </trkpt>
      <trkpt lat="45.43713" lon="4.69472">
        <ele>477</ele>
        <time>2019-09-29T07:37:04.000Z</time>
      </trkpt>
      <trkpt lat="45.43717" lon="4.69471">
        <ele>477</ele>
        <time>2019-09-29T07:37:05.000Z</time>
      </trkpt>
      <trkpt lat="45.43721" lon="4.69469">
        <ele>477</ele>
        <time>2019-09-29T07:37:06.000Z</time>
      </trkpt>
      <trkpt lat="45.43725" lon="4.69468">
        <ele>476.73999692804</ele>
        <time>2019-09-29T07:37:07.000Z</time>
      </trkpt>
      <trkpt lat="45.4373" lon="4.69466">
        <ele>476</ele>
        <time>2019-09-29T07:37:08.000Z</time>
      </trkpt>
      <trkpt lat="45.43734" lon="4.69465">
        <ele>476</ele>
        <time>2019-09-29T07:37:09.000Z</time>
      </trkpt>
      <trkpt lat="45.43738" lon="4.69463">
        <ele>476</ele>
        <time>2019-09-29T07:37:10.000Z</time>
      </trkpt>
      <trkpt lat="45.43743" lon="4.69461">
        <ele>476</ele>
        <time>2019-09-29T07:37:11.000Z</time>
      </trkpt>
      <trkpt lat="45.43747" lon="4.69459">
        <ele>476</ele>
        <time>2019-09-29T07:37:12.000Z</time>
      </trkpt>
      <trkpt lat="45.43751" lon="4.69458">
        <ele>476</ele>
        <time>2019-09-29T07:37:13.000Z</time>
      </trkpt>
      <trkpt lat="45.43755" lon="4.69456">
        <ele>476</ele>
        <time>2019-09-29T07:37:14.000Z</time>
      </trkpt>
      <trkpt lat="45.43759" lon="4.69454">
        <ele>475.76288564567</ele>
        <time>2019-09-29T07:37:15.000Z</time>
      </trkpt>
      <trkpt lat="45.43763" lon="4.69452">
        <ele>475</ele>
        <time>2019-09-29T07:37:16.000Z</time>
      </trkpt>
      <trkpt lat="45.43766" lon="4.69452">
        <ele>475</ele>
        <time>2019-09-29T07:37:17.000Z</time>
      </trkpt>
      <trkpt lat="45.43768" lon="4.69454">
        <ele>475</ele>
        <time>2019-09-29T07:37:18.000Z</time>
      </trkpt>
      <trkpt lat="45.43769" lon="4.69458">
        <ele>475</ele>
        <time>2019-09-29T07:37:19.000Z</time>
      </trkpt>
      <trkpt lat="45.4377" lon="4.69462">
        <ele>475</ele>
        <time>2019-09-29T07:37:20.000Z</time>
      </trkpt>
      <trkpt lat="45.4377" lon="4.69467">
        <ele>475</ele>
        <time>2019-09-29T07:37:21.000Z</time>
      </trkpt>
      <trkpt lat="45.43772" lon="4.69471">
        <ele>475</ele>
        <time>2019-09-29T07:37:22.000Z</time>
      </trkpt>
      <trkpt lat="45.43773" lon="4.69475">
        <ele>474.73999692804</ele>
        <time>2019-09-29T07:37:23.000Z</time>
      </trkpt>
      <trkpt lat="45.43775" lon="4.69479">
        <ele>474</ele>
        <time>2019-09-29T07:37:24.000Z</time>
      </trkpt>
      <trkpt lat="45.43777" lon="4.69483">
        <ele>474</ele>
        <time>2019-09-29T07:37:25.000Z</time>
      </trkpt>
      <trkpt lat="45.43778" lon="4.69487">
        <ele>474</ele>
        <time>2019-09-29T07:37:26.000Z</time>
      </trkpt>
      <trkpt lat="45.4378" lon="4.69491">
        <ele>474</ele>
        <time>2019-09-29T07:37:27.000Z</time>
      </trkpt>
      <trkpt lat="45.43781" lon="4.69495">
        <ele>474</ele>
        <time>2019-09-29T07:37:28.000Z</time>
      </trkpt>
      <trkpt lat="45.43782" lon="4.69499">
        <ele>474</ele>
        <time>2019-09-29T07:37:29.000Z</time>
      </trkpt>
      <trkpt lat="45.43784" lon="4.69503">
        <ele>474</ele>
        <time>2019-09-29T07:37:30.000Z</time>
      </trkpt>
      <trkpt lat="45.43785" lon="4.69508">
        <ele>474</ele>
        <time>2019-09-29T07:37:31.000Z</time>
      </trkpt>
      <trkpt lat="45.43786" lon="4.69512">
        <ele>474</ele>
        <time>2019-09-29T07:37:32.000Z</time>
      </trkpt>
      <trkpt lat="45.43788" lon="4.69516">
        <ele>473.74257036765</ele>
        <time>2019-09-29T07:37:33.000Z</time>
      </trkpt>
      <trkpt lat="45.43789" lon="4.6952">
        <ele>473</ele>
        <time>2019-09-29T07:37:34.000Z</time>
      </trkpt>
      <trkpt lat="45.43791" lon="4.69525">
        <ele>473</ele>
        <time>2019-09-29T07:37:35.000Z</time>
      </trkpt>
      <trkpt lat="45.43793" lon="4.69532">
        <ele>473</ele>
        <time>2019-09-29T07:37:36.000Z</time>
      </trkpt>
      <trkpt lat="45.43796" lon="4.69538">
        <ele>473</ele>
        <time>2019-09-29T07:37:37.000Z</time>
      </trkpt>
      <trkpt lat="45.43798" lon="4.69545">
        <ele>473</ele>
        <time>2019-09-29T07:37:38.000Z</time>
      </trkpt>
      <trkpt lat="45.438" lon="4.69551">
        <ele>473</ele>
        <time>2019-09-29T07:37:39.000Z</time>
      </trkpt>
      <trkpt lat="45.43802" lon="4.69558">
        <ele>473</ele>
        <time>2019-09-29T07:37:40.000Z</time>
      </trkpt>
      <trkpt lat="45.43804" lon="4.69566">
        <ele>473</ele>
        <time>2019-09-29T07:37:41.000Z</time>
      </trkpt>
      <trkpt lat="45.43806" lon="4.69573">
        <ele>473</ele>
        <time>2019-09-29T07:37:42.000Z</time>
      </trkpt>
      <trkpt lat="45.43809" lon="4.6958">
        <ele>473</ele>
        <time>2019-09-29T07:37:43.000Z</time>
      </trkpt>
      <trkpt lat="45.43811" lon="4.69587">
        <ele>473</ele>
        <time>2019-09-29T07:37:44.000Z</time>
      </trkpt>
      <trkpt lat="45.43814" lon="4.69594">
        <ele>472.73999692804</ele>
        <time>2019-09-29T07:37:45.000Z</time>
      </trkpt>
      <trkpt lat="45.43817" lon="4.69602">
        <ele>472</ele>
        <time>2019-09-29T07:37:46.000Z</time>
      </trkpt>
      <trkpt lat="45.43819" lon="4.69609">
        <ele>472</ele>
        <time>2019-09-29T07:37:47.000Z</time>
      </trkpt>
      <trkpt lat="45.43822" lon="4.69615">
        <ele>472</ele>
        <time>2019-09-29T07:37:48.000Z</time>
      </trkpt>
      <trkpt lat="45.43824" lon="4.69623">
        <ele>472</ele>
        <time>2019-09-29T07:37:49.000Z</time>
      </trkpt>
      <trkpt lat="45.43826" lon="4.69629">
        <ele>472</ele>
        <time>2019-09-29T07:37:50.000Z</time>
      </trkpt>
      <trkpt lat="45.43829" lon="4.69633">
        <ele>472</ele>
        <time>2019-09-29T07:37:51.000Z</time>
      </trkpt>
      <trkpt lat="45.43831" lon="4.69638">
        <ele>472</ele>
        <time>2019-09-29T07:37:52.000Z</time>
      </trkpt>
      <trkpt lat="45.43833" lon="4.69644">
        <ele>472</ele>
        <time>2019-09-29T07:37:53.000Z</time>
      </trkpt>
      <trkpt lat="45.43835" lon="4.69648">
        <ele>472</ele>
        <time>2019-09-29T07:37:54.000Z</time>
      </trkpt>
      <trkpt lat="45.43837" lon="4.69653">
        <ele>472</ele>
        <time>2019-09-29T07:37:55.000Z</time>
      </trkpt>
      <trkpt lat="45.4384" lon="4.6966">
        <ele>472</ele>
        <time>2019-09-29T07:37:56.000Z</time>
      </trkpt>
      <trkpt lat="45.43843" lon="4.69667">
        <ele>472</ele>
        <time>2019-09-29T07:37:57.000Z</time>
      </trkpt>
      <trkpt lat="45.43848" lon="4.69674">
        <ele>471.79845407368</ele>
        <time>2019-09-29T07:37:58.000Z</time>
      </trkpt>
      <trkpt lat="45.43852" lon="4.69682">
        <ele>471.02325835227</ele>
        <time>2019-09-29T07:37:59.000Z</time>
      </trkpt>
      <trkpt lat="45.43856" lon="4.69691">
        <ele>471</ele>
        <time>2019-09-29T07:38:00.000Z</time>
      </trkpt>
      <trkpt lat="45.43861" lon="4.697">
        <ele>471</ele>
        <time>2019-09-29T07:38:01.000Z</time>
      </trkpt>
      <trkpt lat="45.43865" lon="4.6971">
        <ele>470.74000307204</ele>
        <time>2019-09-29T07:38:02.000Z</time>
      </trkpt>
      <trkpt lat="45.4387" lon="4.69719">
        <ele>470</ele>
        <time>2019-09-29T07:38:03.000Z</time>
      </trkpt>
      <trkpt lat="45.43875" lon="4.69728">
        <ele>470</ele>
        <time>2019-09-29T07:38:04.000Z</time>
      </trkpt>
      <trkpt lat="45.4388" lon="4.69737">
        <ele>469.837496</ele>
        <time>2019-09-29T07:38:05.000Z</time>
      </trkpt>
      <trkpt lat="45.43884" lon="4.69746">
        <ele>469.212496</ele>
        <time>2019-09-29T07:38:06.000Z</time>
      </trkpt>
      <trkpt lat="45.43889" lon="4.69754">
        <ele>469</ele>
        <time>2019-09-29T07:38:07.000Z</time>
      </trkpt>
      <trkpt lat="45.43893" lon="4.69763">
        <ele>468.74000307204</ele>
        <time>2019-09-29T07:38:08.000Z</time>
      </trkpt>
      <trkpt lat="45.43898" lon="4.69771">
        <ele>468</ele>
        <time>2019-09-29T07:38:09.000Z</time>
      </trkpt>
      <trkpt lat="45.43902" lon="4.6978">
        <ele>467.74000307204</ele>
        <time>2019-09-29T07:38:10.000Z</time>
      </trkpt>
      <trkpt lat="45.43906" lon="4.6979">
        <ele>467</ele>
        <time>2019-09-29T07:38:11.000Z</time>
      </trkpt>
      <trkpt lat="45.4391" lon="4.69799">
        <ele>467</ele>
        <time>2019-09-29T07:38:12.000Z</time>
      </trkpt>
      <trkpt lat="45.43915" lon="4.6981">
        <ele>466</ele>
        <time>2019-09-29T07:38:13.000Z</time>
      </trkpt>
      <trkpt lat="45.43919" lon="4.69821">
        <ele>465.75510044147</ele>
        <time>2019-09-29T07:38:14.000Z</time>
      </trkpt>
      <trkpt lat="45.43924" lon="4.69833">
        <ele>464.73999692804</ele>
        <time>2019-09-29T07:38:15.000Z</time>
      </trkpt>
      <trkpt lat="45.43928" lon="4.69846">
        <ele>463.74000307204</ele>
        <time>2019-09-29T07:38:16.000Z</time>
      </trkpt>
      <trkpt lat="45.43932" lon="4.69859">
        <ele>462.60304463378</ele>
        <time>2019-09-29T07:38:17.000Z</time>
      </trkpt>
      <trkpt lat="45.43936" lon="4.69872">
        <ele>461.07633080591</ele>
        <time>2019-09-29T07:38:18.000Z</time>
      </trkpt>
      <trkpt lat="45.4394" lon="4.69887">
        <ele>460.73999692804</ele>
        <time>2019-09-29T07:38:19.000Z</time>
      </trkpt>
      <trkpt lat="45.43944" lon="4.69902">
        <ele>459.74000307204</ele>
        <time>2019-09-29T07:38:20.000Z</time>
      </trkpt>
      <trkpt lat="45.43949" lon="4.69916">
        <ele>458.80152231689</ele>
        <time>2019-09-29T07:38:21.000Z</time>
      </trkpt>
      <trkpt lat="45.43953" lon="4.69931">
        <ele>458.03816540295</ele>
        <time>2019-09-29T07:38:22.000Z</time>
      </trkpt>
      <trkpt lat="45.43957" lon="4.69946">
        <ele>456.73999692804</ele>
        <time>2019-09-29T07:38:23.000Z</time>
      </trkpt>
      <trkpt lat="45.43961" lon="4.6996">
        <ele>455.79688</ele>
        <time>2019-09-29T07:38:24.000Z</time>
      </trkpt>
      <trkpt lat="45.43964" lon="4.69975">
        <ele>455.01563</ele>
        <time>2019-09-29T07:38:25.000Z</time>
      </trkpt>
      <trkpt lat="45.43968" lon="4.69989">
        <ele>454.80153014862</ele>
        <time>2019-09-29T07:38:26.000Z</time>
      </trkpt>
      <trkpt lat="45.43971" lon="4.70002">
        <ele>454.03816577587</ele>
        <time>2019-09-29T07:38:27.000Z</time>
      </trkpt>
      <trkpt lat="45.43974" lon="4.70015">
        <ele>453.74510271437</ele>
        <time>2019-09-29T07:38:28.000Z</time>
      </trkpt>
      <trkpt lat="45.43978" lon="4.70028">
        <ele>452.75510364014</ele>
        <time>2019-09-29T07:38:29.000Z</time>
      </trkpt>
      <trkpt lat="45.43982" lon="4.7004">
        <ele>452</ele>
        <time>2019-09-29T07:38:30.000Z</time>
      </trkpt>
      <trkpt lat="45.43986" lon="4.70052">
        <ele>451.80152231689</ele>
        <time>2019-09-29T07:38:31.000Z</time>
      </trkpt>
      <trkpt lat="45.43989" lon="4.70063">
        <ele>451.03816540295</ele>
        <time>2019-09-29T07:38:32.000Z</time>
      </trkpt>
      <trkpt lat="45.43992" lon="4.70074">
        <ele>450.7475673862</ele>
        <time>2019-09-29T07:38:33.000Z</time>
      </trkpt>
      <trkpt lat="45.43995" lon="4.70085">
        <ele>450</ele>
        <time>2019-09-29T07:38:34.000Z</time>
      </trkpt>
      <trkpt lat="45.43999" lon="4.70096">
        <ele>450</ele>
        <time>2019-09-29T07:38:35.000Z</time>
      </trkpt>
      <trkpt lat="45.44002" lon="4.70106">
        <ele>449.7500032</ele>
        <time>2019-09-29T07:38:36.000Z</time>
      </trkpt>
      <trkpt lat="45.44005" lon="4.70116">
        <ele>449</ele>
        <time>2019-09-29T07:38:37.000Z</time>
      </trkpt>
      <trkpt lat="45.44007" lon="4.70126">
        <ele>449</ele>
        <time>2019-09-29T07:38:38.000Z</time>
      </trkpt>
      <trkpt lat="45.4401" lon="4.70136">
        <ele>448.74509336412</ele>
        <time>2019-09-29T07:38:39.000Z</time>
      </trkpt>
      <trkpt lat="45.44013" lon="4.70145">
        <ele>448</ele>
        <time>2019-09-29T07:38:40.000Z</time>
      </trkpt>
      <trkpt lat="45.44015" lon="4.70155">
        <ele>448</ele>
        <time>2019-09-29T07:38:41.000Z</time>
      </trkpt>
      <trkpt lat="45.44017" lon="4.70164">
        <ele>447.74000307204</ele>
        <time>2019-09-29T07:38:42.000Z</time>
      </trkpt>
      <trkpt lat="45.44017" lon="4.70174">
        <ele>447</ele>
        <time>2019-09-29T07:38:43.000Z</time>
      </trkpt>
      <trkpt lat="45.44017" lon="4.70183">
        <ele>447</ele>
        <time>2019-09-29T07:38:44.000Z</time>
      </trkpt>
      <trkpt lat="45.44017" lon="4.70192">
        <ele>446.80152231689</ele>
        <time>2019-09-29T07:38:45.000Z</time>
      </trkpt>
      <trkpt lat="45.44017" lon="4.702">
        <ele>446.03816540295</ele>
        <time>2019-09-29T07:38:46.000Z</time>
      </trkpt>
      <trkpt lat="45.44017" lon="4.70206">
        <ele>446</ele>
        <time>2019-09-29T07:38:47.000Z</time>
      </trkpt>
      <trkpt lat="45.44017" lon="4.7021">
        <ele>446</ele>
        <time>2019-09-29T07:38:48.000Z</time>
      </trkpt>
      <trkpt lat="45.44018" lon="4.70214">
        <ele>446</ele>
        <time>2019-09-29T07:38:50.000Z</time>
      </trkpt>
      <trkpt lat="45.44019" lon="4.70216">
        <ele>445</ele>
        <time>2019-09-29T07:38:53.000Z</time>
      </trkpt>
      <trkpt lat="45.44021" lon="4.70217">
        <ele>445</ele>
        <time>2019-09-29T07:38:54.000Z</time>
      </trkpt>
      <trkpt lat="45.44023" lon="4.7022">
        <ele>445</ele>
        <time>2019-09-29T07:38:55.000Z</time>
      </trkpt>
      <trkpt lat="45.44025" lon="4.70224">
        <ele>445</ele>
        <time>2019-09-29T07:38:56.000Z</time>
      </trkpt>
      <trkpt lat="45.44026" lon="4.70229">
        <ele>445</ele>
        <time>2019-09-29T07:38:57.000Z</time>
      </trkpt>
      <trkpt lat="45.44029" lon="4.70235">
        <ele>445</ele>
        <time>2019-09-29T07:38:58.000Z</time>
      </trkpt>
      <trkpt lat="45.44031" lon="4.70241">
        <ele>444.73999692804</ele>
        <time>2019-09-29T07:38:59.000Z</time>
      </trkpt>
      <trkpt lat="45.44034" lon="4.70247">
        <ele>444</ele>
        <time>2019-09-29T07:39:00.000Z</time>
      </trkpt>
      <trkpt lat="45.44036" lon="4.70254">
        <ele>444</ele>
        <time>2019-09-29T07:39:01.000Z</time>
      </trkpt>
      <trkpt lat="45.44039" lon="4.70261">
        <ele>444</ele>
        <time>2019-09-29T07:39:02.000Z</time>
      </trkpt>
      <trkpt lat="45.44042" lon="4.70269">
        <ele>444</ele>
        <time>2019-09-29T07:39:03.000Z</time>
      </trkpt>
      <trkpt lat="45.44045" lon="4.70276">
        <ele>444</ele>
        <time>2019-09-29T07:39:04.000Z</time>
      </trkpt>
      <trkpt lat="45.44048" lon="4.70283">
        <ele>444</ele>
        <time>2019-09-29T07:39:05.000Z</time>
      </trkpt>
      <trkpt lat="45.44051" lon="4.70291">
        <ele>443.74000307204</ele>
        <time>2019-09-29T07:39:06.000Z</time>
      </trkpt>
      <trkpt lat="45.44054" lon="4.70298">
        <ele>443</ele>
        <time>2019-09-29T07:39:07.000Z</time>
      </trkpt>
      <trkpt lat="45.44057" lon="4.70306">
        <ele>443</ele>
        <time>2019-09-29T07:39:08.000Z</time>
      </trkpt>
      <trkpt lat="45.4406" lon="4.70313">
        <ele>443</ele>
        <time>2019-09-29T07:39:09.000Z</time>
      </trkpt>
      <trkpt lat="45.44063" lon="4.7032">
        <ele>443</ele>
        <time>2019-09-29T07:39:10.000Z</time>
      </trkpt>
      <trkpt lat="45.44066" lon="4.70326">
        <ele>443</ele>
        <time>2019-09-29T07:39:11.000Z</time>
      </trkpt>
      <trkpt lat="45.44068" lon="4.70333">
        <ele>443</ele>
        <time>2019-09-29T07:39:12.000Z</time>
      </trkpt>
      <trkpt lat="45.4407" lon="4.7034">
        <ele>443</ele>
        <time>2019-09-29T07:39:13.000Z</time>
      </trkpt>
      <trkpt lat="45.44072" lon="4.70348">
        <ele>443</ele>
        <time>2019-09-29T07:39:14.000Z</time>
      </trkpt>
      <trkpt lat="45.44075" lon="4.70355">
        <ele>443</ele>
        <time>2019-09-29T07:39:15.000Z</time>
      </trkpt>
      <trkpt lat="45.44077" lon="4.70363">
        <ele>442.74000307204</ele>
        <time>2019-09-29T07:39:16.000Z</time>
      </trkpt>
      <trkpt lat="45.44079" lon="4.7037">
        <ele>442</ele>
        <time>2019-09-29T07:39:17.000Z</time>
      </trkpt>
      <trkpt lat="45.44082" lon="4.70378">
        <ele>442</ele>
        <time>2019-09-29T07:39:18.000Z</time>
      </trkpt>
      <trkpt lat="45.44084" lon="4.70385">
        <ele>442</ele>
        <time>2019-09-29T07:39:19.000Z</time>
      </trkpt>
      <trkpt lat="45.44086" lon="4.70392">
        <ele>442</ele>
        <time>2019-09-29T07:39:20.000Z</time>
      </trkpt>
      <trkpt lat="45.44089" lon="4.70399">
        <ele>442</ele>
        <time>2019-09-29T07:39:21.000Z</time>
      </trkpt>
      <trkpt lat="45.44091" lon="4.70405">
        <ele>442</ele>
        <time>2019-09-29T07:39:22.000Z</time>
      </trkpt>
      <trkpt lat="45.44093" lon="4.70412">
        <ele>442</ele>
        <time>2019-09-29T07:39:23.000Z</time>
      </trkpt>
      <trkpt lat="45.44095" lon="4.70418">
        <ele>442</ele>
        <time>2019-09-29T07:39:24.000Z</time>
      </trkpt>
      <trkpt lat="45.44097" lon="4.70424">
        <ele>442</ele>
        <time>2019-09-29T07:39:25.000Z</time>
      </trkpt>
      <trkpt lat="45.44098" lon="4.7043">
        <ele>442</ele>
        <time>2019-09-29T07:39:26.000Z</time>
      </trkpt>
      <trkpt lat="45.441" lon="4.70436">
        <ele>442</ele>
        <time>2019-09-29T07:39:27.000Z</time>
      </trkpt>
      <trkpt lat="45.44102" lon="4.70442">
        <ele>442</ele>
        <time>2019-09-29T07:39:28.000Z</time>
      </trkpt>
      <trkpt lat="45.44104" lon="4.70447">
        <ele>442</ele>
        <time>2019-09-29T07:39:29.000Z</time>
      </trkpt>
      <trkpt lat="45.44105" lon="4.70452">
        <ele>442</ele>
        <time>2019-09-29T07:39:30.000Z</time>
      </trkpt>
      <trkpt lat="45.44107" lon="4.70456">
        <ele>442</ele>
        <time>2019-09-29T07:39:31.000Z</time>
      </trkpt>
      <trkpt lat="45.44108" lon="4.70461">
        <ele>442</ele>
        <time>2019-09-29T07:39:32.000Z</time>
      </trkpt>
      <trkpt lat="45.4411" lon="4.70465">
        <ele>442</ele>
        <time>2019-09-29T07:39:33.000Z</time>
      </trkpt>
      <trkpt lat="45.44111" lon="4.70469">
        <ele>442</ele>
        <time>2019-09-29T07:39:34.000Z</time>
      </trkpt>
      <trkpt lat="45.44113" lon="4.70473">
        <ele>442</ele>
        <time>2019-09-29T07:39:35.000Z</time>
      </trkpt>
      <trkpt lat="45.44114" lon="4.70478">
        <ele>442</ele>
        <time>2019-09-29T07:39:36.000Z</time>
      </trkpt>
      <trkpt lat="45.44116" lon="4.70482">
        <ele>442</ele>
        <time>2019-09-29T07:39:37.000Z</time>
      </trkpt>
      <trkpt lat="45.44118" lon="4.70487">
        <ele>442</ele>
        <time>2019-09-29T07:39:38.000Z</time>
      </trkpt>
      <trkpt lat="45.44119" lon="4.70492">
        <ele>442</ele>
        <time>2019-09-29T07:39:39.000Z</time>
      </trkpt>
      <trkpt lat="45.44121" lon="4.70496">
        <ele>442</ele>
        <time>2019-09-29T07:39:40.000Z</time>
      </trkpt>
      <trkpt lat="45.44123" lon="4.70501">
        <ele>442</ele>
        <time>2019-09-29T07:39:41.000Z</time>
      </trkpt>
      <trkpt lat="45.44124" lon="4.70504">
        <ele>442</ele>
        <time>2019-09-29T07:39:42.000Z</time>
      </trkpt>
      <trkpt lat="45.44125" lon="4.70507">
        <ele>442</ele>
        <time>2019-09-29T07:39:51.000Z</time>
      </trkpt>
      <trkpt lat="45.44126" lon="4.70511">
        <ele>442</ele>
        <time>2019-09-29T07:39:56.000Z</time>
      </trkpt>
      <trkpt lat="45.44128" lon="4.70515">
        <ele>442</ele>
        <time>2019-09-29T07:39:58.000Z</time>
      </trkpt>
      <trkpt lat="45.44129" lon="4.70518">
        <ele>442</ele>
        <time>2019-09-29T07:39:59.000Z</time>
      </trkpt>
      <trkpt lat="45.4413" lon="4.70521">
        <ele>442</ele>
        <time>2019-09-29T07:40:00.000Z</time>
      </trkpt>
      <trkpt lat="45.44132" lon="4.70526">
        <ele>442</ele>
        <time>2019-09-29T07:40:01.000Z</time>
      </trkpt>
      <trkpt lat="45.44134" lon="4.7053">
        <ele>442</ele>
        <time>2019-09-29T07:40:02.000Z</time>
      </trkpt>
      <trkpt lat="45.44135" lon="4.70534">
        <ele>442</ele>
        <time>2019-09-29T07:40:03.000Z</time>
      </trkpt>
      <trkpt lat="45.44137" lon="4.70539">
        <ele>442</ele>
        <time>2019-09-29T07:40:04.000Z</time>
      </trkpt>
      <trkpt lat="45.44139" lon="4.70544">
        <ele>442</ele>
        <time>2019-09-29T07:40:05.000Z</time>
      </trkpt>
      <trkpt lat="45.44142" lon="4.70548">
        <ele>442</ele>
        <time>2019-09-29T07:40:06.000Z</time>
      </trkpt>
      <trkpt lat="45.44144" lon="4.70553">
        <ele>442</ele>
        <time>2019-09-29T07:40:07.000Z</time>
      </trkpt>
      <trkpt lat="45.44145" lon="4.70557">
        <ele>442</ele>
        <time>2019-09-29T07:40:08.000Z</time>
      </trkpt>
      <trkpt lat="45.44146" lon="4.70561">
        <ele>442</ele>
        <time>2019-09-29T07:40:09.000Z</time>
      </trkpt>
      <trkpt lat="45.44148" lon="4.70566">
        <ele>442</ele>
        <time>2019-09-29T07:40:10.000Z</time>
      </trkpt>
      <trkpt lat="45.44149" lon="4.7057">
        <ele>442</ele>
        <time>2019-09-29T07:40:11.000Z</time>
      </trkpt>
      <trkpt lat="45.44151" lon="4.70575">
        <ele>442</ele>
        <time>2019-09-29T07:40:12.000Z</time>
      </trkpt>
      <trkpt lat="45.44152" lon="4.7058">
        <ele>442</ele>
        <time>2019-09-29T07:40:13.000Z</time>
      </trkpt>
      <trkpt lat="45.44154" lon="4.70585">
        <ele>442</ele>
        <time>2019-09-29T07:40:14.000Z</time>
      </trkpt>
      <trkpt lat="45.44155" lon="4.7059">
        <ele>442</ele>
        <time>2019-09-29T07:40:15.000Z</time>
      </trkpt>
      <trkpt lat="45.44157" lon="4.70595">
        <ele>442</ele>
        <time>2019-09-29T07:40:16.000Z</time>
      </trkpt>
      <trkpt lat="45.44158" lon="4.706">
        <ele>442</ele>
        <time>2019-09-29T07:40:17.000Z</time>
      </trkpt>
      <trkpt lat="45.4416" lon="4.70605">
        <ele>442</ele>
        <time>2019-09-29T07:40:18.000Z</time>
      </trkpt>
      <trkpt lat="45.44161" lon="4.7061">
        <ele>442</ele>
        <time>2019-09-29T07:40:19.000Z</time>
      </trkpt>
      <trkpt lat="45.44163" lon="4.70615">
        <ele>442</ele>
        <time>2019-09-29T07:40:20.000Z</time>
      </trkpt>
      <trkpt lat="45.44164" lon="4.7062">
        <ele>442</ele>
        <time>2019-09-29T07:40:21.000Z</time>
      </trkpt>
      <trkpt lat="45.44166" lon="4.70625">
        <ele>442</ele>
        <time>2019-09-29T07:40:22.000Z</time>
      </trkpt>
      <trkpt lat="45.44168" lon="4.7063">
        <ele>442</ele>
        <time>2019-09-29T07:40:23.000Z</time>
      </trkpt>
      <trkpt lat="45.4417" lon="4.70636">
        <ele>442</ele>
        <time>2019-09-29T07:40:24.000Z</time>
      </trkpt>
      <trkpt lat="45.44172" lon="4.70641">
        <ele>442</ele>
        <time>2019-09-29T07:40:25.000Z</time>
      </trkpt>
      <trkpt lat="45.44173" lon="4.70647">
        <ele>442</ele>
        <time>2019-09-29T07:40:26.000Z</time>
      </trkpt>
      <trkpt lat="45.44175" lon="4.70652">
        <ele>442</ele>
        <time>2019-09-29T07:40:27.000Z</time>
      </trkpt>
      <trkpt lat="45.44177" lon="4.70658">
        <ele>442.2610048</ele>
        <time>2019-09-29T07:40:28.000Z</time>
      </trkpt>
      <trkpt lat="45.44178" lon="4.70664">
        <ele>442.7389952</ele>
        <time>2019-09-29T07:40:29.000Z</time>
      </trkpt>
      <trkpt lat="45.4418" lon="4.70669">
        <ele>442</ele>
        <time>2019-09-29T07:40:30.000Z</time>
      </trkpt>
      <trkpt lat="45.44181" lon="4.70675">
        <ele>442.25563523306</ele>
        <time>2019-09-29T07:40:31.000Z</time>
      </trkpt>
      <trkpt lat="45.44183" lon="4.70681">
        <ele>443</ele>
        <time>2019-09-29T07:40:32.000Z</time>
      </trkpt>
      <trkpt lat="45.44184" lon="4.70687">
        <ele>443</ele>
        <time>2019-09-29T07:40:33.000Z</time>
      </trkpt>
      <trkpt lat="45.44185" lon="4.70692">
        <ele>443</ele>
        <time>2019-09-29T07:40:34.000Z</time>
      </trkpt>
      <trkpt lat="45.44186" lon="4.70698">
        <ele>443</ele>
        <time>2019-09-29T07:40:35.000Z</time>
      </trkpt>
      <trkpt lat="45.44187" lon="4.70703">
        <ele>443</ele>
        <time>2019-09-29T07:40:36.000Z</time>
      </trkpt>
      <trkpt lat="45.44188" lon="4.70709">
        <ele>443</ele>
        <time>2019-09-29T07:40:37.000Z</time>
      </trkpt>
      <trkpt lat="45.44189" lon="4.70713">
        <ele>443</ele>
        <time>2019-09-29T07:40:38.000Z</time>
      </trkpt>
      <trkpt lat="45.44189" lon="4.70717">
        <ele>443</ele>
        <time>2019-09-29T07:40:39.000Z</time>
      </trkpt>
      <trkpt lat="45.4419" lon="4.70721">
        <ele>443</ele>
        <time>2019-09-29T07:40:40.000Z</time>
      </trkpt>
      <trkpt lat="45.4419" lon="4.70724">
        <ele>443</ele>
        <time>2019-09-29T07:40:41.000Z</time>
      </trkpt>
      <trkpt lat="45.4419" lon="4.70728">
        <ele>443</ele>
        <time>2019-09-29T07:40:48.000Z</time>
      </trkpt>
      <trkpt lat="45.44191" lon="4.70732">
        <ele>443</ele>
        <time>2019-09-29T07:40:49.000Z</time>
      </trkpt>
      <trkpt lat="45.44192" lon="4.70736">
        <ele>443.25742022153</ele>
        <time>2019-09-29T07:40:50.000Z</time>
      </trkpt>
      <trkpt lat="45.44193" lon="4.7074">
        <ele>444</ele>
        <time>2019-09-29T07:40:51.000Z</time>
      </trkpt>
      <trkpt lat="45.44193" lon="4.70745">
        <ele>444</ele>
        <time>2019-09-29T07:40:52.000Z</time>
      </trkpt>
      <trkpt lat="45.44194" lon="4.70751">
        <ele>444</ele>
        <time>2019-09-29T07:40:53.000Z</time>
      </trkpt>
      <trkpt lat="45.44196" lon="4.70756">
        <ele>444</ele>
        <time>2019-09-29T07:40:54.000Z</time>
      </trkpt>
      <trkpt lat="45.44197" lon="4.70762">
        <ele>444</ele>
        <time>2019-09-29T07:40:55.000Z</time>
      </trkpt>
      <trkpt lat="45.44198" lon="4.70768">
        <ele>444</ele>
        <time>2019-09-29T07:40:56.000Z</time>
      </trkpt>
      <trkpt lat="45.442" lon="4.70775">
        <ele>444</ele>
        <time>2019-09-29T07:40:57.000Z</time>
      </trkpt>
      <trkpt lat="45.44201" lon="4.70782">
        <ele>444</ele>
        <time>2019-09-29T07:40:58.000Z</time>
      </trkpt>
      <trkpt lat="45.44202" lon="4.70789">
        <ele>444</ele>
        <time>2019-09-29T07:40:59.000Z</time>
      </trkpt>
      <trkpt lat="45.44204" lon="4.70795">
        <ele>444</ele>
        <time>2019-09-29T07:41:00.000Z</time>
      </trkpt>
      <trkpt lat="45.44205" lon="4.70802">
        <ele>444</ele>
        <time>2019-09-29T07:41:01.000Z</time>
      </trkpt>
      <trkpt lat="45.44206" lon="4.70808">
        <ele>444.25999692796</ele>
        <time>2019-09-29T07:41:02.000Z</time>
      </trkpt>
      <trkpt lat="45.44207" lon="4.70814">
        <ele>445</ele>
        <time>2019-09-29T07:41:03.000Z</time>
      </trkpt>
      <trkpt lat="45.44208" lon="4.70819">
        <ele>445</ele>
        <time>2019-09-29T07:41:04.000Z</time>
      </trkpt>
      <trkpt lat="45.4421" lon="4.70824">
        <ele>445</ele>
        <time>2019-09-29T07:41:05.000Z</time>
      </trkpt>
      <trkpt lat="45.44211" lon="4.70829">
        <ele>445</ele>
        <time>2019-09-29T07:41:06.000Z</time>
      </trkpt>
      <trkpt lat="45.44212" lon="4.70834">
        <ele>445</ele>
        <time>2019-09-29T07:41:07.000Z</time>
      </trkpt>
      <trkpt lat="45.44212" lon="4.70839">
        <ele>445</ele>
        <time>2019-09-29T07:41:08.000Z</time>
      </trkpt>
      <trkpt lat="45.44213" lon="4.70844">
        <ele>445</ele>
        <time>2019-09-29T07:41:09.000Z</time>
      </trkpt>
      <trkpt lat="45.44215" lon="4.7085">
        <ele>445</ele>
        <time>2019-09-29T07:41:10.000Z</time>
      </trkpt>
      <trkpt lat="45.44217" lon="4.70857">
        <ele>445</ele>
        <time>2019-09-29T07:41:11.000Z</time>
      </trkpt>
      <trkpt lat="45.44218" lon="4.70864">
        <ele>445</ele>
        <time>2019-09-29T07:41:12.000Z</time>
      </trkpt>
      <trkpt lat="45.4422" lon="4.70871">
        <ele>445</ele>
        <time>2019-09-29T07:41:13.000Z</time>
      </trkpt>
      <trkpt lat="45.44222" lon="4.70878">
        <ele>445</ele>
        <time>2019-09-29T07:41:14.000Z</time>
      </trkpt>
      <trkpt lat="45.44225" lon="4.70884">
        <ele>444.7984461511</ele>
        <time>2019-09-29T07:41:15.000Z</time>
      </trkpt>
      <trkpt lat="45.44228" lon="4.70891">
        <ele>444.02325812149</ele>
        <time>2019-09-29T07:41:16.000Z</time>
      </trkpt>
      <trkpt lat="45.44232" lon="4.70897">
        <ele>444</ele>
        <time>2019-09-29T07:41:17.000Z</time>
      </trkpt>
      <trkpt lat="45.44235" lon="4.70903">
        <ele>444</ele>
        <time>2019-09-29T07:41:18.000Z</time>
      </trkpt>
      <trkpt lat="45.44237" lon="4.70909">
        <ele>444</ele>
        <time>2019-09-29T07:41:19.000Z</time>
      </trkpt>
      <trkpt lat="45.4424" lon="4.70914">
        <ele>444</ele>
        <time>2019-09-29T07:41:20.000Z</time>
      </trkpt>
      <trkpt lat="45.44243" lon="4.70919">
        <ele>444</ele>
        <time>2019-09-29T07:41:21.000Z</time>
      </trkpt>
      <trkpt lat="45.44245" lon="4.70925">
        <ele>444</ele>
        <time>2019-09-29T07:41:22.000Z</time>
      </trkpt>
      <trkpt lat="45.44247" lon="4.7093">
        <ele>444</ele>
        <time>2019-09-29T07:41:23.000Z</time>
      </trkpt>
      <trkpt lat="45.44249" lon="4.70935">
        <ele>444</ele>
        <time>2019-09-29T07:41:24.000Z</time>
      </trkpt>
      <trkpt lat="45.44251" lon="4.70939">
        <ele>444</ele>
        <time>2019-09-29T07:41:25.000Z</time>
      </trkpt>
      <trkpt lat="45.44253" lon="4.70944">
        <ele>444</ele>
        <time>2019-09-29T07:41:26.000Z</time>
      </trkpt>
      <trkpt lat="45.44255" lon="4.70948">
        <ele>444</ele>
        <time>2019-09-29T07:41:27.000Z</time>
      </trkpt>
      <trkpt lat="45.44256" lon="4.70953">
        <ele>444</ele>
        <time>2019-09-29T07:41:28.000Z</time>
      </trkpt>
      <trkpt lat="45.44258" lon="4.70957">
        <ele>444</ele>
        <time>2019-09-29T07:41:29.000Z</time>
      </trkpt>
      <trkpt lat="45.44259" lon="4.70961">
        <ele>444</ele>
        <time>2019-09-29T07:41:30.000Z</time>
      </trkpt>
      <trkpt lat="45.44261" lon="4.70965">
        <ele>444</ele>
        <time>2019-09-29T07:41:31.000Z</time>
      </trkpt>
      <trkpt lat="45.44263" lon="4.70969">
        <ele>444</ele>
        <time>2019-09-29T07:41:32.000Z</time>
      </trkpt>
      <trkpt lat="45.44265" lon="4.70973">
        <ele>444</ele>
        <time>2019-09-29T07:41:33.000Z</time>
      </trkpt>
      <trkpt lat="45.44267" lon="4.70978">
        <ele>444</ele>
        <time>2019-09-29T07:41:34.000Z</time>
      </trkpt>
      <trkpt lat="45.44269" lon="4.70982">
        <ele>444</ele>
        <time>2019-09-29T07:41:35.000Z</time>
      </trkpt>
      <trkpt lat="45.44271" lon="4.70986">
        <ele>444</ele>
        <time>2019-09-29T07:41:36.000Z</time>
      </trkpt>
      <trkpt lat="45.44274" lon="4.7099">
        <ele>444</ele>
        <time>2019-09-29T07:41:37.000Z</time>
      </trkpt>
      <trkpt lat="45.44276" lon="4.70993">
        <ele>444.25999692796</ele>
        <time>2019-09-29T07:41:38.000Z</time>
      </trkpt>
      <trkpt lat="45.44279" lon="4.70997">
        <ele>445</ele>
        <time>2019-09-29T07:41:39.000Z</time>
      </trkpt>
      <trkpt lat="45.44281" lon="4.71001">
        <ele>445</ele>
        <time>2019-09-29T07:41:40.000Z</time>
      </trkpt>
      <trkpt lat="45.44284" lon="4.71005">
        <ele>445</ele>
        <time>2019-09-29T07:41:41.000Z</time>
      </trkpt>
      <trkpt lat="45.44285" lon="4.7101">
        <ele>444.74000307204</ele>
        <time>2019-09-29T07:41:42.000Z</time>
      </trkpt>
      <trkpt lat="45.44287" lon="4.71013">
        <ele>444</ele>
        <time>2019-09-29T07:41:43.000Z</time>
      </trkpt>
      <trkpt lat="45.44288" lon="4.71016">
        <ele>444</ele>
        <time>2019-09-29T07:41:44.000Z</time>
      </trkpt>
      <trkpt lat="45.4429" lon="4.71019">
        <ele>444</ele>
        <time>2019-09-29T07:41:45.000Z</time>
      </trkpt>
      <trkpt lat="45.44293" lon="4.71023">
        <ele>444</ele>
        <time>2019-09-29T07:41:46.000Z</time>
      </trkpt>
      <trkpt lat="45.44297" lon="4.71029">
        <ele>444</ele>
        <time>2019-09-29T07:41:47.000Z</time>
      </trkpt>
      <trkpt lat="45.443" lon="4.71036">
        <ele>444</ele>
        <time>2019-09-29T07:41:48.000Z</time>
      </trkpt>
      <trkpt lat="45.44304" lon="4.71043">
        <ele>443.73999692804</ele>
        <time>2019-09-29T07:41:49.000Z</time>
      </trkpt>
      <trkpt lat="45.44307" lon="4.71052">
        <ele>443</ele>
        <time>2019-09-29T07:41:50.000Z</time>
      </trkpt>
      <trkpt lat="45.4431" lon="4.71061">
        <ele>443</ele>
        <time>2019-09-29T07:41:51.000Z</time>
      </trkpt>
      <trkpt lat="45.44313" lon="4.71071">
        <ele>442.74000307204</ele>
        <time>2019-09-29T07:41:52.000Z</time>
      </trkpt>
      <trkpt lat="45.44316" lon="4.71081">
        <ele>442</ele>
        <time>2019-09-29T07:41:53.000Z</time>
      </trkpt>
      <trkpt lat="45.44318" lon="4.71091">
        <ele>442</ele>
        <time>2019-09-29T07:41:54.000Z</time>
      </trkpt>
      <trkpt lat="45.44319" lon="4.711">
        <ele>441</ele>
        <time>2019-09-29T07:41:55.000Z</time>
      </trkpt>
      <trkpt lat="45.4432" lon="4.71108">
        <ele>440.74000307204</ele>
        <time>2019-09-29T07:41:56.000Z</time>
      </trkpt>
      <trkpt lat="45.44321" lon="4.71115">
        <ele>440</ele>
        <time>2019-09-29T07:41:57.000Z</time>
      </trkpt>
      <trkpt lat="45.44322" lon="4.7112">
        <ele>439.74000307204</ele>
        <time>2019-09-29T07:41:58.000Z</time>
      </trkpt>
      <trkpt lat="45.44323" lon="4.71125">
        <ele>439</ele>
        <time>2019-09-29T07:41:59.000Z</time>
      </trkpt>
      <trkpt lat="45.44324" lon="4.7113">
        <ele>439</ele>
        <time>2019-09-29T07:42:00.000Z</time>
      </trkpt>
      <trkpt lat="45.44324" lon="4.71134">
        <ele>438.73999692804</ele>
        <time>2019-09-29T07:42:01.000Z</time>
      </trkpt>
      <trkpt lat="45.44324" lon="4.71139">
        <ele>438</ele>
        <time>2019-09-29T07:42:02.000Z</time>
      </trkpt>
      <trkpt lat="45.44324" lon="4.71145">
        <ele>438</ele>
        <time>2019-09-29T07:42:03.000Z</time>
      </trkpt>
      <trkpt lat="45.44324" lon="4.71151">
        <ele>438</ele>
        <time>2019-09-29T07:42:04.000Z</time>
      </trkpt>
      <trkpt lat="45.44324" lon="4.71157">
        <ele>438</ele>
        <time>2019-09-29T07:42:05.000Z</time>
      </trkpt>
      <trkpt lat="45.44324" lon="4.71164">
        <ele>437.74000307204</ele>
        <time>2019-09-29T07:42:06.000Z</time>
      </trkpt>
      <trkpt lat="45.44323" lon="4.71171">
        <ele>437</ele>
        <time>2019-09-29T07:42:07.000Z</time>
      </trkpt>
      <trkpt lat="45.44323" lon="4.71178">
        <ele>437</ele>
        <time>2019-09-29T07:42:08.000Z</time>
      </trkpt>
      <trkpt lat="45.44323" lon="4.71185">
        <ele>437</ele>
        <time>2019-09-29T07:42:09.000Z</time>
      </trkpt>
      <trkpt lat="45.44323" lon="4.71192">
        <ele>437</ele>
        <time>2019-09-29T07:42:10.000Z</time>
      </trkpt>
      <trkpt lat="45.44323" lon="4.71199">
        <ele>437</ele>
        <time>2019-09-29T07:42:11.000Z</time>
      </trkpt>
      <trkpt lat="45.44324" lon="4.71206">
        <ele>436.80469</ele>
        <time>2019-09-29T07:42:12.000Z</time>
      </trkpt>
      <trkpt lat="45.44325" lon="4.71214">
        <ele>436.02344</ele>
        <time>2019-09-29T07:42:13.000Z</time>
      </trkpt>
      <trkpt lat="45.44326" lon="4.71222">
        <ele>436</ele>
        <time>2019-09-29T07:42:14.000Z</time>
      </trkpt>
      <trkpt lat="45.44327" lon="4.7123">
        <ele>436</ele>
        <time>2019-09-29T07:42:15.000Z</time>
      </trkpt>
      <trkpt lat="45.44329" lon="4.71239">
        <ele>436</ele>
        <time>2019-09-29T07:42:16.000Z</time>
      </trkpt>
      <trkpt lat="45.4433" lon="4.71247">
        <ele>436</ele>
        <time>2019-09-29T07:42:17.000Z</time>
      </trkpt>
      <trkpt lat="45.44332" lon="4.71255">
        <ele>435.74000307204</ele>
        <time>2019-09-29T07:42:18.000Z</time>
      </trkpt>
      <trkpt lat="45.44333" lon="4.71264">
        <ele>435</ele>
        <time>2019-09-29T07:42:19.000Z</time>
      </trkpt>
      <trkpt lat="45.44335" lon="4.71272">
        <ele>435</ele>
        <time>2019-09-29T07:42:20.000Z</time>
      </trkpt>
      <trkpt lat="45.44337" lon="4.71281">
        <ele>435</ele>
        <time>2019-09-29T07:42:21.000Z</time>
      </trkpt>
      <trkpt lat="45.44339" lon="4.7129">
        <ele>434.80153014862</ele>
        <time>2019-09-29T07:42:22.000Z</time>
      </trkpt>
      <trkpt lat="45.44341" lon="4.71299">
        <ele>434.03816577587</ele>
        <time>2019-09-29T07:42:23.000Z</time>
      </trkpt>
      <trkpt lat="45.44343" lon="4.71307">
        <ele>434</ele>
        <time>2019-09-29T07:42:24.000Z</time>
      </trkpt>
      <trkpt lat="45.44345" lon="4.71314">
        <ele>434</ele>
        <time>2019-09-29T07:42:25.000Z</time>
      </trkpt>
      <trkpt lat="45.44347" lon="4.71321">
        <ele>433.74000307204</ele>
        <time>2019-09-29T07:42:26.000Z</time>
      </trkpt>
      <trkpt lat="45.44349" lon="4.71328">
        <ele>433</ele>
        <time>2019-09-29T07:42:27.000Z</time>
      </trkpt>
      <trkpt lat="45.44351" lon="4.71335">
        <ele>433</ele>
        <time>2019-09-29T07:42:28.000Z</time>
      </trkpt>
      <trkpt lat="45.44353" lon="4.71341">
        <ele>432.73999692804</ele>
        <time>2019-09-29T07:42:29.000Z</time>
      </trkpt>
      <trkpt lat="45.44355" lon="4.71348">
        <ele>432</ele>
        <time>2019-09-29T07:42:30.000Z</time>
      </trkpt>
      <trkpt lat="45.44358" lon="4.71353">
        <ele>432</ele>
        <time>2019-09-29T07:42:31.000Z</time>
      </trkpt>
      <trkpt lat="45.4436" lon="4.71357">
        <ele>432</ele>
        <time>2019-09-29T07:42:32.000Z</time>
      </trkpt>
      <trkpt lat="45.44364" lon="4.71358">
        <ele>432</ele>
        <time>2019-09-29T07:42:33.000Z</time>
      </trkpt>
      <trkpt lat="45.44368" lon="4.71358">
        <ele>432</ele>
        <time>2019-09-29T07:42:34.000Z</time>
      </trkpt>
      <trkpt lat="45.44371" lon="4.71356">
        <ele>432</ele>
        <time>2019-09-29T07:42:35.000Z</time>
      </trkpt>
      <trkpt lat="45.44374" lon="4.71355">
        <ele>432</ele>
        <time>2019-09-29T07:42:36.000Z</time>
      </trkpt>
      <trkpt lat="45.44376" lon="4.71353">
        <ele>432</ele>
        <time>2019-09-29T07:42:37.000Z</time>
      </trkpt>
      <trkpt lat="45.44377" lon="4.71351">
        <ele>432</ele>
        <time>2019-09-29T07:42:38.000Z</time>
      </trkpt>
      <trkpt lat="45.4438" lon="4.7135">
        <ele>431.74000307204</ele>
        <time>2019-09-29T07:42:40.000Z</time>
      </trkpt>
      <trkpt lat="45.44382" lon="4.7135">
        <ele>431</ele>
        <time>2019-09-29T07:42:42.000Z</time>
      </trkpt>
      <trkpt lat="45.4438" lon="4.71348">
        <ele>431</ele>
        <time>2019-09-29T07:42:51.000Z</time>
      </trkpt>
      <trkpt lat="45.44379" lon="4.71348">
        <ele>431</ele>
        <time>2019-09-29T07:43:08.000Z</time>
      </trkpt>
      <trkpt lat="45.44378" lon="4.7135">
        <ele>432</ele>
        <time>2019-09-29T07:44:08.000Z</time>
      </trkpt>
      <trkpt lat="45.4438" lon="4.7135">
        <ele>432</ele>
        <time>2019-09-29T07:44:10.000Z</time>
      </trkpt>
      <trkpt lat="45.44384" lon="4.7135">
        <ele>432</ele>
        <time>2019-09-29T07:44:12.000Z</time>
      </trkpt>
      <trkpt lat="45.44386" lon="4.7135">
        <ele>432</ele>
        <time>2019-09-29T07:44:13.000Z</time>
      </trkpt>
      <trkpt lat="45.44388" lon="4.7135">
        <ele>431.74000307204</ele>
        <time>2019-09-29T07:44:14.000Z</time>
      </trkpt>
      <trkpt lat="45.44391" lon="4.71349">
        <ele>431</ele>
        <time>2019-09-29T07:44:15.000Z</time>
      </trkpt>
      <trkpt lat="45.44394" lon="4.71349">
        <ele>431</ele>
        <time>2019-09-29T07:44:16.000Z</time>
      </trkpt>
      <trkpt lat="45.44399" lon="4.71348">
        <ele>431</ele>
        <time>2019-09-29T07:44:17.000Z</time>
      </trkpt>
      <trkpt lat="45.44403" lon="4.71347">
        <ele>430.74000307204</ele>
        <time>2019-09-29T07:44:18.000Z</time>
      </trkpt>
      <trkpt lat="45.44408" lon="4.71347">
        <ele>430</ele>
        <time>2019-09-29T07:44:19.000Z</time>
      </trkpt>
      <trkpt lat="45.44413" lon="4.71346">
        <ele>430</ele>
        <time>2019-09-29T07:44:20.000Z</time>
      </trkpt>
      <trkpt lat="45.44418" lon="4.71345">
        <ele>430</ele>
        <time>2019-09-29T07:44:21.000Z</time>
      </trkpt>
      <trkpt lat="45.44424" lon="4.71344">
        <ele>430</ele>
        <time>2019-09-29T07:44:22.000Z</time>
      </trkpt>
      <trkpt lat="45.44429" lon="4.71343">
        <ele>429.74257036765</ele>
        <time>2019-09-29T07:44:23.000Z</time>
      </trkpt>
      <trkpt lat="45.44434" lon="4.71342">
        <ele>429</ele>
        <time>2019-09-29T07:44:24.000Z</time>
      </trkpt>
      <trkpt lat="45.4444" lon="4.71341">
        <ele>429</ele>
        <time>2019-09-29T07:44:25.000Z</time>
      </trkpt>
      <trkpt lat="45.44445" lon="4.7134">
        <ele>429</ele>
        <time>2019-09-29T07:44:26.000Z</time>
      </trkpt>
      <trkpt lat="45.4445" lon="4.71338">
        <ele>429</ele>
        <time>2019-09-29T07:44:27.000Z</time>
      </trkpt>
      <trkpt lat="45.44455" lon="4.71336">
        <ele>428.74510271437</ele>
        <time>2019-09-29T07:44:28.000Z</time>
      </trkpt>
      <trkpt lat="45.4446" lon="4.71333">
        <ele>428</ele>
        <time>2019-09-29T07:44:29.000Z</time>
      </trkpt>
      <trkpt lat="45.44463" lon="4.7133">
        <ele>428</ele>
        <time>2019-09-29T07:44:30.000Z</time>
      </trkpt>
      <trkpt lat="45.44466" lon="4.71326">
        <ele>428</ele>
        <time>2019-09-29T07:44:31.000Z</time>
      </trkpt>
      <trkpt lat="45.44468" lon="4.71323">
        <ele>428</ele>
        <time>2019-09-29T07:44:32.000Z</time>
      </trkpt>
      <trkpt lat="45.44471" lon="4.71319">
        <ele>427.73999692804</ele>
        <time>2019-09-29T07:44:33.000Z</time>
      </trkpt>
      <trkpt lat="45.44473" lon="4.71316">
        <ele>427</ele>
        <time>2019-09-29T07:44:34.000Z</time>
      </trkpt>
      <trkpt lat="45.44475" lon="4.71313">
        <ele>427</ele>
        <time>2019-09-29T07:44:35.000Z</time>
      </trkpt>
      <trkpt lat="45.44478" lon="4.71311">
        <ele>426.74000307204</ele>
        <time>2019-09-29T07:44:36.000Z</time>
      </trkpt>
      <trkpt lat="45.44481" lon="4.71308">
        <ele>426</ele>
        <time>2019-09-29T07:44:37.000Z</time>
      </trkpt>
      <trkpt lat="45.44485" lon="4.71305">
        <ele>426</ele>
        <time>2019-09-29T07:44:38.000Z</time>
      </trkpt>
      <trkpt lat="45.44488" lon="4.71302">
        <ele>426</ele>
        <time>2019-09-29T07:44:39.000Z</time>
      </trkpt>
      <trkpt lat="45.44491" lon="4.71299">
        <ele>426</ele>
        <time>2019-09-29T07:44:40.000Z</time>
      </trkpt>
      <trkpt lat="45.44495" lon="4.71295">
        <ele>425.74257036765</ele>
        <time>2019-09-29T07:44:41.000Z</time>
      </trkpt>
      <trkpt lat="45.44498" lon="4.71292">
        <ele>425</ele>
        <time>2019-09-29T07:44:42.000Z</time>
      </trkpt>
      <trkpt lat="45.44501" lon="4.71289">
        <ele>425</ele>
        <time>2019-09-29T07:44:43.000Z</time>
      </trkpt>
      <trkpt lat="45.44504" lon="4.71285">
        <ele>425</ele>
        <time>2019-09-29T07:44:44.000Z</time>
      </trkpt>
      <trkpt lat="45.44507" lon="4.71282">
        <ele>425</ele>
        <time>2019-09-29T07:44:45.000Z</time>
      </trkpt>
      <trkpt lat="45.4451" lon="4.71279">
        <ele>424</ele>
        <time>2019-09-29T07:44:46.000Z</time>
      </trkpt>
      <trkpt lat="45.44512" lon="4.71277">
        <ele>423.73999692804</ele>
        <time>2019-09-29T07:44:47.000Z</time>
      </trkpt>
      <trkpt lat="45.44515" lon="4.71275">
        <ele>423</ele>
        <time>2019-09-29T07:44:48.000Z</time>
      </trkpt>
      <trkpt lat="45.44517" lon="4.71275">
        <ele>423</ele>
        <time>2019-09-29T07:44:49.000Z</time>
      </trkpt>
      <trkpt lat="45.44519" lon="4.71274">
        <ele>423</ele>
        <time>2019-09-29T07:44:50.000Z</time>
      </trkpt>
      <trkpt lat="45.44522" lon="4.71274">
        <ele>422.73999692804</ele>
        <time>2019-09-29T07:44:51.000Z</time>
      </trkpt>
      <trkpt lat="45.44526" lon="4.71273">
        <ele>422</ele>
        <time>2019-09-29T07:44:52.000Z</time>
      </trkpt>
      <trkpt lat="45.4453" lon="4.71271">
        <ele>421.80152231689</ele>
        <time>2019-09-29T07:44:53.000Z</time>
      </trkpt>
      <trkpt lat="45.44534" lon="4.7127">
        <ele>421.03816540295</ele>
        <time>2019-09-29T07:44:54.000Z</time>
      </trkpt>
      <trkpt lat="45.44538" lon="4.71268">
        <ele>420.73999692804</ele>
        <time>2019-09-29T07:44:55.000Z</time>
      </trkpt>
      <trkpt lat="45.44543" lon="4.71267">
        <ele>420</ele>
        <time>2019-09-29T07:44:56.000Z</time>
      </trkpt>
      <trkpt lat="45.44547" lon="4.71265">
        <ele>420</ele>
        <time>2019-09-29T07:44:57.000Z</time>
      </trkpt>
      <trkpt lat="45.44552" lon="4.71263">
        <ele>419.74000307204</ele>
        <time>2019-09-29T07:44:58.000Z</time>
      </trkpt>
      <trkpt lat="45.44557" lon="4.71261">
        <ele>419</ele>
        <time>2019-09-29T07:44:59.000Z</time>
      </trkpt>
      <trkpt lat="45.44562" lon="4.71259">
        <ele>418.74000307204</ele>
        <time>2019-09-29T07:45:00.000Z</time>
      </trkpt>
      <trkpt lat="45.44568" lon="4.71258">
        <ele>418</ele>
        <time>2019-09-29T07:45:01.000Z</time>
      </trkpt>
      <trkpt lat="45.44573" lon="4.71256">
        <ele>417.74000307204</ele>
        <time>2019-09-29T07:45:02.000Z</time>
      </trkpt>
      <trkpt lat="45.44578" lon="4.71255">
        <ele>417</ele>
        <time>2019-09-29T07:45:03.000Z</time>
      </trkpt>
      <trkpt lat="45.44582" lon="4.71253">
        <ele>417</ele>
        <time>2019-09-29T07:45:04.000Z</time>
      </trkpt>
      <trkpt lat="45.44587" lon="4.71251">
        <ele>416</ele>
        <time>2019-09-29T07:45:05.000Z</time>
      </trkpt>
      <trkpt lat="45.44592" lon="4.71249">
        <ele>415.74000307204</ele>
        <time>2019-09-29T07:45:06.000Z</time>
      </trkpt>
      <trkpt lat="45.44596" lon="4.71246">
        <ele>414.73999692804</ele>
        <time>2019-09-29T07:45:07.000Z</time>
      </trkpt>
      <trkpt lat="45.446" lon="4.71243">
        <ele>413.74000307204</ele>
        <time>2019-09-29T07:45:08.000Z</time>
      </trkpt>
      <trkpt lat="45.44604" lon="4.71239">
        <ele>413</ele>
        <time>2019-09-29T07:45:09.000Z</time>
      </trkpt>
      <trkpt lat="45.44607" lon="4.71235">
        <ele>412.74000307204</ele>
        <time>2019-09-29T07:45:10.000Z</time>
      </trkpt>
      <trkpt lat="45.4461" lon="4.71231">
        <ele>411.73999692804</ele>
        <time>2019-09-29T07:45:11.000Z</time>
      </trkpt>
      <trkpt lat="45.44612" lon="4.71226">
        <ele>411</ele>
        <time>2019-09-29T07:45:12.000Z</time>
      </trkpt>
      <trkpt lat="45.44614" lon="4.71221">
        <ele>410.73999692804</ele>
        <time>2019-09-29T07:45:13.000Z</time>
      </trkpt>
      <trkpt lat="45.44616" lon="4.71216">
        <ele>409.74000307204</ele>
        <time>2019-09-29T07:45:14.000Z</time>
      </trkpt>
      <trkpt lat="45.44617" lon="4.71211">
        <ele>408.80152231689</ele>
        <time>2019-09-29T07:45:15.000Z</time>
      </trkpt>
      <trkpt lat="45.44618" lon="4.71206">
        <ele>408.03816540295</ele>
        <time>2019-09-29T07:45:16.000Z</time>
      </trkpt>
      <trkpt lat="45.4462" lon="4.71201">
        <ele>407.73999692804</ele>
        <time>2019-09-29T07:45:17.000Z</time>
      </trkpt>
      <trkpt lat="45.44623" lon="4.71196">
        <ele>407</ele>
        <time>2019-09-29T07:45:18.000Z</time>
      </trkpt>
      <trkpt lat="45.44625" lon="4.71191">
        <ele>406.73999692804</ele>
        <time>2019-09-29T07:45:19.000Z</time>
      </trkpt>
      <trkpt lat="45.44629" lon="4.71185">
        <ele>406</ele>
        <time>2019-09-29T07:45:20.000Z</time>
      </trkpt>
      <trkpt lat="45.44632" lon="4.7118">
        <ele>405.73999692804</ele>
        <time>2019-09-29T07:45:21.000Z</time>
      </trkpt>
      <trkpt lat="45.44636" lon="4.71175">
        <ele>405</ele>
        <time>2019-09-29T07:45:22.000Z</time>
      </trkpt>
      <trkpt lat="45.44639" lon="4.7117">
        <ele>405</ele>
        <time>2019-09-29T07:45:23.000Z</time>
      </trkpt>
      <trkpt lat="45.44642" lon="4.71166">
        <ele>404</ele>
        <time>2019-09-29T07:45:24.000Z</time>
      </trkpt>
      <trkpt lat="45.44645" lon="4.71161">
        <ele>403.73999692804</ele>
        <time>2019-09-29T07:45:25.000Z</time>
      </trkpt>
      <trkpt lat="45.44649" lon="4.71156">
        <ele>403</ele>
        <time>2019-09-29T07:45:26.000Z</time>
      </trkpt>
      <trkpt lat="45.44653" lon="4.71151">
        <ele>403</ele>
        <time>2019-09-29T07:45:27.000Z</time>
      </trkpt>
      <trkpt lat="45.44657" lon="4.71146">
        <ele>402</ele>
        <time>2019-09-29T07:45:28.000Z</time>
      </trkpt>
      <trkpt lat="45.4466" lon="4.71141">
        <ele>401.73999692804</ele>
        <time>2019-09-29T07:45:29.000Z</time>
      </trkpt>
      <trkpt lat="45.44663" lon="4.71137">
        <ele>401</ele>
        <time>2019-09-29T07:45:30.000Z</time>
      </trkpt>
      <trkpt lat="45.44666" lon="4.71133">
        <ele>401</ele>
        <time>2019-09-29T07:45:31.000Z</time>
      </trkpt>
      <trkpt lat="45.44669" lon="4.71129">
        <ele>400.74000307204</ele>
        <time>2019-09-29T07:45:32.000Z</time>
      </trkpt>
      <trkpt lat="45.44672" lon="4.71124">
        <ele>400</ele>
        <time>2019-09-29T07:45:33.000Z</time>
      </trkpt>
      <trkpt lat="45.44675" lon="4.7112">
        <ele>399.74000307204</ele>
        <time>2019-09-29T07:45:34.000Z</time>
      </trkpt>
      <trkpt lat="45.44679" lon="4.71115">
        <ele>399</ele>
        <time>2019-09-29T07:45:35.000Z</time>
      </trkpt>
      <trkpt lat="45.44683" lon="4.71111">
        <ele>398.74000307204</ele>
        <time>2019-09-29T07:45:36.000Z</time>
      </trkpt>
      <trkpt lat="45.44687" lon="4.71107">
        <ele>398</ele>
        <time>2019-09-29T07:45:37.000Z</time>
      </trkpt>
      <trkpt lat="45.4469" lon="4.71103">
        <ele>398</ele>
        <time>2019-09-29T07:45:38.000Z</time>
      </trkpt>
      <trkpt lat="45.44694" lon="4.711">
        <ele>397.74509336412</ele>
        <time>2019-09-29T07:45:39.000Z</time>
      </trkpt>
      <trkpt lat="45.44697" lon="4.71096">
        <ele>397</ele>
        <time>2019-09-29T07:45:40.000Z</time>
      </trkpt>
      <trkpt lat="45.447" lon="4.71093">
        <ele>397</ele>
        <time>2019-09-29T07:45:41.000Z</time>
      </trkpt>
      <trkpt lat="45.44702" lon="4.71089">
        <ele>397</ele>
        <time>2019-09-29T07:45:42.000Z</time>
      </trkpt>
      <trkpt lat="45.44705" lon="4.71085">
        <ele>396.73999692804</ele>
        <time>2019-09-29T07:45:43.000Z</time>
      </trkpt>
      <trkpt lat="45.44707" lon="4.7108">
        <ele>396</ele>
        <time>2019-09-29T07:45:44.000Z</time>
      </trkpt>
      <trkpt lat="45.44709" lon="4.71074">
        <ele>396</ele>
        <time>2019-09-29T07:45:45.000Z</time>
      </trkpt>
      <trkpt lat="45.4471" lon="4.71069">
        <ele>395.74000307204</ele>
        <time>2019-09-29T07:45:46.000Z</time>
      </trkpt>
      <trkpt lat="45.44712" lon="4.71063">
        <ele>395</ele>
        <time>2019-09-29T07:45:47.000Z</time>
      </trkpt>
      <trkpt lat="45.44713" lon="4.71058">
        <ele>394.74747553108</ele>
        <time>2019-09-29T07:45:48.000Z</time>
      </trkpt>
      <trkpt lat="45.44715" lon="4.71052">
        <ele>394</ele>
        <time>2019-09-29T07:45:49.000Z</time>
      </trkpt>
      <trkpt lat="45.44717" lon="4.71046">
        <ele>394</ele>
        <time>2019-09-29T07:45:50.000Z</time>
      </trkpt>
      <trkpt lat="45.44718" lon="4.7104">
        <ele>393.73999692804</ele>
        <time>2019-09-29T07:45:51.000Z</time>
      </trkpt>
      <trkpt lat="45.4472" lon="4.71034">
        <ele>393</ele>
        <time>2019-09-29T07:45:52.000Z</time>
      </trkpt>
      <trkpt lat="45.44721" lon="4.71028">
        <ele>393</ele>
        <time>2019-09-29T07:45:53.000Z</time>
      </trkpt>
      <trkpt lat="45.44722" lon="4.71021">
        <ele>393</ele>
        <time>2019-09-29T07:45:54.000Z</time>
      </trkpt>
      <trkpt lat="45.44724" lon="4.71015">
        <ele>392.73999692804</ele>
        <time>2019-09-29T07:45:55.000Z</time>
      </trkpt>
      <trkpt lat="45.44726" lon="4.71009">
        <ele>392</ele>
        <time>2019-09-29T07:45:56.000Z</time>
      </trkpt>
      <trkpt lat="45.44728" lon="4.71002">
        <ele>392</ele>
        <time>2019-09-29T07:45:57.000Z</time>
      </trkpt>
      <trkpt lat="45.44729" lon="4.70996">
        <ele>392</ele>
        <time>2019-09-29T07:45:58.000Z</time>
      </trkpt>
      <trkpt lat="45.44731" lon="4.7099">
        <ele>392</ele>
        <time>2019-09-29T07:45:59.000Z</time>
      </trkpt>
      <trkpt lat="45.44733" lon="4.70984">
        <ele>392</ele>
        <time>2019-09-29T07:46:00.000Z</time>
      </trkpt>
      <trkpt lat="45.44736" lon="4.70978">
        <ele>392</ele>
        <time>2019-09-29T07:46:01.000Z</time>
      </trkpt>
      <trkpt lat="45.44738" lon="4.70972">
        <ele>392</ele>
        <time>2019-09-29T07:46:02.000Z</time>
      </trkpt>
      <trkpt lat="45.44741" lon="4.70967">
        <ele>392</ele>
        <time>2019-09-29T07:46:03.000Z</time>
      </trkpt>
      <trkpt lat="45.44744" lon="4.70962">
        <ele>392</ele>
        <time>2019-09-29T07:46:04.000Z</time>
      </trkpt>
      <trkpt lat="45.44747" lon="4.70958">
        <ele>392</ele>
        <time>2019-09-29T07:46:05.000Z</time>
      </trkpt>
      <trkpt lat="45.4475" lon="4.70954">
        <ele>392</ele>
        <time>2019-09-29T07:46:06.000Z</time>
      </trkpt>
      <trkpt lat="45.44754" lon="4.70952">
        <ele>392</ele>
        <time>2019-09-29T07:46:07.000Z</time>
      </trkpt>
      <trkpt lat="45.44757" lon="4.7095">
        <ele>392</ele>
        <time>2019-09-29T07:46:08.000Z</time>
      </trkpt>
      <trkpt lat="45.4476" lon="4.70948">
        <ele>392</ele>
        <time>2019-09-29T07:46:09.000Z</time>
      </trkpt>
      <trkpt lat="45.44764" lon="4.70946">
        <ele>392</ele>
        <time>2019-09-29T07:46:10.000Z</time>
      </trkpt>
      <trkpt lat="45.44766" lon="4.70944">
        <ele>392.26000307196</ele>
        <time>2019-09-29T07:46:11.000Z</time>
      </trkpt>
      <trkpt lat="45.44769" lon="4.70942">
        <ele>393</ele>
        <time>2019-09-29T07:46:12.000Z</time>
      </trkpt>
      <trkpt lat="45.44772" lon="4.7094">
        <ele>393</ele>
        <time>2019-09-29T07:46:13.000Z</time>
      </trkpt>
      <trkpt lat="45.44774" lon="4.70939">
        <ele>393</ele>
        <time>2019-09-29T07:46:14.000Z</time>
      </trkpt>
      <trkpt lat="45.44777" lon="4.70937">
        <ele>393</ele>
        <time>2019-09-29T07:46:15.000Z</time>
      </trkpt>
      <trkpt lat="45.44779" lon="4.70935">
        <ele>393</ele>
        <time>2019-09-29T07:46:16.000Z</time>
      </trkpt>
      <trkpt lat="45.44782" lon="4.70933">
        <ele>393</ele>
        <time>2019-09-29T07:46:17.000Z</time>
      </trkpt>
      <trkpt lat="45.44785" lon="4.7093">
        <ele>393</ele>
        <time>2019-09-29T07:46:18.000Z</time>
      </trkpt>
      <trkpt lat="45.44787" lon="4.70928">
        <ele>393.2015538489</ele>
        <time>2019-09-29T07:46:19.000Z</time>
      </trkpt>
      <trkpt lat="45.4479" lon="4.70925">
        <ele>393.97674187851</ele>
        <time>2019-09-29T07:46:20.000Z</time>
      </trkpt>
      <trkpt lat="45.44793" lon="4.70922">
        <ele>394</ele>
        <time>2019-09-29T07:46:21.000Z</time>
      </trkpt>
      <trkpt lat="45.44795" lon="4.7092">
        <ele>394</ele>
        <time>2019-09-29T07:46:22.000Z</time>
      </trkpt>
      <trkpt lat="45.44798" lon="4.70917">
        <ele>394</ele>
        <time>2019-09-29T07:46:23.000Z</time>
      </trkpt>
      <trkpt lat="45.448" lon="4.70914">
        <ele>394</ele>
        <time>2019-09-29T07:46:24.000Z</time>
      </trkpt>
      <trkpt lat="45.44802" lon="4.70912">
        <ele>394.25742963235</ele>
        <time>2019-09-29T07:46:25.000Z</time>
      </trkpt>
      <trkpt lat="45.44805" lon="4.70909">
        <ele>395</ele>
        <time>2019-09-29T07:46:26.000Z</time>
      </trkpt>
      <trkpt lat="45.44807" lon="4.70907">
        <ele>395</ele>
        <time>2019-09-29T07:46:27.000Z</time>
      </trkpt>
      <trkpt lat="45.4481" lon="4.70904">
        <ele>395</ele>
        <time>2019-09-29T07:46:28.000Z</time>
      </trkpt>
      <trkpt lat="45.44812" lon="4.70901">
        <ele>395</ele>
        <time>2019-09-29T07:46:29.000Z</time>
      </trkpt>
      <trkpt lat="45.44814" lon="4.70899">
        <ele>395</ele>
        <time>2019-09-29T07:46:30.000Z</time>
      </trkpt>
      <trkpt lat="45.44816" lon="4.70897">
        <ele>395.26000307196</ele>
        <time>2019-09-29T07:46:31.000Z</time>
      </trkpt>
      <trkpt lat="45.44817" lon="4.70895">
        <ele>396</ele>
        <time>2019-09-29T07:46:32.000Z</time>
      </trkpt>
      <trkpt lat="45.44819" lon="4.70893">
        <ele>396</ele>
        <time>2019-09-29T07:46:33.000Z</time>
      </trkpt>
      <trkpt lat="45.44822" lon="4.7089">
        <ele>396</ele>
        <time>2019-09-29T07:46:35.000Z</time>
      </trkpt>
      <trkpt lat="45.44823" lon="4.70888">
        <ele>396</ele>
        <time>2019-09-29T07:46:39.000Z</time>
      </trkpt>
      <trkpt lat="45.44826" lon="4.70885">
        <ele>397</ele>
        <time>2019-09-29T07:46:41.000Z</time>
      </trkpt>
      <trkpt lat="45.44828" lon="4.70882">
        <ele>397</ele>
        <time>2019-09-29T07:46:43.000Z</time>
      </trkpt>
      <trkpt lat="45.44831" lon="4.70879">
        <ele>397</ele>
        <time>2019-09-29T07:46:45.000Z</time>
      </trkpt>
      <trkpt lat="45.44833" lon="4.70876">
        <ele>398</ele>
        <time>2019-09-29T07:46:47.000Z</time>
      </trkpt>
      <trkpt lat="45.44834" lon="4.70874">
        <ele>398</ele>
        <time>2019-09-29T07:46:49.000Z</time>
      </trkpt>
      <trkpt lat="45.44836" lon="4.70871">
        <ele>398</ele>
        <time>2019-09-29T07:46:55.000Z</time>
      </trkpt>
      <trkpt lat="45.44839" lon="4.70869">
        <ele>398.2015538489</ele>
        <time>2019-09-29T07:46:57.000Z</time>
      </trkpt>
      <trkpt lat="45.44842" lon="4.70866">
        <ele>399</ele>
        <time>2019-09-29T07:46:59.000Z</time>
      </trkpt>
      <trkpt lat="45.44844" lon="4.70863">
        <ele>399.26000307196</ele>
        <time>2019-09-29T07:47:01.000Z</time>
      </trkpt>
      <trkpt lat="45.44847" lon="4.70861">
        <ele>400</ele>
        <time>2019-09-29T07:47:03.000Z</time>
      </trkpt>
      <trkpt lat="45.44849" lon="4.70858">
        <ele>400</ele>
        <time>2019-09-29T07:47:05.000Z</time>
      </trkpt>
      <trkpt lat="45.44851" lon="4.70856">
        <ele>400</ele>
        <time>2019-09-29T07:47:07.000Z</time>
      </trkpt>
      <trkpt lat="45.44853" lon="4.70855">
        <ele>401</ele>
        <time>2019-09-29T07:47:09.000Z</time>
      </trkpt>
      <trkpt lat="45.44856" lon="4.70856">
        <ele>401</ele>
        <time>2019-09-29T07:47:11.000Z</time>
      </trkpt>
      <trkpt lat="45.44859" lon="4.70857">
        <ele>401</ele>
        <time>2019-09-29T07:47:13.000Z</time>
      </trkpt>
      <trkpt lat="45.44862" lon="4.70859">
        <ele>401</ele>
        <time>2019-09-29T07:47:15.000Z</time>
      </trkpt>
      <trkpt lat="45.44864" lon="4.70861">
        <ele>401</ele>
        <time>2019-09-29T07:47:17.000Z</time>
      </trkpt>
      <trkpt lat="45.44868" lon="4.70863">
        <ele>401</ele>
        <time>2019-09-29T07:47:19.000Z</time>
      </trkpt>
      <trkpt lat="45.44871" lon="4.70865">
        <ele>402</ele>
        <time>2019-09-29T07:47:21.000Z</time>
      </trkpt>
      <trkpt lat="45.44874" lon="4.70866">
        <ele>402</ele>
        <time>2019-09-29T07:47:23.000Z</time>
      </trkpt>
      <trkpt lat="45.44877" lon="4.70868">
        <ele>402</ele>
        <time>2019-09-29T07:47:25.000Z</time>
      </trkpt>
      <trkpt lat="45.4488" lon="4.70869">
        <ele>402</ele>
        <time>2019-09-29T07:47:27.000Z</time>
      </trkpt>
      <trkpt lat="45.44883" lon="4.70871">
        <ele>402</ele>
        <time>2019-09-29T07:47:29.000Z</time>
      </trkpt>
      <trkpt lat="45.44885" lon="4.70872">
        <ele>402</ele>
        <time>2019-09-29T07:47:30.000Z</time>
      </trkpt>
      <trkpt lat="45.44887" lon="4.70872">
        <ele>402</ele>
        <time>2019-09-29T07:47:31.000Z</time>
      </trkpt>
      <trkpt lat="45.44889" lon="4.70873">
        <ele>402</ele>
        <time>2019-09-29T07:47:32.000Z</time>
      </trkpt>
      <trkpt lat="45.44891" lon="4.70873">
        <ele>402</ele>
        <time>2019-09-29T07:47:33.000Z</time>
      </trkpt>
      <trkpt lat="45.44893" lon="4.70874">
        <ele>402</ele>
        <time>2019-09-29T07:47:34.000Z</time>
      </trkpt>
      <trkpt lat="45.44895" lon="4.70874">
        <ele>402</ele>
        <time>2019-09-29T07:47:35.000Z</time>
      </trkpt>
      <trkpt lat="45.44897" lon="4.70874">
        <ele>402</ele>
        <time>2019-09-29T07:47:36.000Z</time>
      </trkpt>
      <trkpt lat="45.44899" lon="4.70875">
        <ele>402.9699968</ele>
        <time>2019-09-29T07:47:37.000Z</time>
      </trkpt>
      <trkpt lat="45.44901" lon="4.70875">
        <ele>403</ele>
        <time>2019-09-29T07:47:38.000Z</time>
      </trkpt>
      <trkpt lat="45.44904" lon="4.70875">
        <ele>403</ele>
        <time>2019-09-29T07:47:39.000Z</time>
      </trkpt>
      <trkpt lat="45.44906" lon="4.70876">
        <ele>403</ele>
        <time>2019-09-29T07:47:40.000Z</time>
      </trkpt>
      <trkpt lat="45.44908" lon="4.70876">
        <ele>403</ele>
        <time>2019-09-29T07:47:41.000Z</time>
      </trkpt>
      <trkpt lat="45.4491" lon="4.70877">
        <ele>403</ele>
        <time>2019-09-29T07:47:42.000Z</time>
      </trkpt>
      <trkpt lat="45.44913" lon="4.70877">
        <ele>403</ele>
        <time>2019-09-29T07:47:43.000Z</time>
      </trkpt>
      <trkpt lat="45.44915" lon="4.70877">
        <ele>403</ele>
        <time>2019-09-29T07:47:44.000Z</time>
      </trkpt>
      <trkpt lat="45.44917" lon="4.70878">
        <ele>403</ele>
        <time>2019-09-29T07:47:45.000Z</time>
      </trkpt>
      <trkpt lat="45.44919" lon="4.70878">
        <ele>403.25252446892</ele>
        <time>2019-09-29T07:47:46.000Z</time>
      </trkpt>
      <trkpt lat="45.44921" lon="4.70878">
        <ele>404</ele>
        <time>2019-09-29T07:47:47.000Z</time>
      </trkpt>
      <trkpt lat="45.44923" lon="4.70879">
        <ele>404</ele>
        <time>2019-09-29T07:47:48.000Z</time>
      </trkpt>
      <trkpt lat="45.44925" lon="4.70879">
        <ele>404</ele>
        <time>2019-09-29T07:47:49.000Z</time>
      </trkpt>
      <trkpt lat="45.44927" lon="4.70879">
        <ele>404</ele>
        <time>2019-09-29T07:47:50.000Z</time>
      </trkpt>
      <trkpt lat="45.44929" lon="4.70879">
        <ele>404</ele>
        <time>2019-09-29T07:47:51.000Z</time>
      </trkpt>
      <trkpt lat="45.44931" lon="4.70879">
        <ele>404.25489728563</ele>
        <time>2019-09-29T07:47:52.000Z</time>
      </trkpt>
      <trkpt lat="45.44933" lon="4.70879">
        <ele>405</ele>
        <time>2019-09-29T07:47:53.000Z</time>
      </trkpt>
      <trkpt lat="45.44934" lon="4.70879">
        <ele>405</ele>
        <time>2019-09-29T07:47:54.000Z</time>
      </trkpt>
      <trkpt lat="45.44936" lon="4.70879">
        <ele>405</ele>
        <time>2019-09-29T07:47:55.000Z</time>
      </trkpt>
      <trkpt lat="45.44938" lon="4.70879">
        <ele>405</ele>
        <time>2019-09-29T07:47:56.000Z</time>
      </trkpt>
      <trkpt lat="45.4494" lon="4.7088">
        <ele>405</ele>
        <time>2019-09-29T07:47:57.000Z</time>
      </trkpt>
      <trkpt lat="45.44942" lon="4.7088">
        <ele>405.25999692796</ele>
        <time>2019-09-29T07:47:58.000Z</time>
      </trkpt>
      <trkpt lat="45.44945" lon="4.7088">
        <ele>406</ele>
        <time>2019-09-29T07:48:00.000Z</time>
      </trkpt>
      <trkpt lat="45.44949" lon="4.70881">
        <ele>406</ele>
        <time>2019-09-29T07:48:02.000Z</time>
      </trkpt>
      <trkpt lat="45.44952" lon="4.70881">
        <ele>406.25252446892</ele>
        <time>2019-09-29T07:48:04.000Z</time>
      </trkpt>
      <trkpt lat="45.44955" lon="4.70882">
        <ele>407</ele>
        <time>2019-09-29T07:48:06.000Z</time>
      </trkpt>
      <trkpt lat="45.44958" lon="4.70882">
        <ele>407</ele>
        <time>2019-09-29T07:48:08.000Z</time>
      </trkpt>
      <trkpt lat="45.44962" lon="4.70882">
        <ele>407</ele>
        <time>2019-09-29T07:48:10.000Z</time>
      </trkpt>
      <trkpt lat="45.44965" lon="4.70882">
        <ele>407</ele>
        <time>2019-09-29T07:48:12.000Z</time>
      </trkpt>
      <trkpt lat="45.44968" lon="4.70882">
        <ele>407.96923092071</ele>
        <time>2019-09-29T07:48:14.000Z</time>
      </trkpt>
      <trkpt lat="45.44971" lon="4.70883">
        <ele>408</ele>
        <time>2019-09-29T07:48:16.000Z</time>
      </trkpt>
      <trkpt lat="45.44973" lon="4.70882">
        <ele>408</ele>
        <time>2019-09-29T07:48:18.000Z</time>
      </trkpt>
      <trkpt lat="45.44976" lon="4.70883">
        <ele>408</ele>
        <time>2019-09-29T07:48:20.000Z</time>
      </trkpt>
      <trkpt lat="45.44978" lon="4.70883">
        <ele>408</ele>
        <time>2019-09-29T07:48:21.000Z</time>
      </trkpt>
      <trkpt lat="45.44981" lon="4.70883">
        <ele>408</ele>
        <time>2019-09-29T07:48:23.000Z</time>
      </trkpt>
      <trkpt lat="45.44983" lon="4.70882">
        <ele>409</ele>
        <time>2019-09-29T07:48:42.000Z</time>
      </trkpt>
      <trkpt lat="45.44985" lon="4.70882">
        <ele>409</ele>
        <time>2019-09-29T07:48:44.000Z</time>
      </trkpt>
      <trkpt lat="45.44989" lon="4.70882">
        <ele>409</ele>
        <time>2019-09-29T07:48:46.000Z</time>
      </trkpt>
      <trkpt lat="45.44991" lon="4.70881">
        <ele>409</ele>
        <time>2019-09-29T07:48:47.000Z</time>
      </trkpt>
      <trkpt lat="45.44993" lon="4.70881">
        <ele>409</ele>
        <time>2019-09-29T07:48:48.000Z</time>
      </trkpt>
      <trkpt lat="45.44995" lon="4.70883">
        <ele>409</ele>
        <time>2019-09-29T07:48:49.000Z</time>
      </trkpt>
      <trkpt lat="45.44997" lon="4.70885">
        <ele>409</ele>
        <time>2019-09-29T07:48:50.000Z</time>
      </trkpt>
      <trkpt lat="45.44998" lon="4.70889">
        <ele>409</ele>
        <time>2019-09-29T07:48:51.000Z</time>
      </trkpt>
      <trkpt lat="45.44998" lon="4.70893">
        <ele>409</ele>
        <time>2019-09-29T07:48:52.000Z</time>
      </trkpt>
      <trkpt lat="45.44998" lon="4.70896">
        <ele>409</ele>
        <time>2019-09-29T07:48:53.000Z</time>
      </trkpt>
      <trkpt lat="45.44998" lon="4.709">
        <ele>409</ele>
        <time>2019-09-29T07:48:54.000Z</time>
      </trkpt>
      <trkpt lat="45.44998" lon="4.70905">
        <ele>409</ele>
        <time>2019-09-29T07:48:55.000Z</time>
      </trkpt>
      <trkpt lat="45.44997" lon="4.70911">
        <ele>409</ele>
        <time>2019-09-29T07:48:56.000Z</time>
      </trkpt>
      <trkpt lat="45.44997" lon="4.70917">
        <ele>409</ele>
        <time>2019-09-29T07:48:57.000Z</time>
      </trkpt>
      <trkpt lat="45.44996" lon="4.70922">
        <ele>409</ele>
        <time>2019-09-29T07:48:58.000Z</time>
      </trkpt>
      <trkpt lat="45.44996" lon="4.70926">
        <ele>409</ele>
        <time>2019-09-29T07:48:59.000Z</time>
      </trkpt>
      <trkpt lat="45.44996" lon="4.7093">
        <ele>409</ele>
        <time>2019-09-29T07:49:00.000Z</time>
      </trkpt>
      <trkpt lat="45.44995" lon="4.70935">
        <ele>409</ele>
        <time>2019-09-29T07:49:01.000Z</time>
      </trkpt>
      <trkpt lat="45.44995" lon="4.70939">
        <ele>409</ele>
        <time>2019-09-29T07:49:02.000Z</time>
      </trkpt>
      <trkpt lat="45.44995" lon="4.70943">
        <ele>409</ele>
        <time>2019-09-29T07:49:03.000Z</time>
      </trkpt>
      <trkpt lat="45.44995" lon="4.70947">
        <ele>409</ele>
        <time>2019-09-29T07:49:04.000Z</time>
      </trkpt>
      <trkpt lat="45.44994" lon="4.70951">
        <ele>409</ele>
        <time>2019-09-29T07:49:05.000Z</time>
      </trkpt>
      <trkpt lat="45.44994" lon="4.70954">
        <ele>408.79845407368</ele>
        <time>2019-09-29T07:49:06.000Z</time>
      </trkpt>
      <trkpt lat="45.44995" lon="4.70957">
        <ele>408.02325835227</ele>
        <time>2019-09-29T07:49:07.000Z</time>
      </trkpt>
      <trkpt lat="45.44995" lon="4.70961">
        <ele>408</ele>
        <time>2019-09-29T07:49:08.000Z</time>
      </trkpt>
      <trkpt lat="45.44995" lon="4.70966">
        <ele>408</ele>
        <time>2019-09-29T07:49:09.000Z</time>
      </trkpt>
      <trkpt lat="45.44994" lon="4.70969">
        <ele>408</ele>
        <time>2019-09-29T07:49:10.000Z</time>
      </trkpt>
      <trkpt lat="45.44994" lon="4.70974">
        <ele>408</ele>
        <time>2019-09-29T07:49:12.000Z</time>
      </trkpt>
      <trkpt lat="45.44993" lon="4.70977">
        <ele>408</ele>
        <time>2019-09-29T07:49:13.000Z</time>
      </trkpt>
      <trkpt lat="45.44993" lon="4.7098">
        <ele>407.74000307204</ele>
        <time>2019-09-29T07:49:14.000Z</time>
      </trkpt>
      <trkpt lat="45.44992" lon="4.70985">
        <ele>407</ele>
        <time>2019-09-29T07:49:15.000Z</time>
      </trkpt>
      <trkpt lat="45.44992" lon="4.70989">
        <ele>407</ele>
        <time>2019-09-29T07:49:16.000Z</time>
      </trkpt>
      <trkpt lat="45.44992" lon="4.70994">
        <ele>407</ele>
        <time>2019-09-29T07:49:17.000Z</time>
      </trkpt>
      <trkpt lat="45.44991" lon="4.70998">
        <ele>407</ele>
        <time>2019-09-29T07:49:18.000Z</time>
      </trkpt>
      <trkpt lat="45.44991" lon="4.71001">
        <ele>407</ele>
        <time>2019-09-29T07:49:19.000Z</time>
      </trkpt>
      <trkpt lat="45.4499" lon="4.71004">
        <ele>406.74000307204</ele>
        <time>2019-09-29T07:49:20.000Z</time>
      </trkpt>
      <trkpt lat="45.4499" lon="4.71007">
        <ele>406</ele>
        <time>2019-09-29T07:49:21.000Z</time>
      </trkpt>
      <trkpt lat="45.4499" lon="4.7101">
        <ele>406</ele>
        <time>2019-09-29T07:49:22.000Z</time>
      </trkpt>
      <trkpt lat="45.44991" lon="4.71014">
        <ele>406</ele>
        <time>2019-09-29T07:49:23.000Z</time>
      </trkpt>
      <trkpt lat="45.44991" lon="4.71017">
        <ele>406</ele>
        <time>2019-09-29T07:49:24.000Z</time>
      </trkpt>
      <trkpt lat="45.44991" lon="4.71021">
        <ele>405.73999692804</ele>
        <time>2019-09-29T07:49:25.000Z</time>
      </trkpt>
      <trkpt lat="45.44991" lon="4.71024">
        <ele>405</ele>
        <time>2019-09-29T07:49:26.000Z</time>
      </trkpt>
      <trkpt lat="45.44992" lon="4.71028">
        <ele>405</ele>
        <time>2019-09-29T07:49:27.000Z</time>
      </trkpt>
      <trkpt lat="45.44993" lon="4.71031">
        <ele>405</ele>
        <time>2019-09-29T07:49:28.000Z</time>
      </trkpt>
      <trkpt lat="45.44993" lon="4.71035">
        <ele>405</ele>
        <time>2019-09-29T07:49:29.000Z</time>
      </trkpt>
      <trkpt lat="45.44993" lon="4.71039">
        <ele>405</ele>
        <time>2019-09-29T07:49:30.000Z</time>
      </trkpt>
      <trkpt lat="45.44993" lon="4.71044">
        <ele>405</ele>
        <time>2019-09-29T07:49:31.000Z</time>
      </trkpt>
      <trkpt lat="45.44993" lon="4.71047">
        <ele>405</ele>
        <time>2019-09-29T07:49:32.000Z</time>
      </trkpt>
      <trkpt lat="45.44992" lon="4.7105">
        <ele>405</ele>
        <time>2019-09-29T07:49:37.000Z</time>
      </trkpt>
      <trkpt lat="45.44993" lon="4.71054">
        <ele>404.73999692804</ele>
        <time>2019-09-29T07:49:39.000Z</time>
      </trkpt>
      <trkpt lat="45.44993" lon="4.71056">
        <ele>404</ele>
        <time>2019-09-29T07:49:40.000Z</time>
      </trkpt>
      <trkpt lat="45.44993" lon="4.71061">
        <ele>404</ele>
        <time>2019-09-29T07:49:42.000Z</time>
      </trkpt>
      <trkpt lat="45.44993" lon="4.71065">
        <ele>403.74747879603</ele>
        <time>2019-09-29T07:49:43.000Z</time>
      </trkpt>
      <trkpt lat="45.44993" lon="4.71069">
        <ele>403</ele>
        <time>2019-09-29T07:49:44.000Z</time>
      </trkpt>
      <trkpt lat="45.44993" lon="4.71073">
        <ele>403</ele>
        <time>2019-09-29T07:49:45.000Z</time>
      </trkpt>
      <trkpt lat="45.44993" lon="4.71077">
        <ele>403</ele>
        <time>2019-09-29T07:49:46.000Z</time>
      </trkpt>
      <trkpt lat="45.44993" lon="4.71082">
        <ele>402.73999692804</ele>
        <time>2019-09-29T07:49:47.000Z</time>
      </trkpt>
      <trkpt lat="45.44993" lon="4.71088">
        <ele>402</ele>
        <time>2019-09-29T07:49:48.000Z</time>
      </trkpt>
      <trkpt lat="45.44993" lon="4.71095">
        <ele>402</ele>
        <time>2019-09-29T07:49:49.000Z</time>
      </trkpt>
      <trkpt lat="45.44993" lon="4.71101">
        <ele>402</ele>
        <time>2019-09-29T07:49:50.000Z</time>
      </trkpt>
      <trkpt lat="45.44993" lon="4.71106">
        <ele>401</ele>
        <time>2019-09-29T07:49:51.000Z</time>
      </trkpt>
      <trkpt lat="45.44993" lon="4.71111">
        <ele>400.75510044147</ele>
        <time>2019-09-29T07:49:52.000Z</time>
      </trkpt>
      <trkpt lat="45.44993" lon="4.71116">
        <ele>400</ele>
        <time>2019-09-29T07:49:53.000Z</time>
      </trkpt>
      <trkpt lat="45.44994" lon="4.71121">
        <ele>400</ele>
        <time>2019-09-29T07:49:54.000Z</time>
      </trkpt>
      <trkpt lat="45.44994" lon="4.71126">
        <ele>400</ele>
        <time>2019-09-29T07:49:55.000Z</time>
      </trkpt>
      <trkpt lat="45.44994" lon="4.71132">
        <ele>399.74000307204</ele>
        <time>2019-09-29T07:49:56.000Z</time>
      </trkpt>
      <trkpt lat="45.44994" lon="4.71137">
        <ele>399</ele>
        <time>2019-09-29T07:49:57.000Z</time>
      </trkpt>
      <trkpt lat="45.44994" lon="4.71143">
        <ele>399</ele>
        <time>2019-09-29T07:49:58.000Z</time>
      </trkpt>
      <trkpt lat="45.44994" lon="4.71148">
        <ele>398.73999692804</ele>
        <time>2019-09-29T07:49:59.000Z</time>
      </trkpt>
      <trkpt lat="45.44994" lon="4.71153">
        <ele>398</ele>
        <time>2019-09-29T07:50:00.000Z</time>
      </trkpt>
      <trkpt lat="45.44994" lon="4.71159">
        <ele>398</ele>
        <time>2019-09-29T07:50:01.000Z</time>
      </trkpt>
      <trkpt lat="45.44994" lon="4.71166">
        <ele>397.79845407368</ele>
        <time>2019-09-29T07:50:02.000Z</time>
      </trkpt>
      <trkpt lat="45.44994" lon="4.71173">
        <ele>397.02325835227</ele>
        <time>2019-09-29T07:50:03.000Z</time>
      </trkpt>
      <trkpt lat="45.44994" lon="4.7118">
        <ele>396.74000307204</ele>
        <time>2019-09-29T07:50:04.000Z</time>
      </trkpt>
      <trkpt lat="45.44995" lon="4.71187">
        <ele>396</ele>
        <time>2019-09-29T07:50:05.000Z</time>
      </trkpt>
      <trkpt lat="45.44998" lon="4.71191">
        <ele>396</ele>
        <time>2019-09-29T07:50:06.000Z</time>
      </trkpt>
      <trkpt lat="45.45003" lon="4.71192">
        <ele>395.7984461511</ele>
        <time>2019-09-29T07:50:07.000Z</time>
      </trkpt>
      <trkpt lat="45.45007" lon="4.71191">
        <ele>395.02325812149</ele>
        <time>2019-09-29T07:50:08.000Z</time>
      </trkpt>
      <trkpt lat="45.45012" lon="4.71188">
        <ele>394.73999692804</ele>
        <time>2019-09-29T07:50:09.000Z</time>
      </trkpt>
      <trkpt lat="45.45015" lon="4.71186">
        <ele>394</ele>
        <time>2019-09-29T07:50:10.000Z</time>
      </trkpt>
      <trkpt lat="45.45019" lon="4.71183">
        <ele>394</ele>
        <time>2019-09-29T07:50:11.000Z</time>
      </trkpt>
      <trkpt lat="45.45022" lon="4.71181">
        <ele>394</ele>
        <time>2019-09-29T07:50:12.000Z</time>
      </trkpt>
      <trkpt lat="45.45026" lon="4.71179">
        <ele>394</ele>
        <time>2019-09-29T07:50:13.000Z</time>
      </trkpt>
      <trkpt lat="45.45029" lon="4.71177">
        <ele>394</ele>
        <time>2019-09-29T07:50:14.000Z</time>
      </trkpt>
      <trkpt lat="45.45033" lon="4.71175">
        <ele>393</ele>
        <time>2019-09-29T07:50:15.000Z</time>
      </trkpt>
      <trkpt lat="45.45036" lon="4.71173">
        <ele>393</ele>
        <time>2019-09-29T07:50:16.000Z</time>
      </trkpt>
      <trkpt lat="45.45039" lon="4.71171">
        <ele>392.73999692804</ele>
        <time>2019-09-29T07:50:17.000Z</time>
      </trkpt>
      <trkpt lat="45.45042" lon="4.71169">
        <ele>392</ele>
        <time>2019-09-29T07:50:18.000Z</time>
      </trkpt>
      <trkpt lat="45.45045" lon="4.71167">
        <ele>392</ele>
        <time>2019-09-29T07:50:19.000Z</time>
      </trkpt>
      <trkpt lat="45.45048" lon="4.71165">
        <ele>392</ele>
        <time>2019-09-29T07:50:20.000Z</time>
      </trkpt>
      <trkpt lat="45.45052" lon="4.71163">
        <ele>392</ele>
        <time>2019-09-29T07:50:21.000Z</time>
      </trkpt>
      <trkpt lat="45.45055" lon="4.7116">
        <ele>391.74000307204</ele>
        <time>2019-09-29T07:50:22.000Z</time>
      </trkpt>
      <trkpt lat="45.45059" lon="4.71158">
        <ele>391</ele>
        <time>2019-09-29T07:50:23.000Z</time>
      </trkpt>
      <trkpt lat="45.45063" lon="4.71156">
        <ele>391</ele>
        <time>2019-09-29T07:50:24.000Z</time>
      </trkpt>
      <trkpt lat="45.45067" lon="4.71153">
        <ele>391</ele>
        <time>2019-09-29T07:50:25.000Z</time>
      </trkpt>
      <trkpt lat="45.45071" lon="4.71151">
        <ele>391</ele>
        <time>2019-09-29T07:50:26.000Z</time>
      </trkpt>
      <trkpt lat="45.45074" lon="4.71149">
        <ele>391</ele>
        <time>2019-09-29T07:50:27.000Z</time>
      </trkpt>
      <trkpt lat="45.45078" lon="4.71146">
        <ele>391</ele>
        <time>2019-09-29T07:50:28.000Z</time>
      </trkpt>
      <trkpt lat="45.45081" lon="4.71144">
        <ele>390.73999692804</ele>
        <time>2019-09-29T07:50:29.000Z</time>
      </trkpt>
      <trkpt lat="45.45084" lon="4.71142">
        <ele>390</ele>
        <time>2019-09-29T07:50:30.000Z</time>
      </trkpt>
      <trkpt lat="45.45087" lon="4.7114">
        <ele>390</ele>
        <time>2019-09-29T07:50:31.000Z</time>
      </trkpt>
      <trkpt lat="45.45089" lon="4.71138">
        <ele>390</ele>
        <time>2019-09-29T07:50:32.000Z</time>
      </trkpt>
      <trkpt lat="45.45093" lon="4.71136">
        <ele>390</ele>
        <time>2019-09-29T07:50:33.000Z</time>
      </trkpt>
      <trkpt lat="45.45096" lon="4.71134">
        <ele>389.74000307204</ele>
        <time>2019-09-29T07:50:34.000Z</time>
      </trkpt>
      <trkpt lat="45.451" lon="4.71132">
        <ele>389</ele>
        <time>2019-09-29T07:50:35.000Z</time>
      </trkpt>
      <trkpt lat="45.45103" lon="4.7113">
        <ele>389</ele>
        <time>2019-09-29T07:50:36.000Z</time>
      </trkpt>
      <trkpt lat="45.45106" lon="4.71128">
        <ele>389</ele>
        <time>2019-09-29T07:50:37.000Z</time>
      </trkpt>
      <trkpt lat="45.45109" lon="4.71126">
        <ele>389</ele>
        <time>2019-09-29T07:50:38.000Z</time>
      </trkpt>
      <trkpt lat="45.45112" lon="4.71125">
        <ele>389</ele>
        <time>2019-09-29T07:50:39.000Z</time>
      </trkpt>
      <trkpt lat="45.45115" lon="4.71123">
        <ele>389</ele>
        <time>2019-09-29T07:50:40.000Z</time>
      </trkpt>
      <trkpt lat="45.45118" lon="4.71122">
        <ele>389</ele>
        <time>2019-09-29T07:50:41.000Z</time>
      </trkpt>
      <trkpt lat="45.45121" lon="4.7112">
        <ele>389</ele>
        <time>2019-09-29T07:50:42.000Z</time>
      </trkpt>
      <trkpt lat="45.45123" lon="4.71118">
        <ele>388.74257036765</ele>
        <time>2019-09-29T07:50:43.000Z</time>
      </trkpt>
      <trkpt lat="45.45126" lon="4.71116">
        <ele>388</ele>
        <time>2019-09-29T07:50:44.000Z</time>
      </trkpt>
      <trkpt lat="45.45129" lon="4.71115">
        <ele>388</ele>
        <time>2019-09-29T07:50:45.000Z</time>
      </trkpt>
      <trkpt lat="45.45132" lon="4.71113">
        <ele>388</ele>
        <time>2019-09-29T07:50:46.000Z</time>
      </trkpt>
      <trkpt lat="45.45135" lon="4.71111">
        <ele>388</ele>
        <time>2019-09-29T07:50:47.000Z</time>
      </trkpt>
      <trkpt lat="45.45138" lon="4.71109">
        <ele>388</ele>
        <time>2019-09-29T07:50:48.000Z</time>
      </trkpt>
      <trkpt lat="45.45141" lon="4.71107">
        <ele>388</ele>
        <time>2019-09-29T07:50:49.000Z</time>
      </trkpt>
      <trkpt lat="45.45144" lon="4.71105">
        <ele>388</ele>
        <time>2019-09-29T07:50:50.000Z</time>
      </trkpt>
      <trkpt lat="45.45147" lon="4.71104">
        <ele>388</ele>
        <time>2019-09-29T07:50:51.000Z</time>
      </trkpt>
      <trkpt lat="45.4515" lon="4.71102">
        <ele>388</ele>
        <time>2019-09-29T07:50:52.000Z</time>
      </trkpt>
      <trkpt lat="45.45152" lon="4.71102">
        <ele>388</ele>
        <time>2019-09-29T07:50:53.000Z</time>
      </trkpt>
      <trkpt lat="45.45155" lon="4.71102">
        <ele>388</ele>
        <time>2019-09-29T07:50:54.000Z</time>
      </trkpt>
      <trkpt lat="45.45158" lon="4.71103">
        <ele>388</ele>
        <time>2019-09-29T07:50:55.000Z</time>
      </trkpt>
      <trkpt lat="45.45161" lon="4.71104">
        <ele>388</ele>
        <time>2019-09-29T07:50:56.000Z</time>
      </trkpt>
      <trkpt lat="45.45164" lon="4.71105">
        <ele>388</ele>
        <time>2019-09-29T07:50:57.000Z</time>
      </trkpt>
      <trkpt lat="45.45168" lon="4.71106">
        <ele>388</ele>
        <time>2019-09-29T07:50:58.000Z</time>
      </trkpt>
      <trkpt lat="45.45172" lon="4.71107">
        <ele>388</ele>
        <time>2019-09-29T07:50:59.000Z</time>
      </trkpt>
      <trkpt lat="45.45176" lon="4.71109">
        <ele>388</ele>
        <time>2019-09-29T07:51:00.000Z</time>
      </trkpt>
      <trkpt lat="45.4518" lon="4.7111">
        <ele>388</ele>
        <time>2019-09-29T07:51:01.000Z</time>
      </trkpt>
      <trkpt lat="45.45185" lon="4.71112">
        <ele>388</ele>
        <time>2019-09-29T07:51:02.000Z</time>
      </trkpt>
      <trkpt lat="45.45189" lon="4.71114">
        <ele>388</ele>
        <time>2019-09-29T07:51:03.000Z</time>
      </trkpt>
      <trkpt lat="45.45192" lon="4.71117">
        <ele>387.79845407368</ele>
        <time>2019-09-29T07:51:04.000Z</time>
      </trkpt>
      <trkpt lat="45.45196" lon="4.7112">
        <ele>387.02325835227</ele>
        <time>2019-09-29T07:51:05.000Z</time>
      </trkpt>
      <trkpt lat="45.45201" lon="4.71123">
        <ele>387</ele>
        <time>2019-09-29T07:51:06.000Z</time>
      </trkpt>
      <trkpt lat="45.45205" lon="4.71125">
        <ele>387</ele>
        <time>2019-09-29T07:51:07.000Z</time>
      </trkpt>
      <trkpt lat="45.45209" lon="4.71128">
        <ele>387</ele>
        <time>2019-09-29T07:51:08.000Z</time>
      </trkpt>
      <trkpt lat="45.45214" lon="4.71129">
        <ele>387</ele>
        <time>2019-09-29T07:51:09.000Z</time>
      </trkpt>
      <trkpt lat="45.45218" lon="4.71129">
        <ele>387</ele>
        <time>2019-09-29T07:51:10.000Z</time>
      </trkpt>
      <trkpt lat="45.45223" lon="4.71128">
        <ele>387</ele>
        <time>2019-09-29T07:51:11.000Z</time>
      </trkpt>
      <trkpt lat="45.45228" lon="4.71128">
        <ele>387</ele>
        <time>2019-09-29T07:51:12.000Z</time>
      </trkpt>
      <trkpt lat="45.45233" lon="4.71128">
        <ele>387</ele>
        <time>2019-09-29T07:51:13.000Z</time>
      </trkpt>
      <trkpt lat="45.45237" lon="4.71127">
        <ele>387</ele>
        <time>2019-09-29T07:51:14.000Z</time>
      </trkpt>
      <trkpt lat="45.45241" lon="4.71127">
        <ele>387</ele>
        <time>2019-09-29T07:51:15.000Z</time>
      </trkpt>
      <trkpt lat="45.45246" lon="4.71127">
        <ele>387</ele>
        <time>2019-09-29T07:51:16.000Z</time>
      </trkpt>
      <trkpt lat="45.45249" lon="4.71128">
        <ele>387</ele>
        <time>2019-09-29T07:51:17.000Z</time>
      </trkpt>
      <trkpt lat="45.45253" lon="4.7113">
        <ele>387</ele>
        <time>2019-09-29T07:51:18.000Z</time>
      </trkpt>
      <trkpt lat="45.45257" lon="4.71133">
        <ele>387</ele>
        <time>2019-09-29T07:51:19.000Z</time>
      </trkpt>
      <trkpt lat="45.4526" lon="4.71135">
        <ele>387</ele>
        <time>2019-09-29T07:51:20.000Z</time>
      </trkpt>
      <trkpt lat="45.45264" lon="4.71138">
        <ele>387</ele>
        <time>2019-09-29T07:51:21.000Z</time>
      </trkpt>
      <trkpt lat="45.45268" lon="4.71142">
        <ele>387</ele>
        <time>2019-09-29T07:51:22.000Z</time>
      </trkpt>
      <trkpt lat="45.45271" lon="4.71145">
        <ele>387</ele>
        <time>2019-09-29T07:51:23.000Z</time>
      </trkpt>
      <trkpt lat="45.45275" lon="4.71147">
        <ele>387</ele>
        <time>2019-09-29T07:51:24.000Z</time>
      </trkpt>
      <trkpt lat="45.45279" lon="4.7115">
        <ele>387</ele>
        <time>2019-09-29T07:51:25.000Z</time>
      </trkpt>
      <trkpt lat="45.45283" lon="4.71153">
        <ele>387</ele>
        <time>2019-09-29T07:51:26.000Z</time>
      </trkpt>
      <trkpt lat="45.45287" lon="4.71156">
        <ele>387</ele>
        <time>2019-09-29T07:51:27.000Z</time>
      </trkpt>
      <trkpt lat="45.45291" lon="4.71159">
        <ele>387</ele>
        <time>2019-09-29T07:51:28.000Z</time>
      </trkpt>
      <trkpt lat="45.45294" lon="4.71163">
        <ele>386.73999692804</ele>
        <time>2019-09-29T07:51:29.000Z</time>
      </trkpt>
      <trkpt lat="45.45297" lon="4.71166">
        <ele>386</ele>
        <time>2019-09-29T07:51:30.000Z</time>
      </trkpt>
      <trkpt lat="45.45301" lon="4.7117">
        <ele>386</ele>
        <time>2019-09-29T07:51:31.000Z</time>
      </trkpt>
      <trkpt lat="45.45304" lon="4.71173">
        <ele>386</ele>
        <time>2019-09-29T07:51:32.000Z</time>
      </trkpt>
      <trkpt lat="45.45307" lon="4.71176">
        <ele>386</ele>
        <time>2019-09-29T07:51:33.000Z</time>
      </trkpt>
      <trkpt lat="45.4531" lon="4.71178">
        <ele>386</ele>
        <time>2019-09-29T07:51:34.000Z</time>
      </trkpt>
      <trkpt lat="45.45313" lon="4.7118">
        <ele>386</ele>
        <time>2019-09-29T07:51:35.000Z</time>
      </trkpt>
      <trkpt lat="45.45315" lon="4.71181">
        <ele>386</ele>
        <time>2019-09-29T07:51:36.000Z</time>
      </trkpt>
      <trkpt lat="45.45318" lon="4.71183">
        <ele>386</ele>
        <time>2019-09-29T07:51:37.000Z</time>
      </trkpt>
      <trkpt lat="45.4532" lon="4.71184">
        <ele>386</ele>
        <time>2019-09-29T07:51:38.000Z</time>
      </trkpt>
      <trkpt lat="45.45322" lon="4.71185">
        <ele>386</ele>
        <time>2019-09-29T07:51:39.000Z</time>
      </trkpt>
      <trkpt lat="45.45324" lon="4.71186">
        <ele>386</ele>
        <time>2019-09-29T07:51:40.000Z</time>
      </trkpt>
      <trkpt lat="45.45326" lon="4.71188">
        <ele>386</ele>
        <time>2019-09-29T07:51:41.000Z</time>
      </trkpt>
      <trkpt lat="45.45327" lon="4.7119">
        <ele>386</ele>
        <time>2019-09-29T07:51:42.000Z</time>
      </trkpt>
      <trkpt lat="45.45329" lon="4.71192">
        <ele>386</ele>
        <time>2019-09-29T07:51:44.000Z</time>
      </trkpt>
      <trkpt lat="45.45331" lon="4.71195">
        <ele>386</ele>
        <time>2019-09-29T07:51:58.000Z</time>
      </trkpt>
      <trkpt lat="45.45333" lon="4.71196">
        <ele>386</ele>
        <time>2019-09-29T07:51:59.000Z</time>
      </trkpt>
      <trkpt lat="45.45337" lon="4.71198">
        <ele>386</ele>
        <time>2019-09-29T07:52:00.000Z</time>
      </trkpt>
      <trkpt lat="45.45341" lon="4.712">
        <ele>386</ele>
        <time>2019-09-29T07:52:01.000Z</time>
      </trkpt>
      <trkpt lat="45.45345" lon="4.71203">
        <ele>386</ele>
        <time>2019-09-29T07:52:02.000Z</time>
      </trkpt>
      <trkpt lat="45.45351" lon="4.71205">
        <ele>386</ele>
        <time>2019-09-29T07:52:03.000Z</time>
      </trkpt>
      <trkpt lat="45.45356" lon="4.71205">
        <ele>385</ele>
        <time>2019-09-29T07:52:04.000Z</time>
      </trkpt>
      <trkpt lat="45.45362" lon="4.71203">
        <ele>385</ele>
        <time>2019-09-29T07:52:05.000Z</time>
      </trkpt>
      <trkpt lat="45.45367" lon="4.71201">
        <ele>385</ele>
        <time>2019-09-29T07:52:06.000Z</time>
      </trkpt>
      <trkpt lat="45.45372" lon="4.71197">
        <ele>385</ele>
        <time>2019-09-29T07:52:07.000Z</time>
      </trkpt>
      <trkpt lat="45.45377" lon="4.71193">
        <ele>385</ele>
        <time>2019-09-29T07:52:08.000Z</time>
      </trkpt>
      <trkpt lat="45.45382" lon="4.71188">
        <ele>385</ele>
        <time>2019-09-29T07:52:09.000Z</time>
      </trkpt>
      <trkpt lat="45.45388" lon="4.71184">
        <ele>385</ele>
        <time>2019-09-29T07:52:10.000Z</time>
      </trkpt>
      <trkpt lat="45.45393" lon="4.71179">
        <ele>384.80152231689</ele>
        <time>2019-09-29T07:52:11.000Z</time>
      </trkpt>
      <trkpt lat="45.45399" lon="4.71174">
        <ele>384.03816540295</ele>
        <time>2019-09-29T07:52:12.000Z</time>
      </trkpt>
      <trkpt lat="45.45404" lon="4.71168">
        <ele>383.73999692804</ele>
        <time>2019-09-29T07:52:13.000Z</time>
      </trkpt>
      <trkpt lat="45.4541" lon="4.71163">
        <ele>383</ele>
        <time>2019-09-29T07:52:14.000Z</time>
      </trkpt>
      <trkpt lat="45.45416" lon="4.71158">
        <ele>383</ele>
        <time>2019-09-29T07:52:15.000Z</time>
      </trkpt>
      <trkpt lat="45.45422" lon="4.71153">
        <ele>383</ele>
        <time>2019-09-29T07:52:16.000Z</time>
      </trkpt>
      <trkpt lat="45.45428" lon="4.71148">
        <ele>382.73999692804</ele>
        <time>2019-09-29T07:52:17.000Z</time>
      </trkpt>
      <trkpt lat="45.45433" lon="4.71143">
        <ele>382</ele>
        <time>2019-09-29T07:52:18.000Z</time>
      </trkpt>
      <trkpt lat="45.45439" lon="4.71138">
        <ele>382</ele>
        <time>2019-09-29T07:52:19.000Z</time>
      </trkpt>
      <trkpt lat="45.45446" lon="4.71133">
        <ele>382</ele>
        <time>2019-09-29T07:52:20.000Z</time>
      </trkpt>
      <trkpt lat="45.45452" lon="4.71128">
        <ele>382</ele>
        <time>2019-09-29T07:52:21.000Z</time>
      </trkpt>
      <trkpt lat="45.45458" lon="4.71123">
        <ele>382</ele>
        <time>2019-09-29T07:52:22.000Z</time>
      </trkpt>
      <trkpt lat="45.45464" lon="4.71118">
        <ele>382</ele>
        <time>2019-09-29T07:52:23.000Z</time>
      </trkpt>
      <trkpt lat="45.4547" lon="4.71112">
        <ele>382</ele>
        <time>2019-09-29T07:52:24.000Z</time>
      </trkpt>
      <trkpt lat="45.45476" lon="4.71106">
        <ele>382</ele>
        <time>2019-09-29T07:52:25.000Z</time>
      </trkpt>
      <trkpt lat="45.4548" lon="4.711">
        <ele>382</ele>
        <time>2019-09-29T07:52:26.000Z</time>
      </trkpt>
      <trkpt lat="45.45485" lon="4.71092">
        <ele>382</ele>
        <time>2019-09-29T07:52:27.000Z</time>
      </trkpt>
      <trkpt lat="45.45488" lon="4.71084">
        <ele>382</ele>
        <time>2019-09-29T07:52:28.000Z</time>
      </trkpt>
      <trkpt lat="45.45492" lon="4.71076">
        <ele>382</ele>
        <time>2019-09-29T07:52:29.000Z</time>
      </trkpt>
      <trkpt lat="45.45495" lon="4.71068">
        <ele>382</ele>
        <time>2019-09-29T07:52:30.000Z</time>
      </trkpt>
      <trkpt lat="45.45497" lon="4.7106">
        <ele>382</ele>
        <time>2019-09-29T07:52:31.000Z</time>
      </trkpt>
      <trkpt lat="45.455" lon="4.71052">
        <ele>382</ele>
        <time>2019-09-29T07:52:32.000Z</time>
      </trkpt>
      <trkpt lat="45.45502" lon="4.71044">
        <ele>382</ele>
        <time>2019-09-29T07:52:33.000Z</time>
      </trkpt>
      <trkpt lat="45.45504" lon="4.71037">
        <ele>382</ele>
        <time>2019-09-29T07:52:34.000Z</time>
      </trkpt>
      <trkpt lat="45.45506" lon="4.71029">
        <ele>381.73999692804</ele>
        <time>2019-09-29T07:52:35.000Z</time>
      </trkpt>
      <trkpt lat="45.45508" lon="4.71023">
        <ele>381.25999692796</ele>
        <time>2019-09-29T07:52:36.000Z</time>
      </trkpt>
      <trkpt lat="45.45511" lon="4.71021">
        <ele>381.73999692804</ele>
        <time>2019-09-29T07:52:37.000Z</time>
      </trkpt>
      <trkpt lat="45.45515" lon="4.71021">
        <ele>381</ele>
        <time>2019-09-29T07:52:38.000Z</time>
      </trkpt>
      <trkpt lat="45.4552" lon="4.71023">
        <ele>381</ele>
        <time>2019-09-29T07:52:39.000Z</time>
      </trkpt>
      <trkpt lat="45.45524" lon="4.71027">
        <ele>381</ele>
        <time>2019-09-29T07:52:40.000Z</time>
      </trkpt>
      <trkpt lat="45.4553" lon="4.71032">
        <ele>380.73999692804</ele>
        <time>2019-09-29T07:52:41.000Z</time>
      </trkpt>
      <trkpt lat="45.45536" lon="4.71036">
        <ele>380</ele>
        <time>2019-09-29T07:52:42.000Z</time>
      </trkpt>
      <trkpt lat="45.45544" lon="4.71039">
        <ele>380</ele>
        <time>2019-09-29T07:52:43.000Z</time>
      </trkpt>
      <trkpt lat="45.45551" lon="4.71042">
        <ele>379</ele>
        <time>2019-09-29T07:52:44.000Z</time>
      </trkpt>
      <trkpt lat="45.45558" lon="4.71045">
        <ele>379</ele>
        <time>2019-09-29T07:52:45.000Z</time>
      </trkpt>
      <trkpt lat="45.45564" lon="4.71051">
        <ele>379</ele>
        <time>2019-09-29T07:52:46.000Z</time>
      </trkpt>
      <trkpt lat="45.4557" lon="4.71058">
        <ele>379</ele>
        <time>2019-09-29T07:52:47.000Z</time>
      </trkpt>
      <trkpt lat="45.45576" lon="4.71064">
        <ele>378.74000307204</ele>
        <time>2019-09-29T07:52:48.000Z</time>
      </trkpt>
      <trkpt lat="45.45582" lon="4.71069">
        <ele>378</ele>
        <time>2019-09-29T07:52:49.000Z</time>
      </trkpt>
      <trkpt lat="45.45588" lon="4.71074">
        <ele>378</ele>
        <time>2019-09-29T07:52:50.000Z</time>
      </trkpt>
      <trkpt lat="45.45594" lon="4.71078">
        <ele>378</ele>
        <time>2019-09-29T07:52:51.000Z</time>
      </trkpt>
      <trkpt lat="45.45599" lon="4.71082">
        <ele>378</ele>
        <time>2019-09-29T07:52:52.000Z</time>
      </trkpt>
      <trkpt lat="45.45605" lon="4.71086">
        <ele>378</ele>
        <time>2019-09-29T07:52:53.000Z</time>
      </trkpt>
      <trkpt lat="45.4561" lon="4.71091">
        <ele>378</ele>
        <time>2019-09-29T07:52:54.000Z</time>
      </trkpt>
      <trkpt lat="45.45616" lon="4.71095">
        <ele>378</ele>
        <time>2019-09-29T07:52:55.000Z</time>
      </trkpt>
      <trkpt lat="45.45622" lon="4.71098">
        <ele>378</ele>
        <time>2019-09-29T07:52:56.000Z</time>
      </trkpt>
      <trkpt lat="45.45627" lon="4.71102">
        <ele>378</ele>
        <time>2019-09-29T07:52:57.000Z</time>
      </trkpt>
      <trkpt lat="45.45631" lon="4.71105">
        <ele>378</ele>
        <time>2019-09-29T07:52:58.000Z</time>
      </trkpt>
      <trkpt lat="45.45636" lon="4.71107">
        <ele>378</ele>
        <time>2019-09-29T07:52:59.000Z</time>
      </trkpt>
      <trkpt lat="45.45641" lon="4.7111">
        <ele>378</ele>
        <time>2019-09-29T07:53:00.000Z</time>
      </trkpt>
      <trkpt lat="45.45646" lon="4.71113">
        <ele>378</ele>
        <time>2019-09-29T07:53:01.000Z</time>
      </trkpt>
      <trkpt lat="45.4565" lon="4.71115">
        <ele>378</ele>
        <time>2019-09-29T07:53:02.000Z</time>
      </trkpt>
      <trkpt lat="45.45655" lon="4.71118">
        <ele>378</ele>
        <time>2019-09-29T07:53:03.000Z</time>
      </trkpt>
      <trkpt lat="45.45659" lon="4.7112">
        <ele>378</ele>
        <time>2019-09-29T07:53:04.000Z</time>
      </trkpt>
      <trkpt lat="45.45663" lon="4.71122">
        <ele>378</ele>
        <time>2019-09-29T07:53:05.000Z</time>
      </trkpt>
      <trkpt lat="45.45666" lon="4.71125">
        <ele>378</ele>
        <time>2019-09-29T07:53:06.000Z</time>
      </trkpt>
      <trkpt lat="45.4567" lon="4.71127">
        <ele>378</ele>
        <time>2019-09-29T07:53:07.000Z</time>
      </trkpt>
      <trkpt lat="45.45673" lon="4.71129">
        <ele>378</ele>
        <time>2019-09-29T07:53:08.000Z</time>
      </trkpt>
      <trkpt lat="45.45677" lon="4.71131">
        <ele>378</ele>
        <time>2019-09-29T07:53:09.000Z</time>
      </trkpt>
      <trkpt lat="45.4568" lon="4.71133">
        <ele>378</ele>
        <time>2019-09-29T07:53:10.000Z</time>
      </trkpt>
      <trkpt lat="45.45683" lon="4.71135">
        <ele>378</ele>
        <time>2019-09-29T07:53:11.000Z</time>
      </trkpt>
      <trkpt lat="45.45686" lon="4.71136">
        <ele>378</ele>
        <time>2019-09-29T07:53:12.000Z</time>
      </trkpt>
      <trkpt lat="45.45689" lon="4.71138">
        <ele>378</ele>
        <time>2019-09-29T07:53:13.000Z</time>
      </trkpt>
      <trkpt lat="45.45692" lon="4.7114">
        <ele>378</ele>
        <time>2019-09-29T07:53:14.000Z</time>
      </trkpt>
      <trkpt lat="45.45695" lon="4.71141">
        <ele>378</ele>
        <time>2019-09-29T07:53:15.000Z</time>
      </trkpt>
      <trkpt lat="45.45698" lon="4.71143">
        <ele>378</ele>
        <time>2019-09-29T07:53:16.000Z</time>
      </trkpt>
      <trkpt lat="45.45702" lon="4.71144">
        <ele>378</ele>
        <time>2019-09-29T07:53:17.000Z</time>
      </trkpt>
      <trkpt lat="45.45705" lon="4.71145">
        <ele>378</ele>
        <time>2019-09-29T07:53:18.000Z</time>
      </trkpt>
      <trkpt lat="45.45708" lon="4.71147">
        <ele>378</ele>
        <time>2019-09-29T07:53:19.000Z</time>
      </trkpt>
      <trkpt lat="45.45712" lon="4.71148">
        <ele>378</ele>
        <time>2019-09-29T07:53:20.000Z</time>
      </trkpt>
      <trkpt lat="45.45715" lon="4.71149">
        <ele>378</ele>
        <time>2019-09-29T07:53:21.000Z</time>
      </trkpt>
      <trkpt lat="45.45719" lon="4.71151">
        <ele>378</ele>
        <time>2019-09-29T07:53:22.000Z</time>
      </trkpt>
      <trkpt lat="45.45722" lon="4.71152">
        <ele>378</ele>
        <time>2019-09-29T07:53:23.000Z</time>
      </trkpt>
      <trkpt lat="45.45725" lon="4.71154">
        <ele>378</ele>
        <time>2019-09-29T07:53:24.000Z</time>
      </trkpt>
      <trkpt lat="45.45729" lon="4.71155">
        <ele>378</ele>
        <time>2019-09-29T07:53:25.000Z</time>
      </trkpt>
      <trkpt lat="45.45732" lon="4.71156">
        <ele>378</ele>
        <time>2019-09-29T07:53:26.000Z</time>
      </trkpt>
      <trkpt lat="45.45734" lon="4.71158">
        <ele>378</ele>
        <time>2019-09-29T07:53:27.000Z</time>
      </trkpt>
      <trkpt lat="45.45737" lon="4.71159">
        <ele>378</ele>
        <time>2019-09-29T07:53:28.000Z</time>
      </trkpt>
      <trkpt lat="45.4574" lon="4.7116">
        <ele>378</ele>
        <time>2019-09-29T07:53:29.000Z</time>
      </trkpt>
      <trkpt lat="45.45744" lon="4.71161">
        <ele>378</ele>
        <time>2019-09-29T07:53:30.000Z</time>
      </trkpt>
      <trkpt lat="45.45747" lon="4.71162">
        <ele>378</ele>
        <time>2019-09-29T07:53:31.000Z</time>
      </trkpt>
      <trkpt lat="45.4575" lon="4.71163">
        <ele>378</ele>
        <time>2019-09-29T07:53:32.000Z</time>
      </trkpt>
      <trkpt lat="45.45753" lon="4.71164">
        <ele>378</ele>
        <time>2019-09-29T07:53:33.000Z</time>
      </trkpt>
      <trkpt lat="45.45756" lon="4.71165">
        <ele>378</ele>
        <time>2019-09-29T07:53:34.000Z</time>
      </trkpt>
      <trkpt lat="45.45759" lon="4.71167">
        <ele>378</ele>
        <time>2019-09-29T07:53:35.000Z</time>
      </trkpt>
      <trkpt lat="45.45763" lon="4.71168">
        <ele>378.19999606152</ele>
        <time>2019-09-29T07:53:36.000Z</time>
      </trkpt>
      <trkpt lat="45.45766" lon="4.71169">
        <ele>378.96923061775</ele>
        <time>2019-09-29T07:53:37.000Z</time>
      </trkpt>
      <trkpt lat="45.45768" lon="4.71171">
        <ele>379</ele>
        <time>2019-09-29T07:53:38.000Z</time>
      </trkpt>
      <trkpt lat="45.45771" lon="4.71173">
        <ele>379</ele>
        <time>2019-09-29T07:53:39.000Z</time>
      </trkpt>
      <trkpt lat="45.45772" lon="4.71175">
        <ele>379</ele>
        <time>2019-09-29T07:53:40.000Z</time>
      </trkpt>
      <trkpt lat="45.45774" lon="4.71177">
        <ele>379</ele>
        <time>2019-09-29T07:53:41.000Z</time>
      </trkpt>
      <trkpt lat="45.45776" lon="4.7118">
        <ele>379</ele>
        <time>2019-09-29T07:53:42.000Z</time>
      </trkpt>
      <trkpt lat="45.45778" lon="4.71184">
        <ele>379</ele>
        <time>2019-09-29T07:53:43.000Z</time>
      </trkpt>
      <trkpt lat="45.4578" lon="4.71188">
        <ele>379</ele>
        <time>2019-09-29T07:53:44.000Z</time>
      </trkpt>
      <trkpt lat="45.45783" lon="4.71192">
        <ele>379</ele>
        <time>2019-09-29T07:53:45.000Z</time>
      </trkpt>
      <trkpt lat="45.45785" lon="4.71195">
        <ele>379</ele>
        <time>2019-09-29T07:53:46.000Z</time>
      </trkpt>
      <trkpt lat="45.45787" lon="4.71198">
        <ele>379</ele>
        <time>2019-09-29T07:53:47.000Z</time>
      </trkpt>
      <trkpt lat="45.4579" lon="4.71201">
        <ele>379</ele>
        <time>2019-09-29T07:53:48.000Z</time>
      </trkpt>
      <trkpt lat="45.45793" lon="4.71204">
        <ele>379</ele>
        <time>2019-09-29T07:53:49.000Z</time>
      </trkpt>
      <trkpt lat="45.45796" lon="4.71206">
        <ele>379</ele>
        <time>2019-09-29T07:53:50.000Z</time>
      </trkpt>
      <trkpt lat="45.45799" lon="4.71208">
        <ele>379</ele>
        <time>2019-09-29T07:53:51.000Z</time>
      </trkpt>
      <trkpt lat="45.45802" lon="4.7121">
        <ele>379</ele>
        <time>2019-09-29T07:53:52.000Z</time>
      </trkpt>
      <trkpt lat="45.45804" lon="4.71213">
        <ele>379</ele>
        <time>2019-09-29T07:53:53.000Z</time>
      </trkpt>
      <trkpt lat="45.45807" lon="4.71216">
        <ele>379</ele>
        <time>2019-09-29T07:53:54.000Z</time>
      </trkpt>
      <trkpt lat="45.4581" lon="4.71219">
        <ele>379</ele>
        <time>2019-09-29T07:53:55.000Z</time>
      </trkpt>
      <trkpt lat="45.45813" lon="4.71221">
        <ele>379</ele>
        <time>2019-09-29T07:53:56.000Z</time>
      </trkpt>
      <trkpt lat="45.45816" lon="4.71224">
        <ele>379</ele>
        <time>2019-09-29T07:53:57.000Z</time>
      </trkpt>
      <trkpt lat="45.45819" lon="4.71227">
        <ele>379</ele>
        <time>2019-09-29T07:53:58.000Z</time>
      </trkpt>
      <trkpt lat="45.45822" lon="4.7123">
        <ele>379.26000307196</ele>
        <time>2019-09-29T07:53:59.000Z</time>
      </trkpt>
      <trkpt lat="45.45825" lon="4.71232">
        <ele>380</ele>
        <time>2019-09-29T07:54:00.000Z</time>
      </trkpt>
      <trkpt lat="45.45828" lon="4.71235">
        <ele>380</ele>
        <time>2019-09-29T07:54:01.000Z</time>
      </trkpt>
      <trkpt lat="45.4583" lon="4.71237">
        <ele>380</ele>
        <time>2019-09-29T07:54:02.000Z</time>
      </trkpt>
      <trkpt lat="45.45833" lon="4.71238">
        <ele>380</ele>
        <time>2019-09-29T07:54:03.000Z</time>
      </trkpt>
      <trkpt lat="45.45836" lon="4.7124">
        <ele>380</ele>
        <time>2019-09-29T07:54:04.000Z</time>
      </trkpt>
      <trkpt lat="45.45838" lon="4.71242">
        <ele>380</ele>
        <time>2019-09-29T07:54:05.000Z</time>
      </trkpt>
      <trkpt lat="45.45841" lon="4.71244">
        <ele>380</ele>
        <time>2019-09-29T07:54:06.000Z</time>
      </trkpt>
      <trkpt lat="45.45843" lon="4.71246">
        <ele>380</ele>
        <time>2019-09-29T07:54:07.000Z</time>
      </trkpt>
      <trkpt lat="45.45846" lon="4.71248">
        <ele>380</ele>
        <time>2019-09-29T07:54:08.000Z</time>
      </trkpt>
      <trkpt lat="45.45849" lon="4.71249">
        <ele>380</ele>
        <time>2019-09-29T07:54:09.000Z</time>
      </trkpt>
      <trkpt lat="45.45851" lon="4.7125">
        <ele>380</ele>
        <time>2019-09-29T07:54:10.000Z</time>
      </trkpt>
      <trkpt lat="45.45853" lon="4.71252">
        <ele>380</ele>
        <time>2019-09-29T07:54:11.000Z</time>
      </trkpt>
      <trkpt lat="45.45856" lon="4.71253">
        <ele>380</ele>
        <time>2019-09-29T07:54:12.000Z</time>
      </trkpt>
      <trkpt lat="45.45859" lon="4.71255">
        <ele>380</ele>
        <time>2019-09-29T07:54:13.000Z</time>
      </trkpt>
      <trkpt lat="45.45861" lon="4.71257">
        <ele>380</ele>
        <time>2019-09-29T07:54:14.000Z</time>
      </trkpt>
      <trkpt lat="45.45864" lon="4.71259">
        <ele>380</ele>
        <time>2019-09-29T07:54:15.000Z</time>
      </trkpt>
      <trkpt lat="45.45867" lon="4.7126">
        <ele>380.25742022153</ele>
        <time>2019-09-29T07:54:16.000Z</time>
      </trkpt>
      <trkpt lat="45.45869" lon="4.71262">
        <ele>381</ele>
        <time>2019-09-29T07:54:17.000Z</time>
      </trkpt>
      <trkpt lat="45.45872" lon="4.71264">
        <ele>381</ele>
        <time>2019-09-29T07:54:18.000Z</time>
      </trkpt>
      <trkpt lat="45.45874" lon="4.71266">
        <ele>381</ele>
        <time>2019-09-29T07:54:19.000Z</time>
      </trkpt>
      <trkpt lat="45.45877" lon="4.71268">
        <ele>381</ele>
        <time>2019-09-29T07:54:20.000Z</time>
      </trkpt>
      <trkpt lat="45.45879" lon="4.71271">
        <ele>381</ele>
        <time>2019-09-29T07:54:21.000Z</time>
      </trkpt>
      <trkpt lat="45.45881" lon="4.71273">
        <ele>381</ele>
        <time>2019-09-29T07:54:22.000Z</time>
      </trkpt>
      <trkpt lat="45.45884" lon="4.71275">
        <ele>381</ele>
        <time>2019-09-29T07:54:23.000Z</time>
      </trkpt>
      <trkpt lat="45.45886" lon="4.71277">
        <ele>381</ele>
        <time>2019-09-29T07:54:24.000Z</time>
      </trkpt>
      <trkpt lat="45.45889" lon="4.71279">
        <ele>381</ele>
        <time>2019-09-29T07:54:25.000Z</time>
      </trkpt>
      <trkpt lat="45.45891" lon="4.71281">
        <ele>381.25999692796</ele>
        <time>2019-09-29T07:54:26.000Z</time>
      </trkpt>
      <trkpt lat="45.45893" lon="4.71284">
        <ele>382</ele>
        <time>2019-09-29T07:54:27.000Z</time>
      </trkpt>
      <trkpt lat="45.45896" lon="4.71286">
        <ele>382</ele>
        <time>2019-09-29T07:54:28.000Z</time>
      </trkpt>
      <trkpt lat="45.45898" lon="4.71288">
        <ele>382</ele>
        <time>2019-09-29T07:54:29.000Z</time>
      </trkpt>
      <trkpt lat="45.459" lon="4.7129">
        <ele>382</ele>
        <time>2019-09-29T07:54:30.000Z</time>
      </trkpt>
      <trkpt lat="45.45902" lon="4.71292">
        <ele>382</ele>
        <time>2019-09-29T07:54:31.000Z</time>
      </trkpt>
      <trkpt lat="45.45905" lon="4.71294">
        <ele>382</ele>
        <time>2019-09-29T07:54:32.000Z</time>
      </trkpt>
      <trkpt lat="45.45907" lon="4.71297">
        <ele>382.20000393844</ele>
        <time>2019-09-29T07:54:33.000Z</time>
      </trkpt>
      <trkpt lat="45.45909" lon="4.71299">
        <ele>382.96923092071</ele>
        <time>2019-09-29T07:54:34.000Z</time>
      </trkpt>
      <trkpt lat="45.45911" lon="4.71301">
        <ele>383</ele>
        <time>2019-09-29T07:54:35.000Z</time>
      </trkpt>
      <trkpt lat="45.45913" lon="4.71303">
        <ele>383</ele>
        <time>2019-09-29T07:54:36.000Z</time>
      </trkpt>
      <trkpt lat="45.45915" lon="4.71305">
        <ele>383</ele>
        <time>2019-09-29T07:54:37.000Z</time>
      </trkpt>
      <trkpt lat="45.45917" lon="4.71307">
        <ele>383</ele>
        <time>2019-09-29T07:54:38.000Z</time>
      </trkpt>
      <trkpt lat="45.45919" lon="4.71309">
        <ele>383</ele>
        <time>2019-09-29T07:54:39.000Z</time>
      </trkpt>
      <trkpt lat="45.45921" lon="4.71312">
        <ele>383.25999692796</ele>
        <time>2019-09-29T07:54:40.000Z</time>
      </trkpt>
      <trkpt lat="45.45923" lon="4.71314">
        <ele>384</ele>
        <time>2019-09-29T07:54:41.000Z</time>
      </trkpt>
      <trkpt lat="45.45925" lon="4.71316">
        <ele>384</ele>
        <time>2019-09-29T07:54:42.000Z</time>
      </trkpt>
      <trkpt lat="45.45927" lon="4.71318">
        <ele>384</ele>
        <time>2019-09-29T07:54:43.000Z</time>
      </trkpt>
      <trkpt lat="45.4593" lon="4.7132">
        <ele>384</ele>
        <time>2019-09-29T07:54:44.000Z</time>
      </trkpt>
      <trkpt lat="45.45932" lon="4.71322">
        <ele>384</ele>
        <time>2019-09-29T07:54:45.000Z</time>
      </trkpt>
      <trkpt lat="45.45934" lon="4.71323">
        <ele>384</ele>
        <time>2019-09-29T07:54:46.000Z</time>
      </trkpt>
      <trkpt lat="45.45935" lon="4.71325">
        <ele>384</ele>
        <time>2019-09-29T07:54:47.000Z</time>
      </trkpt>
      <trkpt lat="45.45937" lon="4.71326">
        <ele>384</ele>
        <time>2019-09-29T07:54:48.000Z</time>
      </trkpt>
      <trkpt lat="45.45939" lon="4.71327">
        <ele>384</ele>
        <time>2019-09-29T07:54:49.000Z</time>
      </trkpt>
      <trkpt lat="45.4594" lon="4.71329">
        <ele>385</ele>
        <time>2019-09-29T07:54:50.000Z</time>
      </trkpt>
      <trkpt lat="45.45943" lon="4.71332">
        <ele>385</ele>
        <time>2019-09-29T07:54:52.000Z</time>
      </trkpt>
      <trkpt lat="45.45946" lon="4.71334">
        <ele>385</ele>
        <time>2019-09-29T07:54:54.000Z</time>
      </trkpt>
      <trkpt lat="45.45949" lon="4.71336">
        <ele>385</ele>
        <time>2019-09-29T07:54:56.000Z</time>
      </trkpt>
      <trkpt lat="45.45952" lon="4.71339">
        <ele>386</ele>
        <time>2019-09-29T07:54:58.000Z</time>
      </trkpt>
      <trkpt lat="45.45955" lon="4.71341">
        <ele>386</ele>
        <time>2019-09-29T07:55:00.000Z</time>
      </trkpt>
      <trkpt lat="45.45958" lon="4.71343">
        <ele>386</ele>
        <time>2019-09-29T07:55:02.000Z</time>
      </trkpt>
      <trkpt lat="45.4596" lon="4.71344">
        <ele>386</ele>
        <time>2019-09-29T07:55:03.000Z</time>
      </trkpt>
      <trkpt lat="45.45962" lon="4.71345">
        <ele>386</ele>
        <time>2019-09-29T07:55:04.000Z</time>
      </trkpt>
      <trkpt lat="45.45963" lon="4.71346">
        <ele>386.26000307196</ele>
        <time>2019-09-29T07:55:05.000Z</time>
      </trkpt>
      <trkpt lat="45.45965" lon="4.71348">
        <ele>387</ele>
        <time>2019-09-29T07:55:06.000Z</time>
      </trkpt>
      <trkpt lat="45.45967" lon="4.71349">
        <ele>387</ele>
        <time>2019-09-29T07:55:07.000Z</time>
      </trkpt>
      <trkpt lat="45.45969" lon="4.7135">
        <ele>387</ele>
        <time>2019-09-29T07:55:08.000Z</time>
      </trkpt>
      <trkpt lat="45.45971" lon="4.71351">
        <ele>387</ele>
        <time>2019-09-29T07:55:09.000Z</time>
      </trkpt>
      <trkpt lat="45.45973" lon="4.71353">
        <ele>387</ele>
        <time>2019-09-29T07:55:10.000Z</time>
      </trkpt>
      <trkpt lat="45.45974" lon="4.71354">
        <ele>387</ele>
        <time>2019-09-29T07:55:11.000Z</time>
      </trkpt>
      <trkpt lat="45.45976" lon="4.71355">
        <ele>387</ele>
        <time>2019-09-29T07:55:12.000Z</time>
      </trkpt>
      <trkpt lat="45.45978" lon="4.71356">
        <ele>387.73999692804</ele>
        <time>2019-09-29T07:55:13.000Z</time>
      </trkpt>
      <trkpt lat="45.4598" lon="4.71357">
        <ele>387.25999692796</ele>
        <time>2019-09-29T07:55:14.000Z</time>
      </trkpt>
      <trkpt lat="45.45982" lon="4.71359">
        <ele>388</ele>
        <time>2019-09-29T07:55:15.000Z</time>
      </trkpt>
      <trkpt lat="45.45983" lon="4.7136">
        <ele>388</ele>
        <time>2019-09-29T07:55:16.000Z</time>
      </trkpt>
      <trkpt lat="45.45985" lon="4.71361">
        <ele>388</ele>
        <time>2019-09-29T07:55:17.000Z</time>
      </trkpt>
      <trkpt lat="45.45987" lon="4.71363">
        <ele>388</ele>
        <time>2019-09-29T07:55:18.000Z</time>
      </trkpt>
      <trkpt lat="45.45989" lon="4.71364">
        <ele>388</ele>
        <time>2019-09-29T07:55:19.000Z</time>
      </trkpt>
      <trkpt lat="45.45991" lon="4.71366">
        <ele>388</ele>
        <time>2019-09-29T07:55:20.000Z</time>
      </trkpt>
      <trkpt lat="45.45992" lon="4.71367">
        <ele>388.26000307196</ele>
        <time>2019-09-29T07:55:21.000Z</time>
      </trkpt>
      <trkpt lat="45.45994" lon="4.71368">
        <ele>389</ele>
        <time>2019-09-29T07:55:22.000Z</time>
      </trkpt>
      <trkpt lat="45.45996" lon="4.71369">
        <ele>389</ele>
        <time>2019-09-29T07:55:23.000Z</time>
      </trkpt>
      <trkpt lat="45.45998" lon="4.7137">
        <ele>389</ele>
        <time>2019-09-29T07:55:24.000Z</time>
      </trkpt>
      <trkpt lat="45.45999" lon="4.71371">
        <ele>389</ele>
        <time>2019-09-29T07:55:25.000Z</time>
      </trkpt>
      <trkpt lat="45.46001" lon="4.71373">
        <ele>389</ele>
        <time>2019-09-29T07:55:26.000Z</time>
      </trkpt>
      <trkpt lat="45.46003" lon="4.71374">
        <ele>389</ele>
        <time>2019-09-29T07:55:27.000Z</time>
      </trkpt>
      <trkpt lat="45.46005" lon="4.71375">
        <ele>389.25999692796</ele>
        <time>2019-09-29T07:55:28.000Z</time>
      </trkpt>
      <trkpt lat="45.46007" lon="4.71377">
        <ele>390</ele>
        <time>2019-09-29T07:55:29.000Z</time>
      </trkpt>
      <trkpt lat="45.46008" lon="4.71378">
        <ele>390</ele>
        <time>2019-09-29T07:55:30.000Z</time>
      </trkpt>
      <trkpt lat="45.4601" lon="4.71379">
        <ele>390</ele>
        <time>2019-09-29T07:55:31.000Z</time>
      </trkpt>
      <trkpt lat="45.46012" lon="4.71381">
        <ele>390</ele>
        <time>2019-09-29T07:55:32.000Z</time>
      </trkpt>
      <trkpt lat="45.46013" lon="4.71382">
        <ele>390</ele>
        <time>2019-09-29T07:55:33.000Z</time>
      </trkpt>
      <trkpt lat="45.46015" lon="4.71383">
        <ele>390</ele>
        <time>2019-09-29T07:55:34.000Z</time>
      </trkpt>
      <trkpt lat="45.46016" lon="4.71385">
        <ele>390</ele>
        <time>2019-09-29T07:55:35.000Z</time>
      </trkpt>
      <trkpt lat="45.46018" lon="4.71386">
        <ele>390</ele>
        <time>2019-09-29T07:55:36.000Z</time>
      </trkpt>
      <trkpt lat="45.4602" lon="4.71388">
        <ele>390</ele>
        <time>2019-09-29T07:55:37.000Z</time>
      </trkpt>
      <trkpt lat="45.46021" lon="4.71389">
        <ele>390</ele>
        <time>2019-09-29T07:55:38.000Z</time>
      </trkpt>
      <trkpt lat="45.46023" lon="4.71391">
        <ele>390</ele>
        <time>2019-09-29T07:55:39.000Z</time>
      </trkpt>
      <trkpt lat="45.46025" lon="4.71394">
        <ele>390</ele>
        <time>2019-09-29T07:55:40.000Z</time>
      </trkpt>
      <trkpt lat="45.46026" lon="4.71396">
        <ele>390</ele>
        <time>2019-09-29T07:55:41.000Z</time>
      </trkpt>
      <trkpt lat="45.46028" lon="4.71399">
        <ele>390</ele>
        <time>2019-09-29T07:55:42.000Z</time>
      </trkpt>
      <trkpt lat="45.4603" lon="4.71402">
        <ele>390</ele>
        <time>2019-09-29T07:55:43.000Z</time>
      </trkpt>
      <trkpt lat="45.46032" lon="4.71405">
        <ele>390</ele>
        <time>2019-09-29T07:55:44.000Z</time>
      </trkpt>
      <trkpt lat="45.46034" lon="4.71408">
        <ele>390</ele>
        <time>2019-09-29T07:55:45.000Z</time>
      </trkpt>
      <trkpt lat="45.46036" lon="4.71411">
        <ele>390</ele>
        <time>2019-09-29T07:55:46.000Z</time>
      </trkpt>
      <trkpt lat="45.46037" lon="4.71414">
        <ele>390</ele>
        <time>2019-09-29T07:55:47.000Z</time>
      </trkpt>
      <trkpt lat="45.46039" lon="4.71417">
        <ele>390</ele>
        <time>2019-09-29T07:55:48.000Z</time>
      </trkpt>
      <trkpt lat="45.4604" lon="4.7142">
        <ele>390.2015538489</ele>
        <time>2019-09-29T07:55:49.000Z</time>
      </trkpt>
      <trkpt lat="45.46042" lon="4.71422">
        <ele>390.97674187851</ele>
        <time>2019-09-29T07:55:50.000Z</time>
      </trkpt>
      <trkpt lat="45.46043" lon="4.71425">
        <ele>391</ele>
        <time>2019-09-29T07:55:51.000Z</time>
      </trkpt>
      <trkpt lat="45.46044" lon="4.71427">
        <ele>391</ele>
        <time>2019-09-29T07:55:52.000Z</time>
      </trkpt>
      <trkpt lat="45.46045" lon="4.7143">
        <ele>391</ele>
        <time>2019-09-29T07:55:53.000Z</time>
      </trkpt>
      <trkpt lat="45.46046" lon="4.71432">
        <ele>391</ele>
        <time>2019-09-29T07:55:54.000Z</time>
      </trkpt>
      <trkpt lat="45.46048" lon="4.71435">
        <ele>391</ele>
        <time>2019-09-29T07:55:55.000Z</time>
      </trkpt>
      <trkpt lat="45.46049" lon="4.71437">
        <ele>391</ele>
        <time>2019-09-29T07:55:56.000Z</time>
      </trkpt>
      <trkpt lat="45.46051" lon="4.7144">
        <ele>391</ele>
        <time>2019-09-29T07:55:57.000Z</time>
      </trkpt>
      <trkpt lat="45.46052" lon="4.71443">
        <ele>391</ele>
        <time>2019-09-29T07:55:58.000Z</time>
      </trkpt>
      <trkpt lat="45.46054" lon="4.71446">
        <ele>391</ele>
        <time>2019-09-29T07:55:59.000Z</time>
      </trkpt>
      <trkpt lat="45.46056" lon="4.71449">
        <ele>391</ele>
        <time>2019-09-29T07:56:00.000Z</time>
      </trkpt>
      <trkpt lat="45.46057" lon="4.71452">
        <ele>391</ele>
        <time>2019-09-29T07:56:01.000Z</time>
      </trkpt>
      <trkpt lat="45.46059" lon="4.71456">
        <ele>391</ele>
        <time>2019-09-29T07:56:02.000Z</time>
      </trkpt>
      <trkpt lat="45.46061" lon="4.71459">
        <ele>391</ele>
        <time>2019-09-29T07:56:03.000Z</time>
      </trkpt>
      <trkpt lat="45.46064" lon="4.71463">
        <ele>391</ele>
        <time>2019-09-29T07:56:04.000Z</time>
      </trkpt>
      <trkpt lat="45.46067" lon="4.71467">
        <ele>391</ele>
        <time>2019-09-29T07:56:05.000Z</time>
      </trkpt>
      <trkpt lat="45.4607" lon="4.71471">
        <ele>391</ele>
        <time>2019-09-29T07:56:06.000Z</time>
      </trkpt>
      <trkpt lat="45.46072" lon="4.71477">
        <ele>391</ele>
        <time>2019-09-29T07:56:07.000Z</time>
      </trkpt>
      <trkpt lat="45.46075" lon="4.71482">
        <ele>391</ele>
        <time>2019-09-29T07:56:08.000Z</time>
      </trkpt>
      <trkpt lat="45.46078" lon="4.71486">
        <ele>391</ele>
        <time>2019-09-29T07:56:09.000Z</time>
      </trkpt>
      <trkpt lat="45.4608" lon="4.7149">
        <ele>391</ele>
        <time>2019-09-29T07:56:10.000Z</time>
      </trkpt>
      <trkpt lat="45.46082" lon="4.71493">
        <ele>391.26000307196</ele>
        <time>2019-09-29T07:56:11.000Z</time>
      </trkpt>
      <trkpt lat="45.46084" lon="4.71497">
        <ele>391.74000307204</ele>
        <time>2019-09-29T07:56:12.000Z</time>
      </trkpt>
      <trkpt lat="45.46086" lon="4.715">
        <ele>391.26000307196</ele>
        <time>2019-09-29T07:56:13.000Z</time>
      </trkpt>
      <trkpt lat="45.46088" lon="4.71503">
        <ele>392</ele>
        <time>2019-09-29T07:56:14.000Z</time>
      </trkpt>
      <trkpt lat="45.46089" lon="4.71506">
        <ele>392</ele>
        <time>2019-09-29T07:56:15.000Z</time>
      </trkpt>
      <trkpt lat="45.46091" lon="4.71509">
        <ele>391.25999692796</ele>
        <time>2019-09-29T07:56:16.000Z</time>
      </trkpt>
      <trkpt lat="45.46093" lon="4.71513">
        <ele>392</ele>
        <time>2019-09-29T07:56:17.000Z</time>
      </trkpt>
      <trkpt lat="45.46095" lon="4.71516">
        <ele>392</ele>
        <time>2019-09-29T07:56:18.000Z</time>
      </trkpt>
      <trkpt lat="45.46097" lon="4.7152">
        <ele>392</ele>
        <time>2019-09-29T07:56:19.000Z</time>
      </trkpt>
      <trkpt lat="45.46099" lon="4.71523">
        <ele>392</ele>
        <time>2019-09-29T07:56:20.000Z</time>
      </trkpt>
      <trkpt lat="45.46101" lon="4.71527">
        <ele>392</ele>
        <time>2019-09-29T07:56:21.000Z</time>
      </trkpt>
      <trkpt lat="45.46103" lon="4.71529">
        <ele>392</ele>
        <time>2019-09-29T07:56:22.000Z</time>
      </trkpt>
      <trkpt lat="45.46105" lon="4.71532">
        <ele>392</ele>
        <time>2019-09-29T07:56:23.000Z</time>
      </trkpt>
      <trkpt lat="45.46108" lon="4.71534">
        <ele>392</ele>
        <time>2019-09-29T07:56:24.000Z</time>
      </trkpt>
      <trkpt lat="45.4611" lon="4.71537">
        <ele>392</ele>
        <time>2019-09-29T07:56:25.000Z</time>
      </trkpt>
      <trkpt lat="45.46112" lon="4.7154">
        <ele>392</ele>
        <time>2019-09-29T07:56:26.000Z</time>
      </trkpt>
      <trkpt lat="45.46114" lon="4.71543">
        <ele>392</ele>
        <time>2019-09-29T07:56:27.000Z</time>
      </trkpt>
      <trkpt lat="45.46116" lon="4.71546">
        <ele>392</ele>
        <time>2019-09-29T07:56:28.000Z</time>
      </trkpt>
      <trkpt lat="45.46119" lon="4.71549">
        <ele>392.26000307196</ele>
        <time>2019-09-29T07:56:29.000Z</time>
      </trkpt>
      <trkpt lat="45.46121" lon="4.71552">
        <ele>393</ele>
        <time>2019-09-29T07:56:30.000Z</time>
      </trkpt>
      <trkpt lat="45.46123" lon="4.71555">
        <ele>393</ele>
        <time>2019-09-29T07:56:31.000Z</time>
      </trkpt>
      <trkpt lat="45.46125" lon="4.71557">
        <ele>393</ele>
        <time>2019-09-29T07:56:32.000Z</time>
      </trkpt>
      <trkpt lat="45.46127" lon="4.7156">
        <ele>393</ele>
        <time>2019-09-29T07:56:33.000Z</time>
      </trkpt>
      <trkpt lat="45.46129" lon="4.71563">
        <ele>393</ele>
        <time>2019-09-29T07:56:34.000Z</time>
      </trkpt>
      <trkpt lat="45.46131" lon="4.71566">
        <ele>393</ele>
        <time>2019-09-29T07:56:35.000Z</time>
      </trkpt>
      <trkpt lat="45.46133" lon="4.71568">
        <ele>393.25999692796</ele>
        <time>2019-09-29T07:56:36.000Z</time>
      </trkpt>
      <trkpt lat="45.46135" lon="4.71571">
        <ele>394</ele>
        <time>2019-09-29T07:56:37.000Z</time>
      </trkpt>
      <trkpt lat="45.46137" lon="4.71573">
        <ele>394</ele>
        <time>2019-09-29T07:56:38.000Z</time>
      </trkpt>
      <trkpt lat="45.46139" lon="4.71576">
        <ele>394</ele>
        <time>2019-09-29T07:56:39.000Z</time>
      </trkpt>
      <trkpt lat="45.4614" lon="4.71578">
        <ele>394</ele>
        <time>2019-09-29T07:56:40.000Z</time>
      </trkpt>
      <trkpt lat="45.46141" lon="4.7158">
        <ele>394</ele>
        <time>2019-09-29T07:56:41.000Z</time>
      </trkpt>
      <trkpt lat="45.46143" lon="4.71582">
        <ele>394</ele>
        <time>2019-09-29T07:56:42.000Z</time>
      </trkpt>
      <trkpt lat="45.46144" lon="4.71584">
        <ele>394.26000307196</ele>
        <time>2019-09-29T07:56:43.000Z</time>
      </trkpt>
      <trkpt lat="45.46145" lon="4.71586">
        <ele>395</ele>
        <time>2019-09-29T07:56:44.000Z</time>
      </trkpt>
      <trkpt lat="45.46147" lon="4.71589">
        <ele>395</ele>
        <time>2019-09-29T07:56:45.000Z</time>
      </trkpt>
      <trkpt lat="45.46149" lon="4.71591">
        <ele>395</ele>
        <time>2019-09-29T07:56:46.000Z</time>
      </trkpt>
      <trkpt lat="45.4615" lon="4.71594">
        <ele>395</ele>
        <time>2019-09-29T07:56:47.000Z</time>
      </trkpt>
      <trkpt lat="45.46152" lon="4.71597">
        <ele>396</ele>
        <time>2019-09-29T07:56:48.000Z</time>
      </trkpt>
      <trkpt lat="45.46153" lon="4.716">
        <ele>396</ele>
        <time>2019-09-29T07:56:49.000Z</time>
      </trkpt>
      <trkpt lat="45.46155" lon="4.71602">
        <ele>396</ele>
        <time>2019-09-29T07:56:50.000Z</time>
      </trkpt>
      <trkpt lat="45.46156" lon="4.71604">
        <ele>396</ele>
        <time>2019-09-29T07:56:51.000Z</time>
      </trkpt>
      <trkpt lat="45.46158" lon="4.71607">
        <ele>396.19999606152</ele>
        <time>2019-09-29T07:56:52.000Z</time>
      </trkpt>
      <trkpt lat="45.46159" lon="4.71609">
        <ele>396.96923061775</ele>
        <time>2019-09-29T07:56:53.000Z</time>
      </trkpt>
      <trkpt lat="45.4616" lon="4.71611">
        <ele>397</ele>
        <time>2019-09-29T07:56:54.000Z</time>
      </trkpt>
      <trkpt lat="45.46162" lon="4.71615">
        <ele>397</ele>
        <time>2019-09-29T07:56:56.000Z</time>
      </trkpt>
      <trkpt lat="45.46163" lon="4.71617">
        <ele>397</ele>
        <time>2019-09-29T07:56:57.000Z</time>
      </trkpt>
      <trkpt lat="45.46164" lon="4.7162">
        <ele>397</ele>
        <time>2019-09-29T07:56:59.000Z</time>
      </trkpt>
      <trkpt lat="45.46166" lon="4.71622">
        <ele>398</ele>
        <time>2019-09-29T07:57:25.000Z</time>
      </trkpt>
      <trkpt lat="45.46168" lon="4.71626">
        <ele>398</ele>
        <time>2019-09-29T07:57:27.000Z</time>
      </trkpt>
      <trkpt lat="45.4617" lon="4.71629">
        <ele>398</ele>
        <time>2019-09-29T07:57:28.000Z</time>
      </trkpt>
      <trkpt lat="45.46171" lon="4.71632">
        <ele>398</ele>
        <time>2019-09-29T07:57:29.000Z</time>
      </trkpt>
      <trkpt lat="45.46172" lon="4.71635">
        <ele>398</ele>
        <time>2019-09-29T07:57:30.000Z</time>
      </trkpt>
      <trkpt lat="45.46174" lon="4.71639">
        <ele>398.26000307196</ele>
        <time>2019-09-29T07:57:31.000Z</time>
      </trkpt>
      <trkpt lat="45.46176" lon="4.71642">
        <ele>399</ele>
        <time>2019-09-29T07:57:32.000Z</time>
      </trkpt>
      <trkpt lat="45.46178" lon="4.71645">
        <ele>399</ele>
        <time>2019-09-29T07:57:33.000Z</time>
      </trkpt>
      <trkpt lat="45.4618" lon="4.71648">
        <ele>399</ele>
        <time>2019-09-29T07:57:34.000Z</time>
      </trkpt>
      <trkpt lat="45.46181" lon="4.71651">
        <ele>399</ele>
        <time>2019-09-29T07:57:35.000Z</time>
      </trkpt>
      <trkpt lat="45.46182" lon="4.71654">
        <ele>399</ele>
        <time>2019-09-29T07:57:36.000Z</time>
      </trkpt>
      <trkpt lat="45.46184" lon="4.71657">
        <ele>399</ele>
        <time>2019-09-29T07:57:37.000Z</time>
      </trkpt>
      <trkpt lat="45.46185" lon="4.7166">
        <ele>399</ele>
        <time>2019-09-29T07:57:38.000Z</time>
      </trkpt>
      <trkpt lat="45.46187" lon="4.71663">
        <ele>399</ele>
        <time>2019-09-29T07:57:39.000Z</time>
      </trkpt>
      <trkpt lat="45.46189" lon="4.71667">
        <ele>399</ele>
        <time>2019-09-29T07:57:40.000Z</time>
      </trkpt>
      <trkpt lat="45.46191" lon="4.7167">
        <ele>399</ele>
        <time>2019-09-29T07:57:41.000Z</time>
      </trkpt>
      <trkpt lat="45.46192" lon="4.71673">
        <ele>399</ele>
        <time>2019-09-29T07:57:42.000Z</time>
      </trkpt>
      <trkpt lat="45.46194" lon="4.71676">
        <ele>399</ele>
        <time>2019-09-29T07:57:43.000Z</time>
      </trkpt>
      <trkpt lat="45.46196" lon="4.71679">
        <ele>399</ele>
        <time>2019-09-29T07:57:44.000Z</time>
      </trkpt>
      <trkpt lat="45.46197" lon="4.71682">
        <ele>399.26000307196</ele>
        <time>2019-09-29T07:57:45.000Z</time>
      </trkpt>
      <trkpt lat="45.46199" lon="4.71686">
        <ele>400</ele>
        <time>2019-09-29T07:57:46.000Z</time>
      </trkpt>
      <trkpt lat="45.46201" lon="4.71689">
        <ele>400</ele>
        <time>2019-09-29T07:57:47.000Z</time>
      </trkpt>
      <trkpt lat="45.46203" lon="4.71693">
        <ele>400</ele>
        <time>2019-09-29T07:57:48.000Z</time>
      </trkpt>
      <trkpt lat="45.46205" lon="4.71697">
        <ele>400</ele>
        <time>2019-09-29T07:57:49.000Z</time>
      </trkpt>
      <trkpt lat="45.46207" lon="4.717">
        <ele>400</ele>
        <time>2019-09-29T07:57:50.000Z</time>
      </trkpt>
      <trkpt lat="45.46209" lon="4.71704">
        <ele>400</ele>
        <time>2019-09-29T07:57:51.000Z</time>
      </trkpt>
      <trkpt lat="45.46211" lon="4.71707">
        <ele>400</ele>
        <time>2019-09-29T07:57:52.000Z</time>
      </trkpt>
      <trkpt lat="45.46212" lon="4.7171">
        <ele>400</ele>
        <time>2019-09-29T07:57:53.000Z</time>
      </trkpt>
      <trkpt lat="45.46213" lon="4.71712">
        <ele>400</ele>
        <time>2019-09-29T07:57:54.000Z</time>
      </trkpt>
      <trkpt lat="45.46214" lon="4.71715">
        <ele>400.26000307196</ele>
        <time>2019-09-29T07:57:55.000Z</time>
      </trkpt>
      <trkpt lat="45.46215" lon="4.71717">
        <ele>401</ele>
        <time>2019-09-29T07:57:56.000Z</time>
      </trkpt>
      <trkpt lat="45.46217" lon="4.7172">
        <ele>401</ele>
        <time>2019-09-29T07:57:57.000Z</time>
      </trkpt>
      <trkpt lat="45.46218" lon="4.71723">
        <ele>401</ele>
        <time>2019-09-29T07:57:58.000Z</time>
      </trkpt>
      <trkpt lat="45.4622" lon="4.71725">
        <ele>401</ele>
        <time>2019-09-29T07:57:59.000Z</time>
      </trkpt>
      <trkpt lat="45.46222" lon="4.71728">
        <ele>401</ele>
        <time>2019-09-29T07:58:00.000Z</time>
      </trkpt>
      <trkpt lat="45.46223" lon="4.71731">
        <ele>401</ele>
        <time>2019-09-29T07:58:01.000Z</time>
      </trkpt>
      <trkpt lat="45.46225" lon="4.71733">
        <ele>401.20154592632</ele>
        <time>2019-09-29T07:58:02.000Z</time>
      </trkpt>
      <trkpt lat="45.46227" lon="4.71736">
        <ele>401.97674164773</ele>
        <time>2019-09-29T07:58:03.000Z</time>
      </trkpt>
      <trkpt lat="45.46228" lon="4.71739">
        <ele>402</ele>
        <time>2019-09-29T07:58:04.000Z</time>
      </trkpt>
      <trkpt lat="45.4623" lon="4.71742">
        <ele>402</ele>
        <time>2019-09-29T07:58:05.000Z</time>
      </trkpt>
      <trkpt lat="45.46232" lon="4.71745">
        <ele>402</ele>
        <time>2019-09-29T07:58:06.000Z</time>
      </trkpt>
      <trkpt lat="45.46234" lon="4.71747">
        <ele>402</ele>
        <time>2019-09-29T07:58:07.000Z</time>
      </trkpt>
      <trkpt lat="45.46235" lon="4.71749">
        <ele>402</ele>
        <time>2019-09-29T07:58:08.000Z</time>
      </trkpt>
      <trkpt lat="45.46238" lon="4.71752">
        <ele>402</ele>
        <time>2019-09-29T07:58:10.000Z</time>
      </trkpt>
      <trkpt lat="45.46239" lon="4.71754">
        <ele>402</ele>
        <time>2019-09-29T07:58:12.000Z</time>
      </trkpt>
      <trkpt lat="45.46241" lon="4.71756">
        <ele>402</ele>
        <time>2019-09-29T07:58:31.000Z</time>
      </trkpt>
      <trkpt lat="45.46242" lon="4.71759">
        <ele>402</ele>
        <time>2019-09-29T07:58:32.000Z</time>
      </trkpt>
      <trkpt lat="45.46244" lon="4.71763">
        <ele>402</ele>
        <time>2019-09-29T07:58:33.000Z</time>
      </trkpt>
      <trkpt lat="45.46247" lon="4.71768">
        <ele>402.25999692796</ele>
        <time>2019-09-29T07:58:34.000Z</time>
      </trkpt>
      <trkpt lat="45.46251" lon="4.71773">
        <ele>403</ele>
        <time>2019-09-29T07:58:35.000Z</time>
      </trkpt>
      <trkpt lat="45.46254" lon="4.7178">
        <ele>403</ele>
        <time>2019-09-29T07:58:36.000Z</time>
      </trkpt>
      <trkpt lat="45.46258" lon="4.71786">
        <ele>403</ele>
        <time>2019-09-29T07:58:37.000Z</time>
      </trkpt>
      <trkpt lat="45.46262" lon="4.71793">
        <ele>403</ele>
        <time>2019-09-29T07:58:38.000Z</time>
      </trkpt>
      <trkpt lat="45.46267" lon="4.71801">
        <ele>403</ele>
        <time>2019-09-29T07:58:39.000Z</time>
      </trkpt>
      <trkpt lat="45.46271" lon="4.71808">
        <ele>403.19999606152</ele>
        <time>2019-09-29T07:58:40.000Z</time>
      </trkpt>
      <trkpt lat="45.46275" lon="4.71815">
        <ele>403.96923061775</ele>
        <time>2019-09-29T07:58:41.000Z</time>
      </trkpt>
      <trkpt lat="45.4628" lon="4.71822">
        <ele>404</ele>
        <time>2019-09-29T07:58:42.000Z</time>
      </trkpt>
      <trkpt lat="45.46285" lon="4.71829">
        <ele>404</ele>
        <time>2019-09-29T07:58:43.000Z</time>
      </trkpt>
      <trkpt lat="45.46289" lon="4.71836">
        <ele>404</ele>
        <time>2019-09-29T07:58:44.000Z</time>
      </trkpt>
      <trkpt lat="45.46294" lon="4.71843">
        <ele>404</ele>
        <time>2019-09-29T07:58:45.000Z</time>
      </trkpt>
      <trkpt lat="45.46299" lon="4.7185">
        <ele>404</ele>
        <time>2019-09-29T07:58:46.000Z</time>
      </trkpt>
      <trkpt lat="45.46303" lon="4.71857">
        <ele>404</ele>
        <time>2019-09-29T07:58:47.000Z</time>
      </trkpt>
      <trkpt lat="45.46308" lon="4.71864">
        <ele>404</ele>
        <time>2019-09-29T07:58:48.000Z</time>
      </trkpt>
      <trkpt lat="45.46314" lon="4.7187">
        <ele>404</ele>
        <time>2019-09-29T07:58:49.000Z</time>
      </trkpt>
      <trkpt lat="45.46319" lon="4.71874">
        <ele>404</ele>
        <time>2019-09-29T07:58:50.000Z</time>
      </trkpt>
      <trkpt lat="45.46323" lon="4.71878">
        <ele>404</ele>
        <time>2019-09-29T07:58:51.000Z</time>
      </trkpt>
      <trkpt lat="45.46327" lon="4.71881">
        <ele>404</ele>
        <time>2019-09-29T07:58:52.000Z</time>
      </trkpt>
      <trkpt lat="45.4633" lon="4.71883">
        <ele>404</ele>
        <time>2019-09-29T07:58:53.000Z</time>
      </trkpt>
      <trkpt lat="45.46332" lon="4.71883">
        <ele>404</ele>
        <time>2019-09-29T07:58:54.000Z</time>
      </trkpt>
      <trkpt lat="45.46334" lon="4.71883">
        <ele>404</ele>
        <time>2019-09-29T07:58:55.000Z</time>
      </trkpt>
      <trkpt lat="45.46336" lon="4.7188">
        <ele>404</ele>
        <time>2019-09-29T07:59:22.000Z</time>
      </trkpt>
      <trkpt lat="45.46336" lon="4.71874">
        <ele>404</ele>
        <time>2019-09-29T07:59:24.000Z</time>
      </trkpt>
      <trkpt lat="45.46336" lon="4.7187">
        <ele>404</ele>
        <time>2019-09-29T07:59:25.000Z</time>
      </trkpt>
      <trkpt lat="45.46337" lon="4.71866">
        <ele>404</ele>
        <time>2019-09-29T07:59:26.000Z</time>
      </trkpt>
      <trkpt lat="45.46338" lon="4.71862">
        <ele>404</ele>
        <time>2019-09-29T07:59:27.000Z</time>
      </trkpt>
      <trkpt lat="45.46339" lon="4.71858">
        <ele>404</ele>
        <time>2019-09-29T07:59:28.000Z</time>
      </trkpt>
      <trkpt lat="45.46341" lon="4.71855">
        <ele>404</ele>
        <time>2019-09-29T07:59:29.000Z</time>
      </trkpt>
      <trkpt lat="45.46342" lon="4.71852">
        <ele>404</ele>
        <time>2019-09-29T07:59:30.000Z</time>
      </trkpt>
      <trkpt lat="45.46343" lon="4.71848">
        <ele>404</ele>
        <time>2019-09-29T07:59:31.000Z</time>
      </trkpt>
      <trkpt lat="45.46345" lon="4.71845">
        <ele>404</ele>
        <time>2019-09-29T07:59:32.000Z</time>
      </trkpt>
      <trkpt lat="45.46346" lon="4.71842">
        <ele>404</ele>
        <time>2019-09-29T07:59:33.000Z</time>
      </trkpt>
      <trkpt lat="45.46348" lon="4.71838">
        <ele>404</ele>
        <time>2019-09-29T07:59:34.000Z</time>
      </trkpt>
      <trkpt lat="45.46349" lon="4.71835">
        <ele>404</ele>
        <time>2019-09-29T07:59:35.000Z</time>
      </trkpt>
      <trkpt lat="45.4635" lon="4.71831">
        <ele>404</ele>
        <time>2019-09-29T07:59:36.000Z</time>
      </trkpt>
      <trkpt lat="45.46351" lon="4.71828">
        <ele>404</ele>
        <time>2019-09-29T07:59:37.000Z</time>
      </trkpt>
      <trkpt lat="45.46353" lon="4.71825">
        <ele>404</ele>
        <time>2019-09-29T07:59:38.000Z</time>
      </trkpt>
      <trkpt lat="45.46354" lon="4.71822">
        <ele>404</ele>
        <time>2019-09-29T07:59:39.000Z</time>
      </trkpt>
      <trkpt lat="45.46355" lon="4.71819">
        <ele>404.25999692796</ele>
        <time>2019-09-29T07:59:40.000Z</time>
      </trkpt>
      <trkpt lat="45.46356" lon="4.71817">
        <ele>405</ele>
        <time>2019-09-29T07:59:41.000Z</time>
      </trkpt>
      <trkpt lat="45.46357" lon="4.71814">
        <ele>405</ele>
        <time>2019-09-29T07:59:42.000Z</time>
      </trkpt>
      <trkpt lat="45.46358" lon="4.71812">
        <ele>405</ele>
        <time>2019-09-29T07:59:43.000Z</time>
      </trkpt>
      <trkpt lat="45.46359" lon="4.71809">
        <ele>405</ele>
        <time>2019-09-29T07:59:44.000Z</time>
      </trkpt>
      <trkpt lat="45.4636" lon="4.71807">
        <ele>405</ele>
        <time>2019-09-29T07:59:45.000Z</time>
      </trkpt>
      <trkpt lat="45.46361" lon="4.71804">
        <ele>405</ele>
        <time>2019-09-29T07:59:46.000Z</time>
      </trkpt>
      <trkpt lat="45.46362" lon="4.71801">
        <ele>405</ele>
        <time>2019-09-29T07:59:47.000Z</time>
      </trkpt>
      <trkpt lat="45.46363" lon="4.71799">
        <ele>405</ele>
        <time>2019-09-29T07:59:48.000Z</time>
      </trkpt>
      <trkpt lat="45.46364" lon="4.71796">
        <ele>405</ele>
        <time>2019-09-29T07:59:49.000Z</time>
      </trkpt>
      <trkpt lat="45.46365" lon="4.71794">
        <ele>405.25999692796</ele>
        <time>2019-09-29T07:59:50.000Z</time>
      </trkpt>
      <trkpt lat="45.46366" lon="4.71791">
        <ele>406</ele>
        <time>2019-09-29T07:59:51.000Z</time>
      </trkpt>
      <trkpt lat="45.46367" lon="4.71788">
        <ele>406</ele>
        <time>2019-09-29T07:59:52.000Z</time>
      </trkpt>
      <trkpt lat="45.46368" lon="4.71786">
        <ele>406</ele>
        <time>2019-09-29T07:59:53.000Z</time>
      </trkpt>
      <trkpt lat="45.46369" lon="4.71783">
        <ele>406</ele>
        <time>2019-09-29T07:59:54.000Z</time>
      </trkpt>
      <trkpt lat="45.4637" lon="4.71781">
        <ele>406</ele>
        <time>2019-09-29T07:59:55.000Z</time>
      </trkpt>
      <trkpt lat="45.46371" lon="4.71778">
        <ele>406</ele>
        <time>2019-09-29T07:59:56.000Z</time>
      </trkpt>
      <trkpt lat="45.46372" lon="4.71776">
        <ele>406</ele>
        <time>2019-09-29T07:59:57.000Z</time>
      </trkpt>
      <trkpt lat="45.46373" lon="4.71774">
        <ele>407</ele>
        <time>2019-09-29T07:59:58.000Z</time>
      </trkpt>
      <trkpt lat="45.46374" lon="4.71771">
        <ele>407</ele>
        <time>2019-09-29T07:59:59.000Z</time>
      </trkpt>
      <trkpt lat="45.46376" lon="4.71767">
        <ele>407</ele>
        <time>2019-09-29T08:00:01.000Z</time>
      </trkpt>
      <trkpt lat="45.46376" lon="4.71764">
        <ele>407</ele>
        <time>2019-09-29T08:00:02.000Z</time>
      </trkpt>
      <trkpt lat="45.46377" lon="4.71762">
        <ele>407</ele>
        <time>2019-09-29T08:00:03.000Z</time>
      </trkpt>
      <trkpt lat="45.46378" lon="4.7176">
        <ele>407.25999692796</ele>
        <time>2019-09-29T08:00:04.000Z</time>
      </trkpt>
      <trkpt lat="45.46379" lon="4.71758">
        <ele>408</ele>
        <time>2019-09-29T08:00:05.000Z</time>
      </trkpt>
      <trkpt lat="45.4638" lon="4.71755">
        <ele>408</ele>
        <time>2019-09-29T08:00:06.000Z</time>
      </trkpt>
      <trkpt lat="45.46381" lon="4.71752">
        <ele>408</ele>
        <time>2019-09-29T08:00:07.000Z</time>
      </trkpt>
      <trkpt lat="45.46383" lon="4.7175">
        <ele>408</ele>
        <time>2019-09-29T08:00:08.000Z</time>
      </trkpt>
      <trkpt lat="45.46383" lon="4.71748">
        <ele>408</ele>
        <time>2019-09-29T08:00:09.000Z</time>
      </trkpt>
      <trkpt lat="45.46385" lon="4.71744">
        <ele>408.26000307196</ele>
        <time>2019-09-29T08:00:11.000Z</time>
      </trkpt>
      <trkpt lat="45.46387" lon="4.7174">
        <ele>409</ele>
        <time>2019-09-29T08:00:13.000Z</time>
      </trkpt>
      <trkpt lat="45.46388" lon="4.71736">
        <ele>409</ele>
        <time>2019-09-29T08:00:15.000Z</time>
      </trkpt>
      <trkpt lat="45.4639" lon="4.71733">
        <ele>409</ele>
        <time>2019-09-29T08:00:17.000Z</time>
      </trkpt>
      <trkpt lat="45.46392" lon="4.71729">
        <ele>410</ele>
        <time>2019-09-29T08:00:19.000Z</time>
      </trkpt>
      <trkpt lat="45.46394" lon="4.71725">
        <ele>410</ele>
        <time>2019-09-29T08:00:21.000Z</time>
      </trkpt>
      <trkpt lat="45.46395" lon="4.71721">
        <ele>410</ele>
        <time>2019-09-29T08:00:23.000Z</time>
      </trkpt>
      <trkpt lat="45.46397" lon="4.71717">
        <ele>410</ele>
        <time>2019-09-29T08:00:25.000Z</time>
      </trkpt>
      <trkpt lat="45.46398" lon="4.71714">
        <ele>410.97674164773</ele>
        <time>2019-09-29T08:00:27.000Z</time>
      </trkpt>
      <trkpt lat="45.46399" lon="4.7171">
        <ele>411</ele>
        <time>2019-09-29T08:00:29.000Z</time>
      </trkpt>
      <trkpt lat="45.46401" lon="4.71706">
        <ele>411</ele>
        <time>2019-09-29T08:00:31.000Z</time>
      </trkpt>
      <trkpt lat="45.46403" lon="4.71703">
        <ele>411</ele>
        <time>2019-09-29T08:00:33.000Z</time>
      </trkpt>
      <trkpt lat="45.46404" lon="4.717">
        <ele>411.97674164773</ele>
        <time>2019-09-29T08:00:35.000Z</time>
      </trkpt>
      <trkpt lat="45.46405" lon="4.71695">
        <ele>412</ele>
        <time>2019-09-29T08:00:37.000Z</time>
      </trkpt>
      <trkpt lat="45.46407" lon="4.71692">
        <ele>412</ele>
        <time>2019-09-29T08:00:39.000Z</time>
      </trkpt>
      <trkpt lat="45.46408" lon="4.71689">
        <ele>412.25252120397</ele>
        <time>2019-09-29T08:00:41.000Z</time>
      </trkpt>
      <trkpt lat="45.4641" lon="4.71685">
        <ele>413</ele>
        <time>2019-09-29T08:00:43.000Z</time>
      </trkpt>
      <trkpt lat="45.46411" lon="4.71682">
        <ele>413</ele>
        <time>2019-09-29T08:00:45.000Z</time>
      </trkpt>
      <trkpt lat="45.46412" lon="4.71679">
        <ele>413</ele>
        <time>2019-09-29T08:00:47.000Z</time>
      </trkpt>
      <trkpt lat="45.46413" lon="4.71675">
        <ele>414</ele>
        <time>2019-09-29T08:00:49.000Z</time>
      </trkpt>
      <trkpt lat="45.46414" lon="4.71672">
        <ele>414</ele>
        <time>2019-09-29T08:00:51.000Z</time>
      </trkpt>
      <trkpt lat="45.46415" lon="4.7167">
        <ele>414</ele>
        <time>2019-09-29T08:00:53.000Z</time>
      </trkpt>
      <trkpt lat="45.46416" lon="4.71666">
        <ele>415</ele>
        <time>2019-09-29T08:00:55.000Z</time>
      </trkpt>
      <trkpt lat="45.46417" lon="4.71663">
        <ele>415</ele>
        <time>2019-09-29T08:00:57.000Z</time>
      </trkpt>
      <trkpt lat="45.46418" lon="4.7166">
        <ele>415</ele>
        <time>2019-09-29T08:00:59.000Z</time>
      </trkpt>
      <trkpt lat="45.46419" lon="4.71657">
        <ele>415.26000307196</ele>
        <time>2019-09-29T08:01:01.000Z</time>
      </trkpt>
      <trkpt lat="45.46419" lon="4.71654">
        <ele>416</ele>
        <time>2019-09-29T08:01:03.000Z</time>
      </trkpt>
      <trkpt lat="45.4642" lon="4.71651">
        <ele>416</ele>
        <time>2019-09-29T08:01:05.000Z</time>
      </trkpt>
      <trkpt lat="45.46421" lon="4.71647">
        <ele>416</ele>
        <time>2019-09-29T08:01:07.000Z</time>
      </trkpt>
      <trkpt lat="45.46422" lon="4.71644">
        <ele>416.26000307196</ele>
        <time>2019-09-29T08:01:09.000Z</time>
      </trkpt>
      <trkpt lat="45.46424" lon="4.71642">
        <ele>417</ele>
        <time>2019-09-29T08:01:11.000Z</time>
      </trkpt>
      <trkpt lat="45.46425" lon="4.71639">
        <ele>417</ele>
        <time>2019-09-29T08:01:13.000Z</time>
      </trkpt>
      <trkpt lat="45.46426" lon="4.71636">
        <ele>418</ele>
        <time>2019-09-29T08:01:15.000Z</time>
      </trkpt>
      <trkpt lat="45.46427" lon="4.71632">
        <ele>418</ele>
        <time>2019-09-29T08:01:17.000Z</time>
      </trkpt>
      <trkpt lat="45.46429" lon="4.7163">
        <ele>419</ele>
        <time>2019-09-29T08:01:19.000Z</time>
      </trkpt>
      <trkpt lat="45.4643" lon="4.71627">
        <ele>419</ele>
        <time>2019-09-29T08:01:21.000Z</time>
      </trkpt>
      <trkpt lat="45.46431" lon="4.71624">
        <ele>419</ele>
        <time>2019-09-29T08:01:23.000Z</time>
      </trkpt>
      <trkpt lat="45.46432" lon="4.71621">
        <ele>420</ele>
        <time>2019-09-29T08:01:25.000Z</time>
      </trkpt>
      <trkpt lat="45.46433" lon="4.71617">
        <ele>420</ele>
        <time>2019-09-29T08:01:41.000Z</time>
      </trkpt>
      <trkpt lat="45.46434" lon="4.71613">
        <ele>421</ele>
        <time>2019-09-29T08:01:43.000Z</time>
      </trkpt>
      <trkpt lat="45.46436" lon="4.71609">
        <ele>421</ele>
        <time>2019-09-29T08:01:45.000Z</time>
      </trkpt>
      <trkpt lat="45.46436" lon="4.71605">
        <ele>422</ele>
        <time>2019-09-29T08:01:47.000Z</time>
      </trkpt>
      <trkpt lat="45.46438" lon="4.71602">
        <ele>422</ele>
        <time>2019-09-29T08:01:49.000Z</time>
      </trkpt>
      <trkpt lat="45.46439" lon="4.71598">
        <ele>422.97674164773</ele>
        <time>2019-09-29T08:01:51.000Z</time>
      </trkpt>
      <trkpt lat="45.46441" lon="4.71594">
        <ele>423</ele>
        <time>2019-09-29T08:01:53.000Z</time>
      </trkpt>
      <trkpt lat="45.46442" lon="4.7159">
        <ele>424</ele>
        <time>2019-09-29T08:01:55.000Z</time>
      </trkpt>
      <trkpt lat="45.46444" lon="4.71587">
        <ele>424</ele>
        <time>2019-09-29T08:01:57.000Z</time>
      </trkpt>
      <trkpt lat="45.46444" lon="4.71583">
        <ele>424</ele>
        <time>2019-09-29T08:01:59.000Z</time>
      </trkpt>
      <trkpt lat="45.46445" lon="4.71579">
        <ele>425</ele>
        <time>2019-09-29T08:02:01.000Z</time>
      </trkpt>
      <trkpt lat="45.46445" lon="4.71574">
        <ele>425</ele>
        <time>2019-09-29T08:02:03.000Z</time>
      </trkpt>
      <trkpt lat="45.46445" lon="4.71569">
        <ele>426</ele>
        <time>2019-09-29T08:02:05.000Z</time>
      </trkpt>
      <trkpt lat="45.46445" lon="4.71565">
        <ele>426</ele>
        <time>2019-09-29T08:02:07.000Z</time>
      </trkpt>
      <trkpt lat="45.46445" lon="4.71561">
        <ele>426</ele>
        <time>2019-09-29T08:02:09.000Z</time>
      </trkpt>
      <trkpt lat="45.46445" lon="4.71557">
        <ele>427</ele>
        <time>2019-09-29T08:02:11.000Z</time>
      </trkpt>
      <trkpt lat="45.46445" lon="4.71553">
        <ele>427</ele>
        <time>2019-09-29T08:02:13.000Z</time>
      </trkpt>
      <trkpt lat="45.46446" lon="4.71549">
        <ele>427.26000307196</ele>
        <time>2019-09-29T08:02:15.000Z</time>
      </trkpt>
      <trkpt lat="45.46446" lon="4.71545">
        <ele>428</ele>
        <time>2019-09-29T08:02:17.000Z</time>
      </trkpt>
      <trkpt lat="45.46447" lon="4.7154">
        <ele>428</ele>
        <time>2019-09-29T08:02:19.000Z</time>
      </trkpt>
      <trkpt lat="45.46448" lon="4.71537">
        <ele>429</ele>
        <time>2019-09-29T08:02:21.000Z</time>
      </trkpt>
      <trkpt lat="45.46448" lon="4.71534">
        <ele>429.26000307196</ele>
        <time>2019-09-29T08:02:23.000Z</time>
      </trkpt>
      <trkpt lat="45.4645" lon="4.71531">
        <ele>430</ele>
        <time>2019-09-29T08:02:25.000Z</time>
      </trkpt>
      <trkpt lat="45.46451" lon="4.71527">
        <ele>430.26000307196</ele>
        <time>2019-09-29T08:02:27.000Z</time>
      </trkpt>
      <trkpt lat="45.46453" lon="4.71524">
        <ele>431</ele>
        <time>2019-09-29T08:02:29.000Z</time>
      </trkpt>
      <trkpt lat="45.46455" lon="4.7152">
        <ele>431</ele>
        <time>2019-09-29T08:02:31.000Z</time>
      </trkpt>
      <trkpt lat="45.46457" lon="4.71518">
        <ele>432</ele>
        <time>2019-09-29T08:02:33.000Z</time>
      </trkpt>
      <trkpt lat="45.4646" lon="4.71517">
        <ele>432</ele>
        <time>2019-09-29T08:02:35.000Z</time>
      </trkpt>
      <trkpt lat="45.46463" lon="4.71514">
        <ele>433</ele>
        <time>2019-09-29T08:02:37.000Z</time>
      </trkpt>
      <trkpt lat="45.46466" lon="4.71512">
        <ele>433</ele>
        <time>2019-09-29T08:02:39.000Z</time>
      </trkpt>
      <trkpt lat="45.46468" lon="4.71509">
        <ele>433</ele>
        <time>2019-09-29T08:02:41.000Z</time>
      </trkpt>
      <trkpt lat="45.4647" lon="4.71506">
        <ele>433.26000307196</ele>
        <time>2019-09-29T08:02:43.000Z</time>
      </trkpt>
      <trkpt lat="45.46473" lon="4.71504">
        <ele>434</ele>
        <time>2019-09-29T08:02:45.000Z</time>
      </trkpt>
      <trkpt lat="45.46475" lon="4.715">
        <ele>434</ele>
        <time>2019-09-29T08:02:47.000Z</time>
      </trkpt>
      <trkpt lat="45.46477" lon="4.71498">
        <ele>434</ele>
        <time>2019-09-29T08:02:49.000Z</time>
      </trkpt>
      <trkpt lat="45.46478" lon="4.71494">
        <ele>435</ele>
        <time>2019-09-29T08:02:51.000Z</time>
      </trkpt>
      <trkpt lat="45.4648" lon="4.71491">
        <ele>435</ele>
        <time>2019-09-29T08:02:53.000Z</time>
      </trkpt>
      <trkpt lat="45.46482" lon="4.71488">
        <ele>435.26000307196</ele>
        <time>2019-09-29T08:02:55.000Z</time>
      </trkpt>
      <trkpt lat="45.46484" lon="4.71487">
        <ele>436</ele>
        <time>2019-09-29T08:02:57.000Z</time>
      </trkpt>
      <trkpt lat="45.46486" lon="4.71487">
        <ele>436.26000307196</ele>
        <time>2019-09-29T08:02:59.000Z</time>
      </trkpt>
      <trkpt lat="45.46486" lon="4.71484">
        <ele>437</ele>
        <time>2019-09-29T08:03:11.000Z</time>
      </trkpt>
      <trkpt lat="45.46487" lon="4.71483">
        <ele>438</ele>
        <time>2019-09-29T08:03:14.000Z</time>
      </trkpt>
      <trkpt lat="45.46489" lon="4.71482">
        <ele>438</ele>
        <time>2019-09-29T08:03:16.000Z</time>
      </trkpt>
      <trkpt lat="45.46491" lon="4.71481">
        <ele>438</ele>
        <time>2019-09-29T08:03:18.000Z</time>
      </trkpt>
      <trkpt lat="45.46492" lon="4.71479">
        <ele>438</ele>
        <time>2019-09-29T08:03:20.000Z</time>
      </trkpt>
      <trkpt lat="45.46495" lon="4.71478">
        <ele>439</ele>
        <time>2019-09-29T08:03:22.000Z</time>
      </trkpt>
      <trkpt lat="45.46497" lon="4.71476">
        <ele>439</ele>
        <time>2019-09-29T08:03:24.000Z</time>
      </trkpt>
      <trkpt lat="45.46495" lon="4.71476">
        <ele>440</ele>
        <time>2019-09-29T08:04:00.000Z</time>
      </trkpt>
      <trkpt lat="45.46493" lon="4.71478">
        <ele>440</ele>
        <time>2019-09-29T08:04:02.000Z</time>
      </trkpt>
      <trkpt lat="45.4649" lon="4.7148">
        <ele>440</ele>
        <time>2019-09-29T08:04:04.000Z</time>
      </trkpt>
      <trkpt lat="45.46488" lon="4.71482">
        <ele>440</ele>
        <time>2019-09-29T08:04:06.000Z</time>
      </trkpt>
      <trkpt lat="45.46487" lon="4.71484">
        <ele>440</ele>
        <time>2019-09-29T08:04:08.000Z</time>
      </trkpt>
      <trkpt lat="45.46485" lon="4.71485">
        <ele>440</ele>
        <time>2019-09-29T08:04:13.000Z</time>
      </trkpt>
      <trkpt lat="45.46482" lon="4.71487">
        <ele>440</ele>
        <time>2019-09-29T08:04:18.000Z</time>
      </trkpt>
      <trkpt lat="45.4648" lon="4.71488">
        <ele>440</ele>
        <time>2019-09-29T08:04:20.000Z</time>
      </trkpt>
      <trkpt lat="45.46478" lon="4.71489">
        <ele>440</ele>
        <time>2019-09-29T08:04:22.000Z</time>
      </trkpt>
      <trkpt lat="45.4648" lon="4.71489">
        <ele>440</ele>
        <time>2019-09-29T08:04:40.000Z</time>
      </trkpt>
      <trkpt lat="45.46482" lon="4.71489">
        <ele>440.97674187851</ele>
        <time>2019-09-29T08:04:42.000Z</time>
      </trkpt>
      <trkpt lat="45.46481" lon="4.71487">
        <ele>440</ele>
        <time>2019-09-29T08:04:49.000Z</time>
      </trkpt>
      <trkpt lat="45.46483" lon="4.71487">
        <ele>439</ele>
        <time>2019-09-29T08:05:08.000Z</time>
      </trkpt>
      <trkpt lat="45.46484" lon="4.71488">
        <ele>440</ele>
        <time>2019-09-29T08:05:14.000Z</time>
      </trkpt>
      <trkpt lat="45.46486" lon="4.7149">
        <ele>440</ele>
        <time>2019-09-29T08:05:16.000Z</time>
      </trkpt>
      <trkpt lat="45.46488" lon="4.7149">
        <ele>441</ele>
        <time>2019-09-29T08:05:18.000Z</time>
      </trkpt>
      <trkpt lat="45.4649" lon="4.71492">
        <ele>441</ele>
        <time>2019-09-29T08:05:21.000Z</time>
      </trkpt>
      <trkpt lat="45.46491" lon="4.71495">
        <ele>442</ele>
        <time>2019-09-29T08:05:29.000Z</time>
      </trkpt>
      <trkpt lat="45.46493" lon="4.71497">
        <ele>442</ele>
        <time>2019-09-29T08:05:32.000Z</time>
      </trkpt>
      <trkpt lat="45.46495" lon="4.71496">
        <ele>442</ele>
        <time>2019-09-29T08:05:36.000Z</time>
      </trkpt>
      <trkpt lat="45.46497" lon="4.71495">
        <ele>442</ele>
        <time>2019-09-29T08:05:38.000Z</time>
      </trkpt>
      <trkpt lat="45.465" lon="4.71491">
        <ele>442.23711748327</ele>
        <time>2019-09-29T08:05:40.000Z</time>
      </trkpt>
      <trkpt lat="45.46501" lon="4.71488">
        <ele>443</ele>
        <time>2019-09-29T08:05:41.000Z</time>
      </trkpt>
      <trkpt lat="45.46503" lon="4.71486">
        <ele>443</ele>
        <time>2019-09-29T08:05:42.000Z</time>
      </trkpt>
      <trkpt lat="45.46503" lon="4.71483">
        <ele>443</ele>
        <time>2019-09-29T08:05:43.000Z</time>
      </trkpt>
      <trkpt lat="45.46504" lon="4.71481">
        <ele>443</ele>
        <time>2019-09-29T08:05:44.000Z</time>
      </trkpt>
      <trkpt lat="45.46507" lon="4.71478">
        <ele>443</ele>
        <time>2019-09-29T08:05:46.000Z</time>
      </trkpt>
      <trkpt lat="45.4651" lon="4.71476">
        <ele>443</ele>
        <time>2019-09-29T08:05:48.000Z</time>
      </trkpt>
      <trkpt lat="45.46513" lon="4.71474">
        <ele>443</ele>
        <time>2019-09-29T08:05:50.000Z</time>
      </trkpt>
      <trkpt lat="45.46516" lon="4.71472">
        <ele>443</ele>
        <time>2019-09-29T08:05:52.000Z</time>
      </trkpt>
      <trkpt lat="45.46519" lon="4.71472">
        <ele>444</ele>
        <time>2019-09-29T08:05:54.000Z</time>
      </trkpt>
      <trkpt lat="45.46522" lon="4.71473">
        <ele>444</ele>
        <time>2019-09-29T08:05:56.000Z</time>
      </trkpt>
      <trkpt lat="45.46525" lon="4.71473">
        <ele>444</ele>
        <time>2019-09-29T08:05:58.000Z</time>
      </trkpt>
      <trkpt lat="45.46528" lon="4.71471">
        <ele>445</ele>
        <time>2019-09-29T08:06:00.000Z</time>
      </trkpt>
      <trkpt lat="45.4653" lon="4.7147">
        <ele>445</ele>
        <time>2019-09-29T08:06:02.000Z</time>
      </trkpt>
      <trkpt lat="45.46533" lon="4.71468">
        <ele>445</ele>
        <time>2019-09-29T08:06:04.000Z</time>
      </trkpt>
      <trkpt lat="45.46535" lon="4.71466">
        <ele>445.26000307196</ele>
        <time>2019-09-29T08:06:05.000Z</time>
      </trkpt>
      <trkpt lat="45.46537" lon="4.71463">
        <ele>446</ele>
        <time>2019-09-29T08:06:07.000Z</time>
      </trkpt>
      <trkpt lat="45.4654" lon="4.7146">
        <ele>446.26000307196</ele>
        <time>2019-09-29T08:06:09.000Z</time>
      </trkpt>
      <trkpt lat="45.46543" lon="4.71457">
        <ele>447</ele>
        <time>2019-09-29T08:06:11.000Z</time>
      </trkpt>
      <trkpt lat="45.46544" lon="4.71454">
        <ele>447</ele>
        <time>2019-09-29T08:06:13.000Z</time>
      </trkpt>
      <trkpt lat="45.46545" lon="4.71449">
        <ele>448</ele>
        <time>2019-09-29T08:06:43.000Z</time>
      </trkpt>
      <trkpt lat="45.46546" lon="4.71447">
        <ele>448</ele>
        <time>2019-09-29T08:06:44.000Z</time>
      </trkpt>
      <trkpt lat="45.46548" lon="4.71445">
        <ele>448</ele>
        <time>2019-09-29T08:06:45.000Z</time>
      </trkpt>
      <trkpt lat="45.46549" lon="4.71443">
        <ele>448</ele>
        <time>2019-09-29T08:06:46.000Z</time>
      </trkpt>
      <trkpt lat="45.4655" lon="4.7144">
        <ele>448</ele>
        <time>2019-09-29T08:06:47.000Z</time>
      </trkpt>
      <trkpt lat="45.46551" lon="4.71438">
        <ele>448</ele>
        <time>2019-09-29T08:06:48.000Z</time>
      </trkpt>
      <trkpt lat="45.46552" lon="4.71436">
        <ele>448</ele>
        <time>2019-09-29T08:06:49.000Z</time>
      </trkpt>
      <trkpt lat="45.46554" lon="4.71434">
        <ele>448</ele>
        <time>2019-09-29T08:06:50.000Z</time>
      </trkpt>
      <trkpt lat="45.46555" lon="4.71432">
        <ele>448.26000307196</ele>
        <time>2019-09-29T08:06:51.000Z</time>
      </trkpt>
      <trkpt lat="45.46557" lon="4.7143">
        <ele>449</ele>
        <time>2019-09-29T08:06:52.000Z</time>
      </trkpt>
      <trkpt lat="45.46559" lon="4.71427">
        <ele>449</ele>
        <time>2019-09-29T08:06:54.000Z</time>
      </trkpt>
      <trkpt lat="45.46561" lon="4.71424">
        <ele>449</ele>
        <time>2019-09-29T08:06:56.000Z</time>
      </trkpt>
      <trkpt lat="45.46563" lon="4.71422">
        <ele>450</ele>
        <time>2019-09-29T08:06:58.000Z</time>
      </trkpt>
      <trkpt lat="45.46565" lon="4.71419">
        <ele>451</ele>
        <time>2019-09-29T08:07:22.000Z</time>
      </trkpt>
      <trkpt lat="45.46566" lon="4.71417">
        <ele>451</ele>
        <time>2019-09-29T08:07:24.000Z</time>
      </trkpt>
      <trkpt lat="45.46568" lon="4.71415">
        <ele>451.97674164773</ele>
        <time>2019-09-29T08:07:33.000Z</time>
      </trkpt>
      <trkpt lat="45.46569" lon="4.71412">
        <ele>452</ele>
        <time>2019-09-29T08:07:34.000Z</time>
      </trkpt>
      <trkpt lat="45.4657" lon="4.7141">
        <ele>452</ele>
        <time>2019-09-29T08:07:35.000Z</time>
      </trkpt>
      <trkpt lat="45.46571" lon="4.71407">
        <ele>452</ele>
        <time>2019-09-29T08:07:36.000Z</time>
      </trkpt>
      <trkpt lat="45.46573" lon="4.71404">
        <ele>452</ele>
        <time>2019-09-29T08:07:37.000Z</time>
      </trkpt>
      <trkpt lat="45.46574" lon="4.71402">
        <ele>452</ele>
        <time>2019-09-29T08:07:38.000Z</time>
      </trkpt>
      <trkpt lat="45.46575" lon="4.714">
        <ele>452</ele>
        <time>2019-09-29T08:07:39.000Z</time>
      </trkpt>
      <trkpt lat="45.46576" lon="4.71397">
        <ele>452</ele>
        <time>2019-09-29T08:07:40.000Z</time>
      </trkpt>
      <trkpt lat="45.46578" lon="4.71395">
        <ele>452</ele>
        <time>2019-09-29T08:07:41.000Z</time>
      </trkpt>
      <trkpt lat="45.4658" lon="4.71392">
        <ele>452.26000307196</ele>
        <time>2019-09-29T08:07:43.000Z</time>
      </trkpt>
      <trkpt lat="45.46582" lon="4.71389">
        <ele>453</ele>
        <time>2019-09-29T08:07:44.000Z</time>
      </trkpt>
      <trkpt lat="45.46584" lon="4.71386">
        <ele>453</ele>
        <time>2019-09-29T08:07:46.000Z</time>
      </trkpt>
      <trkpt lat="45.46586" lon="4.71382">
        <ele>453.25999692796</ele>
        <time>2019-09-29T08:07:48.000Z</time>
      </trkpt>
      <trkpt lat="45.46588" lon="4.7138">
        <ele>454</ele>
        <time>2019-09-29T08:07:50.000Z</time>
      </trkpt>
      <trkpt lat="45.4659" lon="4.71377">
        <ele>454.97656</ele>
        <time>2019-09-29T08:07:52.000Z</time>
      </trkpt>
      <trkpt lat="45.46593" lon="4.71374">
        <ele>455</ele>
        <time>2019-09-29T08:07:54.000Z</time>
      </trkpt>
      <trkpt lat="45.46595" lon="4.71373">
        <ele>455</ele>
        <time>2019-09-29T08:07:55.000Z</time>
      </trkpt>
      <trkpt lat="45.46598" lon="4.71371">
        <ele>455</ele>
        <time>2019-09-29T08:07:57.000Z</time>
      </trkpt>
      <trkpt lat="45.46601" lon="4.71369">
        <ele>455</ele>
        <time>2019-09-29T08:07:59.000Z</time>
      </trkpt>
      <trkpt lat="45.46604" lon="4.71366">
        <ele>455</ele>
        <time>2019-09-29T08:08:01.000Z</time>
      </trkpt>
      <trkpt lat="45.46606" lon="4.71363">
        <ele>455</ele>
        <time>2019-09-29T08:08:03.000Z</time>
      </trkpt>
      <trkpt lat="45.46608" lon="4.7136">
        <ele>455</ele>
        <time>2019-09-29T08:08:05.000Z</time>
      </trkpt>
      <trkpt lat="45.46611" lon="4.71356">
        <ele>455</ele>
        <time>2019-09-29T08:08:07.000Z</time>
      </trkpt>
      <trkpt lat="45.46612" lon="4.71352">
        <ele>455</ele>
        <time>2019-09-29T08:08:09.000Z</time>
      </trkpt>
      <trkpt lat="45.46614" lon="4.71348">
        <ele>455</ele>
        <time>2019-09-29T08:08:11.000Z</time>
      </trkpt>
      <trkpt lat="45.46616" lon="4.71344">
        <ele>455.26000307196</ele>
        <time>2019-09-29T08:08:13.000Z</time>
      </trkpt>
      <trkpt lat="45.46617" lon="4.7134">
        <ele>456</ele>
        <time>2019-09-29T08:08:15.000Z</time>
      </trkpt>
      <trkpt lat="45.4662" lon="4.71336">
        <ele>456</ele>
        <time>2019-09-29T08:08:17.000Z</time>
      </trkpt>
      <trkpt lat="45.46621" lon="4.71334">
        <ele>456</ele>
        <time>2019-09-29T08:08:18.000Z</time>
      </trkpt>
      <trkpt lat="45.46623" lon="4.71331">
        <ele>456.25999692796</ele>
        <time>2019-09-29T08:08:20.000Z</time>
      </trkpt>
      <trkpt lat="45.46625" lon="4.71327">
        <ele>457</ele>
        <time>2019-09-29T08:08:22.000Z</time>
      </trkpt>
      <trkpt lat="45.46627" lon="4.71324">
        <ele>457</ele>
        <time>2019-09-29T08:08:24.000Z</time>
      </trkpt>
      <trkpt lat="45.46629" lon="4.71321">
        <ele>458</ele>
        <time>2019-09-29T08:08:26.000Z</time>
      </trkpt>
      <trkpt lat="45.4663" lon="4.71318">
        <ele>458</ele>
        <time>2019-09-29T08:08:28.000Z</time>
      </trkpt>
      <trkpt lat="45.46632" lon="4.71314">
        <ele>458</ele>
        <time>2019-09-29T08:08:30.000Z</time>
      </trkpt>
      <trkpt lat="45.46633" lon="4.71311">
        <ele>458</ele>
        <time>2019-09-29T08:08:32.000Z</time>
      </trkpt>
      <trkpt lat="45.46633" lon="4.71307">
        <ele>459</ele>
        <time>2019-09-29T08:08:34.000Z</time>
      </trkpt>
      <trkpt lat="45.46633" lon="4.71303">
        <ele>459</ele>
        <time>2019-09-29T08:08:36.000Z</time>
      </trkpt>
      <trkpt lat="45.46633" lon="4.713">
        <ele>459</ele>
        <time>2019-09-29T08:08:38.000Z</time>
      </trkpt>
      <trkpt lat="45.46634" lon="4.71295">
        <ele>460</ele>
        <time>2019-09-29T08:08:40.000Z</time>
      </trkpt>
      <trkpt lat="45.46634" lon="4.71292">
        <ele>460</ele>
        <time>2019-09-29T08:08:41.000Z</time>
      </trkpt>
      <trkpt lat="45.46634" lon="4.7129">
        <ele>460</ele>
        <time>2019-09-29T08:08:42.000Z</time>
      </trkpt>
      <trkpt lat="45.46634" lon="4.71287">
        <ele>460</ele>
        <time>2019-09-29T08:08:43.000Z</time>
      </trkpt>
      <trkpt lat="45.46634" lon="4.71282">
        <ele>461</ele>
        <time>2019-09-29T08:08:45.000Z</time>
      </trkpt>
      <trkpt lat="45.46633" lon="4.71278">
        <ele>461</ele>
        <time>2019-09-29T08:08:47.000Z</time>
      </trkpt>
      <trkpt lat="45.46632" lon="4.71273">
        <ele>461</ele>
        <time>2019-09-29T08:08:49.000Z</time>
      </trkpt>
      <trkpt lat="45.46632" lon="4.71269">
        <ele>462</ele>
        <time>2019-09-29T08:08:51.000Z</time>
      </trkpt>
      <trkpt lat="45.46632" lon="4.71266">
        <ele>462</ele>
        <time>2019-09-29T08:08:53.000Z</time>
      </trkpt>
      <trkpt lat="45.46631" lon="4.71262">
        <ele>462</ele>
        <time>2019-09-29T08:08:55.000Z</time>
      </trkpt>
      <trkpt lat="45.46631" lon="4.71259">
        <ele>462</ele>
        <time>2019-09-29T08:08:58.000Z</time>
      </trkpt>
      <trkpt lat="45.46632" lon="4.71256">
        <ele>463</ele>
        <time>2019-09-29T08:09:05.000Z</time>
      </trkpt>
      <trkpt lat="45.46632" lon="4.71253">
        <ele>463</ele>
        <time>2019-09-29T08:09:07.000Z</time>
      </trkpt>
      <trkpt lat="45.46632" lon="4.71249">
        <ele>463</ele>
        <time>2019-09-29T08:09:09.000Z</time>
      </trkpt>
      <trkpt lat="45.46632" lon="4.71246">
        <ele>463</ele>
        <time>2019-09-29T08:09:11.000Z</time>
      </trkpt>
      <trkpt lat="45.46631" lon="4.71241">
        <ele>464</ele>
        <time>2019-09-29T08:09:13.000Z</time>
      </trkpt>
      <trkpt lat="45.46631" lon="4.71237">
        <ele>464</ele>
        <time>2019-09-29T08:09:15.000Z</time>
      </trkpt>
      <trkpt lat="45.46631" lon="4.71233">
        <ele>464</ele>
        <time>2019-09-29T08:09:17.000Z</time>
      </trkpt>
      <trkpt lat="45.4663" lon="4.71229">
        <ele>464</ele>
        <time>2019-09-29T08:09:19.000Z</time>
      </trkpt>
      <trkpt lat="45.4663" lon="4.71224">
        <ele>464</ele>
        <time>2019-09-29T08:09:21.000Z</time>
      </trkpt>
      <trkpt lat="45.4663" lon="4.71221">
        <ele>464</ele>
        <time>2019-09-29T08:09:22.000Z</time>
      </trkpt>
      <trkpt lat="45.4663" lon="4.71219">
        <ele>464</ele>
        <time>2019-09-29T08:09:23.000Z</time>
      </trkpt>
      <trkpt lat="45.46631" lon="4.71216">
        <ele>464</ele>
        <time>2019-09-29T08:09:24.000Z</time>
      </trkpt>
      <trkpt lat="45.46631" lon="4.71213">
        <ele>464</ele>
        <time>2019-09-29T08:09:25.000Z</time>
      </trkpt>
      <trkpt lat="45.46631" lon="4.7121">
        <ele>464</ele>
        <time>2019-09-29T08:09:26.000Z</time>
      </trkpt>
      <trkpt lat="45.46631" lon="4.71208">
        <ele>464</ele>
        <time>2019-09-29T08:09:27.000Z</time>
      </trkpt>
      <trkpt lat="45.46631" lon="4.71204">
        <ele>465</ele>
        <time>2019-09-29T08:09:28.000Z</time>
      </trkpt>
      <trkpt lat="45.46632" lon="4.71201">
        <ele>465</ele>
        <time>2019-09-29T08:09:29.000Z</time>
      </trkpt>
      <trkpt lat="45.46632" lon="4.71198">
        <ele>465</ele>
        <time>2019-09-29T08:09:30.000Z</time>
      </trkpt>
      <trkpt lat="45.46633" lon="4.71194">
        <ele>464.73999692804</ele>
        <time>2019-09-29T08:09:31.000Z</time>
      </trkpt>
      <trkpt lat="45.46633" lon="4.7119">
        <ele>464</ele>
        <time>2019-09-29T08:09:32.000Z</time>
      </trkpt>
      <trkpt lat="45.46633" lon="4.71186">
        <ele>464</ele>
        <time>2019-09-29T08:09:33.000Z</time>
      </trkpt>
      <trkpt lat="45.46634" lon="4.71182">
        <ele>464</ele>
        <time>2019-09-29T08:09:34.000Z</time>
      </trkpt>
      <trkpt lat="45.46634" lon="4.71178">
        <ele>464</ele>
        <time>2019-09-29T08:09:35.000Z</time>
      </trkpt>
      <trkpt lat="45.46634" lon="4.71174">
        <ele>464.25252446892</ele>
        <time>2019-09-29T08:09:36.000Z</time>
      </trkpt>
      <trkpt lat="45.46634" lon="4.71169">
        <ele>465</ele>
        <time>2019-09-29T08:09:37.000Z</time>
      </trkpt>
      <trkpt lat="45.46634" lon="4.71165">
        <ele>465</ele>
        <time>2019-09-29T08:09:38.000Z</time>
      </trkpt>
      <trkpt lat="45.46635" lon="4.7116">
        <ele>465</ele>
        <time>2019-09-29T08:09:39.000Z</time>
      </trkpt>
      <trkpt lat="45.46635" lon="4.71155">
        <ele>464.25489728563</ele>
        <time>2019-09-29T08:09:40.000Z</time>
      </trkpt>
      <trkpt lat="45.46636" lon="4.71149">
        <ele>464.75510364014</ele>
        <time>2019-09-29T08:09:41.000Z</time>
      </trkpt>
      <trkpt lat="45.46637" lon="4.71144">
        <ele>464</ele>
        <time>2019-09-29T08:09:42.000Z</time>
      </trkpt>
      <trkpt lat="45.46638" lon="4.71138">
        <ele>464</ele>
        <time>2019-09-29T08:09:43.000Z</time>
      </trkpt>
      <trkpt lat="45.46639" lon="4.71133">
        <ele>464</ele>
        <time>2019-09-29T08:09:44.000Z</time>
      </trkpt>
      <trkpt lat="45.4664" lon="4.71127">
        <ele>464</ele>
        <time>2019-09-29T08:09:45.000Z</time>
      </trkpt>
      <trkpt lat="45.4664" lon="4.71122">
        <ele>464</ele>
        <time>2019-09-29T08:09:46.000Z</time>
      </trkpt>
      <trkpt lat="45.46641" lon="4.71117">
        <ele>464</ele>
        <time>2019-09-29T08:09:47.000Z</time>
      </trkpt>
      <trkpt lat="45.46642" lon="4.71112">
        <ele>464</ele>
        <time>2019-09-29T08:09:48.000Z</time>
      </trkpt>
      <trkpt lat="45.46643" lon="4.71107">
        <ele>464</ele>
        <time>2019-09-29T08:09:49.000Z</time>
      </trkpt>
      <trkpt lat="45.46645" lon="4.71102">
        <ele>464</ele>
        <time>2019-09-29T08:09:50.000Z</time>
      </trkpt>
      <trkpt lat="45.46646" lon="4.71097">
        <ele>464</ele>
        <time>2019-09-29T08:09:51.000Z</time>
      </trkpt>
      <trkpt lat="45.46647" lon="4.71092">
        <ele>464</ele>
        <time>2019-09-29T08:09:52.000Z</time>
      </trkpt>
      <trkpt lat="45.46648" lon="4.71088">
        <ele>464</ele>
        <time>2019-09-29T08:09:53.000Z</time>
      </trkpt>
      <trkpt lat="45.46649" lon="4.71083">
        <ele>464</ele>
        <time>2019-09-29T08:09:54.000Z</time>
      </trkpt>
      <trkpt lat="45.4665" lon="4.71078">
        <ele>464</ele>
        <time>2019-09-29T08:09:55.000Z</time>
      </trkpt>
      <trkpt lat="45.4665" lon="4.71074">
        <ele>464.25999692796</ele>
        <time>2019-09-29T08:09:56.000Z</time>
      </trkpt>
      <trkpt lat="45.46651" lon="4.71069">
        <ele>465</ele>
        <time>2019-09-29T08:09:57.000Z</time>
      </trkpt>
      <trkpt lat="45.46651" lon="4.71065">
        <ele>465</ele>
        <time>2019-09-29T08:09:58.000Z</time>
      </trkpt>
      <trkpt lat="45.46652" lon="4.7106">
        <ele>465</ele>
        <time>2019-09-29T08:09:59.000Z</time>
      </trkpt>
      <trkpt lat="45.46652" lon="4.71056">
        <ele>465</ele>
        <time>2019-09-29T08:10:00.000Z</time>
      </trkpt>
      <trkpt lat="45.46652" lon="4.71051">
        <ele>465</ele>
        <time>2019-09-29T08:10:01.000Z</time>
      </trkpt>
      <trkpt lat="45.46652" lon="4.71047">
        <ele>465</ele>
        <time>2019-09-29T08:10:02.000Z</time>
      </trkpt>
      <trkpt lat="45.46653" lon="4.71043">
        <ele>465</ele>
        <time>2019-09-29T08:10:03.000Z</time>
      </trkpt>
      <trkpt lat="45.46653" lon="4.71039">
        <ele>465</ele>
        <time>2019-09-29T08:10:04.000Z</time>
      </trkpt>
      <trkpt lat="45.46653" lon="4.71034">
        <ele>465</ele>
        <time>2019-09-29T08:10:05.000Z</time>
      </trkpt>
      <trkpt lat="45.46653" lon="4.7103">
        <ele>465</ele>
        <time>2019-09-29T08:10:06.000Z</time>
      </trkpt>
      <trkpt lat="45.46653" lon="4.71026">
        <ele>465</ele>
        <time>2019-09-29T08:10:07.000Z</time>
      </trkpt>
      <trkpt lat="45.46654" lon="4.71022">
        <ele>465</ele>
        <time>2019-09-29T08:10:08.000Z</time>
      </trkpt>
      <trkpt lat="45.46654" lon="4.71019">
        <ele>466</ele>
        <time>2019-09-29T08:10:09.000Z</time>
      </trkpt>
      <trkpt lat="45.46654" lon="4.71016">
        <ele>466</ele>
        <time>2019-09-29T08:10:10.000Z</time>
      </trkpt>
      <trkpt lat="45.46654" lon="4.71012">
        <ele>466</ele>
        <time>2019-09-29T08:10:11.000Z</time>
      </trkpt>
      <trkpt lat="45.46654" lon="4.71009">
        <ele>466</ele>
        <time>2019-09-29T08:10:12.000Z</time>
      </trkpt>
      <trkpt lat="45.46654" lon="4.71006">
        <ele>466</ele>
        <time>2019-09-29T08:10:13.000Z</time>
      </trkpt>
      <trkpt lat="45.46655" lon="4.71002">
        <ele>466.25999692796</ele>
        <time>2019-09-29T08:10:14.000Z</time>
      </trkpt>
      <trkpt lat="45.46655" lon="4.70999">
        <ele>467</ele>
        <time>2019-09-29T08:10:15.000Z</time>
      </trkpt>
      <trkpt lat="45.46655" lon="4.70996">
        <ele>467</ele>
        <time>2019-09-29T08:10:16.000Z</time>
      </trkpt>
      <trkpt lat="45.46655" lon="4.70993">
        <ele>467</ele>
        <time>2019-09-29T08:10:17.000Z</time>
      </trkpt>
      <trkpt lat="45.46655" lon="4.7099">
        <ele>467.25999692796</ele>
        <time>2019-09-29T08:10:18.000Z</time>
      </trkpt>
      <trkpt lat="45.46655" lon="4.70987">
        <ele>468</ele>
        <time>2019-09-29T08:10:19.000Z</time>
      </trkpt>
      <trkpt lat="45.46655" lon="4.70984">
        <ele>468</ele>
        <time>2019-09-29T08:10:20.000Z</time>
      </trkpt>
      <trkpt lat="45.46655" lon="4.7098">
        <ele>468</ele>
        <time>2019-09-29T08:10:21.000Z</time>
      </trkpt>
      <trkpt lat="45.46656" lon="4.70977">
        <ele>468.25999692796</ele>
        <time>2019-09-29T08:10:22.000Z</time>
      </trkpt>
      <trkpt lat="45.46656" lon="4.70975">
        <ele>469</ele>
        <time>2019-09-29T08:10:23.000Z</time>
      </trkpt>
      <trkpt lat="45.46655" lon="4.7097">
        <ele>469</ele>
        <time>2019-09-29T08:10:25.000Z</time>
      </trkpt>
      <trkpt lat="45.46655" lon="4.70967">
        <ele>470</ele>
        <time>2019-09-29T08:10:27.000Z</time>
      </trkpt>
      <trkpt lat="45.46657" lon="4.70966">
        <ele>470</ele>
        <time>2019-09-29T08:10:31.000Z</time>
      </trkpt>
      <trkpt lat="45.46659" lon="4.70968">
        <ele>470</ele>
        <time>2019-09-29T08:13:14.000Z</time>
      </trkpt>
      <trkpt lat="45.46661" lon="4.70968">
        <ele>470</ele>
        <time>2019-09-29T08:13:16.000Z</time>
      </trkpt>
      <trkpt lat="45.46664" lon="4.70971">
        <ele>470</ele>
        <time>2019-09-29T08:13:18.000Z</time>
      </trkpt>
      <trkpt lat="45.46665" lon="4.70973">
        <ele>470</ele>
        <time>2019-09-29T08:13:19.000Z</time>
      </trkpt>
      <trkpt lat="45.46667" lon="4.70974">
        <ele>470</ele>
        <time>2019-09-29T08:13:20.000Z</time>
      </trkpt>
      <trkpt lat="45.4667" lon="4.70977">
        <ele>470</ele>
        <time>2019-09-29T08:13:21.000Z</time>
      </trkpt>
      <trkpt lat="45.46673" lon="4.70979">
        <ele>470</ele>
        <time>2019-09-29T08:13:22.000Z</time>
      </trkpt>
      <trkpt lat="45.46676" lon="4.70981">
        <ele>470</ele>
        <time>2019-09-29T08:13:23.000Z</time>
      </trkpt>
      <trkpt lat="45.46679" lon="4.70984">
        <ele>470</ele>
        <time>2019-09-29T08:13:24.000Z</time>
      </trkpt>
      <trkpt lat="45.46683" lon="4.70986">
        <ele>470</ele>
        <time>2019-09-29T08:13:25.000Z</time>
      </trkpt>
      <trkpt lat="45.46686" lon="4.70987">
        <ele>470</ele>
        <time>2019-09-29T08:13:26.000Z</time>
      </trkpt>
      <trkpt lat="45.46689" lon="4.70989">
        <ele>470</ele>
        <time>2019-09-29T08:13:27.000Z</time>
      </trkpt>
      <trkpt lat="45.46692" lon="4.70991">
        <ele>470</ele>
        <time>2019-09-29T08:13:28.000Z</time>
      </trkpt>
      <trkpt lat="45.46695" lon="4.70992">
        <ele>470</ele>
        <time>2019-09-29T08:13:29.000Z</time>
      </trkpt>
      <trkpt lat="45.46698" lon="4.70994">
        <ele>470</ele>
        <time>2019-09-29T08:13:30.000Z</time>
      </trkpt>
      <trkpt lat="45.46701" lon="4.70995">
        <ele>470</ele>
        <time>2019-09-29T08:13:31.000Z</time>
      </trkpt>
      <trkpt lat="45.46704" lon="4.70995">
        <ele>470</ele>
        <time>2019-09-29T08:13:32.000Z</time>
      </trkpt>
      <trkpt lat="45.46706" lon="4.70996">
        <ele>470</ele>
        <time>2019-09-29T08:13:33.000Z</time>
      </trkpt>
      <trkpt lat="45.46708" lon="4.70996">
        <ele>470</ele>
        <time>2019-09-29T08:13:34.000Z</time>
      </trkpt>
      <trkpt lat="45.4671" lon="4.70996">
        <ele>470</ele>
        <time>2019-09-29T08:13:35.000Z</time>
      </trkpt>
      <trkpt lat="45.46713" lon="4.70997">
        <ele>470</ele>
        <time>2019-09-29T08:13:36.000Z</time>
      </trkpt>
      <trkpt lat="45.46715" lon="4.70997">
        <ele>470</ele>
        <time>2019-09-29T08:13:37.000Z</time>
      </trkpt>
      <trkpt lat="45.46717" lon="4.70998">
        <ele>470</ele>
        <time>2019-09-29T08:13:38.000Z</time>
      </trkpt>
      <trkpt lat="45.46719" lon="4.70998">
        <ele>470</ele>
        <time>2019-09-29T08:13:39.000Z</time>
      </trkpt>
      <trkpt lat="45.46722" lon="4.70999">
        <ele>470</ele>
        <time>2019-09-29T08:13:40.000Z</time>
      </trkpt>
      <trkpt lat="45.46724" lon="4.70999">
        <ele>470</ele>
        <time>2019-09-29T08:13:41.000Z</time>
      </trkpt>
      <trkpt lat="45.46727" lon="4.71">
        <ele>470</ele>
        <time>2019-09-29T08:13:42.000Z</time>
      </trkpt>
      <trkpt lat="45.46729" lon="4.71001">
        <ele>470</ele>
        <time>2019-09-29T08:13:43.000Z</time>
      </trkpt>
      <trkpt lat="45.46731" lon="4.71002">
        <ele>470.25252446892</ele>
        <time>2019-09-29T08:13:44.000Z</time>
      </trkpt>
      <trkpt lat="45.46733" lon="4.71003">
        <ele>471</ele>
        <time>2019-09-29T08:13:45.000Z</time>
      </trkpt>
      <trkpt lat="45.46735" lon="4.71004">
        <ele>471</ele>
        <time>2019-09-29T08:13:46.000Z</time>
      </trkpt>
      <trkpt lat="45.46737" lon="4.71006">
        <ele>471</ele>
        <time>2019-09-29T08:13:47.000Z</time>
      </trkpt>
      <trkpt lat="45.4674" lon="4.71007">
        <ele>471</ele>
        <time>2019-09-29T08:13:48.000Z</time>
      </trkpt>
      <trkpt lat="45.46742" lon="4.71008">
        <ele>471</ele>
        <time>2019-09-29T08:13:49.000Z</time>
      </trkpt>
      <trkpt lat="45.46744" lon="4.7101">
        <ele>471</ele>
        <time>2019-09-29T08:13:50.000Z</time>
      </trkpt>
      <trkpt lat="45.46746" lon="4.71011">
        <ele>471</ele>
        <time>2019-09-29T08:13:51.000Z</time>
      </trkpt>
      <trkpt lat="45.46748" lon="4.71013">
        <ele>471</ele>
        <time>2019-09-29T08:13:52.000Z</time>
      </trkpt>
      <trkpt lat="45.46751" lon="4.71014">
        <ele>471</ele>
        <time>2019-09-29T08:13:53.000Z</time>
      </trkpt>
      <trkpt lat="45.46754" lon="4.71015">
        <ele>471</ele>
        <time>2019-09-29T08:13:54.000Z</time>
      </trkpt>
      <trkpt lat="45.46756" lon="4.71017">
        <ele>471</ele>
        <time>2019-09-29T08:13:55.000Z</time>
      </trkpt>
      <trkpt lat="45.46759" lon="4.71018">
        <ele>471</ele>
        <time>2019-09-29T08:13:56.000Z</time>
      </trkpt>
      <trkpt lat="45.46761" lon="4.71019">
        <ele>472</ele>
        <time>2019-09-29T08:13:57.000Z</time>
      </trkpt>
      <trkpt lat="45.46764" lon="4.71019">
        <ele>472</ele>
        <time>2019-09-29T08:13:58.000Z</time>
      </trkpt>
      <trkpt lat="45.46767" lon="4.7102">
        <ele>472</ele>
        <time>2019-09-29T08:13:59.000Z</time>
      </trkpt>
      <trkpt lat="45.46769" lon="4.7102">
        <ele>472</ele>
        <time>2019-09-29T08:14:00.000Z</time>
      </trkpt>
      <trkpt lat="45.46771" lon="4.7102">
        <ele>472</ele>
        <time>2019-09-29T08:14:01.000Z</time>
      </trkpt>
      <trkpt lat="45.46774" lon="4.7102">
        <ele>472</ele>
        <time>2019-09-29T08:14:02.000Z</time>
      </trkpt>
      <trkpt lat="45.46777" lon="4.7102">
        <ele>472</ele>
        <time>2019-09-29T08:14:03.000Z</time>
      </trkpt>
      <trkpt lat="45.4678" lon="4.71019">
        <ele>472</ele>
        <time>2019-09-29T08:14:04.000Z</time>
      </trkpt>
      <trkpt lat="45.46782" lon="4.71019">
        <ele>472</ele>
        <time>2019-09-29T08:14:05.000Z</time>
      </trkpt>
      <trkpt lat="45.46785" lon="4.71018">
        <ele>472</ele>
        <time>2019-09-29T08:14:06.000Z</time>
      </trkpt>
      <trkpt lat="45.46787" lon="4.71018">
        <ele>472</ele>
        <time>2019-09-29T08:14:07.000Z</time>
      </trkpt>
      <trkpt lat="45.46789" lon="4.71017">
        <ele>472</ele>
        <time>2019-09-29T08:14:08.000Z</time>
      </trkpt>
      <trkpt lat="45.46791" lon="4.71017">
        <ele>472.26000307196</ele>
        <time>2019-09-29T08:14:09.000Z</time>
      </trkpt>
      <trkpt lat="45.46793" lon="4.71016">
        <ele>473</ele>
        <time>2019-09-29T08:14:10.000Z</time>
      </trkpt>
      <trkpt lat="45.46795" lon="4.71015">
        <ele>473</ele>
        <time>2019-09-29T08:14:11.000Z</time>
      </trkpt>
      <trkpt lat="45.46797" lon="4.71015">
        <ele>473</ele>
        <time>2019-09-29T08:14:12.000Z</time>
      </trkpt>
      <trkpt lat="45.46799" lon="4.71014">
        <ele>473</ele>
        <time>2019-09-29T08:14:13.000Z</time>
      </trkpt>
      <trkpt lat="45.46801" lon="4.71013">
        <ele>473</ele>
        <time>2019-09-29T08:14:14.000Z</time>
      </trkpt>
      <trkpt lat="45.46803" lon="4.71012">
        <ele>473</ele>
        <time>2019-09-29T08:14:15.000Z</time>
      </trkpt>
      <trkpt lat="45.46807" lon="4.71009">
        <ele>473.96923061775</ele>
        <time>2019-09-29T08:14:17.000Z</time>
      </trkpt>
      <trkpt lat="45.46808" lon="4.71007">
        <ele>474</ele>
        <time>2019-09-29T08:14:18.000Z</time>
      </trkpt>
      <trkpt lat="45.4681" lon="4.71005">
        <ele>474</ele>
        <time>2019-09-29T08:14:19.000Z</time>
      </trkpt>
      <trkpt lat="45.46811" lon="4.71002">
        <ele>474.26000307196</ele>
        <time>2019-09-29T08:14:21.000Z</time>
      </trkpt>
      <trkpt lat="45.46813" lon="4.71">
        <ele>475</ele>
        <time>2019-09-29T08:14:23.000Z</time>
      </trkpt>
      <trkpt lat="45.46814" lon="4.70997">
        <ele>475.25490663588</ele>
        <time>2019-09-29T08:14:25.000Z</time>
      </trkpt>
      <trkpt lat="45.46817" lon="4.70996">
        <ele>476</ele>
        <time>2019-09-29T08:14:27.000Z</time>
      </trkpt>
      <trkpt lat="45.46818" lon="4.70992">
        <ele>476</ele>
        <time>2019-09-29T08:14:29.000Z</time>
      </trkpt>
      <trkpt lat="45.46819" lon="4.70988">
        <ele>476.97749818774</ele>
        <time>2019-09-29T08:14:31.000Z</time>
      </trkpt>
      <trkpt lat="45.46821" lon="4.70984">
        <ele>477</ele>
        <time>2019-09-29T08:14:33.000Z</time>
      </trkpt>
      <trkpt lat="45.46822" lon="4.70981">
        <ele>477</ele>
        <time>2019-09-29T08:14:34.000Z</time>
      </trkpt>
      <trkpt lat="45.46822" lon="4.70979">
        <ele>477</ele>
        <time>2019-09-29T08:14:35.000Z</time>
      </trkpt>
      <trkpt lat="45.46823" lon="4.70977">
        <ele>477.25999692796</ele>
        <time>2019-09-29T08:14:36.000Z</time>
      </trkpt>
      <trkpt lat="45.46824" lon="4.70972">
        <ele>478</ele>
        <time>2019-09-29T08:14:38.000Z</time>
      </trkpt>
      <trkpt lat="45.46826" lon="4.70968">
        <ele>478</ele>
        <time>2019-09-29T08:14:40.000Z</time>
      </trkpt>
      <trkpt lat="45.46826" lon="4.70965">
        <ele>478</ele>
        <time>2019-09-29T08:14:42.000Z</time>
      </trkpt>
      <trkpt lat="45.46827" lon="4.70961">
        <ele>478</ele>
        <time>2019-09-29T08:14:44.000Z</time>
      </trkpt>
      <trkpt lat="45.46827" lon="4.70958">
        <ele>478</ele>
        <time>2019-09-29T08:14:45.000Z</time>
      </trkpt>
      <trkpt lat="45.46828" lon="4.70954">
        <ele>478</ele>
        <time>2019-09-29T08:14:47.000Z</time>
      </trkpt>
      <trkpt lat="45.46829" lon="4.70951">
        <ele>478</ele>
        <time>2019-09-29T08:14:48.000Z</time>
      </trkpt>
      <trkpt lat="45.46829" lon="4.70946">
        <ele>478.78260800433</ele>
        <time>2019-09-29T08:14:50.000Z</time>
      </trkpt>
      <trkpt lat="45.4683" lon="4.70942">
        <ele>479</ele>
        <time>2019-09-29T08:14:52.000Z</time>
      </trkpt>
      <trkpt lat="45.4683" lon="4.70938">
        <ele>480</ele>
        <time>2019-09-29T08:14:54.000Z</time>
      </trkpt>
      <trkpt lat="45.46831" lon="4.70934">
        <ele>480</ele>
        <time>2019-09-29T08:14:56.000Z</time>
      </trkpt>
      <trkpt lat="45.46831" lon="4.70929">
        <ele>480.25999692796</ele>
        <time>2019-09-29T08:14:58.000Z</time>
      </trkpt>
      <trkpt lat="45.46831" lon="4.70925">
        <ele>481</ele>
        <time>2019-09-29T08:15:00.000Z</time>
      </trkpt>
      <trkpt lat="45.46829" lon="4.70921">
        <ele>481.25999692796</ele>
        <time>2019-09-29T08:15:02.000Z</time>
      </trkpt>
      <trkpt lat="45.46829" lon="4.70917">
        <ele>482</ele>
        <time>2019-09-29T08:15:04.000Z</time>
      </trkpt>
      <trkpt lat="45.46829" lon="4.70913">
        <ele>482</ele>
        <time>2019-09-29T08:15:06.000Z</time>
      </trkpt>
      <trkpt lat="45.46829" lon="4.7091">
        <ele>483</ele>
        <time>2019-09-29T08:15:08.000Z</time>
      </trkpt>
      <trkpt lat="45.46829" lon="4.70906">
        <ele>483.23711748327</ele>
        <time>2019-09-29T08:15:10.000Z</time>
      </trkpt>
      <trkpt lat="45.46829" lon="4.70902">
        <ele>484</ele>
        <time>2019-09-29T08:15:12.000Z</time>
      </trkpt>
      <trkpt lat="45.46828" lon="4.70897">
        <ele>484.25999692796</ele>
        <time>2019-09-29T08:15:14.000Z</time>
      </trkpt>
      <trkpt lat="45.46828" lon="4.70893">
        <ele>485</ele>
        <time>2019-09-29T08:15:16.000Z</time>
      </trkpt>
      <trkpt lat="45.46829" lon="4.70889">
        <ele>486</ele>
        <time>2019-09-29T08:15:18.000Z</time>
      </trkpt>
      <trkpt lat="45.46829" lon="4.70885">
        <ele>486.25999692796</ele>
        <time>2019-09-29T08:15:20.000Z</time>
      </trkpt>
      <trkpt lat="45.46829" lon="4.70881">
        <ele>487</ele>
        <time>2019-09-29T08:15:22.000Z</time>
      </trkpt>
      <trkpt lat="45.46829" lon="4.70878">
        <ele>487</ele>
        <time>2019-09-29T08:15:24.000Z</time>
      </trkpt>
      <trkpt lat="45.46829" lon="4.70874">
        <ele>488</ele>
        <time>2019-09-29T08:15:26.000Z</time>
      </trkpt>
      <trkpt lat="45.46829" lon="4.70871">
        <ele>488.22105149694</ele>
        <time>2019-09-29T08:15:28.000Z</time>
      </trkpt>
      <trkpt lat="45.46829" lon="4.70867">
        <ele>489</ele>
        <time>2019-09-29T08:15:30.000Z</time>
      </trkpt>
      <trkpt lat="45.46829" lon="4.70864">
        <ele>490</ele>
        <time>2019-09-29T08:15:32.000Z</time>
      </trkpt>
      <trkpt lat="45.46828" lon="4.70861">
        <ele>490</ele>
        <time>2019-09-29T08:15:33.000Z</time>
      </trkpt>
      <trkpt lat="45.46827" lon="4.70859">
        <ele>490</ele>
        <time>2019-09-29T08:15:34.000Z</time>
      </trkpt>
      <trkpt lat="45.46826" lon="4.70855">
        <ele>490</ele>
        <time>2019-09-29T08:15:36.000Z</time>
      </trkpt>
      <trkpt lat="45.46825" lon="4.70851">
        <ele>490.25999692796</ele>
        <time>2019-09-29T08:15:38.000Z</time>
      </trkpt>
      <trkpt lat="45.46823" lon="4.70846">
        <ele>491</ele>
        <time>2019-09-29T08:15:40.000Z</time>
      </trkpt>
      <trkpt lat="45.46822" lon="4.70842">
        <ele>491</ele>
        <time>2019-09-29T08:15:42.000Z</time>
      </trkpt>
      <trkpt lat="45.46821" lon="4.70838">
        <ele>491.25999692796</ele>
        <time>2019-09-29T08:15:44.000Z</time>
      </trkpt>
      <trkpt lat="45.46821" lon="4.70834">
        <ele>492</ele>
        <time>2019-09-29T08:15:46.000Z</time>
      </trkpt>
      <trkpt lat="45.4682" lon="4.70831">
        <ele>492</ele>
        <time>2019-09-29T08:15:48.000Z</time>
      </trkpt>
      <trkpt lat="45.46819" lon="4.70827">
        <ele>493</ele>
        <time>2019-09-29T08:15:50.000Z</time>
      </trkpt>
      <trkpt lat="45.46818" lon="4.70822">
        <ele>493</ele>
        <time>2019-09-29T08:15:52.000Z</time>
      </trkpt>
      <trkpt lat="45.46817" lon="4.70818">
        <ele>493</ele>
        <time>2019-09-29T08:15:54.000Z</time>
      </trkpt>
      <trkpt lat="45.46815" lon="4.70815">
        <ele>494</ele>
        <time>2019-09-29T08:15:56.000Z</time>
      </trkpt>
      <trkpt lat="45.46813" lon="4.70811">
        <ele>494</ele>
        <time>2019-09-29T08:15:58.000Z</time>
      </trkpt>
      <trkpt lat="45.46812" lon="4.70806">
        <ele>494.25252446892</ele>
        <time>2019-09-29T08:16:00.000Z</time>
      </trkpt>
      <trkpt lat="45.46811" lon="4.70802">
        <ele>495</ele>
        <time>2019-09-29T08:16:02.000Z</time>
      </trkpt>
      <trkpt lat="45.46809" lon="4.70798">
        <ele>495</ele>
        <time>2019-09-29T08:16:04.000Z</time>
      </trkpt>
      <trkpt lat="45.46808" lon="4.70794">
        <ele>495.98438</ele>
        <time>2019-09-29T08:16:06.000Z</time>
      </trkpt>
      <trkpt lat="45.46807" lon="4.7079">
        <ele>496</ele>
        <time>2019-09-29T08:16:08.000Z</time>
      </trkpt>
      <trkpt lat="45.46806" lon="4.70786">
        <ele>496</ele>
        <time>2019-09-29T08:16:10.000Z</time>
      </trkpt>
      <trkpt lat="45.46806" lon="4.70782">
        <ele>496.25252446892</ele>
        <time>2019-09-29T08:16:12.000Z</time>
      </trkpt>
      <trkpt lat="45.46807" lon="4.70778">
        <ele>497</ele>
        <time>2019-09-29T08:16:14.000Z</time>
      </trkpt>
      <trkpt lat="45.46808" lon="4.70776">
        <ele>497.25999692796</ele>
        <time>2019-09-29T08:16:16.000Z</time>
      </trkpt>
      <trkpt lat="45.46808" lon="4.70773">
        <ele>498</ele>
        <time>2019-09-29T08:16:18.000Z</time>
      </trkpt>
      <trkpt lat="45.46807" lon="4.7077">
        <ele>498.25999692796</ele>
        <time>2019-09-29T08:16:20.000Z</time>
      </trkpt>
      <trkpt lat="45.46808" lon="4.70767">
        <ele>499</ele>
        <time>2019-09-29T08:16:22.000Z</time>
      </trkpt>
      <trkpt lat="45.46807" lon="4.70764">
        <ele>500</ele>
        <time>2019-09-29T08:16:24.000Z</time>
      </trkpt>
      <trkpt lat="45.46807" lon="4.7076">
        <ele>500.24489955853</ele>
        <time>2019-09-29T08:16:26.000Z</time>
      </trkpt>
      <trkpt lat="45.46807" lon="4.70755">
        <ele>501</ele>
        <time>2019-09-29T08:16:28.000Z</time>
      </trkpt>
      <trkpt lat="45.46806" lon="4.7075">
        <ele>502</ele>
        <time>2019-09-29T08:16:30.000Z</time>
      </trkpt>
      <trkpt lat="45.46805" lon="4.70745">
        <ele>502</ele>
        <time>2019-09-29T08:16:32.000Z</time>
      </trkpt>
      <trkpt lat="45.46805" lon="4.70743">
        <ele>502</ele>
        <time>2019-09-29T08:16:33.000Z</time>
      </trkpt>
      <trkpt lat="45.46804" lon="4.70738">
        <ele>502</ele>
        <time>2019-09-29T08:16:35.000Z</time>
      </trkpt>
      <trkpt lat="45.46802" lon="4.70735">
        <ele>502.26000307196</ele>
        <time>2019-09-29T08:16:37.000Z</time>
      </trkpt>
      <trkpt lat="45.46802" lon="4.70731">
        <ele>503</ele>
        <time>2019-09-29T08:16:39.000Z</time>
      </trkpt>
      <trkpt lat="45.46803" lon="4.70727">
        <ele>503</ele>
        <time>2019-09-29T08:16:41.000Z</time>
      </trkpt>
      <trkpt lat="45.46803" lon="4.70722">
        <ele>503.2015538489</ele>
        <time>2019-09-29T08:16:43.000Z</time>
      </trkpt>
      <trkpt lat="45.46803" lon="4.70718">
        <ele>504</ele>
        <time>2019-09-29T08:16:45.000Z</time>
      </trkpt>
      <trkpt lat="45.46803" lon="4.70715">
        <ele>504</ele>
        <time>2019-09-29T08:16:47.000Z</time>
      </trkpt>
      <trkpt lat="45.46804" lon="4.70712">
        <ele>505</ele>
        <time>2019-09-29T08:16:49.000Z</time>
      </trkpt>
      <trkpt lat="45.46806" lon="4.70711">
        <ele>505</ele>
        <time>2019-09-29T08:16:50.000Z</time>
      </trkpt>
      <trkpt lat="45.46808" lon="4.70707">
        <ele>505</ele>
        <time>2019-09-29T08:16:52.000Z</time>
      </trkpt>
      <trkpt lat="45.46809" lon="4.70705">
        <ele>505</ele>
        <time>2019-09-29T08:16:54.000Z</time>
      </trkpt>
      <trkpt lat="45.46807" lon="4.70703">
        <ele>507</ele>
        <time>2019-09-29T08:17:11.000Z</time>
      </trkpt>
      <trkpt lat="45.46807" lon="4.70706">
        <ele>507</ele>
        <time>2019-09-29T08:17:14.000Z</time>
      </trkpt>
      <trkpt lat="45.46806" lon="4.70709">
        <ele>507</ele>
        <time>2019-09-29T08:17:16.000Z</time>
      </trkpt>
      <trkpt lat="45.46806" lon="4.70713">
        <ele>507</ele>
        <time>2019-09-29T08:17:18.000Z</time>
      </trkpt>
      <trkpt lat="45.46806" lon="4.70716">
        <ele>507</ele>
        <time>2019-09-29T08:17:19.000Z</time>
      </trkpt>
      <trkpt lat="45.46804" lon="4.70719">
        <ele>507</ele>
        <time>2019-09-29T08:17:23.000Z</time>
      </trkpt>
      <trkpt lat="45.46802" lon="4.7072">
        <ele>507</ele>
        <time>2019-09-29T08:17:25.000Z</time>
      </trkpt>
      <trkpt lat="45.46802" lon="4.70723">
        <ele>507</ele>
        <time>2019-09-29T08:17:29.000Z</time>
      </trkpt>
      <trkpt lat="45.46803" lon="4.70727">
        <ele>507</ele>
        <time>2019-09-29T08:17:31.000Z</time>
      </trkpt>
      <trkpt lat="45.46803" lon="4.70735">
        <ele>506.74000307204</ele>
        <time>2019-09-29T08:17:34.000Z</time>
      </trkpt>
      <trkpt lat="45.46804" lon="4.70749">
        <ele>506</ele>
        <time>2019-09-29T08:17:41.000Z</time>
      </trkpt>
      <trkpt lat="45.46805" lon="4.70756">
        <ele>506</ele>
        <time>2019-09-29T08:17:46.000Z</time>
      </trkpt>
      <trkpt lat="45.46805" lon="4.70759">
        <ele>506</ele>
        <time>2019-09-29T08:17:53.000Z</time>
      </trkpt>
      <trkpt lat="45.46805" lon="4.70756">
        <ele>506</ele>
        <time>2019-09-29T08:17:58.000Z</time>
      </trkpt>
      <trkpt lat="45.46803" lon="4.70752">
        <ele>505.02325812149</ele>
        <time>2019-09-29T08:18:00.000Z</time>
      </trkpt>
      <trkpt lat="45.46803" lon="4.70756">
        <ele>506</ele>
        <time>2019-09-29T08:18:03.000Z</time>
      </trkpt>
      <trkpt lat="45.46803" lon="4.7076">
        <ele>505</ele>
        <time>2019-09-29T08:18:06.000Z</time>
      </trkpt>
      <trkpt lat="45.46804" lon="4.70764">
        <ele>505</ele>
        <time>2019-09-29T08:18:08.000Z</time>
      </trkpt>
      <trkpt lat="45.46804" lon="4.70769">
        <ele>505</ele>
        <time>2019-09-29T08:18:10.000Z</time>
      </trkpt>
      <trkpt lat="45.46806" lon="4.7077">
        <ele>504</ele>
        <time>2019-09-29T08:18:22.000Z</time>
      </trkpt>
      <trkpt lat="45.46807" lon="4.70767">
        <ele>504</ele>
        <time>2019-09-29T08:18:29.000Z</time>
      </trkpt>
      <trkpt lat="45.46808" lon="4.70765">
        <ele>504</ele>
        <time>2019-09-29T08:18:46.000Z</time>
      </trkpt>
      <trkpt lat="45.4681" lon="4.70762">
        <ele>504</ele>
        <time>2019-09-29T08:18:49.000Z</time>
      </trkpt>
      <trkpt lat="45.46809" lon="4.70759">
        <ele>505</ele>
        <time>2019-09-29T08:18:53.000Z</time>
      </trkpt>
      <trkpt lat="45.46809" lon="4.70757">
        <ele>504.73999692804</ele>
        <time>2019-09-29T08:19:09.000Z</time>
      </trkpt>
      <trkpt lat="45.4681" lon="4.70755">
        <ele>504.26000307196</ele>
        <time>2019-09-29T08:19:11.000Z</time>
      </trkpt>
      <trkpt lat="45.4681" lon="4.70752">
        <ele>505</ele>
        <time>2019-09-29T08:19:13.000Z</time>
      </trkpt>
      <trkpt lat="45.4681" lon="4.70748">
        <ele>505</ele>
        <time>2019-09-29T08:19:15.000Z</time>
      </trkpt>
      <trkpt lat="45.46808" lon="4.70745">
        <ele>505</ele>
        <time>2019-09-29T08:19:17.000Z</time>
      </trkpt>
      <trkpt lat="45.46808" lon="4.70742">
        <ele>505</ele>
        <time>2019-09-29T08:19:19.000Z</time>
      </trkpt>
      <trkpt lat="45.46806" lon="4.7074">
        <ele>505</ele>
        <time>2019-09-29T08:19:20.000Z</time>
      </trkpt>
      <trkpt lat="45.46806" lon="4.70736">
        <ele>505</ele>
        <time>2019-09-29T08:19:22.000Z</time>
      </trkpt>
      <trkpt lat="45.46806" lon="4.70732">
        <ele>505</ele>
        <time>2019-09-29T08:19:24.000Z</time>
      </trkpt>
      <trkpt lat="45.46807" lon="4.70724">
        <ele>505</ele>
        <time>2019-09-29T08:19:28.000Z</time>
      </trkpt>
      <trkpt lat="45.46807" lon="4.70721">
        <ele>505</ele>
        <time>2019-09-29T08:19:30.000Z</time>
      </trkpt>
      <trkpt lat="45.46805" lon="4.70723">
        <ele>506</ele>
        <time>2019-09-29T08:19:36.000Z</time>
      </trkpt>
      <trkpt lat="45.46805" lon="4.7072">
        <ele>507</ele>
        <time>2019-09-29T08:19:42.000Z</time>
      </trkpt>
      <trkpt lat="45.46805" lon="4.70716">
        <ele>507</ele>
        <time>2019-09-29T08:19:46.000Z</time>
      </trkpt>
      <trkpt lat="45.46805" lon="4.70712">
        <ele>507</ele>
        <time>2019-09-29T08:19:48.000Z</time>
      </trkpt>
      <trkpt lat="45.46806" lon="4.70709">
        <ele>507</ele>
        <time>2019-09-29T08:19:50.000Z</time>
      </trkpt>
      <trkpt lat="45.46808" lon="4.70706">
        <ele>508</ele>
        <time>2019-09-29T08:19:52.000Z</time>
      </trkpt>
      <trkpt lat="45.46809" lon="4.70702">
        <ele>508</ele>
        <time>2019-09-29T08:19:54.000Z</time>
      </trkpt>
      <trkpt lat="45.46811" lon="4.70698">
        <ele>508</ele>
        <time>2019-09-29T08:19:56.000Z</time>
      </trkpt>
      <trkpt lat="45.46813" lon="4.70695">
        <ele>509</ele>
        <time>2019-09-29T08:19:58.000Z</time>
      </trkpt>
      <trkpt lat="45.46815" lon="4.70692">
        <ele>509</ele>
        <time>2019-09-29T08:20:00.000Z</time>
      </trkpt>
      <trkpt lat="45.46816" lon="4.70689">
        <ele>509.25999692796</ele>
        <time>2019-09-29T08:20:02.000Z</time>
      </trkpt>
      <trkpt lat="45.46819" lon="4.70686">
        <ele>510</ele>
        <time>2019-09-29T08:20:04.000Z</time>
      </trkpt>
      <trkpt lat="45.46821" lon="4.70683">
        <ele>510</ele>
        <time>2019-09-29T08:20:06.000Z</time>
      </trkpt>
      <trkpt lat="45.46823" lon="4.70681">
        <ele>511</ele>
        <time>2019-09-29T08:20:08.000Z</time>
      </trkpt>
      <trkpt lat="45.46825" lon="4.70678">
        <ele>511</ele>
        <time>2019-09-29T08:20:10.000Z</time>
      </trkpt>
      <trkpt lat="45.46827" lon="4.70675">
        <ele>511</ele>
        <time>2019-09-29T08:20:12.000Z</time>
      </trkpt>
      <trkpt lat="45.46828" lon="4.70673">
        <ele>511</ele>
        <time>2019-09-29T08:20:13.000Z</time>
      </trkpt>
      <trkpt lat="45.4683" lon="4.70669">
        <ele>511</ele>
        <time>2019-09-29T08:20:15.000Z</time>
      </trkpt>
      <trkpt lat="45.46832" lon="4.70665">
        <ele>512</ele>
        <time>2019-09-29T08:20:17.000Z</time>
      </trkpt>
      <trkpt lat="45.46834" lon="4.70662">
        <ele>512</ele>
        <time>2019-09-29T08:20:19.000Z</time>
      </trkpt>
      <trkpt lat="45.46835" lon="4.70659">
        <ele>512</ele>
        <time>2019-09-29T08:20:21.000Z</time>
      </trkpt>
      <trkpt lat="45.46837" lon="4.70655">
        <ele>512.26000307196</ele>
        <time>2019-09-29T08:20:23.000Z</time>
      </trkpt>
      <trkpt lat="45.46839" lon="4.70652">
        <ele>513</ele>
        <time>2019-09-29T08:20:25.000Z</time>
      </trkpt>
      <trkpt lat="45.4684" lon="4.70649">
        <ele>513</ele>
        <time>2019-09-29T08:20:27.000Z</time>
      </trkpt>
      <trkpt lat="45.46842" lon="4.70646">
        <ele>513</ele>
        <time>2019-09-29T08:20:29.000Z</time>
      </trkpt>
      <trkpt lat="45.46843" lon="4.70643">
        <ele>513.19531</ele>
        <time>2019-09-29T08:20:31.000Z</time>
      </trkpt>
      <trkpt lat="45.46844" lon="4.7064">
        <ele>514</ele>
        <time>2019-09-29T08:20:33.000Z</time>
      </trkpt>
      <trkpt lat="45.46845" lon="4.70636">
        <ele>514</ele>
        <time>2019-09-29T08:20:35.000Z</time>
      </trkpt>
      <trkpt lat="45.46846" lon="4.70633">
        <ele>514.26000307196</ele>
        <time>2019-09-29T08:20:37.000Z</time>
      </trkpt>
      <trkpt lat="45.46848" lon="4.70629">
        <ele>515</ele>
        <time>2019-09-29T08:20:39.000Z</time>
      </trkpt>
      <trkpt lat="45.46849" lon="4.70626">
        <ele>515</ele>
        <time>2019-09-29T08:20:41.000Z</time>
      </trkpt>
      <trkpt lat="45.46851" lon="4.70623">
        <ele>516</ele>
        <time>2019-09-29T08:20:43.000Z</time>
      </trkpt>
      <trkpt lat="45.46853" lon="4.7062">
        <ele>516</ele>
        <time>2019-09-29T08:20:45.000Z</time>
      </trkpt>
      <trkpt lat="45.46855" lon="4.70617">
        <ele>516</ele>
        <time>2019-09-29T08:20:47.000Z</time>
      </trkpt>
      <trkpt lat="45.46857" lon="4.70614">
        <ele>517</ele>
        <time>2019-09-29T08:20:49.000Z</time>
      </trkpt>
      <trkpt lat="45.46859" lon="4.70611">
        <ele>517</ele>
        <time>2019-09-29T08:20:51.000Z</time>
      </trkpt>
      <trkpt lat="45.46861" lon="4.70607">
        <ele>517</ele>
        <time>2019-09-29T08:20:53.000Z</time>
      </trkpt>
      <trkpt lat="45.46862" lon="4.70603">
        <ele>517</ele>
        <time>2019-09-29T08:20:55.000Z</time>
      </trkpt>
      <trkpt lat="45.46863" lon="4.706">
        <ele>517.26000307196</ele>
        <time>2019-09-29T08:20:57.000Z</time>
      </trkpt>
      <trkpt lat="45.46863" lon="4.70597">
        <ele>518</ele>
        <time>2019-09-29T08:21:00.000Z</time>
      </trkpt>
      <trkpt lat="45.46862" lon="4.70593">
        <ele>518</ele>
        <time>2019-09-29T08:21:04.000Z</time>
      </trkpt>
      <trkpt lat="45.46863" lon="4.70596">
        <ele>519</ele>
        <time>2019-09-29T08:21:09.000Z</time>
      </trkpt>
      <trkpt lat="45.46862" lon="4.70598">
        <ele>519</ele>
        <time>2019-09-29T08:21:12.000Z</time>
      </trkpt>
      <trkpt lat="45.4686" lon="4.70601">
        <ele>518.03076907929</ele>
        <time>2019-09-29T08:21:14.000Z</time>
      </trkpt>
      <trkpt lat="45.46858" lon="4.70604">
        <ele>518</ele>
        <time>2019-09-29T08:21:16.000Z</time>
      </trkpt>
      <trkpt lat="45.46857" lon="4.70607">
        <ele>518</ele>
        <time>2019-09-29T08:21:18.000Z</time>
      </trkpt>
      <trkpt lat="45.46856" lon="4.7061">
        <ele>518</ele>
        <time>2019-09-29T08:21:20.000Z</time>
      </trkpt>
      <trkpt lat="45.46854" lon="4.70613">
        <ele>518</ele>
        <time>2019-09-29T08:21:22.000Z</time>
      </trkpt>
      <trkpt lat="45.46853" lon="4.70615">
        <ele>518</ele>
        <time>2019-09-29T08:21:24.000Z</time>
      </trkpt>
      <trkpt lat="45.46854" lon="4.70617">
        <ele>518</ele>
        <time>2019-09-29T08:21:31.000Z</time>
      </trkpt>
      <trkpt lat="45.46856" lon="4.70618">
        <ele>518</ele>
        <time>2019-09-29T08:21:36.000Z</time>
      </trkpt>
      <trkpt lat="45.46858" lon="4.70617">
        <ele>518</ele>
        <time>2019-09-29T08:21:39.000Z</time>
      </trkpt>
      <trkpt lat="45.4686" lon="4.70615">
        <ele>518</ele>
        <time>2019-09-29T08:21:41.000Z</time>
      </trkpt>
      <trkpt lat="45.46862" lon="4.70611">
        <ele>518</ele>
        <time>2019-09-29T08:21:43.000Z</time>
      </trkpt>
      <trkpt lat="45.46862" lon="4.70608">
        <ele>518</ele>
        <time>2019-09-29T08:21:45.000Z</time>
      </trkpt>
      <trkpt lat="45.46863" lon="4.70604">
        <ele>518</ele>
        <time>2019-09-29T08:21:47.000Z</time>
      </trkpt>
      <trkpt lat="45.46863" lon="4.706">
        <ele>517.73999692804</ele>
        <time>2019-09-29T08:21:49.000Z</time>
      </trkpt>
      <trkpt lat="45.46864" lon="4.70596">
        <ele>517</ele>
        <time>2019-09-29T08:21:51.000Z</time>
      </trkpt>
      <trkpt lat="45.46864" lon="4.70593">
        <ele>517</ele>
        <time>2019-09-29T08:21:53.000Z</time>
      </trkpt>
      <trkpt lat="45.46865" lon="4.7059">
        <ele>517.26000307196</ele>
        <time>2019-09-29T08:21:55.000Z</time>
      </trkpt>
      <trkpt lat="45.46865" lon="4.70585">
        <ele>518</ele>
        <time>2019-09-29T08:21:57.000Z</time>
      </trkpt>
      <trkpt lat="45.46866" lon="4.70581">
        <ele>518</ele>
        <time>2019-09-29T08:21:59.000Z</time>
      </trkpt>
      <trkpt lat="45.46866" lon="4.70576">
        <ele>518</ele>
        <time>2019-09-29T08:22:01.000Z</time>
      </trkpt>
      <trkpt lat="45.46866" lon="4.70574">
        <ele>518</ele>
        <time>2019-09-29T08:22:03.000Z</time>
      </trkpt>
      <trkpt lat="45.46865" lon="4.70576">
        <ele>518</ele>
        <time>2019-09-29T08:22:06.000Z</time>
      </trkpt>
      <trkpt lat="45.46864" lon="4.7058">
        <ele>518</ele>
        <time>2019-09-29T08:22:09.000Z</time>
      </trkpt>
      <trkpt lat="45.46863" lon="4.70582">
        <ele>517</ele>
        <time>2019-09-29T08:22:11.000Z</time>
      </trkpt>
      <trkpt lat="45.46862" lon="4.70585">
        <ele>517</ele>
        <time>2019-09-29T08:22:13.000Z</time>
      </trkpt>
      <trkpt lat="45.46864" lon="4.70587">
        <ele>519</ele>
        <time>2019-09-29T08:22:18.000Z</time>
      </trkpt>
      <trkpt lat="45.46865" lon="4.70585">
        <ele>519</ele>
        <time>2019-09-29T08:22:20.000Z</time>
      </trkpt>
      <trkpt lat="45.46866" lon="4.70581">
        <ele>519</ele>
        <time>2019-09-29T08:22:25.000Z</time>
      </trkpt>
      <trkpt lat="45.46866" lon="4.70577">
        <ele>519</ele>
        <time>2019-09-29T08:22:27.000Z</time>
      </trkpt>
      <trkpt lat="45.46866" lon="4.70574">
        <ele>519</ele>
        <time>2019-09-29T08:22:29.000Z</time>
      </trkpt>
      <trkpt lat="45.46867" lon="4.7057">
        <ele>520</ele>
        <time>2019-09-29T08:22:31.000Z</time>
      </trkpt>
      <trkpt lat="45.46868" lon="4.70566">
        <ele>520</ele>
        <time>2019-09-29T08:22:33.000Z</time>
      </trkpt>
      <trkpt lat="45.46868" lon="4.70563">
        <ele>520</ele>
        <time>2019-09-29T08:22:34.000Z</time>
      </trkpt>
      <trkpt lat="45.46868" lon="4.7056">
        <ele>520</ele>
        <time>2019-09-29T08:22:35.000Z</time>
      </trkpt>
      <trkpt lat="45.46867" lon="4.70557">
        <ele>520.25999692796</ele>
        <time>2019-09-29T08:22:36.000Z</time>
      </trkpt>
      <trkpt lat="45.46867" lon="4.70555">
        <ele>521</ele>
        <time>2019-09-29T08:22:37.000Z</time>
      </trkpt>
      <trkpt lat="45.46867" lon="4.7055">
        <ele>521</ele>
        <time>2019-09-29T08:22:39.000Z</time>
      </trkpt>
      <trkpt lat="45.46867" lon="4.70547">
        <ele>521</ele>
        <time>2019-09-29T08:22:40.000Z</time>
      </trkpt>
      <trkpt lat="45.46867" lon="4.70542">
        <ele>521</ele>
        <time>2019-09-29T08:22:42.000Z</time>
      </trkpt>
      <trkpt lat="45.46868" lon="4.70539">
        <ele>521</ele>
        <time>2019-09-29T08:22:43.000Z</time>
      </trkpt>
      <trkpt lat="45.46868" lon="4.70536">
        <ele>521</ele>
        <time>2019-09-29T08:22:44.000Z</time>
      </trkpt>
      <trkpt lat="45.46868" lon="4.70533">
        <ele>521</ele>
        <time>2019-09-29T08:22:45.000Z</time>
      </trkpt>
      <trkpt lat="45.46868" lon="4.7053">
        <ele>521</ele>
        <time>2019-09-29T08:22:46.000Z</time>
      </trkpt>
      <trkpt lat="45.46868" lon="4.70527">
        <ele>521</ele>
        <time>2019-09-29T08:22:47.000Z</time>
      </trkpt>
      <trkpt lat="45.46868" lon="4.70525">
        <ele>521</ele>
        <time>2019-09-29T08:22:48.000Z</time>
      </trkpt>
      <trkpt lat="45.46869" lon="4.70522">
        <ele>521</ele>
        <time>2019-09-29T08:22:49.000Z</time>
      </trkpt>
      <trkpt lat="45.46869" lon="4.70519">
        <ele>521</ele>
        <time>2019-09-29T08:22:50.000Z</time>
      </trkpt>
      <trkpt lat="45.46869" lon="4.70516">
        <ele>521</ele>
        <time>2019-09-29T08:22:51.000Z</time>
      </trkpt>
      <trkpt lat="45.4687" lon="4.70513">
        <ele>521</ele>
        <time>2019-09-29T08:22:52.000Z</time>
      </trkpt>
      <trkpt lat="45.4687" lon="4.7051">
        <ele>521.26000307196</ele>
        <time>2019-09-29T08:22:53.000Z</time>
      </trkpt>
      <trkpt lat="45.46869" lon="4.70507">
        <ele>522</ele>
        <time>2019-09-29T08:22:54.000Z</time>
      </trkpt>
      <trkpt lat="45.46869" lon="4.70505">
        <ele>522</ele>
        <time>2019-09-29T08:22:55.000Z</time>
      </trkpt>
      <trkpt lat="45.46869" lon="4.70502">
        <ele>522</ele>
        <time>2019-09-29T08:22:56.000Z</time>
      </trkpt>
      <trkpt lat="45.46869" lon="4.70499">
        <ele>522</ele>
        <time>2019-09-29T08:22:57.000Z</time>
      </trkpt>
      <trkpt lat="45.46869" lon="4.70494">
        <ele>522</ele>
        <time>2019-09-29T08:22:59.000Z</time>
      </trkpt>
      <trkpt lat="45.46869" lon="4.70489">
        <ele>522</ele>
        <time>2019-09-29T08:23:01.000Z</time>
      </trkpt>
      <trkpt lat="45.4687" lon="4.70484">
        <ele>522</ele>
        <time>2019-09-29T08:23:03.000Z</time>
      </trkpt>
      <trkpt lat="45.4687" lon="4.70482">
        <ele>522</ele>
        <time>2019-09-29T08:23:04.000Z</time>
      </trkpt>
      <trkpt lat="45.46869" lon="4.70477">
        <ele>522.25999692796</ele>
        <time>2019-09-29T08:23:06.000Z</time>
      </trkpt>
      <trkpt lat="45.46869" lon="4.70474">
        <ele>523</ele>
        <time>2019-09-29T08:23:07.000Z</time>
      </trkpt>
      <trkpt lat="45.46869" lon="4.70471">
        <ele>523</ele>
        <time>2019-09-29T08:23:08.000Z</time>
      </trkpt>
      <trkpt lat="45.4687" lon="4.70467">
        <ele>523.24489955853</ele>
        <time>2019-09-29T08:23:10.000Z</time>
      </trkpt>
      <trkpt lat="45.4687" lon="4.70464">
        <ele>524</ele>
        <time>2019-09-29T08:23:12.000Z</time>
      </trkpt>
      <trkpt lat="45.4687" lon="4.70461">
        <ele>525</ele>
        <time>2019-09-29T08:23:28.000Z</time>
      </trkpt>
      <trkpt lat="45.46869" lon="4.70457">
        <ele>525</ele>
        <time>2019-09-29T08:23:30.000Z</time>
      </trkpt>
      <trkpt lat="45.46869" lon="4.70453">
        <ele>525</ele>
        <time>2019-09-29T08:23:32.000Z</time>
      </trkpt>
      <trkpt lat="45.46869" lon="4.70449">
        <ele>525</ele>
        <time>2019-09-29T08:23:34.000Z</time>
      </trkpt>
      <trkpt lat="45.46868" lon="4.70445">
        <ele>525</ele>
        <time>2019-09-29T08:23:36.000Z</time>
      </trkpt>
      <trkpt lat="45.46868" lon="4.70442">
        <ele>525.25999692796</ele>
        <time>2019-09-29T08:23:38.000Z</time>
      </trkpt>
      <trkpt lat="45.46868" lon="4.70439">
        <ele>526</ele>
        <time>2019-09-29T08:23:40.000Z</time>
      </trkpt>
      <trkpt lat="45.46868" lon="4.70436">
        <ele>526</ele>
        <time>2019-09-29T08:23:42.000Z</time>
      </trkpt>
      <trkpt lat="45.46868" lon="4.70432">
        <ele>527</ele>
        <time>2019-09-29T08:23:44.000Z</time>
      </trkpt>
      <trkpt lat="45.46869" lon="4.7043">
        <ele>527</ele>
        <time>2019-09-29T08:23:56.000Z</time>
      </trkpt>
      <trkpt lat="45.4687" lon="4.70426">
        <ele>527.25999692796</ele>
        <time>2019-09-29T08:23:58.000Z</time>
      </trkpt>
      <trkpt lat="45.4687" lon="4.70422">
        <ele>528</ele>
        <time>2019-09-29T08:24:00.000Z</time>
      </trkpt>
      <trkpt lat="45.46871" lon="4.70418">
        <ele>528</ele>
        <time>2019-09-29T08:24:02.000Z</time>
      </trkpt>
      <trkpt lat="45.46871" lon="4.70414">
        <ele>529</ele>
        <time>2019-09-29T08:24:04.000Z</time>
      </trkpt>
      <trkpt lat="45.46872" lon="4.70411">
        <ele>529</ele>
        <time>2019-09-29T08:24:06.000Z</time>
      </trkpt>
      <trkpt lat="45.46872" lon="4.70407">
        <ele>530</ele>
        <time>2019-09-29T08:24:08.000Z</time>
      </trkpt>
      <trkpt lat="45.46872" lon="4.70403">
        <ele>530.26000307196</ele>
        <time>2019-09-29T08:24:13.000Z</time>
      </trkpt>
      <trkpt lat="45.46872" lon="4.70401">
        <ele>531.26000307196</ele>
        <time>2019-09-29T08:24:17.000Z</time>
      </trkpt>
      <trkpt lat="45.46873" lon="4.70398">
        <ele>532</ele>
        <time>2019-09-29T08:24:20.000Z</time>
      </trkpt>
      <trkpt lat="45.46874" lon="4.70395">
        <ele>532</ele>
        <time>2019-09-29T08:24:22.000Z</time>
      </trkpt>
      <trkpt lat="45.46876" lon="4.70393">
        <ele>532.25252446892</ele>
        <time>2019-09-29T08:24:24.000Z</time>
      </trkpt>
      <trkpt lat="45.46877" lon="4.7039">
        <ele>533</ele>
        <time>2019-09-29T08:24:26.000Z</time>
      </trkpt>
      <trkpt lat="45.4688" lon="4.70387">
        <ele>533</ele>
        <time>2019-09-29T08:24:29.000Z</time>
      </trkpt>
      <trkpt lat="45.46882" lon="4.70386">
        <ele>533</ele>
        <time>2019-09-29T08:24:30.000Z</time>
      </trkpt>
      <trkpt lat="45.46885" lon="4.70385">
        <ele>533</ele>
        <time>2019-09-29T08:24:31.000Z</time>
      </trkpt>
      <trkpt lat="45.46887" lon="4.70383">
        <ele>533</ele>
        <time>2019-09-29T08:24:32.000Z</time>
      </trkpt>
      <trkpt lat="45.4689" lon="4.70382">
        <ele>533</ele>
        <time>2019-09-29T08:24:33.000Z</time>
      </trkpt>
      <trkpt lat="45.46893" lon="4.70381">
        <ele>533</ele>
        <time>2019-09-29T08:24:34.000Z</time>
      </trkpt>
      <trkpt lat="45.46896" lon="4.70381">
        <ele>533</ele>
        <time>2019-09-29T08:24:35.000Z</time>
      </trkpt>
      <trkpt lat="45.46899" lon="4.7038">
        <ele>533</ele>
        <time>2019-09-29T08:24:36.000Z</time>
      </trkpt>
      <trkpt lat="45.46902" lon="4.70381">
        <ele>533</ele>
        <time>2019-09-29T08:24:37.000Z</time>
      </trkpt>
      <trkpt lat="45.46905" lon="4.70382">
        <ele>532.81102409821</ele>
        <time>2019-09-29T08:24:38.000Z</time>
      </trkpt>
      <trkpt lat="45.46908" lon="4.70383">
        <ele>532.0236245074</ele>
        <time>2019-09-29T08:24:39.000Z</time>
      </trkpt>
      <trkpt lat="45.46911" lon="4.70385">
        <ele>532</ele>
        <time>2019-09-29T08:24:40.000Z</time>
      </trkpt>
      <trkpt lat="45.46913" lon="4.70388">
        <ele>531.73999692804</ele>
        <time>2019-09-29T08:24:41.000Z</time>
      </trkpt>
      <trkpt lat="45.46915" lon="4.70391">
        <ele>531</ele>
        <time>2019-09-29T08:24:42.000Z</time>
      </trkpt>
      <trkpt lat="45.46917" lon="4.70394">
        <ele>531</ele>
        <time>2019-09-29T08:24:43.000Z</time>
      </trkpt>
      <trkpt lat="45.46919" lon="4.70396">
        <ele>531</ele>
        <time>2019-09-29T08:24:44.000Z</time>
      </trkpt>
      <trkpt lat="45.46921" lon="4.70399">
        <ele>531</ele>
        <time>2019-09-29T08:24:45.000Z</time>
      </trkpt>
      <trkpt lat="45.46923" lon="4.70401">
        <ele>531</ele>
        <time>2019-09-29T08:24:46.000Z</time>
      </trkpt>
      <trkpt lat="45.46925" lon="4.70403">
        <ele>531</ele>
        <time>2019-09-29T08:24:47.000Z</time>
      </trkpt>
      <trkpt lat="45.46927" lon="4.70405">
        <ele>531</ele>
        <time>2019-09-29T08:24:48.000Z</time>
      </trkpt>
      <trkpt lat="45.46929" lon="4.70406">
        <ele>531</ele>
        <time>2019-09-29T08:24:49.000Z</time>
      </trkpt>
      <trkpt lat="45.46931" lon="4.70407">
        <ele>531</ele>
        <time>2019-09-29T08:24:50.000Z</time>
      </trkpt>
      <trkpt lat="45.46929" lon="4.70407">
        <ele>530</ele>
        <time>2019-09-29T08:25:21.000Z</time>
      </trkpt>
      <trkpt lat="45.46929" lon="4.70409">
        <ele>531</ele>
        <time>2019-09-29T08:25:28.000Z</time>
      </trkpt>
      <trkpt lat="45.4693" lon="4.70412">
        <ele>531</ele>
        <time>2019-09-29T08:25:30.000Z</time>
      </trkpt>
      <trkpt lat="45.46932" lon="4.70412">
        <ele>532</ele>
        <time>2019-09-29T08:27:00.000Z</time>
      </trkpt>
      <trkpt lat="45.46933" lon="4.70411">
        <ele>531.73999692804</ele>
        <time>2019-09-29T08:27:55.000Z</time>
      </trkpt>
      <trkpt lat="45.46933" lon="4.70408">
        <ele>530</ele>
        <time>2019-09-29T08:28:26.000Z</time>
      </trkpt>
      <trkpt lat="45.46931" lon="4.70407">
        <ele>530</ele>
        <time>2019-09-29T08:28:29.000Z</time>
      </trkpt>
      <trkpt lat="45.46932" lon="4.70409">
        <ele>530</ele>
        <time>2019-09-29T08:28:32.000Z</time>
      </trkpt>
      <trkpt lat="45.46933" lon="4.70412">
        <ele>530</ele>
        <time>2019-09-29T08:28:35.000Z</time>
      </trkpt>
      <trkpt lat="45.46934" lon="4.7041">
        <ele>530</ele>
        <time>2019-09-29T08:29:12.000Z</time>
      </trkpt>
      <trkpt lat="45.46937" lon="4.70407">
        <ele>530</ele>
        <time>2019-09-29T08:29:14.000Z</time>
      </trkpt>
      <trkpt lat="45.46938" lon="4.70405">
        <ele>530</ele>
        <time>2019-09-29T08:29:15.000Z</time>
      </trkpt>
      <trkpt lat="45.4694" lon="4.70404">
        <ele>530</ele>
        <time>2019-09-29T08:29:16.000Z</time>
      </trkpt>
      <trkpt lat="45.46941" lon="4.70402">
        <ele>530.26000307196</ele>
        <time>2019-09-29T08:29:17.000Z</time>
      </trkpt>
      <trkpt lat="45.46944" lon="4.704">
        <ele>531</ele>
        <time>2019-09-29T08:29:19.000Z</time>
      </trkpt>
      <trkpt lat="45.46947" lon="4.70398">
        <ele>531</ele>
        <time>2019-09-29T08:29:21.000Z</time>
      </trkpt>
      <trkpt lat="45.4695" lon="4.70395">
        <ele>530</ele>
        <time>2019-09-29T08:29:23.000Z</time>
      </trkpt>
      <trkpt lat="45.46951" lon="4.70393">
        <ele>530</ele>
        <time>2019-09-29T08:29:24.000Z</time>
      </trkpt>
      <trkpt lat="45.46953" lon="4.70393">
        <ele>531</ele>
        <time>2019-09-29T08:29:25.000Z</time>
      </trkpt>
      <trkpt lat="45.46956" lon="4.70393">
        <ele>531</ele>
        <time>2019-09-29T08:29:26.000Z</time>
      </trkpt>
      <trkpt lat="45.46959" lon="4.70393">
        <ele>531</ele>
        <time>2019-09-29T08:29:27.000Z</time>
      </trkpt>
      <trkpt lat="45.46962" lon="4.70393">
        <ele>531</ele>
        <time>2019-09-29T08:29:28.000Z</time>
      </trkpt>
      <trkpt lat="45.46966" lon="4.70392">
        <ele>531</ele>
        <time>2019-09-29T08:29:29.000Z</time>
      </trkpt>
      <trkpt lat="45.4697" lon="4.70391">
        <ele>531</ele>
        <time>2019-09-29T08:29:30.000Z</time>
      </trkpt>
      <trkpt lat="45.46974" lon="4.7039">
        <ele>531</ele>
        <time>2019-09-29T08:29:31.000Z</time>
      </trkpt>
      <trkpt lat="45.46978" lon="4.70388">
        <ele>531</ele>
        <time>2019-09-29T08:29:32.000Z</time>
      </trkpt>
      <trkpt lat="45.46982" lon="4.70386">
        <ele>531</ele>
        <time>2019-09-29T08:29:33.000Z</time>
      </trkpt>
      <trkpt lat="45.46986" lon="4.70384">
        <ele>530.7500032</ele>
        <time>2019-09-29T08:29:34.000Z</time>
      </trkpt>
      <trkpt lat="45.46991" lon="4.70382">
        <ele>530</ele>
        <time>2019-09-29T08:29:35.000Z</time>
      </trkpt>
      <trkpt lat="45.46995" lon="4.70379">
        <ele>530</ele>
        <time>2019-09-29T08:29:36.000Z</time>
      </trkpt>
      <trkpt lat="45.47" lon="4.70377">
        <ele>530</ele>
        <time>2019-09-29T08:29:37.000Z</time>
      </trkpt>
      <trkpt lat="45.47005" lon="4.70374">
        <ele>530</ele>
        <time>2019-09-29T08:29:38.000Z</time>
      </trkpt>
      <trkpt lat="45.4701" lon="4.70371">
        <ele>530</ele>
        <time>2019-09-29T08:29:39.000Z</time>
      </trkpt>
      <trkpt lat="45.47015" lon="4.70368">
        <ele>530</ele>
        <time>2019-09-29T08:29:40.000Z</time>
      </trkpt>
      <trkpt lat="45.47019" lon="4.70365">
        <ele>530</ele>
        <time>2019-09-29T08:29:41.000Z</time>
      </trkpt>
      <trkpt lat="45.47023" lon="4.70363">
        <ele>530</ele>
        <time>2019-09-29T08:29:42.000Z</time>
      </trkpt>
      <trkpt lat="45.47026" lon="4.70361">
        <ele>530</ele>
        <time>2019-09-29T08:29:43.000Z</time>
      </trkpt>
      <trkpt lat="45.47028" lon="4.70361">
        <ele>530</ele>
        <time>2019-09-29T08:29:44.000Z</time>
      </trkpt>
      <trkpt lat="45.47031" lon="4.70361">
        <ele>530.26000307196</ele>
        <time>2019-09-29T08:29:45.000Z</time>
      </trkpt>
      <trkpt lat="45.47033" lon="4.7036">
        <ele>531</ele>
        <time>2019-09-29T08:29:46.000Z</time>
      </trkpt>
      <trkpt lat="45.47035" lon="4.7036">
        <ele>531</ele>
        <time>2019-09-29T08:29:47.000Z</time>
      </trkpt>
      <trkpt lat="45.47037" lon="4.70359">
        <ele>531</ele>
        <time>2019-09-29T08:29:53.000Z</time>
      </trkpt>
      <trkpt lat="45.47039" lon="4.70358">
        <ele>531</ele>
        <time>2019-09-29T08:30:02.000Z</time>
      </trkpt>
      <trkpt lat="45.47042" lon="4.70357">
        <ele>531</ele>
        <time>2019-09-29T08:30:04.000Z</time>
      </trkpt>
      <trkpt lat="45.47045" lon="4.70355">
        <ele>532</ele>
        <time>2019-09-29T08:30:06.000Z</time>
      </trkpt>
      <trkpt lat="45.47047" lon="4.70355">
        <ele>532</ele>
        <time>2019-09-29T08:30:07.000Z</time>
      </trkpt>
      <trkpt lat="45.47049" lon="4.70355">
        <ele>532</ele>
        <time>2019-09-29T08:30:08.000Z</time>
      </trkpt>
      <trkpt lat="45.47051" lon="4.70355">
        <ele>532</ele>
        <time>2019-09-29T08:30:09.000Z</time>
      </trkpt>
      <trkpt lat="45.47054" lon="4.70357">
        <ele>532</ele>
        <time>2019-09-29T08:30:11.000Z</time>
      </trkpt>
      <trkpt lat="45.47056" lon="4.70358">
        <ele>532</ele>
        <time>2019-09-29T08:30:12.000Z</time>
      </trkpt>
      <trkpt lat="45.47058" lon="4.70358">
        <ele>532</ele>
        <time>2019-09-29T08:30:13.000Z</time>
      </trkpt>
      <trkpt lat="45.4706" lon="4.70359">
        <ele>532</ele>
        <time>2019-09-29T08:30:14.000Z</time>
      </trkpt>
      <trkpt lat="45.47062" lon="4.7036">
        <ele>532</ele>
        <time>2019-09-29T08:30:15.000Z</time>
      </trkpt>
      <trkpt lat="45.47064" lon="4.7036">
        <ele>532.25999692796</ele>
        <time>2019-09-29T08:30:16.000Z</time>
      </trkpt>
      <trkpt lat="45.47066" lon="4.70361">
        <ele>533</ele>
        <time>2019-09-29T08:30:17.000Z</time>
      </trkpt>
      <trkpt lat="45.47068" lon="4.70362">
        <ele>533</ele>
        <time>2019-09-29T08:30:18.000Z</time>
      </trkpt>
      <trkpt lat="45.4707" lon="4.70363">
        <ele>533</ele>
        <time>2019-09-29T08:30:19.000Z</time>
      </trkpt>
      <trkpt lat="45.47071" lon="4.70363">
        <ele>533</ele>
        <time>2019-09-29T08:30:20.000Z</time>
      </trkpt>
      <trkpt lat="45.47073" lon="4.70364">
        <ele>533</ele>
        <time>2019-09-29T08:30:21.000Z</time>
      </trkpt>
      <trkpt lat="45.47075" lon="4.70365">
        <ele>533</ele>
        <time>2019-09-29T08:30:22.000Z</time>
      </trkpt>
      <trkpt lat="45.47078" lon="4.70366">
        <ele>534</ele>
        <time>2019-09-29T08:30:24.000Z</time>
      </trkpt>
      <trkpt lat="45.47081" lon="4.70368">
        <ele>534</ele>
        <time>2019-09-29T08:30:26.000Z</time>
      </trkpt>
      <trkpt lat="45.47084" lon="4.70369">
        <ele>534</ele>
        <time>2019-09-29T08:30:28.000Z</time>
      </trkpt>
      <trkpt lat="45.47087" lon="4.70371">
        <ele>534</ele>
        <time>2019-09-29T08:30:30.000Z</time>
      </trkpt>
      <trkpt lat="45.4709" lon="4.70372">
        <ele>534.25252446892</ele>
        <time>2019-09-29T08:30:32.000Z</time>
      </trkpt>
      <trkpt lat="45.47093" lon="4.70373">
        <ele>535</ele>
        <time>2019-09-29T08:30:34.000Z</time>
      </trkpt>
      <trkpt lat="45.47095" lon="4.70375">
        <ele>535</ele>
        <time>2019-09-29T08:30:36.000Z</time>
      </trkpt>
      <trkpt lat="45.47097" lon="4.70377">
        <ele>535</ele>
        <time>2019-09-29T08:30:38.000Z</time>
      </trkpt>
      <trkpt lat="45.47099" lon="4.70378">
        <ele>535</ele>
        <time>2019-09-29T08:30:40.000Z</time>
      </trkpt>
      <trkpt lat="45.47102" lon="4.7038">
        <ele>535</ele>
        <time>2019-09-29T08:30:42.000Z</time>
      </trkpt>
      <trkpt lat="45.47105" lon="4.70381">
        <ele>535</ele>
        <time>2019-09-29T08:30:44.000Z</time>
      </trkpt>
      <trkpt lat="45.47107" lon="4.70384">
        <ele>536</ele>
        <time>2019-09-29T08:30:46.000Z</time>
      </trkpt>
      <trkpt lat="45.47109" lon="4.70386">
        <ele>536</ele>
        <time>2019-09-29T08:30:48.000Z</time>
      </trkpt>
      <trkpt lat="45.47112" lon="4.70388">
        <ele>536.25999692796</ele>
        <time>2019-09-29T08:30:50.000Z</time>
      </trkpt>
      <trkpt lat="45.47114" lon="4.70391">
        <ele>537</ele>
        <time>2019-09-29T08:30:52.000Z</time>
      </trkpt>
      <trkpt lat="45.47117" lon="4.70394">
        <ele>537.25999692796</ele>
        <time>2019-09-29T08:30:54.000Z</time>
      </trkpt>
      <trkpt lat="45.47118" lon="4.70397">
        <ele>538</ele>
        <time>2019-09-29T08:30:56.000Z</time>
      </trkpt>
      <trkpt lat="45.4712" lon="4.704">
        <ele>538</ele>
        <time>2019-09-29T08:30:58.000Z</time>
      </trkpt>
      <trkpt lat="45.47121" lon="4.70404">
        <ele>539</ele>
        <time>2019-09-29T08:31:00.000Z</time>
      </trkpt>
      <trkpt lat="45.47123" lon="4.70406">
        <ele>539</ele>
        <time>2019-09-29T08:31:02.000Z</time>
      </trkpt>
      <trkpt lat="45.47125" lon="4.70409">
        <ele>539.25999692796</ele>
        <time>2019-09-29T08:31:04.000Z</time>
      </trkpt>
      <trkpt lat="45.47126" lon="4.70413">
        <ele>540</ele>
        <time>2019-09-29T08:31:06.000Z</time>
      </trkpt>
      <trkpt lat="45.47127" lon="4.70416">
        <ele>540</ele>
        <time>2019-09-29T08:31:08.000Z</time>
      </trkpt>
      <trkpt lat="45.47128" lon="4.70419">
        <ele>541</ele>
        <time>2019-09-29T08:31:10.000Z</time>
      </trkpt>
      <trkpt lat="45.47129" lon="4.70421">
        <ele>541</ele>
        <time>2019-09-29T08:31:12.000Z</time>
      </trkpt>
      <trkpt lat="45.4713" lon="4.70424">
        <ele>541</ele>
        <time>2019-09-29T08:31:14.000Z</time>
      </trkpt>
      <trkpt lat="45.47131" lon="4.70428">
        <ele>541.25999692796</ele>
        <time>2019-09-29T08:31:16.000Z</time>
      </trkpt>
      <trkpt lat="45.47132" lon="4.70431">
        <ele>542</ele>
        <time>2019-09-29T08:31:22.000Z</time>
      </trkpt>
      <trkpt lat="45.47134" lon="4.70433">
        <ele>542.25999692796</ele>
        <time>2019-09-29T08:31:24.000Z</time>
      </trkpt>
      <trkpt lat="45.47136" lon="4.70436">
        <ele>543</ele>
        <time>2019-09-29T08:31:26.000Z</time>
      </trkpt>
      <trkpt lat="45.47136" lon="4.7044">
        <ele>543.25999692796</ele>
        <time>2019-09-29T08:31:28.000Z</time>
      </trkpt>
      <trkpt lat="45.47137" lon="4.70443">
        <ele>544</ele>
        <time>2019-09-29T08:31:30.000Z</time>
      </trkpt>
      <trkpt lat="45.47138" lon="4.70446">
        <ele>544.25242332356</ele>
        <time>2019-09-29T08:31:32.000Z</time>
      </trkpt>
      <trkpt lat="45.4714" lon="4.70449">
        <ele>545</ele>
        <time>2019-09-29T08:31:34.000Z</time>
      </trkpt>
      <trkpt lat="45.47141" lon="4.70452">
        <ele>545</ele>
        <time>2019-09-29T08:31:36.000Z</time>
      </trkpt>
      <trkpt lat="45.47142" lon="4.70455">
        <ele>546</ele>
        <time>2019-09-29T08:31:38.000Z</time>
      </trkpt>
      <trkpt lat="45.47144" lon="4.70457">
        <ele>546</ele>
        <time>2019-09-29T08:31:40.000Z</time>
      </trkpt>
      <trkpt lat="45.47146" lon="4.70458">
        <ele>546.25999692796</ele>
        <time>2019-09-29T08:31:42.000Z</time>
      </trkpt>
      <trkpt lat="45.47148" lon="4.70461">
        <ele>547</ele>
        <time>2019-09-29T08:31:44.000Z</time>
      </trkpt>
      <trkpt lat="45.4715" lon="4.70464">
        <ele>548</ele>
        <time>2019-09-29T08:31:46.000Z</time>
      </trkpt>
      <trkpt lat="45.47152" lon="4.70466">
        <ele>548</ele>
        <time>2019-09-29T08:31:48.000Z</time>
      </trkpt>
      <trkpt lat="45.47154" lon="4.70467">
        <ele>548.25999692796</ele>
        <time>2019-09-29T08:31:50.000Z</time>
      </trkpt>
      <trkpt lat="45.47156" lon="4.70469">
        <ele>549</ele>
        <time>2019-09-29T08:31:52.000Z</time>
      </trkpt>
      <trkpt lat="45.47158" lon="4.70472">
        <ele>549</ele>
        <time>2019-09-29T08:31:54.000Z</time>
      </trkpt>
      <trkpt lat="45.4716" lon="4.70475">
        <ele>549</ele>
        <time>2019-09-29T08:31:56.000Z</time>
      </trkpt>
      <trkpt lat="45.47162" lon="4.70478">
        <ele>550</ele>
        <time>2019-09-29T08:31:58.000Z</time>
      </trkpt>
      <trkpt lat="45.47163" lon="4.7048">
        <ele>550</ele>
        <time>2019-09-29T08:32:00.000Z</time>
      </trkpt>
      <trkpt lat="45.47166" lon="4.70482">
        <ele>550</ele>
        <time>2019-09-29T08:32:02.000Z</time>
      </trkpt>
      <trkpt lat="45.47168" lon="4.70484">
        <ele>551</ele>
        <time>2019-09-29T08:32:04.000Z</time>
      </trkpt>
      <trkpt lat="45.4717" lon="4.70487">
        <ele>551</ele>
        <time>2019-09-29T08:32:06.000Z</time>
      </trkpt>
      <trkpt lat="45.47172" lon="4.70489">
        <ele>551.25999692796</ele>
        <time>2019-09-29T08:32:08.000Z</time>
      </trkpt>
      <trkpt lat="45.47174" lon="4.70493">
        <ele>552</ele>
        <time>2019-09-29T08:32:10.000Z</time>
      </trkpt>
      <trkpt lat="45.47176" lon="4.70496">
        <ele>552</ele>
        <time>2019-09-29T08:32:12.000Z</time>
      </trkpt>
      <trkpt lat="45.47178" lon="4.70498">
        <ele>553</ele>
        <time>2019-09-29T08:32:14.000Z</time>
      </trkpt>
      <trkpt lat="45.4718" lon="4.70502">
        <ele>553</ele>
        <time>2019-09-29T08:32:16.000Z</time>
      </trkpt>
      <trkpt lat="45.47181" lon="4.70505">
        <ele>553.25999692796</ele>
        <time>2019-09-29T08:32:18.000Z</time>
      </trkpt>
      <trkpt lat="45.47183" lon="4.70507">
        <ele>554</ele>
        <time>2019-09-29T08:32:20.000Z</time>
      </trkpt>
      <trkpt lat="45.47185" lon="4.7051">
        <ele>554</ele>
        <time>2019-09-29T08:32:22.000Z</time>
      </trkpt>
      <trkpt lat="45.47187" lon="4.70513">
        <ele>554.25999692796</ele>
        <time>2019-09-29T08:32:24.000Z</time>
      </trkpt>
      <trkpt lat="45.47189" lon="4.70514">
        <ele>555</ele>
        <time>2019-09-29T08:32:26.000Z</time>
      </trkpt>
      <trkpt lat="45.47191" lon="4.70515">
        <ele>555</ele>
        <time>2019-09-29T08:32:28.000Z</time>
      </trkpt>
      <trkpt lat="45.47194" lon="4.70517">
        <ele>556</ele>
        <time>2019-09-29T08:32:30.000Z</time>
      </trkpt>
      <trkpt lat="45.47196" lon="4.70518">
        <ele>556.25999692796</ele>
        <time>2019-09-29T08:32:32.000Z</time>
      </trkpt>
      <trkpt lat="45.47198" lon="4.70518">
        <ele>557</ele>
        <time>2019-09-29T08:32:34.000Z</time>
      </trkpt>
      <trkpt lat="45.472" lon="4.70519">
        <ele>557</ele>
        <time>2019-09-29T08:32:36.000Z</time>
      </trkpt>
      <trkpt lat="45.47202" lon="4.70521">
        <ele>557</ele>
        <time>2019-09-29T08:32:38.000Z</time>
      </trkpt>
      <trkpt lat="45.47205" lon="4.70523">
        <ele>558</ele>
        <time>2019-09-29T08:32:40.000Z</time>
      </trkpt>
      <trkpt lat="45.47207" lon="4.70523">
        <ele>558</ele>
        <time>2019-09-29T08:32:42.000Z</time>
      </trkpt>
      <trkpt lat="45.4721" lon="4.70523">
        <ele>558</ele>
        <time>2019-09-29T08:32:44.000Z</time>
      </trkpt>
      <trkpt lat="45.47212" lon="4.70523">
        <ele>559</ele>
        <time>2019-09-29T08:32:46.000Z</time>
      </trkpt>
      <trkpt lat="45.47214" lon="4.70525">
        <ele>559</ele>
        <time>2019-09-29T08:32:50.000Z</time>
      </trkpt>
      <trkpt lat="45.47212" lon="4.70523">
        <ele>560</ele>
        <time>2019-09-29T08:32:55.000Z</time>
      </trkpt>
      <trkpt lat="45.47212" lon="4.70523">
        <ele>560.00231272271</ele>
        <time>2019-09-29T08:32:56.000Z</time>
      </trkpt>
      <trkpt lat="45.47218" lon="4.70525">
        <ele>562.99337028699</ele>
        <time>2019-09-29T08:36:10.000Z</time>
      </trkpt>
      <trkpt lat="45.47218" lon="4.70525">
        <ele>563</ele>
        <time>2019-09-29T08:36:11.000Z</time>
      </trkpt>
      <trkpt lat="45.4722" lon="4.70524">
        <ele>563.26000307196</ele>
        <time>2019-09-29T08:36:21.000Z</time>
      </trkpt>
      <trkpt lat="45.47222" lon="4.70526">
        <ele>564</ele>
        <time>2019-09-29T08:36:25.000Z</time>
      </trkpt>
      <trkpt lat="45.47224" lon="4.70526">
        <ele>564</ele>
        <time>2019-09-29T08:36:30.000Z</time>
      </trkpt>
      <trkpt lat="45.47226" lon="4.70527">
        <ele>564</ele>
        <time>2019-09-29T08:36:32.000Z</time>
      </trkpt>
      <trkpt lat="45.47228" lon="4.70526">
        <ele>565</ele>
        <time>2019-09-29T08:36:34.000Z</time>
      </trkpt>
      <trkpt lat="45.4723" lon="4.70525">
        <ele>565</ele>
        <time>2019-09-29T08:36:36.000Z</time>
      </trkpt>
      <trkpt lat="45.47233" lon="4.70526">
        <ele>565</ele>
        <time>2019-09-29T08:36:38.000Z</time>
      </trkpt>
      <trkpt lat="45.47235" lon="4.70526">
        <ele>565</ele>
        <time>2019-09-29T08:36:39.000Z</time>
      </trkpt>
      <trkpt lat="45.47237" lon="4.70525">
        <ele>565</ele>
        <time>2019-09-29T08:36:40.000Z</time>
      </trkpt>
      <trkpt lat="45.47239" lon="4.70524">
        <ele>565</ele>
        <time>2019-09-29T08:36:41.000Z</time>
      </trkpt>
      <trkpt lat="45.47241" lon="4.70523">
        <ele>565</ele>
        <time>2019-09-29T08:36:42.000Z</time>
      </trkpt>
      <trkpt lat="45.47244" lon="4.70521">
        <ele>565</ele>
        <time>2019-09-29T08:36:44.000Z</time>
      </trkpt>
      <trkpt lat="45.47247" lon="4.7052">
        <ele>566</ele>
        <time>2019-09-29T08:36:46.000Z</time>
      </trkpt>
      <trkpt lat="45.4725" lon="4.70518">
        <ele>566</ele>
        <time>2019-09-29T08:36:48.000Z</time>
      </trkpt>
      <trkpt lat="45.47252" lon="4.70517">
        <ele>566</ele>
        <time>2019-09-29T08:36:49.000Z</time>
      </trkpt>
      <trkpt lat="45.47254" lon="4.70516">
        <ele>566</ele>
        <time>2019-09-29T08:36:50.000Z</time>
      </trkpt>
      <trkpt lat="45.47255" lon="4.70514">
        <ele>566</ele>
        <time>2019-09-29T08:36:51.000Z</time>
      </trkpt>
      <trkpt lat="45.47258" lon="4.70512">
        <ele>566</ele>
        <time>2019-09-29T08:36:53.000Z</time>
      </trkpt>
      <trkpt lat="45.47261" lon="4.70509">
        <ele>566</ele>
        <time>2019-09-29T08:36:55.000Z</time>
      </trkpt>
      <trkpt lat="45.47264" lon="4.70508">
        <ele>567</ele>
        <time>2019-09-29T08:36:57.000Z</time>
      </trkpt>
      <trkpt lat="45.47267" lon="4.70506">
        <ele>567</ele>
        <time>2019-09-29T08:36:59.000Z</time>
      </trkpt>
      <trkpt lat="45.4727" lon="4.70504">
        <ele>568</ele>
        <time>2019-09-29T08:37:03.000Z</time>
      </trkpt>
      <trkpt lat="45.47273" lon="4.70503">
        <ele>568</ele>
        <time>2019-09-29T08:37:05.000Z</time>
      </trkpt>
      <trkpt lat="45.47276" lon="4.70502">
        <ele>568.2015538489</ele>
        <time>2019-09-29T08:37:07.000Z</time>
      </trkpt>
      <trkpt lat="45.47278" lon="4.70501">
        <ele>568.97674187851</ele>
        <time>2019-09-29T08:37:08.000Z</time>
      </trkpt>
      <trkpt lat="45.4728" lon="4.70501">
        <ele>569</ele>
        <time>2019-09-29T08:37:09.000Z</time>
      </trkpt>
      <trkpt lat="45.47283" lon="4.705">
        <ele>569</ele>
        <time>2019-09-29T08:37:11.000Z</time>
      </trkpt>
      <trkpt lat="45.47285" lon="4.70499">
        <ele>569</ele>
        <time>2019-09-29T08:37:12.000Z</time>
      </trkpt>
      <trkpt lat="45.47288" lon="4.70498">
        <ele>569.96923092071</ele>
        <time>2019-09-29T08:37:14.000Z</time>
      </trkpt>
      <trkpt lat="45.47291" lon="4.70496">
        <ele>570</ele>
        <time>2019-09-29T08:37:16.000Z</time>
      </trkpt>
      <trkpt lat="45.47294" lon="4.70494">
        <ele>570</ele>
        <time>2019-09-29T08:37:18.000Z</time>
      </trkpt>
      <trkpt lat="45.47297" lon="4.70492">
        <ele>570</ele>
        <time>2019-09-29T08:37:20.000Z</time>
      </trkpt>
      <trkpt lat="45.47299" lon="4.7049">
        <ele>570</ele>
        <time>2019-09-29T08:37:21.000Z</time>
      </trkpt>
      <trkpt lat="45.47302" lon="4.70488">
        <ele>571</ele>
        <time>2019-09-29T08:37:23.000Z</time>
      </trkpt>
      <trkpt lat="45.47305" lon="4.70486">
        <ele>571</ele>
        <time>2019-09-29T08:37:25.000Z</time>
      </trkpt>
      <trkpt lat="45.47307" lon="4.70485">
        <ele>571.20154592632</ele>
        <time>2019-09-29T08:37:26.000Z</time>
      </trkpt>
      <trkpt lat="45.4731" lon="4.70482">
        <ele>572</ele>
        <time>2019-09-29T08:37:28.000Z</time>
      </trkpt>
      <trkpt lat="45.47312" lon="4.70481">
        <ele>572</ele>
        <time>2019-09-29T08:37:29.000Z</time>
      </trkpt>
      <trkpt lat="45.47313" lon="4.7048">
        <ele>572.25999692796</ele>
        <time>2019-09-29T08:37:30.000Z</time>
      </trkpt>
      <trkpt lat="45.47315" lon="4.70479">
        <ele>573</ele>
        <time>2019-09-29T08:37:31.000Z</time>
      </trkpt>
      <trkpt lat="45.47318" lon="4.70475">
        <ele>573</ele>
        <time>2019-09-29T08:37:33.000Z</time>
      </trkpt>
      <trkpt lat="45.4732" lon="4.70472">
        <ele>574</ele>
        <time>2019-09-29T08:37:35.000Z</time>
      </trkpt>
      <trkpt lat="45.47322" lon="4.70469">
        <ele>574</ele>
        <time>2019-09-29T08:37:37.000Z</time>
      </trkpt>
      <trkpt lat="45.47324" lon="4.70466">
        <ele>575</ele>
        <time>2019-09-29T08:37:39.000Z</time>
      </trkpt>
      <trkpt lat="45.47327" lon="4.70463">
        <ele>575</ele>
        <time>2019-09-29T08:37:41.000Z</time>
      </trkpt>
      <trkpt lat="45.47328" lon="4.70461">
        <ele>575</ele>
        <time>2019-09-29T08:37:42.000Z</time>
      </trkpt>
      <trkpt lat="45.4733" lon="4.70458">
        <ele>575</ele>
        <time>2019-09-29T08:37:44.000Z</time>
      </trkpt>
      <trkpt lat="45.47332" lon="4.70457">
        <ele>575.97674187851</ele>
        <time>2019-09-29T08:37:46.000Z</time>
      </trkpt>
      <trkpt lat="45.47332" lon="4.70454">
        <ele>577</ele>
        <time>2019-09-29T08:38:53.000Z</time>
      </trkpt>
      <trkpt lat="45.47333" lon="4.70451">
        <ele>577.26000307196</ele>
        <time>2019-09-29T08:38:55.000Z</time>
      </trkpt>
      <trkpt lat="45.47335" lon="4.70447">
        <ele>578</ele>
        <time>2019-09-29T08:38:57.000Z</time>
      </trkpt>
      <trkpt lat="45.47336" lon="4.70445">
        <ele>578</ele>
        <time>2019-09-29T08:38:58.000Z</time>
      </trkpt>
      <trkpt lat="45.47337" lon="4.70442">
        <ele>578</ele>
        <time>2019-09-29T08:38:59.000Z</time>
      </trkpt>
      <trkpt lat="45.47338" lon="4.70439">
        <ele>578</ele>
        <time>2019-09-29T08:39:00.000Z</time>
      </trkpt>
      <trkpt lat="45.47339" lon="4.70436">
        <ele>578.2015538489</ele>
        <time>2019-09-29T08:39:01.000Z</time>
      </trkpt>
      <trkpt lat="45.4734" lon="4.70434">
        <ele>578.97674187851</ele>
        <time>2019-09-29T08:39:02.000Z</time>
      </trkpt>
      <trkpt lat="45.47341" lon="4.70431">
        <ele>579</ele>
        <time>2019-09-29T08:39:03.000Z</time>
      </trkpt>
      <trkpt lat="45.47343" lon="4.70427">
        <ele>579</ele>
        <time>2019-09-29T08:39:05.000Z</time>
      </trkpt>
      <trkpt lat="45.47345" lon="4.70423">
        <ele>579</ele>
        <time>2019-09-29T08:39:07.000Z</time>
      </trkpt>
      <trkpt lat="45.47346" lon="4.70421">
        <ele>579.25999692796</ele>
        <time>2019-09-29T08:39:08.000Z</time>
      </trkpt>
      <trkpt lat="45.47347" lon="4.70416">
        <ele>580</ele>
        <time>2019-09-29T08:39:10.000Z</time>
      </trkpt>
      <trkpt lat="45.47349" lon="4.70412">
        <ele>580</ele>
        <time>2019-09-29T08:39:12.000Z</time>
      </trkpt>
      <trkpt lat="45.4735" lon="4.7041">
        <ele>580</ele>
        <time>2019-09-29T08:39:13.000Z</time>
      </trkpt>
      <trkpt lat="45.47352" lon="4.70407">
        <ele>580</ele>
        <time>2019-09-29T08:39:15.000Z</time>
      </trkpt>
      <trkpt lat="45.47353" lon="4.70405">
        <ele>580</ele>
        <time>2019-09-29T08:39:16.000Z</time>
      </trkpt>
      <trkpt lat="45.47355" lon="4.70401">
        <ele>580</ele>
        <time>2019-09-29T08:39:18.000Z</time>
      </trkpt>
      <trkpt lat="45.47356" lon="4.70397">
        <ele>580</ele>
        <time>2019-09-29T08:39:20.000Z</time>
      </trkpt>
      <trkpt lat="45.47357" lon="4.70394">
        <ele>580</ele>
        <time>2019-09-29T08:39:21.000Z</time>
      </trkpt>
      <trkpt lat="45.47357" lon="4.70391">
        <ele>581</ele>
        <time>2019-09-29T08:39:22.000Z</time>
      </trkpt>
      <trkpt lat="45.47359" lon="4.70387">
        <ele>581</ele>
        <time>2019-09-29T08:39:24.000Z</time>
      </trkpt>
      <trkpt lat="45.4736" lon="4.70384">
        <ele>581</ele>
        <time>2019-09-29T08:39:26.000Z</time>
      </trkpt>
      <trkpt lat="45.47361" lon="4.7038">
        <ele>582</ele>
        <time>2019-09-29T08:39:28.000Z</time>
      </trkpt>
      <trkpt lat="45.47363" lon="4.70376">
        <ele>582</ele>
        <time>2019-09-29T08:39:30.000Z</time>
      </trkpt>
      <trkpt lat="45.47364" lon="4.70371">
        <ele>582</ele>
        <time>2019-09-29T08:39:32.000Z</time>
      </trkpt>
      <trkpt lat="45.47366" lon="4.70367">
        <ele>583</ele>
        <time>2019-09-29T08:39:34.000Z</time>
      </trkpt>
      <trkpt lat="45.47368" lon="4.70363">
        <ele>583</ele>
        <time>2019-09-29T08:39:36.000Z</time>
      </trkpt>
      <trkpt lat="45.47369" lon="4.70359">
        <ele>584</ele>
        <time>2019-09-29T08:39:38.000Z</time>
      </trkpt>
      <trkpt lat="45.4737" lon="4.70355">
        <ele>584</ele>
        <time>2019-09-29T08:39:40.000Z</time>
      </trkpt>
      <trkpt lat="45.47371" lon="4.70352">
        <ele>585</ele>
        <time>2019-09-29T08:39:42.000Z</time>
      </trkpt>
      <trkpt lat="45.47373" lon="4.70348">
        <ele>585</ele>
        <time>2019-09-29T08:39:44.000Z</time>
      </trkpt>
      <trkpt lat="45.47374" lon="4.70346">
        <ele>585</ele>
        <time>2019-09-29T08:39:45.000Z</time>
      </trkpt>
      <trkpt lat="45.47375" lon="4.70343">
        <ele>585</ele>
        <time>2019-09-29T08:39:46.000Z</time>
      </trkpt>
      <trkpt lat="45.47376" lon="4.70339">
        <ele>585</ele>
        <time>2019-09-29T08:39:48.000Z</time>
      </trkpt>
      <trkpt lat="45.47378" lon="4.70335">
        <ele>586</ele>
        <time>2019-09-29T08:39:50.000Z</time>
      </trkpt>
      <trkpt lat="45.4738" lon="4.70332">
        <ele>586.25999692796</ele>
        <time>2019-09-29T08:39:52.000Z</time>
      </trkpt>
      <trkpt lat="45.47382" lon="4.70328">
        <ele>587</ele>
        <time>2019-09-29T08:39:54.000Z</time>
      </trkpt>
      <trkpt lat="45.47383" lon="4.70324">
        <ele>587</ele>
        <time>2019-09-29T08:39:56.000Z</time>
      </trkpt>
      <trkpt lat="45.47385" lon="4.7032">
        <ele>587</ele>
        <time>2019-09-29T08:39:58.000Z</time>
      </trkpt>
      <trkpt lat="45.47386" lon="4.70318">
        <ele>587</ele>
        <time>2019-09-29T08:39:59.000Z</time>
      </trkpt>
      <trkpt lat="45.47388" lon="4.70315">
        <ele>588</ele>
        <time>2019-09-29T08:40:01.000Z</time>
      </trkpt>
      <trkpt lat="45.4739" lon="4.70311">
        <ele>588</ele>
        <time>2019-09-29T08:40:03.000Z</time>
      </trkpt>
      <trkpt lat="45.47393" lon="4.70308">
        <ele>588.24489635986</ele>
        <time>2019-09-29T08:40:05.000Z</time>
      </trkpt>
      <trkpt lat="45.47395" lon="4.70305">
        <ele>589</ele>
        <time>2019-09-29T08:40:07.000Z</time>
      </trkpt>
      <trkpt lat="45.47396" lon="4.70302">
        <ele>589</ele>
        <time>2019-09-29T08:40:08.000Z</time>
      </trkpt>
      <trkpt lat="45.47398" lon="4.703">
        <ele>589</ele>
        <time>2019-09-29T08:40:09.000Z</time>
      </trkpt>
      <trkpt lat="45.47399" lon="4.70298">
        <ele>589</ele>
        <time>2019-09-29T08:40:10.000Z</time>
      </trkpt>
      <trkpt lat="45.47401" lon="4.70296">
        <ele>589</ele>
        <time>2019-09-29T08:40:11.000Z</time>
      </trkpt>
      <trkpt lat="45.47402" lon="4.70294">
        <ele>589.25252446892</ele>
        <time>2019-09-29T08:40:12.000Z</time>
      </trkpt>
      <trkpt lat="45.47403" lon="4.70292">
        <ele>590</ele>
        <time>2019-09-29T08:40:13.000Z</time>
      </trkpt>
      <trkpt lat="45.47404" lon="4.7029">
        <ele>590</ele>
        <time>2019-09-29T08:40:14.000Z</time>
      </trkpt>
      <trkpt lat="45.47405" lon="4.70288">
        <ele>590</ele>
        <time>2019-09-29T08:40:15.000Z</time>
      </trkpt>
      <trkpt lat="45.47407" lon="4.70286">
        <ele>590</ele>
        <time>2019-09-29T08:40:16.000Z</time>
      </trkpt>
      <trkpt lat="45.47408" lon="4.70283">
        <ele>590</ele>
        <time>2019-09-29T08:40:17.000Z</time>
      </trkpt>
      <trkpt lat="45.4741" lon="4.70281">
        <ele>590</ele>
        <time>2019-09-29T08:40:18.000Z</time>
      </trkpt>
      <trkpt lat="45.47412" lon="4.70278">
        <ele>590</ele>
        <time>2019-09-29T08:40:19.000Z</time>
      </trkpt>
      <trkpt lat="45.47414" lon="4.70276">
        <ele>590</ele>
        <time>2019-09-29T08:40:20.000Z</time>
      </trkpt>
      <trkpt lat="45.47415" lon="4.70274">
        <ele>590</ele>
        <time>2019-09-29T08:40:21.000Z</time>
      </trkpt>
      <trkpt lat="45.47417" lon="4.70272">
        <ele>590</ele>
        <time>2019-09-29T08:40:22.000Z</time>
      </trkpt>
      <trkpt lat="45.4742" lon="4.70271">
        <ele>590</ele>
        <time>2019-09-29T08:40:23.000Z</time>
      </trkpt>
      <trkpt lat="45.47421" lon="4.70269">
        <ele>590</ele>
        <time>2019-09-29T08:40:24.000Z</time>
      </trkpt>
      <trkpt lat="45.47423" lon="4.70265">
        <ele>591</ele>
        <time>2019-09-29T08:40:26.000Z</time>
      </trkpt>
      <trkpt lat="45.47425" lon="4.70263">
        <ele>591</ele>
        <time>2019-09-29T08:40:27.000Z</time>
      </trkpt>
      <trkpt lat="45.47427" lon="4.70261">
        <ele>591</ele>
        <time>2019-09-29T08:40:28.000Z</time>
      </trkpt>
      <trkpt lat="45.47428" lon="4.70257">
        <ele>591</ele>
        <time>2019-09-29T08:40:30.000Z</time>
      </trkpt>
      <trkpt lat="45.47431" lon="4.70253">
        <ele>591</ele>
        <time>2019-09-29T08:40:32.000Z</time>
      </trkpt>
      <trkpt lat="45.47433" lon="4.7025">
        <ele>591</ele>
        <time>2019-09-29T08:40:34.000Z</time>
      </trkpt>
      <trkpt lat="45.47434" lon="4.70246">
        <ele>592</ele>
        <time>2019-09-29T08:40:36.000Z</time>
      </trkpt>
      <trkpt lat="45.47436" lon="4.70242">
        <ele>592</ele>
        <time>2019-09-29T08:40:38.000Z</time>
      </trkpt>
      <trkpt lat="45.47437" lon="4.70238">
        <ele>592</ele>
        <time>2019-09-29T08:40:40.000Z</time>
      </trkpt>
      <trkpt lat="45.47438" lon="4.70234">
        <ele>592</ele>
        <time>2019-09-29T08:40:42.000Z</time>
      </trkpt>
      <trkpt lat="45.4744" lon="4.70232">
        <ele>592</ele>
        <time>2019-09-29T08:40:43.000Z</time>
      </trkpt>
      <trkpt lat="45.47441" lon="4.7023">
        <ele>592</ele>
        <time>2019-09-29T08:40:44.000Z</time>
      </trkpt>
      <trkpt lat="45.47443" lon="4.70228">
        <ele>592.26000307196</ele>
        <time>2019-09-29T08:40:45.000Z</time>
      </trkpt>
      <trkpt lat="45.47445" lon="4.70225">
        <ele>593</ele>
        <time>2019-09-29T08:40:46.000Z</time>
      </trkpt>
      <trkpt lat="45.47446" lon="4.70223">
        <ele>593</ele>
        <time>2019-09-29T08:40:47.000Z</time>
      </trkpt>
      <trkpt lat="45.47448" lon="4.70219">
        <ele>593</ele>
        <time>2019-09-29T08:40:49.000Z</time>
      </trkpt>
      <trkpt lat="45.47448" lon="4.70216">
        <ele>593</ele>
        <time>2019-09-29T08:40:50.000Z</time>
      </trkpt>
      <trkpt lat="45.4745" lon="4.70212">
        <ele>593</ele>
        <time>2019-09-29T08:40:51.000Z</time>
      </trkpt>
      <trkpt lat="45.47451" lon="4.7021">
        <ele>593.25742022153</ele>
        <time>2019-09-29T08:40:52.000Z</time>
      </trkpt>
      <trkpt lat="45.47452" lon="4.70207">
        <ele>594</ele>
        <time>2019-09-29T08:40:53.000Z</time>
      </trkpt>
      <trkpt lat="45.47453" lon="4.70205">
        <ele>594</ele>
        <time>2019-09-29T08:40:54.000Z</time>
      </trkpt>
      <trkpt lat="45.47454" lon="4.70202">
        <ele>594</ele>
        <time>2019-09-29T08:40:55.000Z</time>
      </trkpt>
      <trkpt lat="45.47456" lon="4.702">
        <ele>594</ele>
        <time>2019-09-29T08:40:56.000Z</time>
      </trkpt>
      <trkpt lat="45.47457" lon="4.70197">
        <ele>594</ele>
        <time>2019-09-29T08:40:57.000Z</time>
      </trkpt>
      <trkpt lat="45.47458" lon="4.70195">
        <ele>594</ele>
        <time>2019-09-29T08:40:58.000Z</time>
      </trkpt>
      <trkpt lat="45.47459" lon="4.70193">
        <ele>594</ele>
        <time>2019-09-29T08:40:59.000Z</time>
      </trkpt>
      <trkpt lat="45.4746" lon="4.70191">
        <ele>594</ele>
        <time>2019-09-29T08:41:00.000Z</time>
      </trkpt>
      <trkpt lat="45.4746" lon="4.70187">
        <ele>594</ele>
        <time>2019-09-29T08:41:02.000Z</time>
      </trkpt>
      <trkpt lat="45.47461" lon="4.70184">
        <ele>594.26000307196</ele>
        <time>2019-09-29T08:41:03.000Z</time>
      </trkpt>
      <trkpt lat="45.47463" lon="4.70181">
        <ele>594.74000307204</ele>
        <time>2019-09-29T08:41:04.000Z</time>
      </trkpt>
      <trkpt lat="45.47464" lon="4.70179">
        <ele>594</ele>
        <time>2019-09-29T08:41:05.000Z</time>
      </trkpt>
      <trkpt lat="45.47465" lon="4.70176">
        <ele>594</ele>
        <time>2019-09-29T08:41:06.000Z</time>
      </trkpt>
      <trkpt lat="45.47466" lon="4.70174">
        <ele>594</ele>
        <time>2019-09-29T08:41:07.000Z</time>
      </trkpt>
      <trkpt lat="45.47467" lon="4.70169">
        <ele>594</ele>
        <time>2019-09-29T08:41:09.000Z</time>
      </trkpt>
      <trkpt lat="45.47468" lon="4.70167">
        <ele>594</ele>
        <time>2019-09-29T08:41:10.000Z</time>
      </trkpt>
      <trkpt lat="45.47469" lon="4.70164">
        <ele>594</ele>
        <time>2019-09-29T08:41:11.000Z</time>
      </trkpt>
      <trkpt lat="45.47469" lon="4.7016">
        <ele>594</ele>
        <time>2019-09-29T08:41:13.000Z</time>
      </trkpt>
      <trkpt lat="45.4747" lon="4.70155">
        <ele>594</ele>
        <time>2019-09-29T08:41:15.000Z</time>
      </trkpt>
      <trkpt lat="45.47472" lon="4.7015">
        <ele>594</ele>
        <time>2019-09-29T08:41:17.000Z</time>
      </trkpt>
      <trkpt lat="45.47473" lon="4.70148">
        <ele>594</ele>
        <time>2019-09-29T08:41:18.000Z</time>
      </trkpt>
      <trkpt lat="45.47474" lon="4.70146">
        <ele>594</ele>
        <time>2019-09-29T08:41:19.000Z</time>
      </trkpt>
      <trkpt lat="45.47475" lon="4.70144">
        <ele>594</ele>
        <time>2019-09-29T08:41:20.000Z</time>
      </trkpt>
      <trkpt lat="45.47476" lon="4.70141">
        <ele>594</ele>
        <time>2019-09-29T08:41:21.000Z</time>
      </trkpt>
      <trkpt lat="45.47477" lon="4.70139">
        <ele>594</ele>
        <time>2019-09-29T08:41:22.000Z</time>
      </trkpt>
      <trkpt lat="45.47478" lon="4.70136">
        <ele>594</ele>
        <time>2019-09-29T08:41:23.000Z</time>
      </trkpt>
      <trkpt lat="45.47479" lon="4.70134">
        <ele>594</ele>
        <time>2019-09-29T08:41:24.000Z</time>
      </trkpt>
      <trkpt lat="45.4748" lon="4.70129">
        <ele>594</ele>
        <time>2019-09-29T08:41:26.000Z</time>
      </trkpt>
      <trkpt lat="45.47483" lon="4.70125">
        <ele>594</ele>
        <time>2019-09-29T08:41:28.000Z</time>
      </trkpt>
      <trkpt lat="45.47484" lon="4.70121">
        <ele>594</ele>
        <time>2019-09-29T08:41:30.000Z</time>
      </trkpt>
      <trkpt lat="45.47487" lon="4.70117">
        <ele>594</ele>
        <time>2019-09-29T08:41:32.000Z</time>
      </trkpt>
      <trkpt lat="45.4749" lon="4.70108">
        <ele>593</ele>
        <time>2019-09-29T08:41:36.000Z</time>
      </trkpt>
      <trkpt lat="45.47491" lon="4.70106">
        <ele>593</ele>
        <time>2019-09-29T08:41:37.000Z</time>
      </trkpt>
      <trkpt lat="45.47493" lon="4.70101">
        <ele>593</ele>
        <time>2019-09-29T08:41:39.000Z</time>
      </trkpt>
      <trkpt lat="45.47495" lon="4.70097">
        <ele>593.26000307196</ele>
        <time>2019-09-29T08:41:41.000Z</time>
      </trkpt>
      <trkpt lat="45.47496" lon="4.70093">
        <ele>594</ele>
        <time>2019-09-29T08:41:43.000Z</time>
      </trkpt>
      <trkpt lat="45.47498" lon="4.70089">
        <ele>594</ele>
        <time>2019-09-29T08:41:45.000Z</time>
      </trkpt>
      <trkpt lat="45.47499" lon="4.70084">
        <ele>594</ele>
        <time>2019-09-29T08:41:47.000Z</time>
      </trkpt>
      <trkpt lat="45.475" lon="4.70081">
        <ele>593.74000307204</ele>
        <time>2019-09-29T08:41:48.000Z</time>
      </trkpt>
      <trkpt lat="45.47502" lon="4.70075">
        <ele>593</ele>
        <time>2019-09-29T08:41:50.000Z</time>
      </trkpt>
      <trkpt lat="45.47503" lon="4.70072">
        <ele>593</ele>
        <time>2019-09-29T08:41:51.000Z</time>
      </trkpt>
      <trkpt lat="45.47504" lon="4.70069">
        <ele>593</ele>
        <time>2019-09-29T08:41:52.000Z</time>
      </trkpt>
      <trkpt lat="45.47505" lon="4.70066">
        <ele>593</ele>
        <time>2019-09-29T08:41:53.000Z</time>
      </trkpt>
      <trkpt lat="45.47507" lon="4.70062">
        <ele>593</ele>
        <time>2019-09-29T08:41:55.000Z</time>
      </trkpt>
      <trkpt lat="45.47508" lon="4.70058">
        <ele>593</ele>
        <time>2019-09-29T08:41:57.000Z</time>
      </trkpt>
      <trkpt lat="45.4751" lon="4.70056">
        <ele>593</ele>
        <time>2019-09-29T08:41:58.000Z</time>
      </trkpt>
      <trkpt lat="45.47512" lon="4.70052">
        <ele>593</ele>
        <time>2019-09-29T08:42:00.000Z</time>
      </trkpt>
      <trkpt lat="45.47513" lon="4.70048">
        <ele>593</ele>
        <time>2019-09-29T08:42:02.000Z</time>
      </trkpt>
      <trkpt lat="45.47514" lon="4.70045">
        <ele>593</ele>
        <time>2019-09-29T08:42:04.000Z</time>
      </trkpt>
      <trkpt lat="45.47514" lon="4.70042">
        <ele>594</ele>
        <time>2019-09-29T08:42:11.000Z</time>
      </trkpt>
      <trkpt lat="45.47515" lon="4.70039">
        <ele>595</ele>
        <time>2019-09-29T08:42:13.000Z</time>
      </trkpt>
      <trkpt lat="45.47516" lon="4.70035">
        <ele>595</ele>
        <time>2019-09-29T08:42:15.000Z</time>
      </trkpt>
      <trkpt lat="45.47517" lon="4.70031">
        <ele>595</ele>
        <time>2019-09-29T08:42:17.000Z</time>
      </trkpt>
      <trkpt lat="45.47517" lon="4.70028">
        <ele>596</ele>
        <time>2019-09-29T08:42:19.000Z</time>
      </trkpt>
      <trkpt lat="45.47518" lon="4.70024">
        <ele>596.26000307196</ele>
        <time>2019-09-29T08:42:21.000Z</time>
      </trkpt>
      <trkpt lat="45.47519" lon="4.7002">
        <ele>597</ele>
        <time>2019-09-29T08:42:23.000Z</time>
      </trkpt>
      <trkpt lat="45.4752" lon="4.70016">
        <ele>597</ele>
        <time>2019-09-29T08:42:25.000Z</time>
      </trkpt>
      <trkpt lat="45.4752" lon="4.70012">
        <ele>597.26000307196</ele>
        <time>2019-09-29T08:42:27.000Z</time>
      </trkpt>
      <trkpt lat="45.4752" lon="4.70009">
        <ele>598</ele>
        <time>2019-09-29T08:42:29.000Z</time>
      </trkpt>
      <trkpt lat="45.47521" lon="4.70006">
        <ele>598</ele>
        <time>2019-09-29T08:42:31.000Z</time>
      </trkpt>
      <trkpt lat="45.47522" lon="4.70002">
        <ele>598</ele>
        <time>2019-09-29T08:42:33.000Z</time>
      </trkpt>
      <trkpt lat="45.47523" lon="4.69998">
        <ele>598.26000307196</ele>
        <time>2019-09-29T08:42:35.000Z</time>
      </trkpt>
      <trkpt lat="45.47524" lon="4.69996">
        <ele>599</ele>
        <time>2019-09-29T08:42:36.000Z</time>
      </trkpt>
      <trkpt lat="45.47525" lon="4.69992">
        <ele>599</ele>
        <time>2019-09-29T08:42:38.000Z</time>
      </trkpt>
      <trkpt lat="45.47526" lon="4.69988">
        <ele>599</ele>
        <time>2019-09-29T08:42:40.000Z</time>
      </trkpt>
      <trkpt lat="45.47527" lon="4.69984">
        <ele>600</ele>
        <time>2019-09-29T08:42:42.000Z</time>
      </trkpt>
      <trkpt lat="45.47527" lon="4.69981">
        <ele>600</ele>
        <time>2019-09-29T08:42:44.000Z</time>
      </trkpt>
      <trkpt lat="45.47528" lon="4.69978">
        <ele>600</ele>
        <time>2019-09-29T08:42:46.000Z</time>
      </trkpt>
      <trkpt lat="45.47528" lon="4.69975">
        <ele>600</ele>
        <time>2019-09-29T08:42:48.000Z</time>
      </trkpt>
      <trkpt lat="45.47529" lon="4.69971">
        <ele>600</ele>
        <time>2019-09-29T08:42:50.000Z</time>
      </trkpt>
      <trkpt lat="45.4753" lon="4.69967">
        <ele>601</ele>
        <time>2019-09-29T08:42:52.000Z</time>
      </trkpt>
      <trkpt lat="45.47531" lon="4.69964">
        <ele>601</ele>
        <time>2019-09-29T08:42:54.000Z</time>
      </trkpt>
      <trkpt lat="45.47531" lon="4.69961">
        <ele>601</ele>
        <time>2019-09-29T08:42:56.000Z</time>
      </trkpt>
      <trkpt lat="45.47532" lon="4.69956">
        <ele>602</ele>
        <time>2019-09-29T08:42:58.000Z</time>
      </trkpt>
      <trkpt lat="45.47533" lon="4.69953">
        <ele>602</ele>
        <time>2019-09-29T08:43:00.000Z</time>
      </trkpt>
      <trkpt lat="45.47534" lon="4.69951">
        <ele>602</ele>
        <time>2019-09-29T08:43:02.000Z</time>
      </trkpt>
      <trkpt lat="45.47535" lon="4.69948">
        <ele>602</ele>
        <time>2019-09-29T08:43:05.000Z</time>
      </trkpt>
      <trkpt lat="45.47536" lon="4.69945">
        <ele>603</ele>
        <time>2019-09-29T08:43:07.000Z</time>
      </trkpt>
      <trkpt lat="45.47538" lon="4.69941">
        <ele>603</ele>
        <time>2019-09-29T08:43:09.000Z</time>
      </trkpt>
      <trkpt lat="45.47539" lon="4.69937">
        <ele>603</ele>
        <time>2019-09-29T08:43:11.000Z</time>
      </trkpt>
      <trkpt lat="45.4754" lon="4.69934">
        <ele>604</ele>
        <time>2019-09-29T08:43:13.000Z</time>
      </trkpt>
      <trkpt lat="45.47541" lon="4.6993">
        <ele>604</ele>
        <time>2019-09-29T08:43:15.000Z</time>
      </trkpt>
      <trkpt lat="45.47542" lon="4.69927">
        <ele>604.26000307196</ele>
        <time>2019-09-29T08:43:17.000Z</time>
      </trkpt>
      <trkpt lat="45.47544" lon="4.69923">
        <ele>605</ele>
        <time>2019-09-29T08:43:19.000Z</time>
      </trkpt>
      <trkpt lat="45.47545" lon="4.69921">
        <ele>605</ele>
        <time>2019-09-29T08:43:23.000Z</time>
      </trkpt>
      <trkpt lat="45.47545" lon="4.69919">
        <ele>605.26000307196</ele>
        <time>2019-09-29T08:43:25.000Z</time>
      </trkpt>
      <trkpt lat="45.47547" lon="4.69915">
        <ele>606</ele>
        <time>2019-09-29T08:43:27.000Z</time>
      </trkpt>
      <trkpt lat="45.47548" lon="4.69912">
        <ele>606</ele>
        <time>2019-09-29T08:43:29.000Z</time>
      </trkpt>
      <trkpt lat="45.4755" lon="4.69908">
        <ele>606.73999692804</ele>
        <time>2019-09-29T08:43:31.000Z</time>
      </trkpt>
      <trkpt lat="45.4755" lon="4.69905">
        <ele>607</ele>
        <time>2019-09-29T08:43:33.000Z</time>
      </trkpt>
      <trkpt lat="45.4755" lon="4.69902">
        <ele>607</ele>
        <time>2019-09-29T08:43:35.000Z</time>
      </trkpt>
      <trkpt lat="45.4755" lon="4.69899">
        <ele>607</ele>
        <time>2019-09-29T08:43:37.000Z</time>
      </trkpt>
      <trkpt lat="45.47549" lon="4.69895">
        <ele>607</ele>
        <time>2019-09-29T08:43:39.000Z</time>
      </trkpt>
      <trkpt lat="45.4755" lon="4.69892">
        <ele>607.26000307196</ele>
        <time>2019-09-29T08:43:41.000Z</time>
      </trkpt>
      <trkpt lat="45.4755" lon="4.69889">
        <ele>608</ele>
        <time>2019-09-29T08:43:43.000Z</time>
      </trkpt>
      <trkpt lat="45.47552" lon="4.69887">
        <ele>608.26000307196</ele>
        <time>2019-09-29T08:43:45.000Z</time>
      </trkpt>
      <trkpt lat="45.47553" lon="4.69884">
        <ele>609</ele>
        <time>2019-09-29T08:43:47.000Z</time>
      </trkpt>
      <trkpt lat="45.47554" lon="4.6988">
        <ele>610</ele>
        <time>2019-09-29T08:43:49.000Z</time>
      </trkpt>
      <trkpt lat="45.47555" lon="4.69877">
        <ele>610</ele>
        <time>2019-09-29T08:43:51.000Z</time>
      </trkpt>
      <trkpt lat="45.47555" lon="4.69874">
        <ele>610</ele>
        <time>2019-09-29T08:43:53.000Z</time>
      </trkpt>
      <trkpt lat="45.47556" lon="4.6987">
        <ele>610.26000307196</ele>
        <time>2019-09-29T08:43:55.000Z</time>
      </trkpt>
      <trkpt lat="45.47556" lon="4.69867">
        <ele>611</ele>
        <time>2019-09-29T08:43:57.000Z</time>
      </trkpt>
      <trkpt lat="45.47557" lon="4.69864">
        <ele>611</ele>
        <time>2019-09-29T08:43:59.000Z</time>
      </trkpt>
      <trkpt lat="45.47559" lon="4.69861">
        <ele>611</ele>
        <time>2019-09-29T08:44:01.000Z</time>
      </trkpt>
      <trkpt lat="45.4756" lon="4.69857">
        <ele>611</ele>
        <time>2019-09-29T08:44:03.000Z</time>
      </trkpt>
      <trkpt lat="45.47562" lon="4.69853">
        <ele>612</ele>
        <time>2019-09-29T08:44:05.000Z</time>
      </trkpt>
      <trkpt lat="45.47564" lon="4.6985">
        <ele>612</ele>
        <time>2019-09-29T08:44:07.000Z</time>
      </trkpt>
      <trkpt lat="45.47566" lon="4.69846">
        <ele>613</ele>
        <time>2019-09-29T08:44:09.000Z</time>
      </trkpt>
      <trkpt lat="45.47568" lon="4.69843">
        <ele>613</ele>
        <time>2019-09-29T08:44:11.000Z</time>
      </trkpt>
      <trkpt lat="45.47569" lon="4.6984">
        <ele>614</ele>
        <time>2019-09-29T08:44:13.000Z</time>
      </trkpt>
      <trkpt lat="45.4757" lon="4.69836">
        <ele>614.26000307196</ele>
        <time>2019-09-29T08:44:15.000Z</time>
      </trkpt>
      <trkpt lat="45.47571" lon="4.69833">
        <ele>615</ele>
        <time>2019-09-29T08:44:17.000Z</time>
      </trkpt>
      <trkpt lat="45.47572" lon="4.69829">
        <ele>615.26000307196</ele>
        <time>2019-09-29T08:44:19.000Z</time>
      </trkpt>
      <trkpt lat="45.47574" lon="4.69825">
        <ele>616</ele>
        <time>2019-09-29T08:44:21.000Z</time>
      </trkpt>
      <trkpt lat="45.47574" lon="4.69822">
        <ele>616</ele>
        <time>2019-09-29T08:44:23.000Z</time>
      </trkpt>
      <trkpt lat="45.47574" lon="4.69818">
        <ele>616</ele>
        <time>2019-09-29T08:44:25.000Z</time>
      </trkpt>
      <trkpt lat="45.47576" lon="4.69814">
        <ele>616</ele>
        <time>2019-09-29T08:44:27.000Z</time>
      </trkpt>
      <trkpt lat="45.47577" lon="4.69811">
        <ele>616</ele>
        <time>2019-09-29T08:44:29.000Z</time>
      </trkpt>
      <trkpt lat="45.47577" lon="4.69808">
        <ele>616.26000307196</ele>
        <time>2019-09-29T08:44:31.000Z</time>
      </trkpt>
      <trkpt lat="45.47578" lon="4.69804">
        <ele>617</ele>
        <time>2019-09-29T08:44:33.000Z</time>
      </trkpt>
      <trkpt lat="45.47579" lon="4.698">
        <ele>617</ele>
        <time>2019-09-29T08:44:35.000Z</time>
      </trkpt>
      <trkpt lat="45.4758" lon="4.69796">
        <ele>617.25742963235</ele>
        <time>2019-09-29T08:44:37.000Z</time>
      </trkpt>
      <trkpt lat="45.4758" lon="4.69793">
        <ele>618</ele>
        <time>2019-09-29T08:44:39.000Z</time>
      </trkpt>
      <trkpt lat="45.4758" lon="4.6979">
        <ele>618</ele>
        <time>2019-09-29T08:44:41.000Z</time>
      </trkpt>
      <trkpt lat="45.47581" lon="4.69787">
        <ele>618</ele>
        <time>2019-09-29T08:44:43.000Z</time>
      </trkpt>
      <trkpt lat="45.47582" lon="4.69784">
        <ele>618</ele>
        <time>2019-09-29T08:44:45.000Z</time>
      </trkpt>
      <trkpt lat="45.47584" lon="4.6978">
        <ele>618.26000307196</ele>
        <time>2019-09-29T08:44:47.000Z</time>
      </trkpt>
      <trkpt lat="45.47586" lon="4.69777">
        <ele>619</ele>
        <time>2019-09-29T08:44:49.000Z</time>
      </trkpt>
      <trkpt lat="45.47588" lon="4.69773">
        <ele>619</ele>
        <time>2019-09-29T08:44:51.000Z</time>
      </trkpt>
      <trkpt lat="45.47589" lon="4.6977">
        <ele>620</ele>
        <time>2019-09-29T08:44:53.000Z</time>
      </trkpt>
      <trkpt lat="45.47591" lon="4.69766">
        <ele>620</ele>
        <time>2019-09-29T08:44:55.000Z</time>
      </trkpt>
      <trkpt lat="45.47593" lon="4.69763">
        <ele>620</ele>
        <time>2019-09-29T08:44:57.000Z</time>
      </trkpt>
      <trkpt lat="45.47595" lon="4.6976">
        <ele>621</ele>
        <time>2019-09-29T08:44:59.000Z</time>
      </trkpt>
      <trkpt lat="45.47596" lon="4.69756">
        <ele>621</ele>
        <time>2019-09-29T08:45:01.000Z</time>
      </trkpt>
      <trkpt lat="45.47598" lon="4.69753">
        <ele>621</ele>
        <time>2019-09-29T08:45:03.000Z</time>
      </trkpt>
      <trkpt lat="45.47599" lon="4.69751">
        <ele>622</ele>
        <time>2019-09-29T08:45:05.000Z</time>
      </trkpt>
      <trkpt lat="45.476" lon="4.69747">
        <ele>622</ele>
        <time>2019-09-29T08:45:08.000Z</time>
      </trkpt>
      <trkpt lat="45.47601" lon="4.69744">
        <ele>622.25999692796</ele>
        <time>2019-09-29T08:45:10.000Z</time>
      </trkpt>
      <trkpt lat="45.47603" lon="4.69745">
        <ele>625</ele>
        <time>2019-09-29T08:47:02.000Z</time>
      </trkpt>
      <trkpt lat="45.47603" lon="4.69747">
        <ele>627</ele>
        <time>2019-09-29T08:47:11.000Z</time>
      </trkpt>
      <trkpt lat="45.47604" lon="4.69745">
        <ele>627</ele>
        <time>2019-09-29T08:49:06.000Z</time>
      </trkpt>
      <trkpt lat="45.47606" lon="4.69741">
        <ele>627</ele>
        <time>2019-09-29T08:49:23.000Z</time>
      </trkpt>
      <trkpt lat="45.47607" lon="4.69739">
        <ele>627</ele>
        <time>2019-09-29T08:49:24.000Z</time>
      </trkpt>
      <trkpt lat="45.47609" lon="4.69738">
        <ele>627</ele>
        <time>2019-09-29T08:49:25.000Z</time>
      </trkpt>
      <trkpt lat="45.47611" lon="4.69737">
        <ele>627</ele>
        <time>2019-09-29T08:49:26.000Z</time>
      </trkpt>
      <trkpt lat="45.47613" lon="4.69735">
        <ele>627</ele>
        <time>2019-09-29T08:49:27.000Z</time>
      </trkpt>
      <trkpt lat="45.47614" lon="4.69734">
        <ele>627</ele>
        <time>2019-09-29T08:49:28.000Z</time>
      </trkpt>
      <trkpt lat="45.47616" lon="4.69733">
        <ele>627</ele>
        <time>2019-09-29T08:49:29.000Z</time>
      </trkpt>
      <trkpt lat="45.47618" lon="4.69732">
        <ele>627</ele>
        <time>2019-09-29T08:49:30.000Z</time>
      </trkpt>
      <trkpt lat="45.4762" lon="4.6973">
        <ele>627</ele>
        <time>2019-09-29T08:49:31.000Z</time>
      </trkpt>
      <trkpt lat="45.47622" lon="4.69729">
        <ele>627</ele>
        <time>2019-09-29T08:49:32.000Z</time>
      </trkpt>
      <trkpt lat="45.47623" lon="4.69728">
        <ele>627</ele>
        <time>2019-09-29T08:49:33.000Z</time>
      </trkpt>
      <trkpt lat="45.47625" lon="4.69726">
        <ele>627</ele>
        <time>2019-09-29T08:49:34.000Z</time>
      </trkpt>
      <trkpt lat="45.47627" lon="4.69725">
        <ele>627</ele>
        <time>2019-09-29T08:49:35.000Z</time>
      </trkpt>
      <trkpt lat="45.47629" lon="4.69724">
        <ele>627</ele>
        <time>2019-09-29T08:49:36.000Z</time>
      </trkpt>
      <trkpt lat="45.47631" lon="4.69723">
        <ele>627</ele>
        <time>2019-09-29T08:49:37.000Z</time>
      </trkpt>
      <trkpt lat="45.47633" lon="4.69722">
        <ele>627</ele>
        <time>2019-09-29T08:49:38.000Z</time>
      </trkpt>
      <trkpt lat="45.47635" lon="4.6972">
        <ele>627.26000307196</ele>
        <time>2019-09-29T08:49:39.000Z</time>
      </trkpt>
      <trkpt lat="45.47638" lon="4.69718">
        <ele>628</ele>
        <time>2019-09-29T08:49:41.000Z</time>
      </trkpt>
      <trkpt lat="45.47639" lon="4.69716">
        <ele>628</ele>
        <time>2019-09-29T08:49:42.000Z</time>
      </trkpt>
      <trkpt lat="45.4764" lon="4.69714">
        <ele>628</ele>
        <time>2019-09-29T08:49:43.000Z</time>
      </trkpt>
      <trkpt lat="45.47641" lon="4.69712">
        <ele>628</ele>
        <time>2019-09-29T08:49:44.000Z</time>
      </trkpt>
      <trkpt lat="45.47642" lon="4.6971">
        <ele>628</ele>
        <time>2019-09-29T08:49:45.000Z</time>
      </trkpt>
      <trkpt lat="45.47642" lon="4.69707">
        <ele>628</ele>
        <time>2019-09-29T08:49:46.000Z</time>
      </trkpt>
      <trkpt lat="45.47642" lon="4.69704">
        <ele>628</ele>
        <time>2019-09-29T08:49:47.000Z</time>
      </trkpt>
      <trkpt lat="45.47642" lon="4.69701">
        <ele>628</ele>
        <time>2019-09-29T08:49:48.000Z</time>
      </trkpt>
      <trkpt lat="45.47641" lon="4.69699">
        <ele>628</ele>
        <time>2019-09-29T08:49:49.000Z</time>
      </trkpt>
      <trkpt lat="45.47639" lon="4.69697">
        <ele>628</ele>
        <time>2019-09-29T08:49:50.000Z</time>
      </trkpt>
      <trkpt lat="45.47638" lon="4.69695">
        <ele>628</ele>
        <time>2019-09-29T08:49:51.000Z</time>
      </trkpt>
      <trkpt lat="45.47636" lon="4.69691">
        <ele>628</ele>
        <time>2019-09-29T08:49:53.000Z</time>
      </trkpt>
      <trkpt lat="45.47634" lon="4.69688">
        <ele>628</ele>
        <time>2019-09-29T08:49:55.000Z</time>
      </trkpt>
      <trkpt lat="45.47632" lon="4.69685">
        <ele>628</ele>
        <time>2019-09-29T08:49:57.000Z</time>
      </trkpt>
      <trkpt lat="45.4763" lon="4.69683">
        <ele>628</ele>
        <time>2019-09-29T08:49:59.000Z</time>
      </trkpt>
      <trkpt lat="45.47627" lon="4.69682">
        <ele>628</ele>
        <time>2019-09-29T08:50:01.000Z</time>
      </trkpt>
      <trkpt lat="45.47624" lon="4.6968">
        <ele>628</ele>
        <time>2019-09-29T08:50:03.000Z</time>
      </trkpt>
      <trkpt lat="45.47622" lon="4.69678">
        <ele>628</ele>
        <time>2019-09-29T08:50:05.000Z</time>
      </trkpt>
      <trkpt lat="45.4762" lon="4.69675">
        <ele>628</ele>
        <time>2019-09-29T08:50:07.000Z</time>
      </trkpt>
      <trkpt lat="45.47619" lon="4.69673">
        <ele>628</ele>
        <time>2019-09-29T08:50:09.000Z</time>
      </trkpt>
      <trkpt lat="45.47617" lon="4.69672">
        <ele>628</ele>
        <time>2019-09-29T08:50:16.000Z</time>
      </trkpt>
      <trkpt lat="45.47615" lon="4.6967">
        <ele>629</ele>
        <time>2019-09-29T08:50:18.000Z</time>
      </trkpt>
      <trkpt lat="45.47613" lon="4.69667">
        <ele>629</ele>
        <time>2019-09-29T08:50:20.000Z</time>
      </trkpt>
      <trkpt lat="45.4761" lon="4.69664">
        <ele>629</ele>
        <time>2019-09-29T08:50:22.000Z</time>
      </trkpt>
      <trkpt lat="45.47608" lon="4.69662">
        <ele>629</ele>
        <time>2019-09-29T08:50:24.000Z</time>
      </trkpt>
      <trkpt lat="45.47607" lon="4.6966">
        <ele>629</ele>
        <time>2019-09-29T08:50:26.000Z</time>
      </trkpt>
      <trkpt lat="45.47606" lon="4.69658">
        <ele>630</ele>
        <time>2019-09-29T08:50:28.000Z</time>
      </trkpt>
      <trkpt lat="45.47605" lon="4.69656">
        <ele>630</ele>
        <time>2019-09-29T08:50:30.000Z</time>
      </trkpt>
      <trkpt lat="45.47603" lon="4.69653">
        <ele>630</ele>
        <time>2019-09-29T08:50:32.000Z</time>
      </trkpt>
      <trkpt lat="45.47602" lon="4.69651">
        <ele>630.25999692796</ele>
        <time>2019-09-29T08:50:34.000Z</time>
      </trkpt>
      <trkpt lat="45.476" lon="4.69648">
        <ele>631</ele>
        <time>2019-09-29T08:50:36.000Z</time>
      </trkpt>
      <trkpt lat="45.47599" lon="4.69645">
        <ele>631</ele>
        <time>2019-09-29T08:50:39.000Z</time>
      </trkpt>
      <trkpt lat="45.47598" lon="4.69643">
        <ele>631</ele>
        <time>2019-09-29T08:50:43.000Z</time>
      </trkpt>
      <trkpt lat="45.47596" lon="4.69641">
        <ele>631</ele>
        <time>2019-09-29T08:50:45.000Z</time>
      </trkpt>
      <trkpt lat="45.47595" lon="4.69637">
        <ele>631</ele>
        <time>2019-09-29T08:50:51.000Z</time>
      </trkpt>
      <trkpt lat="45.47594" lon="4.69633">
        <ele>632</ele>
        <time>2019-09-29T08:50:53.000Z</time>
      </trkpt>
      <trkpt lat="45.47593" lon="4.69631">
        <ele>632</ele>
        <time>2019-09-29T08:50:55.000Z</time>
      </trkpt>
      <trkpt lat="45.47591" lon="4.69631">
        <ele>632</ele>
        <time>2019-09-29T08:51:24.000Z</time>
      </trkpt>
      <trkpt lat="45.47589" lon="4.69629">
        <ele>632</ele>
        <time>2019-09-29T08:51:26.000Z</time>
      </trkpt>
      <trkpt lat="45.47587" lon="4.69627">
        <ele>632</ele>
        <time>2019-09-29T08:51:28.000Z</time>
      </trkpt>
      <trkpt lat="45.47585" lon="4.69623">
        <ele>632.25999692796</ele>
        <time>2019-09-29T08:51:30.000Z</time>
      </trkpt>
      <trkpt lat="45.47584" lon="4.6962">
        <ele>633</ele>
        <time>2019-09-29T08:51:32.000Z</time>
      </trkpt>
      <trkpt lat="45.47583" lon="4.69617">
        <ele>633</ele>
        <time>2019-09-29T08:51:34.000Z</time>
      </trkpt>
      <trkpt lat="45.47582" lon="4.69614">
        <ele>633</ele>
        <time>2019-09-29T08:51:36.000Z</time>
      </trkpt>
      <trkpt lat="45.4758" lon="4.6961">
        <ele>633</ele>
        <time>2019-09-29T08:51:38.000Z</time>
      </trkpt>
      <trkpt lat="45.47579" lon="4.69607">
        <ele>633</ele>
        <time>2019-09-29T08:51:40.000Z</time>
      </trkpt>
      <trkpt lat="45.47577" lon="4.69605">
        <ele>633</ele>
        <time>2019-09-29T08:51:42.000Z</time>
      </trkpt>
      <trkpt lat="45.47575" lon="4.69603">
        <ele>633</ele>
        <time>2019-09-29T08:51:55.000Z</time>
      </trkpt>
      <trkpt lat="45.47573" lon="4.696">
        <ele>633</ele>
        <time>2019-09-29T08:51:57.000Z</time>
      </trkpt>
      <trkpt lat="45.47571" lon="4.69599">
        <ele>633</ele>
        <time>2019-09-29T08:51:58.000Z</time>
      </trkpt>
      <trkpt lat="45.4757" lon="4.69597">
        <ele>633.26000307196</ele>
        <time>2019-09-29T08:51:59.000Z</time>
      </trkpt>
      <trkpt lat="45.47568" lon="4.69593">
        <ele>634</ele>
        <time>2019-09-29T08:52:01.000Z</time>
      </trkpt>
      <trkpt lat="45.47568" lon="4.69588">
        <ele>634</ele>
        <time>2019-09-29T08:52:03.000Z</time>
      </trkpt>
      <trkpt lat="45.47566" lon="4.69585">
        <ele>634</ele>
        <time>2019-09-29T08:52:05.000Z</time>
      </trkpt>
      <trkpt lat="45.47565" lon="4.69582">
        <ele>634.26000307196</ele>
        <time>2019-09-29T08:52:37.000Z</time>
      </trkpt>
      <trkpt lat="45.47564" lon="4.69579">
        <ele>635</ele>
        <time>2019-09-29T08:52:39.000Z</time>
      </trkpt>
      <trkpt lat="45.47563" lon="4.69575">
        <ele>635</ele>
        <time>2019-09-29T08:52:41.000Z</time>
      </trkpt>
      <trkpt lat="45.47562" lon="4.69572">
        <ele>635</ele>
        <time>2019-09-29T08:52:43.000Z</time>
      </trkpt>
      <trkpt lat="45.47561" lon="4.69568">
        <ele>636</ele>
        <time>2019-09-29T08:52:45.000Z</time>
      </trkpt>
      <trkpt lat="45.47561" lon="4.69565">
        <ele>636</ele>
        <time>2019-09-29T08:52:46.000Z</time>
      </trkpt>
      <trkpt lat="45.4756" lon="4.69562">
        <ele>637</ele>
        <time>2019-09-29T08:52:48.000Z</time>
      </trkpt>
      <trkpt lat="45.47561" lon="4.69559">
        <ele>638.2499968</ele>
        <time>2019-09-29T08:52:52.000Z</time>
      </trkpt>
      <trkpt lat="45.47562" lon="4.69558">
        <ele>640</ele>
        <time>2019-09-29T08:52:56.000Z</time>
      </trkpt>
      <trkpt lat="45.47565" lon="4.69556">
        <ele>641.25252120397</ele>
        <time>2019-09-29T08:52:59.000Z</time>
      </trkpt>
      <trkpt lat="45.47566" lon="4.69554">
        <ele>642.26000307196</ele>
        <time>2019-09-29T08:53:01.000Z</time>
      </trkpt>
      <trkpt lat="45.47566" lon="4.69549">
        <ele>643</ele>
        <time>2019-09-29T08:53:03.000Z</time>
      </trkpt>
      <trkpt lat="45.47564" lon="4.69545">
        <ele>643</ele>
        <time>2019-09-29T08:53:05.000Z</time>
      </trkpt>
      <trkpt lat="45.47563" lon="4.6954">
        <ele>643</ele>
        <time>2019-09-29T08:53:07.000Z</time>
      </trkpt>
      <trkpt lat="45.47562" lon="4.69536">
        <ele>643.26000307196</ele>
        <time>2019-09-29T08:53:09.000Z</time>
      </trkpt>
      <trkpt lat="45.47562" lon="4.69532">
        <ele>644</ele>
        <time>2019-09-29T08:53:11.000Z</time>
      </trkpt>
      <trkpt lat="45.47561" lon="4.69528">
        <ele>644</ele>
        <time>2019-09-29T08:53:13.000Z</time>
      </trkpt>
      <trkpt lat="45.4756" lon="4.69524">
        <ele>644</ele>
        <time>2019-09-29T08:53:15.000Z</time>
      </trkpt>
      <trkpt lat="45.4756" lon="4.6952">
        <ele>644</ele>
        <time>2019-09-29T08:53:17.000Z</time>
      </trkpt>
      <trkpt lat="45.47559" lon="4.69516">
        <ele>645</ele>
        <time>2019-09-29T08:53:19.000Z</time>
      </trkpt>
      <trkpt lat="45.47557" lon="4.69512">
        <ele>645</ele>
        <time>2019-09-29T08:53:21.000Z</time>
      </trkpt>
      <trkpt lat="45.47557" lon="4.69508">
        <ele>645</ele>
        <time>2019-09-29T08:53:23.000Z</time>
      </trkpt>
      <trkpt lat="45.47556" lon="4.69504">
        <ele>645</ele>
        <time>2019-09-29T08:53:25.000Z</time>
      </trkpt>
      <trkpt lat="45.47555" lon="4.69501">
        <ele>646</ele>
        <time>2019-09-29T08:53:27.000Z</time>
      </trkpt>
      <trkpt lat="45.47553" lon="4.69499">
        <ele>646.26000307196</ele>
        <time>2019-09-29T08:53:43.000Z</time>
      </trkpt>
      <trkpt lat="45.47551" lon="4.69498">
        <ele>648</ele>
        <time>2019-09-29T08:53:53.000Z</time>
      </trkpt>
      <trkpt lat="45.47553" lon="4.69496">
        <ele>650.2499968</ele>
        <time>2019-09-29T08:54:04.000Z</time>
      </trkpt>
      <trkpt lat="45.47554" lon="4.69493">
        <ele>652</ele>
        <time>2019-09-29T08:54:11.000Z</time>
      </trkpt>
      <trkpt lat="45.47556" lon="4.69492">
        <ele>653</ele>
        <time>2019-09-29T08:54:17.000Z</time>
      </trkpt>
      <trkpt lat="45.47556" lon="4.69489">
        <ele>653</ele>
        <time>2019-09-29T08:54:22.000Z</time>
      </trkpt>
      <trkpt lat="45.47556" lon="4.69486">
        <ele>653.25999692796</ele>
        <time>2019-09-29T08:54:24.000Z</time>
      </trkpt>
      <trkpt lat="45.47555" lon="4.69483">
        <ele>654</ele>
        <time>2019-09-29T08:54:26.000Z</time>
      </trkpt>
      <trkpt lat="45.47554" lon="4.6948">
        <ele>654</ele>
        <time>2019-09-29T08:54:28.000Z</time>
      </trkpt>
      <trkpt lat="45.47553" lon="4.69476">
        <ele>654</ele>
        <time>2019-09-29T08:54:30.000Z</time>
      </trkpt>
      <trkpt lat="45.47555" lon="4.69473">
        <ele>654</ele>
        <time>2019-09-29T08:54:32.000Z</time>
      </trkpt>
      <trkpt lat="45.47555" lon="4.6947">
        <ele>654.25999692796</ele>
        <time>2019-09-29T08:54:34.000Z</time>
      </trkpt>
      <trkpt lat="45.47555" lon="4.69467">
        <ele>655</ele>
        <time>2019-09-29T08:54:36.000Z</time>
      </trkpt>
      <trkpt lat="45.47555" lon="4.69463">
        <ele>655</ele>
        <time>2019-09-29T08:54:38.000Z</time>
      </trkpt>
      <trkpt lat="45.47555" lon="4.6946">
        <ele>655</ele>
        <time>2019-09-29T08:54:40.000Z</time>
      </trkpt>
      <trkpt lat="45.47554" lon="4.69456">
        <ele>656</ele>
        <time>2019-09-29T08:54:42.000Z</time>
      </trkpt>
      <trkpt lat="45.47555" lon="4.69454">
        <ele>657</ele>
        <time>2019-09-29T08:54:52.000Z</time>
      </trkpt>
      <trkpt lat="45.47557" lon="4.69453">
        <ele>657</ele>
        <time>2019-09-29T08:54:54.000Z</time>
      </trkpt>
      <trkpt lat="45.47556" lon="4.69439">
        <ele>659</ele>
        <time>2019-09-29T08:55:01.000Z</time>
      </trkpt>
      <trkpt lat="45.47556" lon="4.69434">
        <ele>659.25999692796</ele>
        <time>2019-09-29T08:55:04.000Z</time>
      </trkpt>
      <trkpt lat="45.47556" lon="4.69431">
        <ele>660</ele>
        <time>2019-09-29T08:55:06.000Z</time>
      </trkpt>
      <trkpt lat="45.47556" lon="4.69428">
        <ele>660</ele>
        <time>2019-09-29T08:55:08.000Z</time>
      </trkpt>
      <trkpt lat="45.47556" lon="4.69424">
        <ele>660</ele>
        <time>2019-09-29T08:55:10.000Z</time>
      </trkpt>
      <trkpt lat="45.47557" lon="4.69421">
        <ele>660</ele>
        <time>2019-09-29T08:55:12.000Z</time>
      </trkpt>
      <trkpt lat="45.47556" lon="4.69416">
        <ele>660.25999692796</ele>
        <time>2019-09-29T08:55:14.000Z</time>
      </trkpt>
      <trkpt lat="45.47555" lon="4.69412">
        <ele>661</ele>
        <time>2019-09-29T08:55:16.000Z</time>
      </trkpt>
      <trkpt lat="45.47555" lon="4.6941">
        <ele>661</ele>
        <time>2019-09-29T08:55:17.000Z</time>
      </trkpt>
      <trkpt lat="45.47554" lon="4.69405">
        <ele>662</ele>
        <time>2019-09-29T08:55:19.000Z</time>
      </trkpt>
      <trkpt lat="45.47554" lon="4.694">
        <ele>662</ele>
        <time>2019-09-29T08:55:21.000Z</time>
      </trkpt>
      <trkpt lat="45.47553" lon="4.69396">
        <ele>662.26000307196</ele>
        <time>2019-09-29T08:55:23.000Z</time>
      </trkpt>
      <trkpt lat="45.47552" lon="4.69392">
        <ele>663</ele>
        <time>2019-09-29T08:55:25.000Z</time>
      </trkpt>
      <trkpt lat="45.4755" lon="4.69388">
        <ele>663</ele>
        <time>2019-09-29T08:55:27.000Z</time>
      </trkpt>
      <trkpt lat="45.47549" lon="4.69383">
        <ele>663</ele>
        <time>2019-09-29T08:55:30.000Z</time>
      </trkpt>
      <trkpt lat="45.47547" lon="4.69379">
        <ele>663</ele>
        <time>2019-09-29T08:55:32.000Z</time>
      </trkpt>
      <trkpt lat="45.47546" lon="4.69377">
        <ele>663</ele>
        <time>2019-09-29T08:55:33.000Z</time>
      </trkpt>
      <trkpt lat="45.47544" lon="4.69373">
        <ele>663.73999692804</ele>
        <time>2019-09-29T08:55:35.000Z</time>
      </trkpt>
      <trkpt lat="45.47543" lon="4.6937">
        <ele>663</ele>
        <time>2019-09-29T08:55:37.000Z</time>
      </trkpt>
      <trkpt lat="45.4754" lon="4.69367">
        <ele>663</ele>
        <time>2019-09-29T08:55:39.000Z</time>
      </trkpt>
      <trkpt lat="45.47539" lon="4.69366">
        <ele>663</ele>
        <time>2019-09-29T08:55:40.000Z</time>
      </trkpt>
      <trkpt lat="45.47537" lon="4.69364">
        <ele>663</ele>
        <time>2019-09-29T08:55:41.000Z</time>
      </trkpt>
      <trkpt lat="45.47535" lon="4.69363">
        <ele>663</ele>
        <time>2019-09-29T08:55:42.000Z</time>
      </trkpt>
      <trkpt lat="45.47533" lon="4.69362">
        <ele>663</ele>
        <time>2019-09-29T08:55:43.000Z</time>
      </trkpt>
      <trkpt lat="45.47531" lon="4.6936">
        <ele>663</ele>
        <time>2019-09-29T08:55:44.000Z</time>
      </trkpt>
      <trkpt lat="45.47529" lon="4.69359">
        <ele>663</ele>
        <time>2019-09-29T08:55:45.000Z</time>
      </trkpt>
      <trkpt lat="45.47527" lon="4.69357">
        <ele>663</ele>
        <time>2019-09-29T08:55:46.000Z</time>
      </trkpt>
      <trkpt lat="45.47525" lon="4.69356">
        <ele>663</ele>
        <time>2019-09-29T08:55:47.000Z</time>
      </trkpt>
      <trkpt lat="45.47524" lon="4.69355">
        <ele>663</ele>
        <time>2019-09-29T08:55:48.000Z</time>
      </trkpt>
      <trkpt lat="45.47522" lon="4.69353">
        <ele>663</ele>
        <time>2019-09-29T08:55:49.000Z</time>
      </trkpt>
      <trkpt lat="45.47519" lon="4.69352">
        <ele>663</ele>
        <time>2019-09-29T08:55:50.000Z</time>
      </trkpt>
      <trkpt lat="45.47516" lon="4.69351">
        <ele>663</ele>
        <time>2019-09-29T08:55:51.000Z</time>
      </trkpt>
      <trkpt lat="45.47514" lon="4.69349">
        <ele>663.25999692796</ele>
        <time>2019-09-29T08:55:52.000Z</time>
      </trkpt>
      <trkpt lat="45.47513" lon="4.69348">
        <ele>664</ele>
        <time>2019-09-29T08:55:53.000Z</time>
      </trkpt>
      <trkpt lat="45.47511" lon="4.69347">
        <ele>664</ele>
        <time>2019-09-29T08:55:54.000Z</time>
      </trkpt>
      <trkpt lat="45.47509" lon="4.69347">
        <ele>664</ele>
        <time>2019-09-29T08:55:55.000Z</time>
      </trkpt>
      <trkpt lat="45.47506" lon="4.69348">
        <ele>664</ele>
        <time>2019-09-29T08:55:56.000Z</time>
      </trkpt>
      <trkpt lat="45.47504" lon="4.69348">
        <ele>664.26000307196</ele>
        <time>2019-09-29T08:55:57.000Z</time>
      </trkpt>
      <trkpt lat="45.47502" lon="4.69349">
        <ele>665</ele>
        <time>2019-09-29T08:55:58.000Z</time>
      </trkpt>
      <trkpt lat="45.475" lon="4.6935">
        <ele>665</ele>
        <time>2019-09-29T08:55:59.000Z</time>
      </trkpt>
      <trkpt lat="45.47497" lon="4.69352">
        <ele>665.25999692796</ele>
        <time>2019-09-29T08:56:00.000Z</time>
      </trkpt>
      <trkpt lat="45.47495" lon="4.69353">
        <ele>666</ele>
        <time>2019-09-29T08:56:01.000Z</time>
      </trkpt>
      <trkpt lat="45.47493" lon="4.69354">
        <ele>666</ele>
        <time>2019-09-29T08:56:02.000Z</time>
      </trkpt>
      <trkpt lat="45.47491" lon="4.69356">
        <ele>666</ele>
        <time>2019-09-29T08:56:03.000Z</time>
      </trkpt>
      <trkpt lat="45.47489" lon="4.69358">
        <ele>666</ele>
        <time>2019-09-29T08:56:04.000Z</time>
      </trkpt>
      <trkpt lat="45.47487" lon="4.69359">
        <ele>666.26000307196</ele>
        <time>2019-09-29T08:56:05.000Z</time>
      </trkpt>
      <trkpt lat="45.47485" lon="4.69361">
        <ele>667</ele>
        <time>2019-09-29T08:56:06.000Z</time>
      </trkpt>
      <trkpt lat="45.47483" lon="4.69363">
        <ele>667</ele>
        <time>2019-09-29T08:56:07.000Z</time>
      </trkpt>
      <trkpt lat="45.47481" lon="4.69365">
        <ele>667</ele>
        <time>2019-09-29T08:56:08.000Z</time>
      </trkpt>
      <trkpt lat="45.4748" lon="4.69367">
        <ele>668</ele>
        <time>2019-09-29T08:56:09.000Z</time>
      </trkpt>
      <trkpt lat="45.47479" lon="4.69369">
        <ele>668</ele>
        <time>2019-09-29T08:56:13.000Z</time>
      </trkpt>
      <trkpt lat="45.47478" lon="4.69366">
        <ele>670</ele>
        <time>2019-09-29T08:59:54.000Z</time>
      </trkpt>
      <trkpt lat="45.47481" lon="4.69361">
        <ele>669.74000307204</ele>
        <time>2019-09-29T09:00:06.000Z</time>
      </trkpt>
      <trkpt lat="45.47483" lon="4.69358">
        <ele>669</ele>
        <time>2019-09-29T09:00:07.000Z</time>
      </trkpt>
      <trkpt lat="45.47486" lon="4.69356">
        <ele>669</ele>
        <time>2019-09-29T09:00:08.000Z</time>
      </trkpt>
      <trkpt lat="45.47489" lon="4.69354">
        <ele>668.73999692804</ele>
        <time>2019-09-29T09:00:09.000Z</time>
      </trkpt>
      <trkpt lat="45.47492" lon="4.69351">
        <ele>668</ele>
        <time>2019-09-29T09:00:10.000Z</time>
      </trkpt>
      <trkpt lat="45.47494" lon="4.69348">
        <ele>668</ele>
        <time>2019-09-29T09:00:11.000Z</time>
      </trkpt>
      <trkpt lat="45.47495" lon="4.69345">
        <ele>668</ele>
        <time>2019-09-29T09:00:12.000Z</time>
      </trkpt>
      <trkpt lat="45.47494" lon="4.6934">
        <ele>667.79688</ele>
        <time>2019-09-29T09:00:14.000Z</time>
      </trkpt>
      <trkpt lat="45.47493" lon="4.69337">
        <ele>667.01563</ele>
        <time>2019-09-29T09:00:15.000Z</time>
      </trkpt>
      <trkpt lat="45.47491" lon="4.69336">
        <ele>667</ele>
        <time>2019-09-29T09:00:16.000Z</time>
      </trkpt>
      <trkpt lat="45.47489" lon="4.69336">
        <ele>667</ele>
        <time>2019-09-29T09:00:18.000Z</time>
      </trkpt>
      <trkpt lat="45.47486" lon="4.69336">
        <ele>668</ele>
        <time>2019-09-29T09:00:31.000Z</time>
      </trkpt>
      <trkpt lat="45.47483" lon="4.69335">
        <ele>668</ele>
        <time>2019-09-29T09:00:33.000Z</time>
      </trkpt>
      <trkpt lat="45.47481" lon="4.69334">
        <ele>668</ele>
        <time>2019-09-29T09:00:34.000Z</time>
      </trkpt>
      <trkpt lat="45.47479" lon="4.69334">
        <ele>667</ele>
        <time>2019-09-29T09:00:35.000Z</time>
      </trkpt>
      <trkpt lat="45.47476" lon="4.69333">
        <ele>667</ele>
        <time>2019-09-29T09:00:36.000Z</time>
      </trkpt>
      <trkpt lat="45.47473" lon="4.69333">
        <ele>667</ele>
        <time>2019-09-29T09:00:37.000Z</time>
      </trkpt>
      <trkpt lat="45.4747" lon="4.69332">
        <ele>667</ele>
        <time>2019-09-29T09:00:38.000Z</time>
      </trkpt>
      <trkpt lat="45.47467" lon="4.69332">
        <ele>667</ele>
        <time>2019-09-29T09:00:39.000Z</time>
      </trkpt>
      <trkpt lat="45.47464" lon="4.69332">
        <ele>667</ele>
        <time>2019-09-29T09:00:40.000Z</time>
      </trkpt>
      <trkpt lat="45.47462" lon="4.69332">
        <ele>667</ele>
        <time>2019-09-29T09:00:41.000Z</time>
      </trkpt>
      <trkpt lat="45.47459" lon="4.69332">
        <ele>667</ele>
        <time>2019-09-29T09:00:42.000Z</time>
      </trkpt>
      <trkpt lat="45.47456" lon="4.69332">
        <ele>667</ele>
        <time>2019-09-29T09:00:43.000Z</time>
      </trkpt>
      <trkpt lat="45.47454" lon="4.69333">
        <ele>667</ele>
        <time>2019-09-29T09:00:44.000Z</time>
      </trkpt>
      <trkpt lat="45.47451" lon="4.69333">
        <ele>667</ele>
        <time>2019-09-29T09:00:45.000Z</time>
      </trkpt>
      <trkpt lat="45.47449" lon="4.69332">
        <ele>667</ele>
        <time>2019-09-29T09:00:46.000Z</time>
      </trkpt>
      <trkpt lat="45.47447" lon="4.69331">
        <ele>667</ele>
        <time>2019-09-29T09:00:47.000Z</time>
      </trkpt>
      <trkpt lat="45.47444" lon="4.69331">
        <ele>667</ele>
        <time>2019-09-29T09:00:48.000Z</time>
      </trkpt>
      <trkpt lat="45.47441" lon="4.6933">
        <ele>667</ele>
        <time>2019-09-29T09:00:49.000Z</time>
      </trkpt>
      <trkpt lat="45.47438" lon="4.69329">
        <ele>666.74000307204</ele>
        <time>2019-09-29T09:00:50.000Z</time>
      </trkpt>
      <trkpt lat="45.47435" lon="4.69328">
        <ele>666</ele>
        <time>2019-09-29T09:00:51.000Z</time>
      </trkpt>
      <trkpt lat="45.47432" lon="4.69327">
        <ele>666</ele>
        <time>2019-09-29T09:00:52.000Z</time>
      </trkpt>
      <trkpt lat="45.4743" lon="4.69326">
        <ele>666</ele>
        <time>2019-09-29T09:00:53.000Z</time>
      </trkpt>
      <trkpt lat="45.47427" lon="4.69326">
        <ele>666</ele>
        <time>2019-09-29T09:00:54.000Z</time>
      </trkpt>
      <trkpt lat="45.47424" lon="4.69325">
        <ele>666</ele>
        <time>2019-09-29T09:00:55.000Z</time>
      </trkpt>
      <trkpt lat="45.47422" lon="4.69324">
        <ele>666</ele>
        <time>2019-09-29T09:00:56.000Z</time>
      </trkpt>
      <trkpt lat="45.47419" lon="4.69322">
        <ele>666</ele>
        <time>2019-09-29T09:00:57.000Z</time>
      </trkpt>
      <trkpt lat="45.47416" lon="4.6932">
        <ele>666</ele>
        <time>2019-09-29T09:00:58.000Z</time>
      </trkpt>
      <trkpt lat="45.47414" lon="4.69319">
        <ele>666</ele>
        <time>2019-09-29T09:00:59.000Z</time>
      </trkpt>
      <trkpt lat="45.47411" lon="4.69318">
        <ele>666</ele>
        <time>2019-09-29T09:01:00.000Z</time>
      </trkpt>
      <trkpt lat="45.47409" lon="4.69316">
        <ele>666</ele>
        <time>2019-09-29T09:01:01.000Z</time>
      </trkpt>
      <trkpt lat="45.47406" lon="4.69314">
        <ele>666.25999692796</ele>
        <time>2019-09-29T09:01:02.000Z</time>
      </trkpt>
      <trkpt lat="45.47404" lon="4.69312">
        <ele>667</ele>
        <time>2019-09-29T09:01:03.000Z</time>
      </trkpt>
      <trkpt lat="45.47401" lon="4.6931">
        <ele>667</ele>
        <time>2019-09-29T09:01:04.000Z</time>
      </trkpt>
      <trkpt lat="45.47398" lon="4.69308">
        <ele>667</ele>
        <time>2019-09-29T09:01:05.000Z</time>
      </trkpt>
      <trkpt lat="45.47395" lon="4.69306">
        <ele>667</ele>
        <time>2019-09-29T09:01:06.000Z</time>
      </trkpt>
      <trkpt lat="45.47393" lon="4.69304">
        <ele>667</ele>
        <time>2019-09-29T09:01:07.000Z</time>
      </trkpt>
      <trkpt lat="45.4739" lon="4.69302">
        <ele>667</ele>
        <time>2019-09-29T09:01:08.000Z</time>
      </trkpt>
      <trkpt lat="45.47387" lon="4.693">
        <ele>667</ele>
        <time>2019-09-29T09:01:09.000Z</time>
      </trkpt>
      <trkpt lat="45.47384" lon="4.69297">
        <ele>667</ele>
        <time>2019-09-29T09:01:10.000Z</time>
      </trkpt>
      <trkpt lat="45.47382" lon="4.69295">
        <ele>667</ele>
        <time>2019-09-29T09:01:11.000Z</time>
      </trkpt>
      <trkpt lat="45.47379" lon="4.69294">
        <ele>667</ele>
        <time>2019-09-29T09:01:12.000Z</time>
      </trkpt>
      <trkpt lat="45.47377" lon="4.69292">
        <ele>667</ele>
        <time>2019-09-29T09:01:13.000Z</time>
      </trkpt>
      <trkpt lat="45.47375" lon="4.69291">
        <ele>667</ele>
        <time>2019-09-29T09:01:14.000Z</time>
      </trkpt>
      <trkpt lat="45.47373" lon="4.69289">
        <ele>667</ele>
        <time>2019-09-29T09:01:15.000Z</time>
      </trkpt>
      <trkpt lat="45.4737" lon="4.69288">
        <ele>667</ele>
        <time>2019-09-29T09:01:16.000Z</time>
      </trkpt>
      <trkpt lat="45.47367" lon="4.69287">
        <ele>667</ele>
        <time>2019-09-29T09:01:17.000Z</time>
      </trkpt>
      <trkpt lat="45.47365" lon="4.69285">
        <ele>667</ele>
        <time>2019-09-29T09:01:18.000Z</time>
      </trkpt>
      <trkpt lat="45.47362" lon="4.69283">
        <ele>667</ele>
        <time>2019-09-29T09:01:19.000Z</time>
      </trkpt>
      <trkpt lat="45.47359" lon="4.69281">
        <ele>667</ele>
        <time>2019-09-29T09:01:20.000Z</time>
      </trkpt>
      <trkpt lat="45.47356" lon="4.69278">
        <ele>667</ele>
        <time>2019-09-29T09:01:21.000Z</time>
      </trkpt>
      <trkpt lat="45.47354" lon="4.69276">
        <ele>667</ele>
        <time>2019-09-29T09:01:22.000Z</time>
      </trkpt>
      <trkpt lat="45.47352" lon="4.69273">
        <ele>667.26000307196</ele>
        <time>2019-09-29T09:01:23.000Z</time>
      </trkpt>
      <trkpt lat="45.47349" lon="4.6927">
        <ele>668</ele>
        <time>2019-09-29T09:01:24.000Z</time>
      </trkpt>
      <trkpt lat="45.47347" lon="4.69268">
        <ele>668</ele>
        <time>2019-09-29T09:01:25.000Z</time>
      </trkpt>
      <trkpt lat="45.47345" lon="4.69265">
        <ele>668</ele>
        <time>2019-09-29T09:01:26.000Z</time>
      </trkpt>
      <trkpt lat="45.47343" lon="4.69262">
        <ele>668</ele>
        <time>2019-09-29T09:01:27.000Z</time>
      </trkpt>
      <trkpt lat="45.47341" lon="4.69259">
        <ele>668</ele>
        <time>2019-09-29T09:01:28.000Z</time>
      </trkpt>
      <trkpt lat="45.47339" lon="4.69257">
        <ele>668</ele>
        <time>2019-09-29T09:01:29.000Z</time>
      </trkpt>
      <trkpt lat="45.47337" lon="4.69254">
        <ele>668</ele>
        <time>2019-09-29T09:01:30.000Z</time>
      </trkpt>
      <trkpt lat="45.47335" lon="4.69251">
        <ele>668</ele>
        <time>2019-09-29T09:01:31.000Z</time>
      </trkpt>
      <trkpt lat="45.47332" lon="4.69248">
        <ele>669</ele>
        <time>2019-09-29T09:01:32.000Z</time>
      </trkpt>
      <trkpt lat="45.4733" lon="4.69245">
        <ele>669</ele>
        <time>2019-09-29T09:01:33.000Z</time>
      </trkpt>
      <trkpt lat="45.47328" lon="4.69242">
        <ele>669</ele>
        <time>2019-09-29T09:01:34.000Z</time>
      </trkpt>
      <trkpt lat="45.47326" lon="4.6924">
        <ele>669</ele>
        <time>2019-09-29T09:01:35.000Z</time>
      </trkpt>
      <trkpt lat="45.47324" lon="4.69237">
        <ele>669</ele>
        <time>2019-09-29T09:01:36.000Z</time>
      </trkpt>
      <trkpt lat="45.47321" lon="4.69233">
        <ele>669</ele>
        <time>2019-09-29T09:01:37.000Z</time>
      </trkpt>
      <trkpt lat="45.47319" lon="4.6923">
        <ele>669</ele>
        <time>2019-09-29T09:01:38.000Z</time>
      </trkpt>
      <trkpt lat="45.47317" lon="4.69226">
        <ele>669</ele>
        <time>2019-09-29T09:01:39.000Z</time>
      </trkpt>
      <trkpt lat="45.47315" lon="4.69223">
        <ele>669</ele>
        <time>2019-09-29T09:01:40.000Z</time>
      </trkpt>
      <trkpt lat="45.47313" lon="4.69219">
        <ele>669</ele>
        <time>2019-09-29T09:01:41.000Z</time>
      </trkpt>
      <trkpt lat="45.47311" lon="4.69215">
        <ele>669</ele>
        <time>2019-09-29T09:01:42.000Z</time>
      </trkpt>
      <trkpt lat="45.47309" lon="4.69212">
        <ele>669</ele>
        <time>2019-09-29T09:01:43.000Z</time>
      </trkpt>
      <trkpt lat="45.47308" lon="4.69209">
        <ele>669</ele>
        <time>2019-09-29T09:01:44.000Z</time>
      </trkpt>
      <trkpt lat="45.47306" lon="4.69206">
        <ele>668.73999692804</ele>
        <time>2019-09-29T09:01:45.000Z</time>
      </trkpt>
      <trkpt lat="45.47305" lon="4.69202">
        <ele>668</ele>
        <time>2019-09-29T09:01:46.000Z</time>
      </trkpt>
      <trkpt lat="45.47303" lon="4.69199">
        <ele>668</ele>
        <time>2019-09-29T09:01:47.000Z</time>
      </trkpt>
      <trkpt lat="45.47301" lon="4.69195">
        <ele>668</ele>
        <time>2019-09-29T09:01:48.000Z</time>
      </trkpt>
      <trkpt lat="45.47299" lon="4.69191">
        <ele>668</ele>
        <time>2019-09-29T09:01:49.000Z</time>
      </trkpt>
      <trkpt lat="45.47298" lon="4.69187">
        <ele>668</ele>
        <time>2019-09-29T09:01:50.000Z</time>
      </trkpt>
      <trkpt lat="45.47297" lon="4.69182">
        <ele>668</ele>
        <time>2019-09-29T09:01:51.000Z</time>
      </trkpt>
      <trkpt lat="45.47296" lon="4.69178">
        <ele>668</ele>
        <time>2019-09-29T09:01:52.000Z</time>
      </trkpt>
      <trkpt lat="45.47295" lon="4.69173">
        <ele>668</ele>
        <time>2019-09-29T09:01:53.000Z</time>
      </trkpt>
      <trkpt lat="45.47294" lon="4.69169">
        <ele>668</ele>
        <time>2019-09-29T09:01:54.000Z</time>
      </trkpt>
      <trkpt lat="45.47293" lon="4.69165">
        <ele>668</ele>
        <time>2019-09-29T09:01:55.000Z</time>
      </trkpt>
      <trkpt lat="45.47292" lon="4.69161">
        <ele>668</ele>
        <time>2019-09-29T09:01:56.000Z</time>
      </trkpt>
      <trkpt lat="45.47291" lon="4.69157">
        <ele>668</ele>
        <time>2019-09-29T09:01:57.000Z</time>
      </trkpt>
      <trkpt lat="45.4729" lon="4.69153">
        <ele>668</ele>
        <time>2019-09-29T09:01:58.000Z</time>
      </trkpt>
      <trkpt lat="45.47289" lon="4.69149">
        <ele>668</ele>
        <time>2019-09-29T09:01:59.000Z</time>
      </trkpt>
      <trkpt lat="45.47288" lon="4.69145">
        <ele>668</ele>
        <time>2019-09-29T09:02:00.000Z</time>
      </trkpt>
      <trkpt lat="45.47287" lon="4.69142">
        <ele>668</ele>
        <time>2019-09-29T09:02:01.000Z</time>
      </trkpt>
      <trkpt lat="45.47286" lon="4.69138">
        <ele>668</ele>
        <time>2019-09-29T09:02:02.000Z</time>
      </trkpt>
      <trkpt lat="45.47285" lon="4.69134">
        <ele>668</ele>
        <time>2019-09-29T09:02:03.000Z</time>
      </trkpt>
      <trkpt lat="45.47284" lon="4.6913">
        <ele>668</ele>
        <time>2019-09-29T09:02:04.000Z</time>
      </trkpt>
      <trkpt lat="45.47283" lon="4.69127">
        <ele>668</ele>
        <time>2019-09-29T09:02:05.000Z</time>
      </trkpt>
      <trkpt lat="45.47282" lon="4.69123">
        <ele>668</ele>
        <time>2019-09-29T09:02:06.000Z</time>
      </trkpt>
      <trkpt lat="45.47281" lon="4.6912">
        <ele>668</ele>
        <time>2019-09-29T09:02:07.000Z</time>
      </trkpt>
      <trkpt lat="45.4728" lon="4.69116">
        <ele>668</ele>
        <time>2019-09-29T09:02:08.000Z</time>
      </trkpt>
      <trkpt lat="45.47279" lon="4.69112">
        <ele>668</ele>
        <time>2019-09-29T09:02:09.000Z</time>
      </trkpt>
      <trkpt lat="45.47278" lon="4.69108">
        <ele>668</ele>
        <time>2019-09-29T09:02:10.000Z</time>
      </trkpt>
      <trkpt lat="45.47277" lon="4.69105">
        <ele>668</ele>
        <time>2019-09-29T09:02:11.000Z</time>
      </trkpt>
      <trkpt lat="45.47276" lon="4.69101">
        <ele>668</ele>
        <time>2019-09-29T09:02:12.000Z</time>
      </trkpt>
      <trkpt lat="45.47275" lon="4.69097">
        <ele>667.73999692804</ele>
        <time>2019-09-29T09:02:13.000Z</time>
      </trkpt>
      <trkpt lat="45.47274" lon="4.69093">
        <ele>667</ele>
        <time>2019-09-29T09:02:14.000Z</time>
      </trkpt>
      <trkpt lat="45.47273" lon="4.6909">
        <ele>667</ele>
        <time>2019-09-29T09:02:15.000Z</time>
      </trkpt>
      <trkpt lat="45.47273" lon="4.69087">
        <ele>667</ele>
        <time>2019-09-29T09:02:16.000Z</time>
      </trkpt>
      <trkpt lat="45.47274" lon="4.69084">
        <ele>668</ele>
        <time>2019-09-29T09:02:23.000Z</time>
      </trkpt>
      <trkpt lat="45.47275" lon="4.69082">
        <ele>669</ele>
        <time>2019-09-29T09:02:33.000Z</time>
      </trkpt>
      <trkpt lat="45.47275" lon="4.69079">
        <ele>670</ele>
        <time>2019-09-29T09:02:51.000Z</time>
      </trkpt>
      <trkpt lat="45.47276" lon="4.69073">
        <ele>671</ele>
        <time>2019-09-29T09:02:54.000Z</time>
      </trkpt>
      <trkpt lat="45.47276" lon="4.6907">
        <ele>671</ele>
        <time>2019-09-29T09:02:57.000Z</time>
      </trkpt>
      <trkpt lat="45.47275" lon="4.69067">
        <ele>670.03076938225</ele>
        <time>2019-09-29T09:02:59.000Z</time>
      </trkpt>
      <trkpt lat="45.47274" lon="4.69062">
        <ele>670</ele>
        <time>2019-09-29T09:03:01.000Z</time>
      </trkpt>
      <trkpt lat="45.47273" lon="4.69059">
        <ele>670</ele>
        <time>2019-09-29T09:03:02.000Z</time>
      </trkpt>
      <trkpt lat="45.47273" lon="4.69056">
        <ele>670</ele>
        <time>2019-09-29T09:03:03.000Z</time>
      </trkpt>
      <trkpt lat="45.47272" lon="4.69052">
        <ele>670</ele>
        <time>2019-09-29T09:03:04.000Z</time>
      </trkpt>
      <trkpt lat="45.47271" lon="4.69048">
        <ele>670</ele>
        <time>2019-09-29T09:03:05.000Z</time>
      </trkpt>
      <trkpt lat="45.47271" lon="4.69044">
        <ele>670</ele>
        <time>2019-09-29T09:03:06.000Z</time>
      </trkpt>
      <trkpt lat="45.4727" lon="4.6904">
        <ele>670</ele>
        <time>2019-09-29T09:03:07.000Z</time>
      </trkpt>
      <trkpt lat="45.47269" lon="4.69036">
        <ele>670</ele>
        <time>2019-09-29T09:03:08.000Z</time>
      </trkpt>
      <trkpt lat="45.47268" lon="4.69032">
        <ele>670</ele>
        <time>2019-09-29T09:03:09.000Z</time>
      </trkpt>
      <trkpt lat="45.47267" lon="4.69028">
        <ele>670</ele>
        <time>2019-09-29T09:03:10.000Z</time>
      </trkpt>
      <trkpt lat="45.47266" lon="4.69023">
        <ele>670</ele>
        <time>2019-09-29T09:03:11.000Z</time>
      </trkpt>
      <trkpt lat="45.47265" lon="4.69019">
        <ele>670</ele>
        <time>2019-09-29T09:03:12.000Z</time>
      </trkpt>
      <trkpt lat="45.47263" lon="4.69015">
        <ele>670</ele>
        <time>2019-09-29T09:03:13.000Z</time>
      </trkpt>
      <trkpt lat="45.47262" lon="4.69011">
        <ele>670</ele>
        <time>2019-09-29T09:03:14.000Z</time>
      </trkpt>
      <trkpt lat="45.47261" lon="4.69007">
        <ele>670</ele>
        <time>2019-09-29T09:03:15.000Z</time>
      </trkpt>
      <trkpt lat="45.4726" lon="4.69004">
        <ele>670</ele>
        <time>2019-09-29T09:03:16.000Z</time>
      </trkpt>
      <trkpt lat="45.47259" lon="4.69001">
        <ele>671</ele>
        <time>2019-09-29T09:03:18.000Z</time>
      </trkpt>
      <trkpt lat="45.47258" lon="4.68999">
        <ele>671</ele>
        <time>2019-09-29T09:03:23.000Z</time>
      </trkpt>
      <trkpt lat="45.47257" lon="4.68997">
        <ele>671</ele>
        <time>2019-09-29T09:03:24.000Z</time>
      </trkpt>
      <trkpt lat="45.47254" lon="4.68994">
        <ele>671</ele>
        <time>2019-09-29T09:03:25.000Z</time>
      </trkpt>
      <trkpt lat="45.47252" lon="4.68992">
        <ele>671</ele>
        <time>2019-09-29T09:03:26.000Z</time>
      </trkpt>
      <trkpt lat="45.4725" lon="4.68989">
        <ele>671</ele>
        <time>2019-09-29T09:03:27.000Z</time>
      </trkpt>
      <trkpt lat="45.47248" lon="4.68987">
        <ele>671</ele>
        <time>2019-09-29T09:03:28.000Z</time>
      </trkpt>
      <trkpt lat="45.47246" lon="4.68985">
        <ele>671</ele>
        <time>2019-09-29T09:03:29.000Z</time>
      </trkpt>
      <trkpt lat="45.47244" lon="4.68983">
        <ele>671</ele>
        <time>2019-09-29T09:03:30.000Z</time>
      </trkpt>
      <trkpt lat="45.47242" lon="4.68981">
        <ele>671</ele>
        <time>2019-09-29T09:03:31.000Z</time>
      </trkpt>
      <trkpt lat="45.4724" lon="4.68979">
        <ele>671</ele>
        <time>2019-09-29T09:03:32.000Z</time>
      </trkpt>
      <trkpt lat="45.47238" lon="4.68977">
        <ele>671</ele>
        <time>2019-09-29T09:03:33.000Z</time>
      </trkpt>
      <trkpt lat="45.47236" lon="4.68975">
        <ele>671</ele>
        <time>2019-09-29T09:03:34.000Z</time>
      </trkpt>
      <trkpt lat="45.47234" lon="4.68973">
        <ele>671</ele>
        <time>2019-09-29T09:03:35.000Z</time>
      </trkpt>
      <trkpt lat="45.47231" lon="4.68971">
        <ele>671</ele>
        <time>2019-09-29T09:03:36.000Z</time>
      </trkpt>
      <trkpt lat="45.47229" lon="4.6897">
        <ele>671</ele>
        <time>2019-09-29T09:03:37.000Z</time>
      </trkpt>
      <trkpt lat="45.47227" lon="4.68968">
        <ele>671</ele>
        <time>2019-09-29T09:03:38.000Z</time>
      </trkpt>
      <trkpt lat="45.47224" lon="4.68967">
        <ele>671</ele>
        <time>2019-09-29T09:03:39.000Z</time>
      </trkpt>
      <trkpt lat="45.47222" lon="4.68965">
        <ele>671</ele>
        <time>2019-09-29T09:03:40.000Z</time>
      </trkpt>
      <trkpt lat="45.4722" lon="4.68964">
        <ele>671.26000307196</ele>
        <time>2019-09-29T09:03:41.000Z</time>
      </trkpt>
      <trkpt lat="45.47218" lon="4.68963">
        <ele>672</ele>
        <time>2019-09-29T09:03:42.000Z</time>
      </trkpt>
      <trkpt lat="45.47216" lon="4.68961">
        <ele>672</ele>
        <time>2019-09-29T09:03:43.000Z</time>
      </trkpt>
      <trkpt lat="45.47213" lon="4.6896">
        <ele>672</ele>
        <time>2019-09-29T09:03:44.000Z</time>
      </trkpt>
      <trkpt lat="45.47211" lon="4.68959">
        <ele>672</ele>
        <time>2019-09-29T09:03:45.000Z</time>
      </trkpt>
      <trkpt lat="45.47209" lon="4.68958">
        <ele>672</ele>
        <time>2019-09-29T09:03:46.000Z</time>
      </trkpt>
      <trkpt lat="45.47207" lon="4.68958">
        <ele>672</ele>
        <time>2019-09-29T09:03:47.000Z</time>
      </trkpt>
      <trkpt lat="45.47205" lon="4.68957">
        <ele>672</ele>
        <time>2019-09-29T09:03:48.000Z</time>
      </trkpt>
      <trkpt lat="45.47203" lon="4.68957">
        <ele>672.26000307196</ele>
        <time>2019-09-29T09:03:49.000Z</time>
      </trkpt>
      <trkpt lat="45.472" lon="4.68955">
        <ele>673</ele>
        <time>2019-09-29T09:03:51.000Z</time>
      </trkpt>
      <trkpt lat="45.47197" lon="4.68954">
        <ele>673</ele>
        <time>2019-09-29T09:03:53.000Z</time>
      </trkpt>
      <trkpt lat="45.47194" lon="4.68952">
        <ele>673</ele>
        <time>2019-09-29T09:03:55.000Z</time>
      </trkpt>
      <trkpt lat="45.47193" lon="4.68951">
        <ele>673</ele>
        <time>2019-09-29T09:03:56.000Z</time>
      </trkpt>
      <trkpt lat="45.47189" lon="4.68949">
        <ele>673</ele>
        <time>2019-09-29T09:03:58.000Z</time>
      </trkpt>
      <trkpt lat="45.47186" lon="4.68948">
        <ele>673</ele>
        <time>2019-09-29T09:04:00.000Z</time>
      </trkpt>
      <trkpt lat="45.47176" lon="4.68941">
        <ele>673.74000307204</ele>
        <time>2019-09-29T09:04:06.000Z</time>
      </trkpt>
      <trkpt lat="45.47166" lon="4.68935">
        <ele>674</ele>
        <time>2019-09-29T09:04:10.000Z</time>
      </trkpt>
      <trkpt lat="45.47158" lon="4.6893">
        <ele>674</ele>
        <time>2019-09-29T09:04:13.000Z</time>
      </trkpt>
      <trkpt lat="45.47148" lon="4.68919">
        <ele>674</ele>
        <time>2019-09-29T09:04:16.000Z</time>
      </trkpt>
      <trkpt lat="45.47141" lon="4.68911">
        <ele>674</ele>
        <time>2019-09-29T09:04:18.000Z</time>
      </trkpt>
      <trkpt lat="45.47131" lon="4.689">
        <ele>674</ele>
        <time>2019-09-29T09:04:21.000Z</time>
      </trkpt>
      <trkpt lat="45.47123" lon="4.68887">
        <ele>675</ele>
        <time>2019-09-29T09:04:25.000Z</time>
      </trkpt>
      <trkpt lat="45.47116" lon="4.68876">
        <ele>675</ele>
        <time>2019-09-29T09:04:28.000Z</time>
      </trkpt>
      <trkpt lat="45.47109" lon="4.68865">
        <ele>675.26000307196</ele>
        <time>2019-09-29T09:04:31.000Z</time>
      </trkpt>
      <trkpt lat="45.47106" lon="4.6886">
        <ele>676</ele>
        <time>2019-09-29T09:04:33.000Z</time>
      </trkpt>
      <trkpt lat="45.47099" lon="4.68849">
        <ele>676.26000307196</ele>
        <time>2019-09-29T09:04:39.000Z</time>
      </trkpt>
      <trkpt lat="45.47093" lon="4.68838">
        <ele>677</ele>
        <time>2019-09-29T09:04:43.000Z</time>
      </trkpt>
      <trkpt lat="45.47087" lon="4.68826">
        <ele>679</ele>
        <time>2019-09-29T09:04:48.000Z</time>
      </trkpt>
      <trkpt lat="45.47084" lon="4.68811">
        <ele>678</ele>
        <time>2019-09-29T09:04:52.000Z</time>
      </trkpt>
      <trkpt lat="45.47083" lon="4.68797">
        <ele>679</ele>
        <time>2019-09-29T09:04:56.000Z</time>
      </trkpt>
      <trkpt lat="45.47082" lon="4.68783">
        <ele>680</ele>
        <time>2019-09-29T09:04:59.000Z</time>
      </trkpt>
      <trkpt lat="45.47077" lon="4.68768">
        <ele>680.96183422413</ele>
        <time>2019-09-29T09:05:03.000Z</time>
      </trkpt>
      <trkpt lat="45.47074" lon="4.68754">
        <ele>682</ele>
        <time>2019-09-29T09:05:07.000Z</time>
      </trkpt>
      <trkpt lat="45.4707" lon="4.68741">
        <ele>682</ele>
        <time>2019-09-29T09:05:11.000Z</time>
      </trkpt>
      <trkpt lat="45.47067" lon="4.68727">
        <ele>681</ele>
        <time>2019-09-29T09:05:15.000Z</time>
      </trkpt>
      <trkpt lat="45.47066" lon="4.68713">
        <ele>682</ele>
        <time>2019-09-29T09:05:18.000Z</time>
      </trkpt>
      <trkpt lat="45.47065" lon="4.68698">
        <ele>682</ele>
        <time>2019-09-29T09:05:21.000Z</time>
      </trkpt>
      <trkpt lat="45.47065" lon="4.68694">
        <ele>682</ele>
        <time>2019-09-29T09:05:22.000Z</time>
      </trkpt>
      <trkpt lat="45.47064" lon="4.68689">
        <ele>682.24489635986</ele>
        <time>2019-09-29T09:05:23.000Z</time>
      </trkpt>
      <trkpt lat="45.47063" lon="4.68684">
        <ele>682.74000307204</ele>
        <time>2019-09-29T09:05:24.000Z</time>
      </trkpt>
      <trkpt lat="45.47062" lon="4.6868">
        <ele>682.26000307196</ele>
        <time>2019-09-29T09:05:25.000Z</time>
      </trkpt>
      <trkpt lat="45.47062" lon="4.68675">
        <ele>683</ele>
        <time>2019-09-29T09:05:26.000Z</time>
      </trkpt>
      <trkpt lat="45.47063" lon="4.68671">
        <ele>683</ele>
        <time>2019-09-29T09:05:27.000Z</time>
      </trkpt>
      <trkpt lat="45.47067" lon="4.68657">
        <ele>683</ele>
        <time>2019-09-29T09:05:30.000Z</time>
      </trkpt>
      <trkpt lat="45.47069" lon="4.68644">
        <ele>684</ele>
        <time>2019-09-29T09:05:33.000Z</time>
      </trkpt>
      <trkpt lat="45.4707" lon="4.68631">
        <ele>685</ele>
        <time>2019-09-29T09:05:36.000Z</time>
      </trkpt>
      <trkpt lat="45.47071" lon="4.68618">
        <ele>686</ele>
        <time>2019-09-29T09:05:39.000Z</time>
      </trkpt>
      <trkpt lat="45.47071" lon="4.68603">
        <ele>686</ele>
        <time>2019-09-29T09:05:43.000Z</time>
      </trkpt>
      <trkpt lat="45.47074" lon="4.68589">
        <ele>686.26000307196</ele>
        <time>2019-09-29T09:05:47.000Z</time>
      </trkpt>
      <trkpt lat="45.47073" lon="4.68574">
        <ele>688</ele>
        <time>2019-09-29T09:05:51.000Z</time>
      </trkpt>
      <trkpt lat="45.47072" lon="4.68559">
        <ele>688</ele>
        <time>2019-09-29T09:05:55.000Z</time>
      </trkpt>
      <trkpt lat="45.47072" lon="4.68556">
        <ele>689</ele>
        <time>2019-09-29T09:05:56.000Z</time>
      </trkpt>
      <trkpt lat="45.47071" lon="4.68553">
        <ele>689</ele>
        <time>2019-09-29T09:05:57.000Z</time>
      </trkpt>
      <trkpt lat="45.47069" lon="4.6855">
        <ele>689</ele>
        <time>2019-09-29T09:05:58.000Z</time>
      </trkpt>
      <trkpt lat="45.47069" lon="4.68547">
        <ele>689.26000307196</ele>
        <time>2019-09-29T09:05:59.000Z</time>
      </trkpt>
      <trkpt lat="45.47068" lon="4.68544">
        <ele>690</ele>
        <time>2019-09-29T09:06:00.000Z</time>
      </trkpt>
      <trkpt lat="45.47067" lon="4.68541">
        <ele>690</ele>
        <time>2019-09-29T09:06:01.000Z</time>
      </trkpt>
      <trkpt lat="45.47068" lon="4.68536">
        <ele>690</ele>
        <time>2019-09-29T09:06:03.000Z</time>
      </trkpt>
      <trkpt lat="45.47069" lon="4.68532">
        <ele>691</ele>
        <time>2019-09-29T09:06:07.000Z</time>
      </trkpt>
      <trkpt lat="45.47069" lon="4.68529">
        <ele>693</ele>
        <time>2019-09-29T09:06:16.000Z</time>
      </trkpt>
      <trkpt lat="45.47068" lon="4.68526">
        <ele>693.25999692796</ele>
        <time>2019-09-29T09:06:18.000Z</time>
      </trkpt>
      <trkpt lat="45.47067" lon="4.68523">
        <ele>694</ele>
        <time>2019-09-29T09:06:20.000Z</time>
      </trkpt>
      <trkpt lat="45.47065" lon="4.68521">
        <ele>694</ele>
        <time>2019-09-29T09:06:21.000Z</time>
      </trkpt>
      <trkpt lat="45.47066" lon="4.68518">
        <ele>694</ele>
        <time>2019-09-29T09:06:23.000Z</time>
      </trkpt>
      <trkpt lat="45.47067" lon="4.68514">
        <ele>694</ele>
        <time>2019-09-29T09:06:35.000Z</time>
      </trkpt>
      <trkpt lat="45.47066" lon="4.6851">
        <ele>694</ele>
        <time>2019-09-29T09:06:37.000Z</time>
      </trkpt>
      <trkpt lat="45.47065" lon="4.68506">
        <ele>694</ele>
        <time>2019-09-29T09:06:39.000Z</time>
      </trkpt>
      <trkpt lat="45.47065" lon="4.68504">
        <ele>694</ele>
        <time>2019-09-29T09:06:40.000Z</time>
      </trkpt>
      <trkpt lat="45.47064" lon="4.68499">
        <ele>693</ele>
        <time>2019-09-29T09:06:42.000Z</time>
      </trkpt>
      <trkpt lat="45.4706" lon="4.68483">
        <ele>694</ele>
        <time>2019-09-29T09:06:47.000Z</time>
      </trkpt>
      <trkpt lat="45.47056" lon="4.6847">
        <ele>693</ele>
        <time>2019-09-29T09:06:51.000Z</time>
      </trkpt>
      <trkpt lat="45.47053" lon="4.68456">
        <ele>694</ele>
        <time>2019-09-29T09:06:57.000Z</time>
      </trkpt>
      <trkpt lat="45.4705" lon="4.6844">
        <ele>694</ele>
        <time>2019-09-29T09:07:02.000Z</time>
      </trkpt>
      <trkpt lat="45.47046" lon="4.68426">
        <ele>694</ele>
        <time>2019-09-29T09:07:07.000Z</time>
      </trkpt>
      <trkpt lat="45.47045" lon="4.68413">
        <ele>695</ele>
        <time>2019-09-29T09:07:12.000Z</time>
      </trkpt>
      <trkpt lat="45.47042" lon="4.684">
        <ele>695</ele>
        <time>2019-09-29T09:07:17.000Z</time>
      </trkpt>
      <trkpt lat="45.47039" lon="4.68391">
        <ele>696</ele>
        <time>2019-09-29T09:07:23.000Z</time>
      </trkpt>
      <trkpt lat="45.47038" lon="4.68394">
        <ele>693.7500032</ele>
        <time>2019-09-29T09:07:40.000Z</time>
      </trkpt>
      <trkpt lat="45.47036" lon="4.68393">
        <ele>693</ele>
        <time>2019-09-29T09:07:45.000Z</time>
      </trkpt>
      <trkpt lat="45.47036" lon="4.6839">
        <ele>693</ele>
        <time>2019-09-29T09:07:47.000Z</time>
      </trkpt>
      <trkpt lat="45.47037" lon="4.68385">
        <ele>693</ele>
        <time>2019-09-29T09:07:49.000Z</time>
      </trkpt>
      <trkpt lat="45.47036" lon="4.68382">
        <ele>693</ele>
        <time>2019-09-29T09:07:50.000Z</time>
      </trkpt>
      <trkpt lat="45.47036" lon="4.6838">
        <ele>693</ele>
        <time>2019-09-29T09:07:51.000Z</time>
      </trkpt>
      <trkpt lat="45.47036" lon="4.68377">
        <ele>693</ele>
        <time>2019-09-29T09:07:52.000Z</time>
      </trkpt>
      <trkpt lat="45.47036" lon="4.68373">
        <ele>693</ele>
        <time>2019-09-29T09:07:54.000Z</time>
      </trkpt>
      <trkpt lat="45.47035" lon="4.6837">
        <ele>692.73999692804</ele>
        <time>2019-09-29T09:07:55.000Z</time>
      </trkpt>
      <trkpt lat="45.47034" lon="4.68366">
        <ele>692</ele>
        <time>2019-09-29T09:07:56.000Z</time>
      </trkpt>
      <trkpt lat="45.47034" lon="4.68363">
        <ele>692.26000307196</ele>
        <time>2019-09-29T09:07:57.000Z</time>
      </trkpt>
      <trkpt lat="45.47034" lon="4.6836">
        <ele>693</ele>
        <time>2019-09-29T09:07:58.000Z</time>
      </trkpt>
      <trkpt lat="45.47033" lon="4.68357">
        <ele>692.73999692804</ele>
        <time>2019-09-29T09:07:59.000Z</time>
      </trkpt>
      <trkpt lat="45.47032" lon="4.68354">
        <ele>692</ele>
        <time>2019-09-29T09:08:00.000Z</time>
      </trkpt>
      <trkpt lat="45.47032" lon="4.68351">
        <ele>692.26000307196</ele>
        <time>2019-09-29T09:08:01.000Z</time>
      </trkpt>
      <trkpt lat="45.47031" lon="4.68348">
        <ele>693</ele>
        <time>2019-09-29T09:08:02.000Z</time>
      </trkpt>
      <trkpt lat="45.47031" lon="4.68346">
        <ele>693</ele>
        <time>2019-09-29T09:08:03.000Z</time>
      </trkpt>
      <trkpt lat="45.47031" lon="4.68343">
        <ele>693</ele>
        <time>2019-09-29T09:08:04.000Z</time>
      </trkpt>
      <trkpt lat="45.47031" lon="4.68338">
        <ele>693.25999692796</ele>
        <time>2019-09-29T09:08:06.000Z</time>
      </trkpt>
      <trkpt lat="45.47031" lon="4.68335">
        <ele>694</ele>
        <time>2019-09-29T09:08:07.000Z</time>
      </trkpt>
      <trkpt lat="45.4703" lon="4.6833">
        <ele>694</ele>
        <time>2019-09-29T09:08:09.000Z</time>
      </trkpt>
      <trkpt lat="45.4703" lon="4.68327">
        <ele>694</ele>
        <time>2019-09-29T09:08:10.000Z</time>
      </trkpt>
      <trkpt lat="45.4703" lon="4.68324">
        <ele>694.26000307196</ele>
        <time>2019-09-29T09:08:11.000Z</time>
      </trkpt>
      <trkpt lat="45.4703" lon="4.68319">
        <ele>695</ele>
        <time>2019-09-29T09:08:13.000Z</time>
      </trkpt>
      <trkpt lat="45.4703" lon="4.68316">
        <ele>695</ele>
        <time>2019-09-29T09:08:14.000Z</time>
      </trkpt>
      <trkpt lat="45.47029" lon="4.68312">
        <ele>695</ele>
        <time>2019-09-29T09:08:15.000Z</time>
      </trkpt>
      <trkpt lat="45.47029" lon="4.68309">
        <ele>695</ele>
        <time>2019-09-29T09:08:16.000Z</time>
      </trkpt>
      <trkpt lat="45.47029" lon="4.68306">
        <ele>695</ele>
        <time>2019-09-29T09:08:17.000Z</time>
      </trkpt>
      <trkpt lat="45.47028" lon="4.68302">
        <ele>695</ele>
        <time>2019-09-29T09:08:18.000Z</time>
      </trkpt>
      <trkpt lat="45.47028" lon="4.68299">
        <ele>695.23711435433</ele>
        <time>2019-09-29T09:08:19.000Z</time>
      </trkpt>
      <trkpt lat="45.47029" lon="4.68296">
        <ele>696</ele>
        <time>2019-09-29T09:08:20.000Z</time>
      </trkpt>
      <trkpt lat="45.47029" lon="4.68293">
        <ele>696</ele>
        <time>2019-09-29T09:08:21.000Z</time>
      </trkpt>
      <trkpt lat="45.47029" lon="4.6829">
        <ele>696</ele>
        <time>2019-09-29T09:08:22.000Z</time>
      </trkpt>
      <trkpt lat="45.4703" lon="4.68287">
        <ele>696</ele>
        <time>2019-09-29T09:08:23.000Z</time>
      </trkpt>
      <trkpt lat="45.47029" lon="4.68284">
        <ele>696</ele>
        <time>2019-09-29T09:08:24.000Z</time>
      </trkpt>
      <trkpt lat="45.4703" lon="4.68281">
        <ele>696.26000307196</ele>
        <time>2019-09-29T09:08:25.000Z</time>
      </trkpt>
      <trkpt lat="45.47029" lon="4.68278">
        <ele>697</ele>
        <time>2019-09-29T09:08:26.000Z</time>
      </trkpt>
      <trkpt lat="45.4703" lon="4.68274">
        <ele>697.20154592632</ele>
        <time>2019-09-29T09:08:28.000Z</time>
      </trkpt>
      <trkpt lat="45.47031" lon="4.68269">
        <ele>698</ele>
        <time>2019-09-29T09:08:30.000Z</time>
      </trkpt>
      <trkpt lat="45.47031" lon="4.68264">
        <ele>698</ele>
        <time>2019-09-29T09:08:32.000Z</time>
      </trkpt>
      <trkpt lat="45.47032" lon="4.68259">
        <ele>698</ele>
        <time>2019-09-29T09:08:34.000Z</time>
      </trkpt>
      <trkpt lat="45.47031" lon="4.68253">
        <ele>699</ele>
        <time>2019-09-29T09:08:36.000Z</time>
      </trkpt>
      <trkpt lat="45.47032" lon="4.6825">
        <ele>699</ele>
        <time>2019-09-29T09:08:42.000Z</time>
      </trkpt>
      <trkpt lat="45.47032" lon="4.68248">
        <ele>701.26000307196</ele>
        <time>2019-09-29T09:08:53.000Z</time>
      </trkpt>
      <trkpt lat="45.47034" lon="4.68246">
        <ele>703</ele>
        <time>2019-09-29T09:08:57.000Z</time>
      </trkpt>
      <trkpt lat="45.47036" lon="4.68245">
        <ele>704</ele>
        <time>2019-09-29T09:09:02.000Z</time>
      </trkpt>
      <trkpt lat="45.47036" lon="4.68243">
        <ele>705</ele>
        <time>2019-09-29T09:09:08.000Z</time>
      </trkpt>
      <trkpt lat="45.47036" lon="4.6824">
        <ele>706.96899217114</ele>
        <time>2019-09-29T09:09:12.000Z</time>
      </trkpt>
      <trkpt lat="45.47035" lon="4.68237">
        <ele>707.73999692804</ele>
        <time>2019-09-29T09:09:19.000Z</time>
      </trkpt>
      <trkpt lat="45.47034" lon="4.68233">
        <ele>707</ele>
        <time>2019-09-29T09:09:22.000Z</time>
      </trkpt>
      <trkpt lat="45.47032" lon="4.68231">
        <ele>707</ele>
        <time>2019-09-29T09:09:23.000Z</time>
      </trkpt>
      <trkpt lat="45.47031" lon="4.68229">
        <ele>707</ele>
        <time>2019-09-29T09:09:24.000Z</time>
      </trkpt>
      <trkpt lat="45.4703" lon="4.68226">
        <ele>707</ele>
        <time>2019-09-29T09:09:25.000Z</time>
      </trkpt>
      <trkpt lat="45.47029" lon="4.68223">
        <ele>707</ele>
        <time>2019-09-29T09:09:26.000Z</time>
      </trkpt>
      <trkpt lat="45.47029" lon="4.6822">
        <ele>707</ele>
        <time>2019-09-29T09:09:27.000Z</time>
      </trkpt>
      <trkpt lat="45.47028" lon="4.68218">
        <ele>707.25999692796</ele>
        <time>2019-09-29T09:09:28.000Z</time>
      </trkpt>
      <trkpt lat="45.47028" lon="4.68215">
        <ele>707.73999692804</ele>
        <time>2019-09-29T09:09:29.000Z</time>
      </trkpt>
      <trkpt lat="45.47027" lon="4.68211">
        <ele>707</ele>
        <time>2019-09-29T09:09:31.000Z</time>
      </trkpt>
      <trkpt lat="45.47028" lon="4.68205">
        <ele>706</ele>
        <time>2019-09-29T09:09:33.000Z</time>
      </trkpt>
      <trkpt lat="45.47028" lon="4.68202">
        <ele>706</ele>
        <time>2019-09-29T09:09:34.000Z</time>
      </trkpt>
      <trkpt lat="45.47028" lon="4.68199">
        <ele>706</ele>
        <time>2019-09-29T09:09:35.000Z</time>
      </trkpt>
      <trkpt lat="45.47027" lon="4.68196">
        <ele>706</ele>
        <time>2019-09-29T09:09:36.000Z</time>
      </trkpt>
      <trkpt lat="45.47027" lon="4.68193">
        <ele>705.7500032</ele>
        <time>2019-09-29T09:09:37.000Z</time>
      </trkpt>
      <trkpt lat="45.47026" lon="4.6819">
        <ele>705</ele>
        <time>2019-09-29T09:09:38.000Z</time>
      </trkpt>
      <trkpt lat="45.47026" lon="4.68187">
        <ele>705</ele>
        <time>2019-09-29T09:09:39.000Z</time>
      </trkpt>
      <trkpt lat="45.47026" lon="4.68183">
        <ele>705</ele>
        <time>2019-09-29T09:09:40.000Z</time>
      </trkpt>
      <trkpt lat="45.47025" lon="4.68179">
        <ele>705</ele>
        <time>2019-09-29T09:09:41.000Z</time>
      </trkpt>
      <trkpt lat="45.47025" lon="4.68176">
        <ele>705</ele>
        <time>2019-09-29T09:09:42.000Z</time>
      </trkpt>
      <trkpt lat="45.47024" lon="4.68172">
        <ele>705</ele>
        <time>2019-09-29T09:09:43.000Z</time>
      </trkpt>
      <trkpt lat="45.47024" lon="4.68169">
        <ele>705</ele>
        <time>2019-09-29T09:09:44.000Z</time>
      </trkpt>
      <trkpt lat="45.47023" lon="4.68164">
        <ele>705</ele>
        <time>2019-09-29T09:09:45.000Z</time>
      </trkpt>
      <trkpt lat="45.47022" lon="4.6816">
        <ele>705</ele>
        <time>2019-09-29T09:09:46.000Z</time>
      </trkpt>
      <trkpt lat="45.47022" lon="4.68156">
        <ele>705</ele>
        <time>2019-09-29T09:09:47.000Z</time>
      </trkpt>
      <trkpt lat="45.47022" lon="4.68152">
        <ele>705</ele>
        <time>2019-09-29T09:09:48.000Z</time>
      </trkpt>
      <trkpt lat="45.47021" lon="4.68148">
        <ele>705</ele>
        <time>2019-09-29T09:09:49.000Z</time>
      </trkpt>
      <trkpt lat="45.47021" lon="4.68144">
        <ele>705</ele>
        <time>2019-09-29T09:09:50.000Z</time>
      </trkpt>
      <trkpt lat="45.4702" lon="4.68141">
        <ele>705</ele>
        <time>2019-09-29T09:09:51.000Z</time>
      </trkpt>
      <trkpt lat="45.47019" lon="4.68137">
        <ele>705</ele>
        <time>2019-09-29T09:09:52.000Z</time>
      </trkpt>
      <trkpt lat="45.47018" lon="4.68133">
        <ele>704.73999692804</ele>
        <time>2019-09-29T09:09:53.000Z</time>
      </trkpt>
      <trkpt lat="45.47017" lon="4.68129">
        <ele>704</ele>
        <time>2019-09-29T09:09:54.000Z</time>
      </trkpt>
      <trkpt lat="45.47017" lon="4.68125">
        <ele>704</ele>
        <time>2019-09-29T09:09:55.000Z</time>
      </trkpt>
      <trkpt lat="45.47016" lon="4.68121">
        <ele>704</ele>
        <time>2019-09-29T09:09:56.000Z</time>
      </trkpt>
      <trkpt lat="45.47015" lon="4.68118">
        <ele>704</ele>
        <time>2019-09-29T09:09:57.000Z</time>
      </trkpt>
      <trkpt lat="45.47015" lon="4.68114">
        <ele>704</ele>
        <time>2019-09-29T09:09:58.000Z</time>
      </trkpt>
      <trkpt lat="45.47014" lon="4.68111">
        <ele>703.73999692804</ele>
        <time>2019-09-29T09:09:59.000Z</time>
      </trkpt>
      <trkpt lat="45.47014" lon="4.68108">
        <ele>703</ele>
        <time>2019-09-29T09:10:00.000Z</time>
      </trkpt>
      <trkpt lat="45.47013" lon="4.68104">
        <ele>703</ele>
        <time>2019-09-29T09:10:01.000Z</time>
      </trkpt>
      <trkpt lat="45.47012" lon="4.681">
        <ele>703</ele>
        <time>2019-09-29T09:10:02.000Z</time>
      </trkpt>
      <trkpt lat="45.47012" lon="4.68096">
        <ele>703</ele>
        <time>2019-09-29T09:10:03.000Z</time>
      </trkpt>
      <trkpt lat="45.47011" lon="4.68091">
        <ele>703</ele>
        <time>2019-09-29T09:10:04.000Z</time>
      </trkpt>
      <trkpt lat="45.4701" lon="4.68087">
        <ele>702.73999692804</ele>
        <time>2019-09-29T09:10:05.000Z</time>
      </trkpt>
      <trkpt lat="45.4701" lon="4.68082">
        <ele>702</ele>
        <time>2019-09-29T09:10:06.000Z</time>
      </trkpt>
      <trkpt lat="45.47009" lon="4.68077">
        <ele>702</ele>
        <time>2019-09-29T09:10:07.000Z</time>
      </trkpt>
      <trkpt lat="45.47008" lon="4.68072">
        <ele>702</ele>
        <time>2019-09-29T09:10:08.000Z</time>
      </trkpt>
      <trkpt lat="45.47007" lon="4.68066">
        <ele>702</ele>
        <time>2019-09-29T09:10:09.000Z</time>
      </trkpt>
      <trkpt lat="45.47006" lon="4.68061">
        <ele>702</ele>
        <time>2019-09-29T09:10:10.000Z</time>
      </trkpt>
      <trkpt lat="45.47005" lon="4.68056">
        <ele>702</ele>
        <time>2019-09-29T09:10:11.000Z</time>
      </trkpt>
      <trkpt lat="45.47004" lon="4.6805">
        <ele>701.74000307204</ele>
        <time>2019-09-29T09:10:12.000Z</time>
      </trkpt>
      <trkpt lat="45.47003" lon="4.68045">
        <ele>701</ele>
        <time>2019-09-29T09:10:13.000Z</time>
      </trkpt>
      <trkpt lat="45.47002" lon="4.6804">
        <ele>701</ele>
        <time>2019-09-29T09:10:14.000Z</time>
      </trkpt>
      <trkpt lat="45.47001" lon="4.68034">
        <ele>701</ele>
        <time>2019-09-29T09:10:15.000Z</time>
      </trkpt>
      <trkpt lat="45.47001" lon="4.68028">
        <ele>701</ele>
        <time>2019-09-29T09:10:16.000Z</time>
      </trkpt>
      <trkpt lat="45.47" lon="4.68023">
        <ele>701</ele>
        <time>2019-09-29T09:10:17.000Z</time>
      </trkpt>
      <trkpt lat="45.46999" lon="4.68018">
        <ele>700.74000307204</ele>
        <time>2019-09-29T09:10:18.000Z</time>
      </trkpt>
      <trkpt lat="45.46998" lon="4.68012">
        <ele>700</ele>
        <time>2019-09-29T09:10:19.000Z</time>
      </trkpt>
      <trkpt lat="45.46997" lon="4.68006">
        <ele>700</ele>
        <time>2019-09-29T09:10:20.000Z</time>
      </trkpt>
      <trkpt lat="45.46997" lon="4.67999">
        <ele>700</ele>
        <time>2019-09-29T09:10:21.000Z</time>
      </trkpt>
      <trkpt lat="45.46996" lon="4.67993">
        <ele>700</ele>
        <time>2019-09-29T09:10:22.000Z</time>
      </trkpt>
      <trkpt lat="45.46995" lon="4.67987">
        <ele>700</ele>
        <time>2019-09-29T09:10:23.000Z</time>
      </trkpt>
      <trkpt lat="45.46994" lon="4.67981">
        <ele>700</ele>
        <time>2019-09-29T09:10:24.000Z</time>
      </trkpt>
      <trkpt lat="45.46993" lon="4.67974">
        <ele>699.73999692804</ele>
        <time>2019-09-29T09:10:25.000Z</time>
      </trkpt>
      <trkpt lat="45.46992" lon="4.67968">
        <ele>699</ele>
        <time>2019-09-29T09:10:26.000Z</time>
      </trkpt>
      <trkpt lat="45.46991" lon="4.67962">
        <ele>699</ele>
        <time>2019-09-29T09:10:27.000Z</time>
      </trkpt>
      <trkpt lat="45.46991" lon="4.67957">
        <ele>699</ele>
        <time>2019-09-29T09:10:28.000Z</time>
      </trkpt>
      <trkpt lat="45.4699" lon="4.67951">
        <ele>699</ele>
        <time>2019-09-29T09:10:29.000Z</time>
      </trkpt>
      <trkpt lat="45.46989" lon="4.67946">
        <ele>699</ele>
        <time>2019-09-29T09:10:30.000Z</time>
      </trkpt>
      <trkpt lat="45.46989" lon="4.6794">
        <ele>699</ele>
        <time>2019-09-29T09:10:31.000Z</time>
      </trkpt>
      <trkpt lat="45.46989" lon="4.67934">
        <ele>699</ele>
        <time>2019-09-29T09:10:32.000Z</time>
      </trkpt>
      <trkpt lat="45.46988" lon="4.67928">
        <ele>699</ele>
        <time>2019-09-29T09:10:33.000Z</time>
      </trkpt>
      <trkpt lat="45.46988" lon="4.67922">
        <ele>699</ele>
        <time>2019-09-29T09:10:34.000Z</time>
      </trkpt>
      <trkpt lat="45.46988" lon="4.67916">
        <ele>699.26000307196</ele>
        <time>2019-09-29T09:10:35.000Z</time>
      </trkpt>
      <trkpt lat="45.46988" lon="4.6791">
        <ele>700</ele>
        <time>2019-09-29T09:10:36.000Z</time>
      </trkpt>
      <trkpt lat="45.46988" lon="4.67904">
        <ele>700</ele>
        <time>2019-09-29T09:10:37.000Z</time>
      </trkpt>
      <trkpt lat="45.46987" lon="4.67899">
        <ele>700</ele>
        <time>2019-09-29T09:10:38.000Z</time>
      </trkpt>
      <trkpt lat="45.46987" lon="4.67894">
        <ele>700.2015538489</ele>
        <time>2019-09-29T09:10:39.000Z</time>
      </trkpt>
      <trkpt lat="45.46987" lon="4.67889">
        <ele>700.97674187851</ele>
        <time>2019-09-29T09:10:40.000Z</time>
      </trkpt>
      <trkpt lat="45.46986" lon="4.67884">
        <ele>701</ele>
        <time>2019-09-29T09:10:41.000Z</time>
      </trkpt>
      <trkpt lat="45.46986" lon="4.67879">
        <ele>701</ele>
        <time>2019-09-29T09:10:42.000Z</time>
      </trkpt>
      <trkpt lat="45.46985" lon="4.67875">
        <ele>701</ele>
        <time>2019-09-29T09:10:43.000Z</time>
      </trkpt>
      <trkpt lat="45.46985" lon="4.6787">
        <ele>701</ele>
        <time>2019-09-29T09:10:44.000Z</time>
      </trkpt>
      <trkpt lat="45.46985" lon="4.67866">
        <ele>701</ele>
        <time>2019-09-29T09:10:45.000Z</time>
      </trkpt>
      <trkpt lat="45.46985" lon="4.67862">
        <ele>701</ele>
        <time>2019-09-29T09:10:46.000Z</time>
      </trkpt>
      <trkpt lat="45.46984" lon="4.67857">
        <ele>701.25742963235</ele>
        <time>2019-09-29T09:10:47.000Z</time>
      </trkpt>
      <trkpt lat="45.46984" lon="4.67854">
        <ele>702</ele>
        <time>2019-09-29T09:10:48.000Z</time>
      </trkpt>
      <trkpt lat="45.46983" lon="4.6785">
        <ele>702</ele>
        <time>2019-09-29T09:10:49.000Z</time>
      </trkpt>
      <trkpt lat="45.46982" lon="4.67846">
        <ele>702</ele>
        <time>2019-09-29T09:10:50.000Z</time>
      </trkpt>
      <trkpt lat="45.46981" lon="4.67843">
        <ele>702</ele>
        <time>2019-09-29T09:10:51.000Z</time>
      </trkpt>
      <trkpt lat="45.4698" lon="4.67839">
        <ele>702</ele>
        <time>2019-09-29T09:10:52.000Z</time>
      </trkpt>
      <trkpt lat="45.46979" lon="4.67836">
        <ele>702</ele>
        <time>2019-09-29T09:10:53.000Z</time>
      </trkpt>
      <trkpt lat="45.46978" lon="4.67834">
        <ele>702</ele>
        <time>2019-09-29T09:10:54.000Z</time>
      </trkpt>
      <trkpt lat="45.46977" lon="4.67831">
        <ele>702</ele>
        <time>2019-09-29T09:10:55.000Z</time>
      </trkpt>
      <trkpt lat="45.46976" lon="4.67829">
        <ele>702.25999692796</ele>
        <time>2019-09-29T09:10:56.000Z</time>
      </trkpt>
      <trkpt lat="45.46975" lon="4.67826">
        <ele>703</ele>
        <time>2019-09-29T09:10:57.000Z</time>
      </trkpt>
      <trkpt lat="45.46974" lon="4.67824">
        <ele>703</ele>
        <time>2019-09-29T09:10:58.000Z</time>
      </trkpt>
      <trkpt lat="45.46972" lon="4.6782">
        <ele>703</ele>
        <time>2019-09-29T09:11:00.000Z</time>
      </trkpt>
      <trkpt lat="45.4697" lon="4.67817">
        <ele>703</ele>
        <time>2019-09-29T09:11:01.000Z</time>
      </trkpt>
      <trkpt lat="45.46968" lon="4.67815">
        <ele>704</ele>
        <time>2019-09-29T09:11:02.000Z</time>
      </trkpt>
      <trkpt lat="45.46965" lon="4.67812">
        <ele>704</ele>
        <time>2019-09-29T09:11:03.000Z</time>
      </trkpt>
      <trkpt lat="45.46964" lon="4.6781">
        <ele>704</ele>
        <time>2019-09-29T09:11:04.000Z</time>
      </trkpt>
      <trkpt lat="45.46962" lon="4.67808">
        <ele>704</ele>
        <time>2019-09-29T09:11:05.000Z</time>
      </trkpt>
      <trkpt lat="45.4696" lon="4.67806">
        <ele>704</ele>
        <time>2019-09-29T09:11:07.000Z</time>
      </trkpt>
      <trkpt lat="45.46957" lon="4.67806">
        <ele>704</ele>
        <time>2019-09-29T09:11:09.000Z</time>
      </trkpt>
      <trkpt lat="45.46954" lon="4.67806">
        <ele>704</ele>
        <time>2019-09-29T09:11:11.000Z</time>
      </trkpt>
      <trkpt lat="45.46952" lon="4.67805">
        <ele>704</ele>
        <time>2019-09-29T09:11:12.000Z</time>
      </trkpt>
      <trkpt lat="45.46949" lon="4.67805">
        <ele>704</ele>
        <time>2019-09-29T09:11:14.000Z</time>
      </trkpt>
      <trkpt lat="45.46947" lon="4.67804">
        <ele>704</ele>
        <time>2019-09-29T09:11:16.000Z</time>
      </trkpt>
      <trkpt lat="45.46945" lon="4.67803">
        <ele>704</ele>
        <time>2019-09-29T09:11:17.000Z</time>
      </trkpt>
      <trkpt lat="45.46944" lon="4.67801">
        <ele>703.74000307204</ele>
        <time>2019-09-29T09:11:18.000Z</time>
      </trkpt>
      <trkpt lat="45.46942" lon="4.67799">
        <ele>703</ele>
        <time>2019-09-29T09:11:19.000Z</time>
      </trkpt>
      <trkpt lat="45.46939" lon="4.67798">
        <ele>703</ele>
        <time>2019-09-29T09:11:21.000Z</time>
      </trkpt>
      <trkpt lat="45.46937" lon="4.67799">
        <ele>703</ele>
        <time>2019-09-29T09:11:22.000Z</time>
      </trkpt>
      <trkpt lat="45.46935" lon="4.67799">
        <ele>703</ele>
        <time>2019-09-29T09:11:23.000Z</time>
      </trkpt>
      <trkpt lat="45.46932" lon="4.67798">
        <ele>703</ele>
        <time>2019-09-29T09:11:25.000Z</time>
      </trkpt>
      <trkpt lat="45.46929" lon="4.67798">
        <ele>703</ele>
        <time>2019-09-29T09:11:26.000Z</time>
      </trkpt>
      <trkpt lat="45.46927" lon="4.67796">
        <ele>702</ele>
        <time>2019-09-29T09:11:27.000Z</time>
      </trkpt>
      <trkpt lat="45.46924" lon="4.67794">
        <ele>702</ele>
        <time>2019-09-29T09:11:29.000Z</time>
      </trkpt>
      <trkpt lat="45.46916" lon="4.67786">
        <ele>701</ele>
        <time>2019-09-29T09:11:33.000Z</time>
      </trkpt>
      <trkpt lat="45.46904" lon="4.67784">
        <ele>700</ele>
        <time>2019-09-29T09:11:36.000Z</time>
      </trkpt>
      <trkpt lat="45.46894" lon="4.67779">
        <ele>699.79845407368</ele>
        <time>2019-09-29T09:11:38.000Z</time>
      </trkpt>
      <trkpt lat="45.46882" lon="4.67774">
        <ele>699</ele>
        <time>2019-09-29T09:11:40.000Z</time>
      </trkpt>
      <trkpt lat="45.46869" lon="4.67774">
        <ele>698</ele>
        <time>2019-09-29T09:11:42.000Z</time>
      </trkpt>
      <trkpt lat="45.46856" lon="4.67774">
        <ele>698</ele>
        <time>2019-09-29T09:11:44.000Z</time>
      </trkpt>
      <trkpt lat="45.46844" lon="4.67775">
        <ele>698</ele>
        <time>2019-09-29T09:11:46.000Z</time>
      </trkpt>
      <trkpt lat="45.46832" lon="4.67772">
        <ele>697</ele>
        <time>2019-09-29T09:11:48.000Z</time>
      </trkpt>
      <trkpt lat="45.46822" lon="4.67768">
        <ele>697</ele>
        <time>2019-09-29T09:11:50.000Z</time>
      </trkpt>
      <trkpt lat="45.46812" lon="4.67766">
        <ele>696.73999692804</ele>
        <time>2019-09-29T09:11:53.000Z</time>
      </trkpt>
      <trkpt lat="45.46806" lon="4.67762">
        <ele>695</ele>
        <time>2019-09-29T09:11:59.000Z</time>
      </trkpt>
      <trkpt lat="45.46805" lon="4.6776">
        <ele>695</ele>
        <time>2019-09-29T09:12:10.000Z</time>
      </trkpt>
      <trkpt lat="45.46806" lon="4.67761">
        <ele>694</ele>
        <time>2019-09-29T09:12:32.000Z</time>
      </trkpt>
      <trkpt lat="45.46808" lon="4.67762">
        <ele>694</ele>
        <time>2019-09-29T09:12:45.000Z</time>
      </trkpt>
      <trkpt lat="45.46806" lon="4.67761">
        <ele>694</ele>
        <time>2019-09-29T09:13:21.000Z</time>
      </trkpt>
      <trkpt lat="45.46805" lon="4.67759">
        <ele>693.74000307204</ele>
        <time>2019-09-29T09:13:26.000Z</time>
      </trkpt>
      <trkpt lat="45.46801" lon="4.67757">
        <ele>693</ele>
        <time>2019-09-29T09:13:28.000Z</time>
      </trkpt>
      <trkpt lat="45.46798" lon="4.67755">
        <ele>693</ele>
        <time>2019-09-29T09:13:34.000Z</time>
      </trkpt>
      <trkpt lat="45.46796" lon="4.67753">
        <ele>693</ele>
        <time>2019-09-29T09:13:39.000Z</time>
      </trkpt>
      <trkpt lat="45.46794" lon="4.67751">
        <ele>693</ele>
        <time>2019-09-29T09:13:40.000Z</time>
      </trkpt>
      <trkpt lat="45.46792" lon="4.6775">
        <ele>693</ele>
        <time>2019-09-29T09:13:42.000Z</time>
      </trkpt>
      <trkpt lat="45.4679" lon="4.67749">
        <ele>693</ele>
        <time>2019-09-29T09:13:51.000Z</time>
      </trkpt>
      <trkpt lat="45.46788" lon="4.67749">
        <ele>693</ele>
        <time>2019-09-29T09:13:55.000Z</time>
      </trkpt>
      <trkpt lat="45.46786" lon="4.67749">
        <ele>693</ele>
        <time>2019-09-29T09:13:58.000Z</time>
      </trkpt>
      <trkpt lat="45.46784" lon="4.6775">
        <ele>693</ele>
        <time>2019-09-29T09:13:59.000Z</time>
      </trkpt>
      <trkpt lat="45.46782" lon="4.6775">
        <ele>692.74000307204</ele>
        <time>2019-09-29T09:14:00.000Z</time>
      </trkpt>
      <trkpt lat="45.46779" lon="4.6775">
        <ele>692</ele>
        <time>2019-09-29T09:14:01.000Z</time>
      </trkpt>
      <trkpt lat="45.46777" lon="4.6775">
        <ele>692</ele>
        <time>2019-09-29T09:14:02.000Z</time>
      </trkpt>
      <trkpt lat="45.46774" lon="4.67749">
        <ele>692</ele>
        <time>2019-09-29T09:14:03.000Z</time>
      </trkpt>
      <trkpt lat="45.46771" lon="4.67749">
        <ele>692</ele>
        <time>2019-09-29T09:14:04.000Z</time>
      </trkpt>
      <trkpt lat="45.46768" lon="4.67749">
        <ele>691.73999692804</ele>
        <time>2019-09-29T09:14:05.000Z</time>
      </trkpt>
      <trkpt lat="45.46765" lon="4.67748">
        <ele>691</ele>
        <time>2019-09-29T09:14:06.000Z</time>
      </trkpt>
      <trkpt lat="45.46762" lon="4.67747">
        <ele>691</ele>
        <time>2019-09-29T09:14:07.000Z</time>
      </trkpt>
      <trkpt lat="45.46753" lon="4.67745">
        <ele>691</ele>
        <time>2019-09-29T09:14:31.000Z</time>
      </trkpt>
      <trkpt lat="45.46744" lon="4.67746">
        <ele>691</ele>
        <time>2019-09-29T09:14:36.000Z</time>
      </trkpt>
      <trkpt lat="45.46742" lon="4.67746">
        <ele>691</ele>
        <time>2019-09-29T09:14:37.000Z</time>
      </trkpt>
      <trkpt lat="45.46739" lon="4.67745">
        <ele>691</ele>
        <time>2019-09-29T09:14:38.000Z</time>
      </trkpt>
      <trkpt lat="45.46737" lon="4.67745">
        <ele>691</ele>
        <time>2019-09-29T09:14:39.000Z</time>
      </trkpt>
      <trkpt lat="45.46726" lon="4.67746">
        <ele>690.74000307204</ele>
        <time>2019-09-29T09:14:44.000Z</time>
      </trkpt>
      <trkpt lat="45.46717" lon="4.67744">
        <ele>690</ele>
        <time>2019-09-29T09:14:48.000Z</time>
      </trkpt>
      <trkpt lat="45.46712" lon="4.67743">
        <ele>690</ele>
        <time>2019-09-29T09:14:51.000Z</time>
      </trkpt>
      <trkpt lat="45.46709" lon="4.67743">
        <ele>690</ele>
        <time>2019-09-29T09:14:52.000Z</time>
      </trkpt>
      <trkpt lat="45.46707" lon="4.67743">
        <ele>689.73999692804</ele>
        <time>2019-09-29T09:14:53.000Z</time>
      </trkpt>
      <trkpt lat="45.46698" lon="4.67743">
        <ele>689</ele>
        <time>2019-09-29T09:14:57.000Z</time>
      </trkpt>
      <trkpt lat="45.46695" lon="4.67743">
        <ele>689</ele>
        <time>2019-09-29T09:14:58.000Z</time>
      </trkpt>
      <trkpt lat="45.46693" lon="4.67742">
        <ele>689</ele>
        <time>2019-09-29T09:14:59.000Z</time>
      </trkpt>
      <trkpt lat="45.4669" lon="4.67742">
        <ele>689</ele>
        <time>2019-09-29T09:15:00.000Z</time>
      </trkpt>
      <trkpt lat="45.46688" lon="4.67742">
        <ele>689</ele>
        <time>2019-09-29T09:15:01.000Z</time>
      </trkpt>
      <trkpt lat="45.46686" lon="4.67741">
        <ele>689</ele>
        <time>2019-09-29T09:15:02.000Z</time>
      </trkpt>
      <trkpt lat="45.46676" lon="4.67739">
        <ele>688</ele>
        <time>2019-09-29T09:15:06.000Z</time>
      </trkpt>
      <trkpt lat="45.46673" lon="4.67737">
        <ele>688</ele>
        <time>2019-09-29T09:15:22.000Z</time>
      </trkpt>
      <trkpt lat="45.4667" lon="4.67738">
        <ele>686.74747879603</ele>
        <time>2019-09-29T09:16:09.000Z</time>
      </trkpt>
      <trkpt lat="45.46667" lon="4.67737">
        <ele>686</ele>
        <time>2019-09-29T09:16:11.000Z</time>
      </trkpt>
      <trkpt lat="45.46665" lon="4.67736">
        <ele>685.74000307204</ele>
        <time>2019-09-29T09:16:12.000Z</time>
      </trkpt>
      <trkpt lat="45.46661" lon="4.67735">
        <ele>685</ele>
        <time>2019-09-29T09:16:14.000Z</time>
      </trkpt>
      <trkpt lat="45.46659" lon="4.67734">
        <ele>685</ele>
        <time>2019-09-29T09:16:15.000Z</time>
      </trkpt>
      <trkpt lat="45.46657" lon="4.67734">
        <ele>685</ele>
        <time>2019-09-29T09:16:16.000Z</time>
      </trkpt>
      <trkpt lat="45.46648" lon="4.67739">
        <ele>684</ele>
        <time>2019-09-29T09:16:22.000Z</time>
      </trkpt>
      <trkpt lat="45.4664" lon="4.67748">
        <ele>683</ele>
        <time>2019-09-29T09:16:26.000Z</time>
      </trkpt>
      <trkpt lat="45.46629" lon="4.67753">
        <ele>683</ele>
        <time>2019-09-29T09:16:30.000Z</time>
      </trkpt>
      <trkpt lat="45.4662" lon="4.67762">
        <ele>682</ele>
        <time>2019-09-29T09:16:34.000Z</time>
      </trkpt>
      <trkpt lat="45.4661" lon="4.67768">
        <ele>681.73999692804</ele>
        <time>2019-09-29T09:16:39.000Z</time>
      </trkpt>
      <trkpt lat="45.46608" lon="4.6777">
        <ele>681</ele>
        <time>2019-09-29T09:16:41.000Z</time>
      </trkpt>
      <trkpt lat="45.46606" lon="4.67774">
        <ele>680</ele>
        <time>2019-09-29T09:16:48.000Z</time>
      </trkpt>
      <trkpt lat="45.46604" lon="4.67776">
        <ele>679.02325812149</ele>
        <time>2019-09-29T09:16:58.000Z</time>
      </trkpt>
      <trkpt lat="45.46602" lon="4.67777">
        <ele>678</ele>
        <time>2019-09-29T09:16:59.000Z</time>
      </trkpt>
      <trkpt lat="45.466" lon="4.67779">
        <ele>678</ele>
        <time>2019-09-29T09:17:00.000Z</time>
      </trkpt>
      <trkpt lat="45.46597" lon="4.67781">
        <ele>678</ele>
        <time>2019-09-29T09:17:01.000Z</time>
      </trkpt>
      <trkpt lat="45.46594" lon="4.67783">
        <ele>678</ele>
        <time>2019-09-29T09:17:02.000Z</time>
      </trkpt>
      <trkpt lat="45.4659" lon="4.67786">
        <ele>678</ele>
        <time>2019-09-29T09:17:03.000Z</time>
      </trkpt>
      <trkpt lat="45.46586" lon="4.67789">
        <ele>678</ele>
        <time>2019-09-29T09:17:04.000Z</time>
      </trkpt>
      <trkpt lat="45.46583" lon="4.67793">
        <ele>677.73999692804</ele>
        <time>2019-09-29T09:17:05.000Z</time>
      </trkpt>
      <trkpt lat="45.46579" lon="4.67796">
        <ele>677</ele>
        <time>2019-09-29T09:17:06.000Z</time>
      </trkpt>
      <trkpt lat="45.46576" lon="4.678">
        <ele>677</ele>
        <time>2019-09-29T09:17:07.000Z</time>
      </trkpt>
      <trkpt lat="45.46573" lon="4.67804">
        <ele>677</ele>
        <time>2019-09-29T09:17:08.000Z</time>
      </trkpt>
      <trkpt lat="45.46569" lon="4.67808">
        <ele>677</ele>
        <time>2019-09-29T09:17:09.000Z</time>
      </trkpt>
      <trkpt lat="45.46566" lon="4.67812">
        <ele>677</ele>
        <time>2019-09-29T09:17:10.000Z</time>
      </trkpt>
      <trkpt lat="45.4656" lon="4.67819">
        <ele>676.02325812149</ele>
        <time>2019-09-29T09:17:12.000Z</time>
      </trkpt>
      <trkpt lat="45.46556" lon="4.67822">
        <ele>676</ele>
        <time>2019-09-29T09:17:13.000Z</time>
      </trkpt>
      <trkpt lat="45.46553" lon="4.67826">
        <ele>676</ele>
        <time>2019-09-29T09:17:14.000Z</time>
      </trkpt>
      <trkpt lat="45.4655" lon="4.67829">
        <ele>675.73999692804</ele>
        <time>2019-09-29T09:17:15.000Z</time>
      </trkpt>
      <trkpt lat="45.46541" lon="4.67839">
        <ele>675</ele>
        <time>2019-09-29T09:17:18.000Z</time>
      </trkpt>
      <trkpt lat="45.46533" lon="4.67849">
        <ele>674.02325835227</ele>
        <time>2019-09-29T09:17:21.000Z</time>
      </trkpt>
      <trkpt lat="45.4653" lon="4.67853">
        <ele>674</ele>
        <time>2019-09-29T09:17:22.000Z</time>
      </trkpt>
      <trkpt lat="45.46528" lon="4.67858">
        <ele>673.7984461511</ele>
        <time>2019-09-29T09:17:23.000Z</time>
      </trkpt>
      <trkpt lat="45.46525" lon="4.67862">
        <ele>673.02325812149</ele>
        <time>2019-09-29T09:17:24.000Z</time>
      </trkpt>
      <trkpt lat="45.46522" lon="4.67865">
        <ele>673</ele>
        <time>2019-09-29T09:17:25.000Z</time>
      </trkpt>
      <trkpt lat="45.46517" lon="4.67871">
        <ele>673</ele>
        <time>2019-09-29T09:17:27.000Z</time>
      </trkpt>
      <trkpt lat="45.46514" lon="4.67873">
        <ele>672.74000307204</ele>
        <time>2019-09-29T09:17:28.000Z</time>
      </trkpt>
      <trkpt lat="45.46512" lon="4.67877">
        <ele>672</ele>
        <time>2019-09-29T09:17:29.000Z</time>
      </trkpt>
      <trkpt lat="45.4651" lon="4.67879">
        <ele>672</ele>
        <time>2019-09-29T09:17:30.000Z</time>
      </trkpt>
      <trkpt lat="45.46508" lon="4.67881">
        <ele>672</ele>
        <time>2019-09-29T09:17:31.000Z</time>
      </trkpt>
      <trkpt lat="45.46507" lon="4.67883">
        <ele>672</ele>
        <time>2019-09-29T09:17:32.000Z</time>
      </trkpt>
      <trkpt lat="45.46506" lon="4.67887">
        <ele>671.74000307204</ele>
        <time>2019-09-29T09:17:34.000Z</time>
      </trkpt>
      <trkpt lat="45.46504" lon="4.6789">
        <ele>671</ele>
        <time>2019-09-29T09:17:36.000Z</time>
      </trkpt>
      <trkpt lat="45.46503" lon="4.67892">
        <ele>671</ele>
        <time>2019-09-29T09:17:37.000Z</time>
      </trkpt>
      <trkpt lat="45.46502" lon="4.67895">
        <ele>671</ele>
        <time>2019-09-29T09:17:38.000Z</time>
      </trkpt>
      <trkpt lat="45.465" lon="4.67897">
        <ele>671</ele>
        <time>2019-09-29T09:17:39.000Z</time>
      </trkpt>
      <trkpt lat="45.46498" lon="4.67899">
        <ele>671</ele>
        <time>2019-09-29T09:17:40.000Z</time>
      </trkpt>
      <trkpt lat="45.46496" lon="4.67901">
        <ele>671</ele>
        <time>2019-09-29T09:17:41.000Z</time>
      </trkpt>
      <trkpt lat="45.46495" lon="4.67904">
        <ele>670.74000307204</ele>
        <time>2019-09-29T09:17:42.000Z</time>
      </trkpt>
      <trkpt lat="45.46494" lon="4.67906">
        <ele>670</ele>
        <time>2019-09-29T09:17:43.000Z</time>
      </trkpt>
      <trkpt lat="45.46493" lon="4.67909">
        <ele>670</ele>
        <time>2019-09-29T09:17:45.000Z</time>
      </trkpt>
      <trkpt lat="45.46491" lon="4.67909">
        <ele>669</ele>
        <time>2019-09-29T09:17:59.000Z</time>
      </trkpt>
      <trkpt lat="45.46487" lon="4.67909">
        <ele>667.73999692804</ele>
        <time>2019-09-29T09:18:01.000Z</time>
      </trkpt>
      <trkpt lat="45.46485" lon="4.67908">
        <ele>667</ele>
        <time>2019-09-29T09:18:02.000Z</time>
      </trkpt>
      <trkpt lat="45.46482" lon="4.67906">
        <ele>667</ele>
        <time>2019-09-29T09:18:03.000Z</time>
      </trkpt>
      <trkpt lat="45.4648" lon="4.67903">
        <ele>666.74000307204</ele>
        <time>2019-09-29T09:18:04.000Z</time>
      </trkpt>
      <trkpt lat="45.46476" lon="4.679">
        <ele>666</ele>
        <time>2019-09-29T09:18:05.000Z</time>
      </trkpt>
      <trkpt lat="45.46468" lon="4.67889">
        <ele>665</ele>
        <time>2019-09-29T09:18:09.000Z</time>
      </trkpt>
      <trkpt lat="45.4646" lon="4.67876">
        <ele>665</ele>
        <time>2019-09-29T09:18:13.000Z</time>
      </trkpt>
      <trkpt lat="45.46455" lon="4.67868">
        <ele>663</ele>
        <time>2019-09-29T09:18:16.000Z</time>
      </trkpt>
      <trkpt lat="45.46454" lon="4.67866">
        <ele>663</ele>
        <time>2019-09-29T09:18:25.000Z</time>
      </trkpt>
      <trkpt lat="45.46452" lon="4.67862">
        <ele>661.73999692804</ele>
        <time>2019-09-29T09:18:27.000Z</time>
      </trkpt>
      <trkpt lat="45.4645" lon="4.67857">
        <ele>661</ele>
        <time>2019-09-29T09:18:29.000Z</time>
      </trkpt>
      <trkpt lat="45.4645" lon="4.67854">
        <ele>661</ele>
        <time>2019-09-29T09:18:30.000Z</time>
      </trkpt>
      <trkpt lat="45.46449" lon="4.67851">
        <ele>660.74257036765</ele>
        <time>2019-09-29T09:18:31.000Z</time>
      </trkpt>
      <trkpt lat="45.46449" lon="4.67849">
        <ele>660</ele>
        <time>2019-09-29T09:18:32.000Z</time>
      </trkpt>
      <trkpt lat="45.46449" lon="4.67843">
        <ele>660</ele>
        <time>2019-09-29T09:18:34.000Z</time>
      </trkpt>
      <trkpt lat="45.46448" lon="4.6784">
        <ele>659.73999692804</ele>
        <time>2019-09-29T09:18:35.000Z</time>
      </trkpt>
      <trkpt lat="45.46446" lon="4.67837">
        <ele>659</ele>
        <time>2019-09-29T09:18:36.000Z</time>
      </trkpt>
      <trkpt lat="45.46444" lon="4.67835">
        <ele>659</ele>
        <time>2019-09-29T09:18:37.000Z</time>
      </trkpt>
      <trkpt lat="45.46447" lon="4.67836">
        <ele>657.4</ele>
        <time>2019-09-29T10:07:32.000Z</time>
      </trkpt>
      <trkpt lat="45.46453" lon="4.67822">
        <ele>656.6</ele>
        <time>2019-09-29T10:07:33.000Z</time>
      </trkpt>
      <trkpt lat="45.46438" lon="4.67822">
        <ele>656.6</ele>
        <time>2019-09-29T10:07:34.000Z</time>
      </trkpt>
      <trkpt lat="45.46441" lon="4.67831">
        <ele>656.7</ele>
        <time>2019-09-29T10:07:35.000Z</time>
      </trkpt>
      <trkpt lat="45.46384" lon="4.6788">
        <ele>661.8</ele>
        <time>2019-09-29T10:07:36.000Z</time>
      </trkpt>
      <trkpt lat="45.46351" lon="4.67903">
        <ele>664.9</ele>
        <time>2019-09-29T10:07:37.000Z</time>
      </trkpt>
      <trkpt lat="45.46331" lon="4.67923">
        <ele>668.4</ele>
        <time>2019-09-29T10:07:38.000Z</time>
      </trkpt>
      <trkpt lat="45.46265" lon="4.67964">
        <ele>672.5</ele>
        <time>2019-09-29T10:07:39.000Z</time>
      </trkpt>
      <trkpt lat="45.4622" lon="4.6798">
        <ele>689.7</ele>
        <time>2019-09-29T10:07:40.000Z</time>
      </trkpt>
      <trkpt lat="45.46218" lon="4.67981">
        <ele>690</ele>
        <time>2019-09-29T10:07:41.000Z</time>
      </trkpt>
      <trkpt lat="45.4621" lon="4.67985">
        <ele>691.3</ele>
        <time>2019-09-29T10:07:42.000Z</time>
      </trkpt>
      <trkpt lat="45.46197" lon="4.68">
        <ele>693</ele>
        <time>2019-09-29T10:07:43.000Z</time>
      </trkpt>
      <trkpt lat="45.46156" lon="4.68059">
        <ele>690.2</ele>
        <time>2019-09-29T10:07:44.000Z</time>
      </trkpt>
      <trkpt lat="45.4612" lon="4.68095">
        <ele>680.7</ele>
        <time>2019-09-29T10:07:45.000Z</time>
      </trkpt>
      <trkpt lat="45.46087" lon="4.6814">
        <ele>678.3</ele>
        <time>2019-09-29T10:07:46.000Z</time>
      </trkpt>
      <trkpt lat="45.46075" lon="4.68151">
        <ele>687.8</ele>
        <time>2019-09-29T10:07:47.000Z</time>
      </trkpt>
      <trkpt lat="45.46051" lon="4.6817">
        <ele>674.9</ele>
        <time>2019-09-29T10:07:48.000Z</time>
      </trkpt>
      <trkpt lat="45.46004" lon="4.68197">
        <ele>676.4</ele>
        <time>2019-09-29T10:07:49.000Z</time>
      </trkpt>
      <trkpt lat="45.45982" lon="4.68206">
        <ele>681.1</ele>
        <time>2019-09-29T10:07:50.000Z</time>
      </trkpt>
      <trkpt lat="45.45944" lon="4.68213">
        <ele>681.2</ele>
        <time>2019-09-29T10:07:51.000Z</time>
      </trkpt>
      <trkpt lat="45.4589" lon="4.6822">
        <ele>684.8</ele>
        <time>2019-09-29T10:07:52.000Z</time>
      </trkpt>
      <trkpt lat="45.45873" lon="4.68219">
        <ele>685.8</ele>
        <time>2019-09-29T10:07:53.000Z</time>
      </trkpt>
      <trkpt lat="45.45856" lon="4.68213">
        <ele>687</ele>
        <time>2019-09-29T10:07:54.000Z</time>
      </trkpt>
      <trkpt lat="45.45819" lon="4.68213">
        <ele>688.3</ele>
        <time>2019-09-29T10:07:55.000Z</time>
      </trkpt>
      <trkpt lat="45.45805" lon="4.68211">
        <ele>688.5</ele>
        <time>2019-09-29T10:07:56.000Z</time>
      </trkpt>
      <trkpt lat="45.45763" lon="4.68236">
        <ele>684.2</ele>
        <time>2019-09-29T10:07:57.000Z</time>
      </trkpt>
      <trkpt lat="45.45738" lon="4.68241">
        <ele>681.4</ele>
        <time>2019-09-29T10:07:58.000Z</time>
      </trkpt>
      <trkpt lat="45.45728" lon="4.6824">
        <ele>681.9</ele>
        <time>2019-09-29T10:07:59.000Z</time>
      </trkpt>
      <trkpt lat="45.45674" lon="4.68222">
        <ele>680.9</ele>
        <time>2019-09-29T10:08:00.000Z</time>
      </trkpt>
      <trkpt lat="45.45588" lon="4.68169">
        <ele>675.2</ele>
        <time>2019-09-29T10:08:01.000Z</time>
      </trkpt>
      <trkpt lat="45.45548" lon="4.68137">
        <ele>677.1</ele>
        <time>2019-09-29T10:08:02.000Z</time>
      </trkpt>
      <trkpt lat="45.45507" lon="4.68117">
        <ele>677.1</ele>
        <time>2019-09-29T10:08:03.000Z</time>
      </trkpt>
      <trkpt lat="45.45489" lon="4.68115">
        <ele>667.8</ele>
        <time>2019-09-29T10:08:04.000Z</time>
      </trkpt>
      <trkpt lat="45.45468" lon="4.68117">
        <ele>665.2</ele>
        <time>2019-09-29T10:08:05.000Z</time>
      </trkpt>
      <trkpt lat="45.45427" lon="4.6813">
        <ele>659.2</ele>
        <time>2019-09-29T10:08:06.000Z</time>
      </trkpt>
      <trkpt lat="45.45417" lon="4.6813">
        <ele>658.7</ele>
        <time>2019-09-29T10:08:07.000Z</time>
      </trkpt>
      <trkpt lat="45.45398" lon="4.68128">
        <ele>649.5</ele>
        <time>2019-09-29T10:08:08.000Z</time>
      </trkpt>
      <trkpt lat="45.45366" lon="4.68119">
        <ele>648.8</ele>
        <time>2019-09-29T10:08:09.000Z</time>
      </trkpt>
      <trkpt lat="45.45347" lon="4.68108">
        <ele>649.8</ele>
        <time>2019-09-29T10:08:10.000Z</time>
      </trkpt>
      <trkpt lat="45.45348" lon="4.68119">
        <ele>647.8</ele>
        <time>2019-09-29T10:08:11.000Z</time>
      </trkpt>
      <trkpt lat="45.45383" lon="4.68153">
        <ele>645.1</ele>
        <time>2019-09-29T10:08:12.000Z</time>
      </trkpt>
      <trkpt lat="45.45427" lon="4.68182">
        <ele>638.5</ele>
        <time>2019-09-29T10:08:13.000Z</time>
      </trkpt>
      <trkpt lat="45.45434" lon="4.68187">
        <ele>638</ele>
        <time>2019-09-29T10:08:14.000Z</time>
      </trkpt>
      <trkpt lat="45.45455" lon="4.68196">
        <ele>638.1</ele>
        <time>2019-09-29T10:08:15.000Z</time>
      </trkpt>
      <trkpt lat="45.45462" lon="4.6821">
        <ele>636.6</ele>
        <time>2019-09-29T10:08:16.000Z</time>
      </trkpt>
      <trkpt lat="45.45413" lon="4.68199">
        <ele>627.5</ele>
        <time>2019-09-29T10:08:17.000Z</time>
      </trkpt>
      <trkpt lat="45.45375" lon="4.68179">
        <ele>626.9</ele>
        <time>2019-09-29T10:08:18.000Z</time>
      </trkpt>
      <trkpt lat="45.4533" lon="4.6815">
        <ele>637.8</ele>
        <time>2019-09-29T10:08:19.000Z</time>
      </trkpt>
      <trkpt lat="45.45317" lon="4.68145">
        <ele>641</ele>
        <time>2019-09-29T10:08:20.000Z</time>
      </trkpt>
      <trkpt lat="45.45302" lon="4.68145">
        <ele>643</ele>
        <time>2019-09-29T10:08:21.000Z</time>
      </trkpt>
      <trkpt lat="45.45283" lon="4.68159">
        <ele>643.5</ele>
        <time>2019-09-29T10:08:22.000Z</time>
      </trkpt>
      <trkpt lat="45.4526" lon="4.68198">
        <ele>630.1</ele>
        <time>2019-09-29T10:08:23.000Z</time>
      </trkpt>
      <trkpt lat="45.45232" lon="4.68255">
        <ele>623.3</ele>
        <time>2019-09-29T10:08:24.000Z</time>
      </trkpt>
      <trkpt lat="45.45215" lon="4.6828">
        <ele>621.1</ele>
        <time>2019-09-29T10:08:25.000Z</time>
      </trkpt>
      <trkpt lat="45.45188" lon="4.68289">
        <ele>621.2</ele>
        <time>2019-09-29T10:08:26.000Z</time>
      </trkpt>
      <trkpt lat="45.45166" lon="4.68288">
        <ele>623.6</ele>
        <time>2019-09-29T10:08:27.000Z</time>
      </trkpt>
      <trkpt lat="45.45112" lon="4.68263">
        <ele>625.4</ele>
        <time>2019-09-29T10:08:28.000Z</time>
      </trkpt>
      <trkpt lat="45.45087" lon="4.68263">
        <ele>626.8</ele>
        <time>2019-09-29T10:08:29.000Z</time>
      </trkpt>
      <trkpt lat="45.45067" lon="4.68275">
        <ele>624.3</ele>
        <time>2019-09-29T10:08:30.000Z</time>
      </trkpt>
      <trkpt lat="45.45048" lon="4.68293">
        <ele>622.3</ele>
        <time>2019-09-29T10:08:31.000Z</time>
      </trkpt>
      <trkpt lat="45.45047" lon="4.68294">
        <ele>622.2</ele>
        <time>2019-09-29T10:08:32.000Z</time>
      </trkpt>
      <trkpt lat="45.4504" lon="4.68302">
        <ele>621.6</ele>
        <time>2019-09-29T10:08:33.000Z</time>
      </trkpt>
      <trkpt lat="45.45026" lon="4.6831">
        <ele>621</ele>
        <time>2019-09-29T10:08:34.000Z</time>
      </trkpt>
      <trkpt lat="45.45004" lon="4.68319">
        <ele>619.5</ele>
        <time>2019-09-29T10:08:35.000Z</time>
      </trkpt>
      <trkpt lat="45.44977" lon="4.68315">
        <ele>618.3</ele>
        <time>2019-09-29T10:08:36.000Z</time>
      </trkpt>
      <trkpt lat="45.44926" lon="4.68288">
        <ele>617.8</ele>
        <time>2019-09-29T10:08:37.000Z</time>
      </trkpt>
      <trkpt lat="45.44922" lon="4.68285">
        <ele>617.9</ele>
        <time>2019-09-29T10:08:38.000Z</time>
      </trkpt>
      <trkpt lat="45.44899" lon="4.68258">
        <ele>611.5</ele>
        <time>2019-09-29T10:08:39.000Z</time>
      </trkpt>
      <trkpt lat="45.44866" lon="4.68193">
        <ele>614.7</ele>
        <time>2019-09-29T10:08:40.000Z</time>
      </trkpt>
      <trkpt lat="45.44781" lon="4.67986">
        <ele>615.9</ele>
        <time>2019-09-29T10:08:41.000Z</time>
      </trkpt>
      <trkpt lat="45.44728" lon="4.67863">
        <ele>608</ele>
        <time>2019-09-29T10:08:42.000Z</time>
      </trkpt>
      <trkpt lat="45.44698" lon="4.67751">
        <ele>609.7</ele>
        <time>2019-09-29T10:08:43.000Z</time>
      </trkpt>
      <trkpt lat="45.44676" lon="4.67681">
        <ele>612.1</ele>
        <time>2019-09-29T10:08:44.000Z</time>
      </trkpt>
      <trkpt lat="45.44649" lon="4.67619">
        <ele>608.2</ele>
        <time>2019-09-29T10:08:45.000Z</time>
      </trkpt>
      <trkpt lat="45.44625" lon="4.67587">
        <ele>606.9</ele>
        <time>2019-09-29T10:08:46.000Z</time>
      </trkpt>
      <trkpt lat="45.44612" lon="4.67569">
        <ele>612.7</ele>
        <time>2019-09-29T10:08:47.000Z</time>
      </trkpt>
      <trkpt lat="45.44592" lon="4.67532">
        <ele>613.6</ele>
        <time>2019-09-29T10:08:48.000Z</time>
      </trkpt>
      <trkpt lat="45.44577" lon="4.67497">
        <ele>606.7</ele>
        <time>2019-09-29T10:08:49.000Z</time>
      </trkpt>
      <trkpt lat="45.44557" lon="4.67449">
        <ele>602.6</ele>
        <time>2019-09-29T10:08:50.000Z</time>
      </trkpt>
      <trkpt lat="45.44538" lon="4.6739">
        <ele>605.5</ele>
        <time>2019-09-29T10:08:51.000Z</time>
      </trkpt>
      <trkpt lat="45.4449" lon="4.67306">
        <ele>597</ele>
        <time>2019-09-29T10:08:52.000Z</time>
      </trkpt>
      <trkpt lat="45.44452" lon="4.67231">
        <ele>606</ele>
        <time>2019-09-29T10:08:53.000Z</time>
      </trkpt>
      <trkpt lat="45.44447" lon="4.67222">
        <ele>593.7</ele>
        <time>2019-09-29T10:08:54.000Z</time>
      </trkpt>
      <trkpt lat="45.44419" lon="4.67203">
        <ele>607.1</ele>
        <time>2019-09-29T10:08:55.000Z</time>
      </trkpt>
      <trkpt lat="45.44356" lon="4.67191">
        <ele>596.5</ele>
        <time>2019-09-29T10:08:56.000Z</time>
      </trkpt>
      <trkpt lat="45.44291" lon="4.67152">
        <ele>602.8</ele>
        <time>2019-09-29T10:08:57.000Z</time>
      </trkpt>
      <trkpt lat="45.44163" lon="4.67131">
        <ele>581.3</ele>
        <time>2019-09-29T10:08:58.000Z</time>
      </trkpt>
      <trkpt lat="45.4414" lon="4.67111">
        <ele>582.2</ele>
        <time>2019-09-29T10:08:59.000Z</time>
      </trkpt>
      <trkpt lat="45.44161" lon="4.67127">
        <ele>593</ele>
        <time>2019-09-29T10:09:00.000Z</time>
      </trkpt>
      <trkpt lat="45.44154" lon="4.67123">
        <ele>593</ele>
        <time>2019-09-29T10:09:01.000Z</time>
      </trkpt>
      <trkpt lat="45.44148" lon="4.67119">
        <ele>593</ele>
        <time>2019-09-29T10:09:02.000Z</time>
      </trkpt>
      <trkpt lat="45.44142" lon="4.67115">
        <ele>593</ele>
        <time>2019-09-29T10:09:03.000Z</time>
      </trkpt>
      <trkpt lat="45.44136" lon="4.67109">
        <ele>592.80153014862</ele>
        <time>2019-09-29T10:09:04.000Z</time>
      </trkpt>
      <trkpt lat="45.4413" lon="4.67103">
        <ele>592.03816577587</ele>
        <time>2019-09-29T10:09:06.000Z</time>
      </trkpt>
      <trkpt lat="45.44124" lon="4.67096">
        <ele>591.74000307204</ele>
        <time>2019-09-29T10:09:08.000Z</time>
      </trkpt>
      <trkpt lat="45.44119" lon="4.67088">
        <ele>591</ele>
        <time>2019-09-29T10:09:10.000Z</time>
      </trkpt>
      <trkpt lat="45.44113" lon="4.6708">
        <ele>591</ele>
        <time>2019-09-29T10:09:18.000Z</time>
      </trkpt>
      <trkpt lat="45.44108" lon="4.67072">
        <ele>591</ele>
        <time>2019-09-29T10:11:09.000Z</time>
      </trkpt>
      <trkpt lat="45.44104" lon="4.67064">
        <ele>590.74000307204</ele>
        <time>2019-09-29T10:12:12.000Z</time>
      </trkpt>
      <trkpt lat="45.44099" lon="4.67055">
        <ele>590</ele>
        <time>2019-09-29T10:12:13.000Z</time>
      </trkpt>
      <trkpt lat="45.44095" lon="4.67046">
        <ele>590</ele>
        <time>2019-09-29T10:12:14.000Z</time>
      </trkpt>
      <trkpt lat="45.44091" lon="4.67037">
        <ele>589</ele>
        <time>2019-09-29T10:12:15.000Z</time>
      </trkpt>
      <trkpt lat="45.44088" lon="4.67028">
        <ele>589</ele>
        <time>2019-09-29T10:12:16.000Z</time>
      </trkpt>
      <trkpt lat="45.44084" lon="4.67019">
        <ele>589</ele>
        <time>2019-09-29T10:12:17.000Z</time>
      </trkpt>
      <trkpt lat="45.44081" lon="4.6701">
        <ele>588.74000307204</ele>
        <time>2019-09-29T10:12:18.000Z</time>
      </trkpt>
      <trkpt lat="45.44078" lon="4.67001">
        <ele>588</ele>
        <time>2019-09-29T10:12:19.000Z</time>
      </trkpt>
      <trkpt lat="45.44074" lon="4.66991">
        <ele>588</ele>
        <time>2019-09-29T10:12:20.000Z</time>
      </trkpt>
      <trkpt lat="45.44071" lon="4.66982">
        <ele>588</ele>
        <time>2019-09-29T10:12:21.000Z</time>
      </trkpt>
      <trkpt lat="45.44067" lon="4.66973">
        <ele>587</ele>
        <time>2019-09-29T10:12:22.000Z</time>
      </trkpt>
      <trkpt lat="45.44064" lon="4.66964">
        <ele>587</ele>
        <time>2019-09-29T10:12:23.000Z</time>
      </trkpt>
      <trkpt lat="45.4406" lon="4.66954">
        <ele>586</ele>
        <time>2019-09-29T10:12:24.000Z</time>
      </trkpt>
      <trkpt lat="45.44057" lon="4.66945">
        <ele>585.73999692804</ele>
        <time>2019-09-29T10:12:25.000Z</time>
      </trkpt>
      <trkpt lat="45.44054" lon="4.66936">
        <ele>585</ele>
        <time>2019-09-29T10:12:27.000Z</time>
      </trkpt>
      <trkpt lat="45.4405" lon="4.66927">
        <ele>585</ele>
        <time>2019-09-29T10:12:29.000Z</time>
      </trkpt>
      <trkpt lat="45.44047" lon="4.66918">
        <ele>585</ele>
        <time>2019-09-29T10:12:30.000Z</time>
      </trkpt>
      <trkpt lat="45.44043" lon="4.6691">
        <ele>585</ele>
        <time>2019-09-29T10:12:31.000Z</time>
      </trkpt>
      <trkpt lat="45.4404" lon="4.669">
        <ele>585</ele>
        <time>2019-09-29T10:12:32.000Z</time>
      </trkpt>
      <trkpt lat="45.44037" lon="4.66891">
        <ele>585</ele>
        <time>2019-09-29T10:12:33.000Z</time>
      </trkpt>
      <trkpt lat="45.44035" lon="4.66881">
        <ele>585</ele>
        <time>2019-09-29T10:12:34.000Z</time>
      </trkpt>
      <trkpt lat="45.44032" lon="4.66872">
        <ele>585</ele>
        <time>2019-09-29T10:12:35.000Z</time>
      </trkpt>
      <trkpt lat="45.44031" lon="4.66862">
        <ele>585</ele>
        <time>2019-09-29T10:12:36.000Z</time>
      </trkpt>
      <trkpt lat="45.44029" lon="4.66853">
        <ele>585</ele>
        <time>2019-09-29T10:12:37.000Z</time>
      </trkpt>
      <trkpt lat="45.44028" lon="4.66843">
        <ele>585</ele>
        <time>2019-09-29T10:12:38.000Z</time>
      </trkpt>
      <trkpt lat="45.44027" lon="4.66834">
        <ele>584.73999692804</ele>
        <time>2019-09-29T10:12:39.000Z</time>
      </trkpt>
      <trkpt lat="45.44027" lon="4.66824">
        <ele>584</ele>
        <time>2019-09-29T10:12:40.000Z</time>
      </trkpt>
      <trkpt lat="45.44027" lon="4.66814">
        <ele>584</ele>
        <time>2019-09-29T10:12:41.000Z</time>
      </trkpt>
      <trkpt lat="45.44027" lon="4.66805">
        <ele>584</ele>
        <time>2019-09-29T10:12:42.000Z</time>
      </trkpt>
      <trkpt lat="45.44027" lon="4.66795">
        <ele>584</ele>
        <time>2019-09-29T10:12:43.000Z</time>
      </trkpt>
      <trkpt lat="45.44027" lon="4.66786">
        <ele>584</ele>
        <time>2019-09-29T10:12:44.000Z</time>
      </trkpt>
      <trkpt lat="45.44027" lon="4.66776">
        <ele>584</ele>
        <time>2019-09-29T10:12:45.000Z</time>
      </trkpt>
      <trkpt lat="45.44027" lon="4.66767">
        <ele>584</ele>
        <time>2019-09-29T10:12:46.000Z</time>
      </trkpt>
      <trkpt lat="45.44027" lon="4.66757">
        <ele>584</ele>
        <time>2019-09-29T10:12:47.000Z</time>
      </trkpt>
      <trkpt lat="45.44027" lon="4.66748">
        <ele>584</ele>
        <time>2019-09-29T10:12:48.000Z</time>
      </trkpt>
      <trkpt lat="45.44027" lon="4.66738">
        <ele>583.73999692804</ele>
        <time>2019-09-29T10:12:49.000Z</time>
      </trkpt>
      <trkpt lat="45.44027" lon="4.66728">
        <ele>583</ele>
        <time>2019-09-29T10:12:50.000Z</time>
      </trkpt>
      <trkpt lat="45.44027" lon="4.66719">
        <ele>583</ele>
        <time>2019-09-29T10:12:51.000Z</time>
      </trkpt>
      <trkpt lat="45.44027" lon="4.66709">
        <ele>583</ele>
        <time>2019-09-29T10:12:52.000Z</time>
      </trkpt>
      <trkpt lat="45.44027" lon="4.66699">
        <ele>582.74747879603</ele>
        <time>2019-09-29T10:12:53.000Z</time>
      </trkpt>
      <trkpt lat="45.44027" lon="4.6669">
        <ele>582</ele>
        <time>2019-09-29T10:12:54.000Z</time>
      </trkpt>
      <trkpt lat="45.44026" lon="4.6668">
        <ele>582</ele>
        <time>2019-09-29T10:12:55.000Z</time>
      </trkpt>
      <trkpt lat="45.44026" lon="4.6667">
        <ele>582</ele>
        <time>2019-09-29T10:12:56.000Z</time>
      </trkpt>
      <trkpt lat="45.44026" lon="4.6666">
        <ele>582</ele>
        <time>2019-09-29T10:12:57.000Z</time>
      </trkpt>
      <trkpt lat="45.44025" lon="4.6665">
        <ele>582</ele>
        <time>2019-09-29T10:12:58.000Z</time>
      </trkpt>
      <trkpt lat="45.44025" lon="4.66641">
        <ele>582</ele>
        <time>2019-09-29T10:12:59.000Z</time>
      </trkpt>
      <trkpt lat="45.44025" lon="4.66632">
        <ele>581</ele>
        <time>2019-09-29T10:13:00.000Z</time>
      </trkpt>
      <trkpt lat="45.44025" lon="4.66623">
        <ele>581</ele>
        <time>2019-09-29T10:13:01.000Z</time>
      </trkpt>
      <trkpt lat="45.44025" lon="4.66614">
        <ele>581</ele>
        <time>2019-09-29T10:13:02.000Z</time>
      </trkpt>
      <trkpt lat="45.44025" lon="4.66604">
        <ele>581</ele>
        <time>2019-09-29T10:13:03.000Z</time>
      </trkpt>
      <trkpt lat="45.44025" lon="4.66596">
        <ele>580.74000307204</ele>
        <time>2019-09-29T10:13:04.000Z</time>
      </trkpt>
      <trkpt lat="45.44025" lon="4.66587">
        <ele>580</ele>
        <time>2019-09-29T10:13:05.000Z</time>
      </trkpt>
      <trkpt lat="45.44025" lon="4.66577">
        <ele>580</ele>
        <time>2019-09-29T10:13:06.000Z</time>
      </trkpt>
      <trkpt lat="45.44025" lon="4.66568">
        <ele>580</ele>
        <time>2019-09-29T10:13:07.000Z</time>
      </trkpt>
      <trkpt lat="45.44024" lon="4.66559">
        <ele>580</ele>
        <time>2019-09-29T10:13:08.000Z</time>
      </trkpt>
      <trkpt lat="45.44024" lon="4.6655">
        <ele>579.73999692804</ele>
        <time>2019-09-29T10:13:09.000Z</time>
      </trkpt>
      <trkpt lat="45.44024" lon="4.66541">
        <ele>579</ele>
        <time>2019-09-29T10:13:10.000Z</time>
      </trkpt>
      <trkpt lat="45.44023" lon="4.66532">
        <ele>579</ele>
        <time>2019-09-29T10:13:11.000Z</time>
      </trkpt>
      <trkpt lat="45.44021" lon="4.66523">
        <ele>579</ele>
        <time>2019-09-29T10:13:12.000Z</time>
      </trkpt>
      <trkpt lat="45.44019" lon="4.66514">
        <ele>579</ele>
        <time>2019-09-29T10:13:13.000Z</time>
      </trkpt>
      <trkpt lat="45.44017" lon="4.66505">
        <ele>579</ele>
        <time>2019-09-29T10:13:14.000Z</time>
      </trkpt>
      <trkpt lat="45.44015" lon="4.66497">
        <ele>579</ele>
        <time>2019-09-29T10:13:15.000Z</time>
      </trkpt>
      <trkpt lat="45.44013" lon="4.6649">
        <ele>579</ele>
        <time>2019-09-29T10:13:16.000Z</time>
      </trkpt>
      <trkpt lat="45.44011" lon="4.66483">
        <ele>578.73999692804</ele>
        <time>2019-09-29T10:13:17.000Z</time>
      </trkpt>
      <trkpt lat="45.44008" lon="4.66476">
        <ele>578</ele>
        <time>2019-09-29T10:13:18.000Z</time>
      </trkpt>
      <trkpt lat="45.44005" lon="4.66469">
        <ele>578</ele>
        <time>2019-09-29T10:13:19.000Z</time>
      </trkpt>
      <trkpt lat="45.44001" lon="4.66462">
        <ele>578</ele>
        <time>2019-09-29T10:13:20.000Z</time>
      </trkpt>
      <trkpt lat="45.43998" lon="4.66456">
        <ele>578</ele>
        <time>2019-09-29T10:13:21.000Z</time>
      </trkpt>
      <trkpt lat="45.43994" lon="4.6645">
        <ele>578</ele>
        <time>2019-09-29T10:13:22.000Z</time>
      </trkpt>
      <trkpt lat="45.43991" lon="4.66443">
        <ele>578</ele>
        <time>2019-09-29T10:13:23.000Z</time>
      </trkpt>
      <trkpt lat="45.43987" lon="4.66437">
        <ele>578</ele>
        <time>2019-09-29T10:13:24.000Z</time>
      </trkpt>
      <trkpt lat="45.43983" lon="4.6643">
        <ele>578</ele>
        <time>2019-09-29T10:13:25.000Z</time>
      </trkpt>
      <trkpt lat="45.43979" lon="4.66424">
        <ele>578</ele>
        <time>2019-09-29T10:13:26.000Z</time>
      </trkpt>
      <trkpt lat="45.43976" lon="4.66418">
        <ele>578</ele>
        <time>2019-09-29T10:13:27.000Z</time>
      </trkpt>
      <trkpt lat="45.43972" lon="4.66412">
        <ele>578</ele>
        <time>2019-09-29T10:13:28.000Z</time>
      </trkpt>
      <trkpt lat="45.43969" lon="4.66407">
        <ele>578</ele>
        <time>2019-09-29T10:13:29.000Z</time>
      </trkpt>
      <trkpt lat="45.43966" lon="4.66402">
        <ele>578</ele>
        <time>2019-09-29T10:13:30.000Z</time>
      </trkpt>
      <trkpt lat="45.43963" lon="4.66397">
        <ele>578</ele>
        <time>2019-09-29T10:13:31.000Z</time>
      </trkpt>
      <trkpt lat="45.43961" lon="4.66393">
        <ele>578</ele>
        <time>2019-09-29T10:13:32.000Z</time>
      </trkpt>
      <trkpt lat="45.43959" lon="4.6639">
        <ele>578</ele>
        <time>2019-09-29T10:13:33.000Z</time>
      </trkpt>
      <trkpt lat="45.43957" lon="4.66387">
        <ele>578</ele>
        <time>2019-09-29T10:13:34.000Z</time>
      </trkpt>
      <trkpt lat="45.43955" lon="4.66384">
        <ele>577.73999692804</ele>
        <time>2019-09-29T10:13:35.000Z</time>
      </trkpt>
      <trkpt lat="45.43954" lon="4.66382">
        <ele>577</ele>
        <time>2019-09-29T10:13:36.000Z</time>
      </trkpt>
      <trkpt lat="45.43951" lon="4.66379">
        <ele>577</ele>
        <time>2019-09-29T10:13:37.000Z</time>
      </trkpt>
      <trkpt lat="45.43947" lon="4.66377">
        <ele>577</ele>
        <time>2019-09-29T10:13:38.000Z</time>
      </trkpt>
      <trkpt lat="45.43945" lon="4.66377">
        <ele>577</ele>
        <time>2019-09-29T10:13:43.000Z</time>
      </trkpt>
      <trkpt lat="45.43946" lon="4.6638">
        <ele>577</ele>
        <time>2019-09-29T10:13:44.000Z</time>
      </trkpt>
      <trkpt lat="45.43946" lon="4.66382">
        <ele>576</ele>
        <time>2019-09-29T10:13:45.000Z</time>
      </trkpt>
      <trkpt lat="45.43944" lon="4.66386">
        <ele>576</ele>
        <time>2019-09-29T10:13:46.000Z</time>
      </trkpt>
      <trkpt lat="45.43943" lon="4.66388">
        <ele>576</ele>
        <time>2019-09-29T10:13:47.000Z</time>
      </trkpt>
      <trkpt lat="45.43941" lon="4.6639">
        <ele>576</ele>
        <time>2019-09-29T10:13:48.000Z</time>
      </trkpt>
      <trkpt lat="45.4394" lon="4.66393">
        <ele>576</ele>
        <time>2019-09-29T10:13:49.000Z</time>
      </trkpt>
      <trkpt lat="45.43939" lon="4.66395">
        <ele>576</ele>
        <time>2019-09-29T10:13:53.000Z</time>
      </trkpt>
      <trkpt lat="45.43937" lon="4.66398">
        <ele>576</ele>
        <time>2019-09-29T10:14:11.000Z</time>
      </trkpt>
      <trkpt lat="45.43936" lon="4.664">
        <ele>575.79845407368</ele>
        <time>2019-09-29T10:14:12.000Z</time>
      </trkpt>
      <trkpt lat="45.43935" lon="4.66403">
        <ele>575.02325835227</ele>
        <time>2019-09-29T10:14:13.000Z</time>
      </trkpt>
      <trkpt lat="45.43933" lon="4.66406">
        <ele>575</ele>
        <time>2019-09-29T10:14:14.000Z</time>
      </trkpt>
      <trkpt lat="45.43932" lon="4.66409">
        <ele>575</ele>
        <time>2019-09-29T10:14:15.000Z</time>
      </trkpt>
      <trkpt lat="45.43931" lon="4.66413">
        <ele>575</ele>
        <time>2019-09-29T10:14:16.000Z</time>
      </trkpt>
      <trkpt lat="45.43929" lon="4.66417">
        <ele>575</ele>
        <time>2019-09-29T10:14:17.000Z</time>
      </trkpt>
      <trkpt lat="45.43928" lon="4.66421">
        <ele>575</ele>
        <time>2019-09-29T10:14:18.000Z</time>
      </trkpt>
      <trkpt lat="45.43927" lon="4.66424">
        <ele>575</ele>
        <time>2019-09-29T10:14:19.000Z</time>
      </trkpt>
      <trkpt lat="45.43927" lon="4.66428">
        <ele>575</ele>
        <time>2019-09-29T10:14:20.000Z</time>
      </trkpt>
      <trkpt lat="45.43926" lon="4.66433">
        <ele>574</ele>
        <time>2019-09-29T10:14:21.000Z</time>
      </trkpt>
      <trkpt lat="45.43926" lon="4.66436">
        <ele>574</ele>
        <time>2019-09-29T10:14:22.000Z</time>
      </trkpt>
      <trkpt lat="45.43925" lon="4.66439">
        <ele>574</ele>
        <time>2019-09-29T10:14:23.000Z</time>
      </trkpt>
      <trkpt lat="45.43924" lon="4.66442">
        <ele>574</ele>
        <time>2019-09-29T10:14:24.000Z</time>
      </trkpt>
      <trkpt lat="45.43924" lon="4.66445">
        <ele>573.73999692804</ele>
        <time>2019-09-29T10:14:25.000Z</time>
      </trkpt>
      <trkpt lat="45.43923" lon="4.66448">
        <ele>573</ele>
        <time>2019-09-29T10:14:26.000Z</time>
      </trkpt>
      <trkpt lat="45.43922" lon="4.66451">
        <ele>573</ele>
        <time>2019-09-29T10:14:27.000Z</time>
      </trkpt>
      <trkpt lat="45.43921" lon="4.66454">
        <ele>573</ele>
        <time>2019-09-29T10:14:28.000Z</time>
      </trkpt>
      <trkpt lat="45.43919" lon="4.66457">
        <ele>573</ele>
        <time>2019-09-29T10:14:29.000Z</time>
      </trkpt>
      <trkpt lat="45.43918" lon="4.66461">
        <ele>573</ele>
        <time>2019-09-29T10:14:30.000Z</time>
      </trkpt>
      <trkpt lat="45.43917" lon="4.66464">
        <ele>572</ele>
        <time>2019-09-29T10:14:31.000Z</time>
      </trkpt>
      <trkpt lat="45.43916" lon="4.66468">
        <ele>572</ele>
        <time>2019-09-29T10:14:32.000Z</time>
      </trkpt>
      <trkpt lat="45.43914" lon="4.66471">
        <ele>571.73999692804</ele>
        <time>2019-09-29T10:14:33.000Z</time>
      </trkpt>
      <trkpt lat="45.43912" lon="4.66475">
        <ele>571</ele>
        <time>2019-09-29T10:14:34.000Z</time>
      </trkpt>
      <trkpt lat="45.4391" lon="4.66479">
        <ele>571</ele>
        <time>2019-09-29T10:14:35.000Z</time>
      </trkpt>
      <trkpt lat="45.43908" lon="4.66484">
        <ele>570.74510271437</ele>
        <time>2019-09-29T10:14:36.000Z</time>
      </trkpt>
      <trkpt lat="45.43906" lon="4.66488">
        <ele>570</ele>
        <time>2019-09-29T10:14:37.000Z</time>
      </trkpt>
      <trkpt lat="45.43904" lon="4.66493">
        <ele>569.74000307204</ele>
        <time>2019-09-29T10:14:38.000Z</time>
      </trkpt>
      <trkpt lat="45.43902" lon="4.66498">
        <ele>569</ele>
        <time>2019-09-29T10:14:39.000Z</time>
      </trkpt>
      <trkpt lat="45.439" lon="4.66502">
        <ele>568.74000307204</ele>
        <time>2019-09-29T10:14:40.000Z</time>
      </trkpt>
      <trkpt lat="45.43899" lon="4.66507">
        <ele>567.73999692804</ele>
        <time>2019-09-29T10:14:41.000Z</time>
      </trkpt>
      <trkpt lat="45.43897" lon="4.66511">
        <ele>567</ele>
        <time>2019-09-29T10:14:42.000Z</time>
      </trkpt>
      <trkpt lat="45.43895" lon="4.66516">
        <ele>567</ele>
        <time>2019-09-29T10:14:43.000Z</time>
      </trkpt>
      <trkpt lat="45.43894" lon="4.66521">
        <ele>566.74747553108</ele>
        <time>2019-09-29T10:14:44.000Z</time>
      </trkpt>
      <trkpt lat="45.43892" lon="4.66526">
        <ele>566</ele>
        <time>2019-09-29T10:14:45.000Z</time>
      </trkpt>
      <trkpt lat="45.4389" lon="4.66532">
        <ele>565.74000307204</ele>
        <time>2019-09-29T10:14:46.000Z</time>
      </trkpt>
      <trkpt lat="45.43889" lon="4.66537">
        <ele>565</ele>
        <time>2019-09-29T10:14:47.000Z</time>
      </trkpt>
      <trkpt lat="45.43887" lon="4.66543">
        <ele>565</ele>
        <time>2019-09-29T10:14:48.000Z</time>
      </trkpt>
      <trkpt lat="45.43886" lon="4.66549">
        <ele>565</ele>
        <time>2019-09-29T10:14:49.000Z</time>
      </trkpt>
      <trkpt lat="45.43885" lon="4.66555">
        <ele>564</ele>
        <time>2019-09-29T10:14:50.000Z</time>
      </trkpt>
      <trkpt lat="45.43884" lon="4.66561">
        <ele>564</ele>
        <time>2019-09-29T10:14:51.000Z</time>
      </trkpt>
      <trkpt lat="45.43882" lon="4.66567">
        <ele>563.74000307204</ele>
        <time>2019-09-29T10:14:52.000Z</time>
      </trkpt>
      <trkpt lat="45.43881" lon="4.66572">
        <ele>563</ele>
        <time>2019-09-29T10:14:53.000Z</time>
      </trkpt>
      <trkpt lat="45.43879" lon="4.66577">
        <ele>562.74000307204</ele>
        <time>2019-09-29T10:14:54.000Z</time>
      </trkpt>
      <trkpt lat="45.43877" lon="4.66583">
        <ele>562</ele>
        <time>2019-09-29T10:14:55.000Z</time>
      </trkpt>
      <trkpt lat="45.43874" lon="4.66588">
        <ele>561.74000307204</ele>
        <time>2019-09-29T10:14:56.000Z</time>
      </trkpt>
      <trkpt lat="45.43872" lon="4.66594">
        <ele>561</ele>
        <time>2019-09-29T10:14:57.000Z</time>
      </trkpt>
      <trkpt lat="45.4387" lon="4.66599">
        <ele>560.74000307204</ele>
        <time>2019-09-29T10:14:58.000Z</time>
      </trkpt>
      <trkpt lat="45.43868" lon="4.66604">
        <ele>560</ele>
        <time>2019-09-29T10:14:59.000Z</time>
      </trkpt>
      <trkpt lat="45.43866" lon="4.66609">
        <ele>560</ele>
        <time>2019-09-29T10:15:00.000Z</time>
      </trkpt>
      <trkpt lat="45.43864" lon="4.66615">
        <ele>559</ele>
        <time>2019-09-29T10:15:01.000Z</time>
      </trkpt>
      <trkpt lat="45.43861" lon="4.66622">
        <ele>558.74747553108</ele>
        <time>2019-09-29T10:15:02.000Z</time>
      </trkpt>
      <trkpt lat="45.43859" lon="4.66628">
        <ele>558</ele>
        <time>2019-09-29T10:15:03.000Z</time>
      </trkpt>
      <trkpt lat="45.43858" lon="4.66635">
        <ele>557.74000307204</ele>
        <time>2019-09-29T10:15:04.000Z</time>
      </trkpt>
      <trkpt lat="45.43857" lon="4.66642">
        <ele>557</ele>
        <time>2019-09-29T10:15:05.000Z</time>
      </trkpt>
      <trkpt lat="45.43857" lon="4.66649">
        <ele>557</ele>
        <time>2019-09-29T10:15:06.000Z</time>
      </trkpt>
      <trkpt lat="45.43857" lon="4.66655">
        <ele>557</ele>
        <time>2019-09-29T10:15:07.000Z</time>
      </trkpt>
      <trkpt lat="45.43857" lon="4.66661">
        <ele>557</ele>
        <time>2019-09-29T10:15:08.000Z</time>
      </trkpt>
      <trkpt lat="45.43856" lon="4.66668">
        <ele>556</ele>
        <time>2019-09-29T10:15:09.000Z</time>
      </trkpt>
      <trkpt lat="45.43855" lon="4.66675">
        <ele>556</ele>
        <time>2019-09-29T10:15:10.000Z</time>
      </trkpt>
      <trkpt lat="45.43855" lon="4.66682">
        <ele>555</ele>
        <time>2019-09-29T10:15:11.000Z</time>
      </trkpt>
      <trkpt lat="45.43854" lon="4.66689">
        <ele>555</ele>
        <time>2019-09-29T10:15:12.000Z</time>
      </trkpt>
      <trkpt lat="45.43854" lon="4.66696">
        <ele>555</ele>
        <time>2019-09-29T10:15:13.000Z</time>
      </trkpt>
      <trkpt lat="45.43853" lon="4.66702">
        <ele>554.74000307204</ele>
        <time>2019-09-29T10:15:14.000Z</time>
      </trkpt>
      <trkpt lat="45.43851" lon="4.66708">
        <ele>554</ele>
        <time>2019-09-29T10:15:15.000Z</time>
      </trkpt>
      <trkpt lat="45.4385" lon="4.66714">
        <ele>554</ele>
        <time>2019-09-29T10:15:16.000Z</time>
      </trkpt>
      <trkpt lat="45.43848" lon="4.66719">
        <ele>553.73999692804</ele>
        <time>2019-09-29T10:15:17.000Z</time>
      </trkpt>
      <trkpt lat="45.43846" lon="4.66724">
        <ele>553</ele>
        <time>2019-09-29T10:15:18.000Z</time>
      </trkpt>
      <trkpt lat="45.43844" lon="4.66729">
        <ele>553</ele>
        <time>2019-09-29T10:15:19.000Z</time>
      </trkpt>
      <trkpt lat="45.43843" lon="4.66735">
        <ele>552.80000393848</ele>
        <time>2019-09-29T10:15:20.000Z</time>
      </trkpt>
      <trkpt lat="45.43842" lon="4.66742">
        <ele>552.03076938225</ele>
        <time>2019-09-29T10:15:21.000Z</time>
      </trkpt>
      <trkpt lat="45.43841" lon="4.66749">
        <ele>551.74510271437</ele>
        <time>2019-09-29T10:15:22.000Z</time>
      </trkpt>
      <trkpt lat="45.4384" lon="4.66757">
        <ele>551</ele>
        <time>2019-09-29T10:15:23.000Z</time>
      </trkpt>
      <trkpt lat="45.43839" lon="4.66764">
        <ele>550.74000307204</ele>
        <time>2019-09-29T10:15:24.000Z</time>
      </trkpt>
      <trkpt lat="45.43837" lon="4.66771">
        <ele>550</ele>
        <time>2019-09-29T10:15:25.000Z</time>
      </trkpt>
      <trkpt lat="45.43835" lon="4.66777">
        <ele>549.79688</ele>
        <time>2019-09-29T10:15:26.000Z</time>
      </trkpt>
      <trkpt lat="45.43833" lon="4.66784">
        <ele>549.01563</ele>
        <time>2019-09-29T10:15:27.000Z</time>
      </trkpt>
      <trkpt lat="45.43832" lon="4.6679">
        <ele>548.74000307204</ele>
        <time>2019-09-29T10:15:28.000Z</time>
      </trkpt>
      <trkpt lat="45.43832" lon="4.66796">
        <ele>548</ele>
        <time>2019-09-29T10:15:29.000Z</time>
      </trkpt>
      <trkpt lat="45.43833" lon="4.668">
        <ele>548</ele>
        <time>2019-09-29T10:15:30.000Z</time>
      </trkpt>
      <trkpt lat="45.43835" lon="4.66796">
        <ele>544.7984461511</ele>
        <time>2019-09-29T10:15:31.000Z</time>
      </trkpt>
      <trkpt lat="45.43835" lon="4.66792">
        <ele>544.02325812149</ele>
        <time>2019-09-29T10:15:32.000Z</time>
      </trkpt>
      <trkpt lat="45.43836" lon="4.66789">
        <ele>542.73999692804</ele>
        <time>2019-09-29T10:15:33.000Z</time>
      </trkpt>
      <trkpt lat="45.43836" lon="4.66784">
        <ele>542</ele>
        <time>2019-09-29T10:15:34.000Z</time>
      </trkpt>
      <trkpt lat="45.43835" lon="4.66779">
        <ele>541.73999692804</ele>
        <time>2019-09-29T10:15:35.000Z</time>
      </trkpt>
      <trkpt lat="45.43836" lon="4.66774">
        <ele>541</ele>
        <time>2019-09-29T10:15:36.000Z</time>
      </trkpt>
      <trkpt lat="45.43836" lon="4.6677">
        <ele>540.73999692804</ele>
        <time>2019-09-29T10:15:37.000Z</time>
      </trkpt>
      <trkpt lat="45.43835" lon="4.66768">
        <ele>540</ele>
        <time>2019-09-29T10:15:38.000Z</time>
      </trkpt>
      <trkpt lat="45.43833" lon="4.66769">
        <ele>540</ele>
        <time>2019-09-29T10:15:39.000Z</time>
      </trkpt>
      <trkpt lat="45.43831" lon="4.66772">
        <ele>539.79845407368</ele>
        <time>2019-09-29T10:15:40.000Z</time>
      </trkpt>
      <trkpt lat="45.4383" lon="4.66774">
        <ele>539.02325835227</ele>
        <time>2019-09-29T10:15:58.000Z</time>
      </trkpt>
      <trkpt lat="45.43829" lon="4.66777">
        <ele>539</ele>
        <time>2019-09-29T10:15:59.000Z</time>
      </trkpt>
      <trkpt lat="45.43827" lon="4.66781">
        <ele>539</ele>
        <time>2019-09-29T10:16:00.000Z</time>
      </trkpt>
      <trkpt lat="45.43824" lon="4.66786">
        <ele>538.74000307204</ele>
        <time>2019-09-29T10:16:01.000Z</time>
      </trkpt>
      <trkpt lat="45.43822" lon="4.6679">
        <ele>538</ele>
        <time>2019-09-29T10:16:02.000Z</time>
      </trkpt>
      <trkpt lat="45.43818" lon="4.66794">
        <ele>538</ele>
        <time>2019-09-29T10:16:03.000Z</time>
      </trkpt>
      <trkpt lat="45.43814" lon="4.66798">
        <ele>538</ele>
        <time>2019-09-29T10:16:04.000Z</time>
      </trkpt>
      <trkpt lat="45.4381" lon="4.66801">
        <ele>538</ele>
        <time>2019-09-29T10:16:05.000Z</time>
      </trkpt>
      <trkpt lat="45.43806" lon="4.66803">
        <ele>537.73999692804</ele>
        <time>2019-09-29T10:16:06.000Z</time>
      </trkpt>
      <trkpt lat="45.43802" lon="4.66804">
        <ele>537</ele>
        <time>2019-09-29T10:16:07.000Z</time>
      </trkpt>
      <trkpt lat="45.43797" lon="4.66806">
        <ele>537</ele>
        <time>2019-09-29T10:16:08.000Z</time>
      </trkpt>
      <trkpt lat="45.43793" lon="4.66808">
        <ele>536.74000307204</ele>
        <time>2019-09-29T10:16:09.000Z</time>
      </trkpt>
      <trkpt lat="45.43788" lon="4.6681">
        <ele>536</ele>
        <time>2019-09-29T10:16:10.000Z</time>
      </trkpt>
      <trkpt lat="45.43784" lon="4.66813">
        <ele>536</ele>
        <time>2019-09-29T10:16:11.000Z</time>
      </trkpt>
      <trkpt lat="45.43781" lon="4.66818">
        <ele>536</ele>
        <time>2019-09-29T10:16:12.000Z</time>
      </trkpt>
      <trkpt lat="45.43779" lon="4.66822">
        <ele>536</ele>
        <time>2019-09-29T10:16:13.000Z</time>
      </trkpt>
      <trkpt lat="45.43778" lon="4.66826">
        <ele>536</ele>
        <time>2019-09-29T10:16:14.000Z</time>
      </trkpt>
      <trkpt lat="45.43777" lon="4.6683">
        <ele>535.74000307204</ele>
        <time>2019-09-29T10:16:15.000Z</time>
      </trkpt>
      <trkpt lat="45.43777" lon="4.66835">
        <ele>535</ele>
        <time>2019-09-29T10:16:16.000Z</time>
      </trkpt>
      <trkpt lat="45.43776" lon="4.66839">
        <ele>535</ele>
        <time>2019-09-29T10:16:17.000Z</time>
      </trkpt>
      <trkpt lat="45.43775" lon="4.66845">
        <ele>535</ele>
        <time>2019-09-29T10:16:18.000Z</time>
      </trkpt>
      <trkpt lat="45.43773" lon="4.6685">
        <ele>535</ele>
        <time>2019-09-29T10:16:19.000Z</time>
      </trkpt>
      <trkpt lat="45.43772" lon="4.66857">
        <ele>534.73999692804</ele>
        <time>2019-09-29T10:16:20.000Z</time>
      </trkpt>
      <trkpt lat="45.43771" lon="4.66862">
        <ele>534</ele>
        <time>2019-09-29T10:16:21.000Z</time>
      </trkpt>
      <trkpt lat="45.43769" lon="4.66868">
        <ele>534</ele>
        <time>2019-09-29T10:16:22.000Z</time>
      </trkpt>
      <trkpt lat="45.43767" lon="4.66874">
        <ele>533.74000307204</ele>
        <time>2019-09-29T10:16:23.000Z</time>
      </trkpt>
      <trkpt lat="45.43765" lon="4.6688">
        <ele>533</ele>
        <time>2019-09-29T10:16:24.000Z</time>
      </trkpt>
      <trkpt lat="45.43764" lon="4.66885">
        <ele>533</ele>
        <time>2019-09-29T10:16:25.000Z</time>
      </trkpt>
      <trkpt lat="45.43762" lon="4.6689">
        <ele>533</ele>
        <time>2019-09-29T10:16:26.000Z</time>
      </trkpt>
      <trkpt lat="45.43761" lon="4.66895">
        <ele>532.74000307204</ele>
        <time>2019-09-29T10:16:27.000Z</time>
      </trkpt>
      <trkpt lat="45.4376" lon="4.669">
        <ele>532</ele>
        <time>2019-09-29T10:16:28.000Z</time>
      </trkpt>
      <trkpt lat="45.43759" lon="4.66905">
        <ele>532</ele>
        <time>2019-09-29T10:16:29.000Z</time>
      </trkpt>
      <trkpt lat="45.43758" lon="4.6691">
        <ele>532</ele>
        <time>2019-09-29T10:16:30.000Z</time>
      </trkpt>
      <trkpt lat="45.43757" lon="4.66914">
        <ele>531</ele>
        <time>2019-09-29T10:16:31.000Z</time>
      </trkpt>
      <trkpt lat="45.43756" lon="4.66919">
        <ele>531</ele>
        <time>2019-09-29T10:16:32.000Z</time>
      </trkpt>
      <trkpt lat="45.43755" lon="4.66923">
        <ele>531</ele>
        <time>2019-09-29T10:16:46.000Z</time>
      </trkpt>
      <trkpt lat="45.43754" lon="4.66928">
        <ele>530.73999692804</ele>
        <time>2019-09-29T10:16:47.000Z</time>
      </trkpt>
      <trkpt lat="45.43752" lon="4.66934">
        <ele>530</ele>
        <time>2019-09-29T10:16:48.000Z</time>
      </trkpt>
      <trkpt lat="45.43751" lon="4.66939">
        <ele>530</ele>
        <time>2019-09-29T10:16:49.000Z</time>
      </trkpt>
      <trkpt lat="45.4375" lon="4.66944">
        <ele>529.74000307204</ele>
        <time>2019-09-29T10:16:50.000Z</time>
      </trkpt>
      <trkpt lat="45.43749" lon="4.66948">
        <ele>529</ele>
        <time>2019-09-29T10:16:51.000Z</time>
      </trkpt>
      <trkpt lat="45.43748" lon="4.66953">
        <ele>529</ele>
        <time>2019-09-29T10:16:52.000Z</time>
      </trkpt>
      <trkpt lat="45.43747" lon="4.66959">
        <ele>528.73999692804</ele>
        <time>2019-09-29T10:16:53.000Z</time>
      </trkpt>
      <trkpt lat="45.43746" lon="4.66966">
        <ele>528</ele>
        <time>2019-09-29T10:16:54.000Z</time>
      </trkpt>
      <trkpt lat="45.43744" lon="4.66975">
        <ele>528</ele>
        <time>2019-09-29T10:16:55.000Z</time>
      </trkpt>
      <trkpt lat="45.43741" lon="4.66984">
        <ele>527</ele>
        <time>2019-09-29T10:16:56.000Z</time>
      </trkpt>
      <trkpt lat="45.4374" lon="4.66994">
        <ele>526.73999692804</ele>
        <time>2019-09-29T10:16:57.000Z</time>
      </trkpt>
      <trkpt lat="45.4374" lon="4.67004">
        <ele>526</ele>
        <time>2019-09-29T10:16:58.000Z</time>
      </trkpt>
      <trkpt lat="45.43741" lon="4.67013">
        <ele>526</ele>
        <time>2019-09-29T10:16:59.000Z</time>
      </trkpt>
      <trkpt lat="45.43742" lon="4.67021">
        <ele>525.74000307204</ele>
        <time>2019-09-29T10:17:00.000Z</time>
      </trkpt>
      <trkpt lat="45.43742" lon="4.67028">
        <ele>525</ele>
        <time>2019-09-29T10:17:01.000Z</time>
      </trkpt>
      <trkpt lat="45.43743" lon="4.67036">
        <ele>524.74000307204</ele>
        <time>2019-09-29T10:17:02.000Z</time>
      </trkpt>
      <trkpt lat="45.43742" lon="4.67043">
        <ele>524</ele>
        <time>2019-09-29T10:17:03.000Z</time>
      </trkpt>
      <trkpt lat="45.43741" lon="4.67049">
        <ele>524</ele>
        <time>2019-09-29T10:17:04.000Z</time>
      </trkpt>
      <trkpt lat="45.43741" lon="4.67056">
        <ele>523.74257036765</ele>
        <time>2019-09-29T10:17:05.000Z</time>
      </trkpt>
      <trkpt lat="45.43741" lon="4.67062">
        <ele>522.74747553108</ele>
        <time>2019-09-29T10:17:06.000Z</time>
      </trkpt>
      <trkpt lat="45.4374" lon="4.67069">
        <ele>521.7984461511</ele>
        <time>2019-09-29T10:17:07.000Z</time>
      </trkpt>
      <trkpt lat="45.4374" lon="4.67076">
        <ele>521.02325812149</ele>
        <time>2019-09-29T10:17:08.000Z</time>
      </trkpt>
      <trkpt lat="45.4374" lon="4.67084">
        <ele>520.73999692804</ele>
        <time>2019-09-29T10:17:09.000Z</time>
      </trkpt>
      <trkpt lat="45.43739" lon="4.67093">
        <ele>519.74000307204</ele>
        <time>2019-09-29T10:17:10.000Z</time>
      </trkpt>
      <trkpt lat="45.43739" lon="4.67101">
        <ele>518.73999692804</ele>
        <time>2019-09-29T10:17:11.000Z</time>
      </trkpt>
      <trkpt lat="45.43739" lon="4.67109">
        <ele>517.60306029724</ele>
        <time>2019-09-29T10:17:12.000Z</time>
      </trkpt>
      <trkpt lat="45.43738" lon="4.67117">
        <ele>516.07633155174</ele>
        <time>2019-09-29T10:17:13.000Z</time>
      </trkpt>
      <trkpt lat="45.43738" lon="4.67124">
        <ele>515</ele>
        <time>2019-09-29T10:17:14.000Z</time>
      </trkpt>
      <trkpt lat="45.43737" lon="4.67131">
        <ele>514.73999692804</ele>
        <time>2019-09-29T10:17:15.000Z</time>
      </trkpt>
      <trkpt lat="45.43737" lon="4.67138">
        <ele>514</ele>
        <time>2019-09-29T10:17:16.000Z</time>
      </trkpt>
      <trkpt lat="45.43736" lon="4.67144">
        <ele>513.73999692804</ele>
        <time>2019-09-29T10:17:17.000Z</time>
      </trkpt>
      <trkpt lat="45.43736" lon="4.6715">
        <ele>513</ele>
        <time>2019-09-29T10:17:18.000Z</time>
      </trkpt>
      <trkpt lat="45.43735" lon="4.67157">
        <ele>512.73999692804</ele>
        <time>2019-09-29T10:17:19.000Z</time>
      </trkpt>
      <trkpt lat="45.43735" lon="4.67164">
        <ele>512</ele>
        <time>2019-09-29T10:17:20.000Z</time>
      </trkpt>
      <trkpt lat="45.43734" lon="4.6717">
        <ele>511.74509336412</ele>
        <time>2019-09-29T10:17:21.000Z</time>
      </trkpt>
      <trkpt lat="45.43732" lon="4.67176">
        <ele>511</ele>
        <time>2019-09-29T10:17:22.000Z</time>
      </trkpt>
      <trkpt lat="45.43731" lon="4.67182">
        <ele>510.80152231689</ele>
        <time>2019-09-29T10:17:23.000Z</time>
      </trkpt>
      <trkpt lat="45.43729" lon="4.67186">
        <ele>510.03816540295</ele>
        <time>2019-09-29T10:17:24.000Z</time>
      </trkpt>
      <trkpt lat="45.43727" lon="4.67191">
        <ele>509.73999692804</ele>
        <time>2019-09-29T10:17:25.000Z</time>
      </trkpt>
      <trkpt lat="45.43725" lon="4.67197">
        <ele>508.79688</ele>
        <time>2019-09-29T10:17:26.000Z</time>
      </trkpt>
      <trkpt lat="45.43723" lon="4.67204">
        <ele>508.01563</ele>
        <time>2019-09-29T10:17:27.000Z</time>
      </trkpt>
      <trkpt lat="45.4372" lon="4.67211">
        <ele>507.74000307204</ele>
        <time>2019-09-29T10:17:28.000Z</time>
      </trkpt>
      <trkpt lat="45.43718" lon="4.67218">
        <ele>507</ele>
        <time>2019-09-29T10:17:29.000Z</time>
      </trkpt>
      <trkpt lat="45.43715" lon="4.67224">
        <ele>506.74000307204</ele>
        <time>2019-09-29T10:17:30.000Z</time>
      </trkpt>
      <trkpt lat="45.43713" lon="4.6723">
        <ele>506</ele>
        <time>2019-09-29T10:17:31.000Z</time>
      </trkpt>
      <trkpt lat="45.4371" lon="4.67235">
        <ele>505.74000307204</ele>
        <time>2019-09-29T10:17:32.000Z</time>
      </trkpt>
      <trkpt lat="45.43708" lon="4.67241">
        <ele>504.73999692804</ele>
        <time>2019-09-29T10:17:33.000Z</time>
      </trkpt>
      <trkpt lat="45.43706" lon="4.67244">
        <ele>504</ele>
        <time>2019-09-29T10:17:34.000Z</time>
      </trkpt>
      <trkpt lat="45.43704" lon="4.67246">
        <ele>504</ele>
        <time>2019-09-29T10:17:35.000Z</time>
      </trkpt>
      <trkpt lat="45.43702" lon="4.67248">
        <ele>502.74000307204</ele>
        <time>2019-09-29T10:17:36.000Z</time>
      </trkpt>
      <trkpt lat="45.43701" lon="4.67251">
        <ele>502</ele>
        <time>2019-09-29T10:17:37.000Z</time>
      </trkpt>
      <trkpt lat="45.437" lon="4.67254">
        <ele>502</ele>
        <time>2019-09-29T10:17:38.000Z</time>
      </trkpt>
      <trkpt lat="45.43699" lon="4.67259">
        <ele>499</ele>
        <time>2019-09-29T10:17:39.000Z</time>
      </trkpt>
      <trkpt lat="45.43699" lon="4.67262">
        <ele>498.73999692804</ele>
        <time>2019-09-29T10:17:40.000Z</time>
      </trkpt>
      <trkpt lat="45.43699" lon="4.67267">
        <ele>498</ele>
        <time>2019-09-29T10:17:41.000Z</time>
      </trkpt>
      <trkpt lat="45.43698" lon="4.67272">
        <ele>497.73999692804</ele>
        <time>2019-09-29T10:17:42.000Z</time>
      </trkpt>
      <trkpt lat="45.43698" lon="4.67278">
        <ele>497</ele>
        <time>2019-09-29T10:17:43.000Z</time>
      </trkpt>
      <trkpt lat="45.43698" lon="4.67284">
        <ele>496.75510364014</ele>
        <time>2019-09-29T10:17:44.000Z</time>
      </trkpt>
      <trkpt lat="45.43697" lon="4.6729">
        <ele>495.74000307204</ele>
        <time>2019-09-29T10:17:45.000Z</time>
      </trkpt>
      <trkpt lat="45.43697" lon="4.67296">
        <ele>495</ele>
        <time>2019-09-29T10:17:46.000Z</time>
      </trkpt>
      <trkpt lat="45.43696" lon="4.67302">
        <ele>494.79845407368</ele>
        <time>2019-09-29T10:17:47.000Z</time>
      </trkpt>
      <trkpt lat="45.43696" lon="4.67308">
        <ele>494.02325835227</ele>
        <time>2019-09-29T10:17:49.000Z</time>
      </trkpt>
      <trkpt lat="45.43696" lon="4.67314">
        <ele>494</ele>
        <time>2019-09-29T10:17:51.000Z</time>
      </trkpt>
      <trkpt lat="45.43696" lon="4.6732">
        <ele>492.74257036765</ele>
        <time>2019-09-29T10:17:52.000Z</time>
      </trkpt>
      <trkpt lat="45.43696" lon="4.67326">
        <ele>492</ele>
        <time>2019-09-29T10:17:53.000Z</time>
      </trkpt>
      <trkpt lat="45.43696" lon="4.67333">
        <ele>491.73999692804</ele>
        <time>2019-09-29T10:17:54.000Z</time>
      </trkpt>
      <trkpt lat="45.43695" lon="4.6734">
        <ele>491</ele>
        <time>2019-09-29T10:17:56.000Z</time>
      </trkpt>
      <trkpt lat="45.43694" lon="4.67348">
        <ele>490.73999692804</ele>
        <time>2019-09-29T10:17:57.000Z</time>
      </trkpt>
      <trkpt lat="45.43693" lon="4.67356">
        <ele>490</ele>
        <time>2019-09-29T10:17:58.000Z</time>
      </trkpt>
      <trkpt lat="45.43692" lon="4.67366">
        <ele>489.73999692804</ele>
        <time>2019-09-29T10:17:59.000Z</time>
      </trkpt>
      <trkpt lat="45.4369" lon="4.67376">
        <ele>488.80153014862</ele>
        <time>2019-09-29T10:18:00.000Z</time>
      </trkpt>
      <trkpt lat="45.43689" lon="4.67386">
        <ele>488.03816577587</ele>
        <time>2019-09-29T10:18:01.000Z</time>
      </trkpt>
      <trkpt lat="45.43688" lon="4.67398">
        <ele>487.74000307204</ele>
        <time>2019-09-29T10:18:02.000Z</time>
      </trkpt>
      <trkpt lat="45.43687" lon="4.67409">
        <ele>487</ele>
        <time>2019-09-29T10:18:03.000Z</time>
      </trkpt>
      <trkpt lat="45.43687" lon="4.6742">
        <ele>486.74000307204</ele>
        <time>2019-09-29T10:18:05.000Z</time>
      </trkpt>
      <trkpt lat="45.43687" lon="4.67431">
        <ele>486</ele>
        <time>2019-09-29T10:18:07.000Z</time>
      </trkpt>
      <trkpt lat="45.43686" lon="4.67441">
        <ele>485.74000307204</ele>
        <time>2019-09-29T10:18:09.000Z</time>
      </trkpt>
      <trkpt lat="45.43686" lon="4.67452">
        <ele>484.80152231689</ele>
        <time>2019-09-29T10:18:11.000Z</time>
      </trkpt>
      <trkpt lat="45.43685" lon="4.67463">
        <ele>484.03816540295</ele>
        <time>2019-09-29T10:18:13.000Z</time>
      </trkpt>
      <trkpt lat="45.43686" lon="4.67474">
        <ele>483.7984461511</ele>
        <time>2019-09-29T10:18:15.000Z</time>
      </trkpt>
      <trkpt lat="45.43686" lon="4.67484">
        <ele>483.02325812149</ele>
        <time>2019-09-29T10:18:17.000Z</time>
      </trkpt>
      <trkpt lat="45.43686" lon="4.67494">
        <ele>481.73999692804</ele>
        <time>2019-09-29T10:18:19.000Z</time>
      </trkpt>
      <trkpt lat="45.43685" lon="4.67503">
        <ele>481</ele>
        <time>2019-09-29T10:18:20.000Z</time>
      </trkpt>
      <trkpt lat="45.43685" lon="4.67511">
        <ele>480.73999692804</ele>
        <time>2019-09-29T10:18:22.000Z</time>
      </trkpt>
      <trkpt lat="45.43685" lon="4.67519">
        <ele>480</ele>
        <time>2019-09-29T10:18:36.000Z</time>
      </trkpt>
      <trkpt lat="45.43685" lon="4.67525">
        <ele>479.80152231689</ele>
        <time>2019-09-29T10:18:38.000Z</time>
      </trkpt>
      <trkpt lat="45.43685" lon="4.67529">
        <ele>479.03816540295</ele>
        <time>2019-09-29T10:18:39.000Z</time>
      </trkpt>
      <trkpt lat="45.43686" lon="4.67532">
        <ele>476</ele>
        <time>2019-09-29T10:18:40.000Z</time>
      </trkpt>
      <trkpt lat="45.43685" lon="4.67536">
        <ele>476</ele>
        <time>2019-09-29T10:18:41.000Z</time>
      </trkpt>
      <trkpt lat="45.43686" lon="4.67543">
        <ele>475.74000307204</ele>
        <time>2019-09-29T10:18:42.000Z</time>
      </trkpt>
      <trkpt lat="45.43686" lon="4.67551">
        <ele>475</ele>
        <time>2019-09-29T10:18:43.000Z</time>
      </trkpt>
      <trkpt lat="45.43686" lon="4.6756">
        <ele>474.74000307204</ele>
        <time>2019-09-29T10:18:44.000Z</time>
      </trkpt>
      <trkpt lat="45.43685" lon="4.67569">
        <ele>474</ele>
        <time>2019-09-29T10:18:45.000Z</time>
      </trkpt>
      <trkpt lat="45.43685" lon="4.67579">
        <ele>474</ele>
        <time>2019-09-29T10:18:46.000Z</time>
      </trkpt>
      <trkpt lat="45.43685" lon="4.67589">
        <ele>474</ele>
        <time>2019-09-29T10:18:47.000Z</time>
      </trkpt>
      <trkpt lat="45.43685" lon="4.67598">
        <ele>474</ele>
        <time>2019-09-29T10:18:48.000Z</time>
      </trkpt>
      <trkpt lat="45.43685" lon="4.67606">
        <ele>473</ele>
        <time>2019-09-29T10:18:49.000Z</time>
      </trkpt>
      <trkpt lat="45.43685" lon="4.67614">
        <ele>473</ele>
        <time>2019-09-29T10:18:50.000Z</time>
      </trkpt>
      <trkpt lat="45.43685" lon="4.67621">
        <ele>472.73999692804</ele>
        <time>2019-09-29T10:18:51.000Z</time>
      </trkpt>
      <trkpt lat="45.43685" lon="4.67627">
        <ele>472</ele>
        <time>2019-09-29T10:18:52.000Z</time>
      </trkpt>
      <trkpt lat="45.43685" lon="4.67632">
        <ele>472</ele>
        <time>2019-09-29T10:18:53.000Z</time>
      </trkpt>
      <trkpt lat="45.43685" lon="4.67636">
        <ele>471.74000307204</ele>
        <time>2019-09-29T10:18:54.000Z</time>
      </trkpt>
      <trkpt lat="45.43685" lon="4.67641">
        <ele>471</ele>
        <time>2019-09-29T10:18:55.000Z</time>
      </trkpt>
      <trkpt lat="45.43685" lon="4.67647">
        <ele>471</ele>
        <time>2019-09-29T10:18:56.000Z</time>
      </trkpt>
      <trkpt lat="45.43685" lon="4.67652">
        <ele>471</ele>
        <time>2019-09-29T10:18:57.000Z</time>
      </trkpt>
      <trkpt lat="45.43685" lon="4.67658">
        <ele>471</ele>
        <time>2019-09-29T10:18:58.000Z</time>
      </trkpt>
      <trkpt lat="45.43685" lon="4.67665">
        <ele>470</ele>
        <time>2019-09-29T10:18:59.000Z</time>
      </trkpt>
      <trkpt lat="45.43684" lon="4.67672">
        <ele>470</ele>
        <time>2019-09-29T10:19:00.000Z</time>
      </trkpt>
      <trkpt lat="45.43684" lon="4.67679">
        <ele>470</ele>
        <time>2019-09-29T10:19:01.000Z</time>
      </trkpt>
      <trkpt lat="45.43684" lon="4.67686">
        <ele>470</ele>
        <time>2019-09-29T10:19:02.000Z</time>
      </trkpt>
      <trkpt lat="45.43683" lon="4.67693">
        <ele>470</ele>
        <time>2019-09-29T10:19:03.000Z</time>
      </trkpt>
      <trkpt lat="45.43682" lon="4.677">
        <ele>470</ele>
        <time>2019-09-29T10:19:04.000Z</time>
      </trkpt>
      <trkpt lat="45.43681" lon="4.67707">
        <ele>470</ele>
        <time>2019-09-29T10:19:05.000Z</time>
      </trkpt>
      <trkpt lat="45.4368" lon="4.67714">
        <ele>470</ele>
        <time>2019-09-29T10:19:06.000Z</time>
      </trkpt>
      <trkpt lat="45.43679" lon="4.67721">
        <ele>469.73999692804</ele>
        <time>2019-09-29T10:19:07.000Z</time>
      </trkpt>
      <trkpt lat="45.43677" lon="4.67728">
        <ele>469</ele>
        <time>2019-09-29T10:19:08.000Z</time>
      </trkpt>
      <trkpt lat="45.43675" lon="4.67734">
        <ele>469</ele>
        <time>2019-09-29T10:19:09.000Z</time>
      </trkpt>
      <trkpt lat="45.43672" lon="4.6774">
        <ele>469</ele>
        <time>2019-09-29T10:19:10.000Z</time>
      </trkpt>
      <trkpt lat="45.4367" lon="4.67746">
        <ele>469</ele>
        <time>2019-09-29T10:19:11.000Z</time>
      </trkpt>
      <trkpt lat="45.43667" lon="4.67751">
        <ele>469</ele>
        <time>2019-09-29T10:19:12.000Z</time>
      </trkpt>
      <trkpt lat="45.43664" lon="4.67756">
        <ele>469</ele>
        <time>2019-09-29T10:19:13.000Z</time>
      </trkpt>
      <trkpt lat="45.43662" lon="4.67761">
        <ele>469</ele>
        <time>2019-09-29T10:19:14.000Z</time>
      </trkpt>
      <trkpt lat="45.43659" lon="4.67766">
        <ele>469</ele>
        <time>2019-09-29T10:19:15.000Z</time>
      </trkpt>
      <trkpt lat="45.43656" lon="4.6777">
        <ele>469</ele>
        <time>2019-09-29T10:19:16.000Z</time>
      </trkpt>
      <trkpt lat="45.43654" lon="4.67774">
        <ele>469</ele>
        <time>2019-09-29T10:19:17.000Z</time>
      </trkpt>
      <trkpt lat="45.43652" lon="4.67778">
        <ele>469</ele>
        <time>2019-09-29T10:19:18.000Z</time>
      </trkpt>
      <trkpt lat="45.4365" lon="4.67781">
        <ele>469</ele>
        <time>2019-09-29T10:19:19.000Z</time>
      </trkpt>
      <trkpt lat="45.43648" lon="4.67785">
        <ele>469</ele>
        <time>2019-09-29T10:19:20.000Z</time>
      </trkpt>
      <trkpt lat="45.43646" lon="4.67787">
        <ele>469</ele>
        <time>2019-09-29T10:19:21.000Z</time>
      </trkpt>
      <trkpt lat="45.43644" lon="4.6779">
        <ele>469</ele>
        <time>2019-09-29T10:19:22.000Z</time>
      </trkpt>
      <trkpt lat="45.43643" lon="4.67792">
        <ele>469</ele>
        <time>2019-09-29T10:19:24.000Z</time>
      </trkpt>
      <trkpt lat="45.43641" lon="4.67795">
        <ele>469</ele>
        <time>2019-09-29T10:19:26.000Z</time>
      </trkpt>
      <trkpt lat="45.4364" lon="4.67798">
        <ele>469</ele>
        <time>2019-09-29T10:19:28.000Z</time>
      </trkpt>
      <trkpt lat="45.43638" lon="4.67801">
        <ele>469</ele>
        <time>2019-09-29T10:19:30.000Z</time>
      </trkpt>
      <trkpt lat="45.43637" lon="4.67804">
        <ele>469</ele>
        <time>2019-09-29T10:20:13.000Z</time>
      </trkpt>
      <trkpt lat="45.43635" lon="4.67807">
        <ele>469</ele>
        <time>2019-09-29T10:20:15.000Z</time>
      </trkpt>
      <trkpt lat="45.43634" lon="4.6781">
        <ele>469</ele>
        <time>2019-09-29T10:20:16.000Z</time>
      </trkpt>
      <trkpt lat="45.43633" lon="4.67812">
        <ele>469</ele>
        <time>2019-09-29T10:20:17.000Z</time>
      </trkpt>
      <trkpt lat="45.43632" lon="4.67815">
        <ele>469</ele>
        <time>2019-09-29T10:20:18.000Z</time>
      </trkpt>
      <trkpt lat="45.43631" lon="4.67817">
        <ele>469</ele>
        <time>2019-09-29T10:20:19.000Z</time>
      </trkpt>
      <trkpt lat="45.4363" lon="4.6782">
        <ele>469</ele>
        <time>2019-09-29T10:20:20.000Z</time>
      </trkpt>
      <trkpt lat="45.43629" lon="4.67823">
        <ele>469</ele>
        <time>2019-09-29T10:20:21.000Z</time>
      </trkpt>
      <trkpt lat="45.43628" lon="4.67826">
        <ele>469</ele>
        <time>2019-09-29T10:20:22.000Z</time>
      </trkpt>
      <trkpt lat="45.43627" lon="4.67829">
        <ele>469</ele>
        <time>2019-09-29T10:20:23.000Z</time>
      </trkpt>
      <trkpt lat="45.43625" lon="4.67831">
        <ele>469</ele>
        <time>2019-09-29T10:20:24.000Z</time>
      </trkpt>
      <trkpt lat="45.43625" lon="4.67834">
        <ele>469</ele>
        <time>2019-09-29T10:20:26.000Z</time>
      </trkpt>
      <trkpt lat="45.43624" lon="4.67837">
        <ele>469</ele>
        <time>2019-09-29T10:20:28.000Z</time>
      </trkpt>
      <trkpt lat="45.43623" lon="4.67839">
        <ele>469.25999692796</ele>
        <time>2019-09-29T10:20:29.000Z</time>
      </trkpt>
      <trkpt lat="45.43622" lon="4.67842">
        <ele>470</ele>
        <time>2019-09-29T10:20:30.000Z</time>
      </trkpt>
      <trkpt lat="45.4362" lon="4.67846">
        <ele>470</ele>
        <time>2019-09-29T10:20:31.000Z</time>
      </trkpt>
      <trkpt lat="45.43619" lon="4.6785">
        <ele>470</ele>
        <time>2019-09-29T10:20:32.000Z</time>
      </trkpt>
      <trkpt lat="45.43618" lon="4.67852">
        <ele>470</ele>
        <time>2019-09-29T10:20:33.000Z</time>
      </trkpt>
      <trkpt lat="45.43617" lon="4.67855">
        <ele>470</ele>
        <time>2019-09-29T10:20:34.000Z</time>
      </trkpt>
      <trkpt lat="45.43617" lon="4.67857">
        <ele>470</ele>
        <time>2019-09-29T10:20:35.000Z</time>
      </trkpt>
      <trkpt lat="45.43615" lon="4.67862">
        <ele>470</ele>
        <time>2019-09-29T10:20:36.000Z</time>
      </trkpt>
      <trkpt lat="45.43614" lon="4.67864">
        <ele>470</ele>
        <time>2019-09-29T10:20:37.000Z</time>
      </trkpt>
      <trkpt lat="45.43614" lon="4.67867">
        <ele>470</ele>
        <time>2019-09-29T10:20:38.000Z</time>
      </trkpt>
      <trkpt lat="45.43613" lon="4.67869">
        <ele>470</ele>
        <time>2019-09-29T10:20:39.000Z</time>
      </trkpt>
      <trkpt lat="45.43612" lon="4.67872">
        <ele>470.20154592632</ele>
        <time>2019-09-29T10:20:40.000Z</time>
      </trkpt>
      <trkpt lat="45.43611" lon="4.67875">
        <ele>470.97674164773</ele>
        <time>2019-09-29T10:20:41.000Z</time>
      </trkpt>
      <trkpt lat="45.4361" lon="4.67878">
        <ele>471</ele>
        <time>2019-09-29T10:20:42.000Z</time>
      </trkpt>
      <trkpt lat="45.43609" lon="4.67881">
        <ele>471</ele>
        <time>2019-09-29T10:20:43.000Z</time>
      </trkpt>
      <trkpt lat="45.43609" lon="4.67885">
        <ele>470.73999692804</ele>
        <time>2019-09-29T10:20:44.000Z</time>
      </trkpt>
      <trkpt lat="45.43608" lon="4.67889">
        <ele>470</ele>
        <time>2019-09-29T10:20:45.000Z</time>
      </trkpt>
      <trkpt lat="45.43607" lon="4.67893">
        <ele>470</ele>
        <time>2019-09-29T10:20:46.000Z</time>
      </trkpt>
      <trkpt lat="45.43606" lon="4.67897">
        <ele>471</ele>
        <time>2019-09-29T10:20:47.000Z</time>
      </trkpt>
      <trkpt lat="45.43605" lon="4.679">
        <ele>471</ele>
        <time>2019-09-29T10:20:48.000Z</time>
      </trkpt>
      <trkpt lat="45.43604" lon="4.67905">
        <ele>471</ele>
        <time>2019-09-29T10:20:49.000Z</time>
      </trkpt>
      <trkpt lat="45.43603" lon="4.6791">
        <ele>471.26000307196</ele>
        <time>2019-09-29T10:20:50.000Z</time>
      </trkpt>
      <trkpt lat="45.43602" lon="4.67915">
        <ele>472</ele>
        <time>2019-09-29T10:20:51.000Z</time>
      </trkpt>
      <trkpt lat="45.43602" lon="4.67918">
        <ele>472</ele>
        <time>2019-09-29T10:20:52.000Z</time>
      </trkpt>
      <trkpt lat="45.43601" lon="4.67921">
        <ele>472</ele>
        <time>2019-09-29T10:20:53.000Z</time>
      </trkpt>
      <trkpt lat="45.436" lon="4.67925">
        <ele>473</ele>
        <time>2019-09-29T10:20:54.000Z</time>
      </trkpt>
      <trkpt lat="45.436" lon="4.67931">
        <ele>473</ele>
        <time>2019-09-29T10:20:55.000Z</time>
      </trkpt>
      <trkpt lat="45.43599" lon="4.67934">
        <ele>473</ele>
        <time>2019-09-29T10:20:56.000Z</time>
      </trkpt>
      <trkpt lat="45.43598" lon="4.67937">
        <ele>473</ele>
        <time>2019-09-29T10:20:57.000Z</time>
      </trkpt>
      <trkpt lat="45.43597" lon="4.6794">
        <ele>473.26000307196</ele>
        <time>2019-09-29T10:20:58.000Z</time>
      </trkpt>
      <trkpt lat="45.43597" lon="4.67943">
        <ele>474</ele>
        <time>2019-09-29T10:20:59.000Z</time>
      </trkpt>
      <trkpt lat="45.43596" lon="4.67945">
        <ele>474</ele>
        <time>2019-09-29T10:21:00.000Z</time>
      </trkpt>
      <trkpt lat="45.43595" lon="4.67948">
        <ele>474</ele>
        <time>2019-09-29T10:21:01.000Z</time>
      </trkpt>
      <trkpt lat="45.43595" lon="4.67951">
        <ele>474</ele>
        <time>2019-09-29T10:21:02.000Z</time>
      </trkpt>
      <trkpt lat="45.43594" lon="4.67954">
        <ele>474</ele>
        <time>2019-09-29T10:21:03.000Z</time>
      </trkpt>
      <trkpt lat="45.43594" lon="4.67956">
        <ele>474</ele>
        <time>2019-09-29T10:21:04.000Z</time>
      </trkpt>
      <trkpt lat="45.43593" lon="4.67959">
        <ele>474.25999692796</ele>
        <time>2019-09-29T10:21:05.000Z</time>
      </trkpt>
      <trkpt lat="45.43592" lon="4.67961">
        <ele>475</ele>
        <time>2019-09-29T10:21:06.000Z</time>
      </trkpt>
      <trkpt lat="45.43591" lon="4.67964">
        <ele>475</ele>
        <time>2019-09-29T10:21:07.000Z</time>
      </trkpt>
      <trkpt lat="45.43589" lon="4.67967">
        <ele>475</ele>
        <time>2019-09-29T10:21:08.000Z</time>
      </trkpt>
      <trkpt lat="45.43588" lon="4.67969">
        <ele>475</ele>
        <time>2019-09-29T10:21:09.000Z</time>
      </trkpt>
      <trkpt lat="45.43587" lon="4.67972">
        <ele>475</ele>
        <time>2019-09-29T10:21:10.000Z</time>
      </trkpt>
      <trkpt lat="45.43586" lon="4.67974">
        <ele>475</ele>
        <time>2019-09-29T10:21:11.000Z</time>
      </trkpt>
      <trkpt lat="45.43585" lon="4.67976">
        <ele>475.26000307196</ele>
        <time>2019-09-29T10:21:12.000Z</time>
      </trkpt>
      <trkpt lat="45.43584" lon="4.67979">
        <ele>476</ele>
        <time>2019-09-29T10:21:13.000Z</time>
      </trkpt>
      <trkpt lat="45.43583" lon="4.67981">
        <ele>476</ele>
        <time>2019-09-29T10:21:14.000Z</time>
      </trkpt>
      <trkpt lat="45.43581" lon="4.67983">
        <ele>476</ele>
        <time>2019-09-29T10:21:15.000Z</time>
      </trkpt>
      <trkpt lat="45.4358" lon="4.67986">
        <ele>476</ele>
        <time>2019-09-29T10:21:16.000Z</time>
      </trkpt>
      <trkpt lat="45.43579" lon="4.67989">
        <ele>476</ele>
        <time>2019-09-29T10:21:17.000Z</time>
      </trkpt>
      <trkpt lat="45.43578" lon="4.67991">
        <ele>476.24489635986</ele>
        <time>2019-09-29T10:21:18.000Z</time>
      </trkpt>
      <trkpt lat="45.43576" lon="4.67993">
        <ele>477</ele>
        <time>2019-09-29T10:21:19.000Z</time>
      </trkpt>
      <trkpt lat="45.43575" lon="4.67996">
        <ele>477</ele>
        <time>2019-09-29T10:21:20.000Z</time>
      </trkpt>
      <trkpt lat="45.43574" lon="4.67999">
        <ele>477</ele>
        <time>2019-09-29T10:21:21.000Z</time>
      </trkpt>
      <trkpt lat="45.43573" lon="4.68001">
        <ele>477</ele>
        <time>2019-09-29T10:21:22.000Z</time>
      </trkpt>
      <trkpt lat="45.43571" lon="4.68004">
        <ele>477</ele>
        <time>2019-09-29T10:21:23.000Z</time>
      </trkpt>
      <trkpt lat="45.4357" lon="4.68006">
        <ele>477</ele>
        <time>2019-09-29T10:21:24.000Z</time>
      </trkpt>
      <trkpt lat="45.43569" lon="4.68008">
        <ele>477</ele>
        <time>2019-09-29T10:21:25.000Z</time>
      </trkpt>
      <trkpt lat="45.43568" lon="4.68011">
        <ele>477</ele>
        <time>2019-09-29T10:21:26.000Z</time>
      </trkpt>
      <trkpt lat="45.43567" lon="4.68013">
        <ele>477.25999692796</ele>
        <time>2019-09-29T10:21:27.000Z</time>
      </trkpt>
      <trkpt lat="45.43566" lon="4.68016">
        <ele>478</ele>
        <time>2019-09-29T10:21:28.000Z</time>
      </trkpt>
      <trkpt lat="45.43564" lon="4.68018">
        <ele>478</ele>
        <time>2019-09-29T10:21:29.000Z</time>
      </trkpt>
      <trkpt lat="45.43563" lon="4.68021">
        <ele>478</ele>
        <time>2019-09-29T10:21:30.000Z</time>
      </trkpt>
      <trkpt lat="45.43562" lon="4.68023">
        <ele>478</ele>
        <time>2019-09-29T10:21:33.000Z</time>
      </trkpt>
      <trkpt lat="45.43561" lon="4.68025">
        <ele>478</ele>
        <time>2019-09-29T10:21:39.000Z</time>
      </trkpt>
      <trkpt lat="45.43559" lon="4.68027">
        <ele>478</ele>
        <time>2019-09-29T10:21:41.000Z</time>
      </trkpt>
      <trkpt lat="45.43558" lon="4.6803">
        <ele>478</ele>
        <time>2019-09-29T10:21:42.000Z</time>
      </trkpt>
      <trkpt lat="45.43556" lon="4.68032">
        <ele>478</ele>
        <time>2019-09-29T10:21:43.000Z</time>
      </trkpt>
      <trkpt lat="45.43555" lon="4.68034">
        <ele>478</ele>
        <time>2019-09-29T10:21:44.000Z</time>
      </trkpt>
      <trkpt lat="45.43553" lon="4.68036">
        <ele>478</ele>
        <time>2019-09-29T10:21:45.000Z</time>
      </trkpt>
      <trkpt lat="45.43552" lon="4.68038">
        <ele>478</ele>
        <time>2019-09-29T10:21:46.000Z</time>
      </trkpt>
      <trkpt lat="45.43551" lon="4.68039">
        <ele>478</ele>
        <time>2019-09-29T10:21:47.000Z</time>
      </trkpt>
      <trkpt lat="45.43547" lon="4.68041">
        <ele>478</ele>
        <time>2019-09-29T10:21:48.000Z</time>
      </trkpt>
      <trkpt lat="45.43545" lon="4.68041">
        <ele>478</ele>
        <time>2019-09-29T10:21:49.000Z</time>
      </trkpt>
      <trkpt lat="45.43543" lon="4.68038">
        <ele>478</ele>
        <time>2019-09-29T10:21:50.000Z</time>
      </trkpt>
      <trkpt lat="45.43541" lon="4.68037">
        <ele>478</ele>
        <time>2019-09-29T10:21:51.000Z</time>
      </trkpt>
      <trkpt lat="45.43539" lon="4.68038">
        <ele>478</ele>
        <time>2019-09-29T10:21:52.000Z</time>
      </trkpt>
      <trkpt lat="45.43535" lon="4.68037">
        <ele>478</ele>
        <time>2019-09-29T10:21:53.000Z</time>
      </trkpt>
      <trkpt lat="45.43533" lon="4.68037">
        <ele>478</ele>
        <time>2019-09-29T10:21:54.000Z</time>
      </trkpt>
      <trkpt lat="45.4353" lon="4.68037">
        <ele>478</ele>
        <time>2019-09-29T10:21:55.000Z</time>
      </trkpt>
      <trkpt lat="45.43528" lon="4.68038">
        <ele>478</ele>
        <time>2019-09-29T10:21:56.000Z</time>
      </trkpt>
      <trkpt lat="45.43525" lon="4.68038">
        <ele>478</ele>
        <time>2019-09-29T10:21:57.000Z</time>
      </trkpt>
      <trkpt lat="45.43522" lon="4.68038">
        <ele>478</ele>
        <time>2019-09-29T10:21:58.000Z</time>
      </trkpt>
      <trkpt lat="45.4352" lon="4.68039">
        <ele>478</ele>
        <time>2019-09-29T10:21:59.000Z</time>
      </trkpt>
      <trkpt lat="45.43518" lon="4.68039">
        <ele>478</ele>
        <time>2019-09-29T10:22:00.000Z</time>
      </trkpt>
      <trkpt lat="45.43515" lon="4.68039">
        <ele>478</ele>
        <time>2019-09-29T10:22:01.000Z</time>
      </trkpt>
      <trkpt lat="45.43513" lon="4.6804">
        <ele>478</ele>
        <time>2019-09-29T10:22:02.000Z</time>
      </trkpt>
      <trkpt lat="45.4351" lon="4.68041">
        <ele>478</ele>
        <time>2019-09-29T10:22:07.000Z</time>
      </trkpt>
      <trkpt lat="45.43507" lon="4.68042">
        <ele>478</ele>
        <time>2019-09-29T10:22:09.000Z</time>
      </trkpt>
      <trkpt lat="45.43505" lon="4.68043">
        <ele>478</ele>
        <time>2019-09-29T10:22:10.000Z</time>
      </trkpt>
      <trkpt lat="45.43502" lon="4.68044">
        <ele>478</ele>
        <time>2019-09-29T10:22:11.000Z</time>
      </trkpt>
      <trkpt lat="45.43499" lon="4.68044">
        <ele>478</ele>
        <time>2019-09-29T10:22:12.000Z</time>
      </trkpt>
      <trkpt lat="45.43496" lon="4.68045">
        <ele>478</ele>
        <time>2019-09-29T10:22:13.000Z</time>
      </trkpt>
      <trkpt lat="45.43492" lon="4.68045">
        <ele>478</ele>
        <time>2019-09-29T10:22:14.000Z</time>
      </trkpt>
      <trkpt lat="45.43487" lon="4.68045">
        <ele>477</ele>
        <time>2019-09-29T10:22:15.000Z</time>
      </trkpt>
      <trkpt lat="45.43483" lon="4.68045">
        <ele>477</ele>
        <time>2019-09-29T10:22:16.000Z</time>
      </trkpt>
      <trkpt lat="45.43478" lon="4.68046">
        <ele>477</ele>
        <time>2019-09-29T10:22:17.000Z</time>
      </trkpt>
      <trkpt lat="45.43472" lon="4.68048">
        <ele>476.73999692804</ele>
        <time>2019-09-29T10:22:18.000Z</time>
      </trkpt>
      <trkpt lat="45.43467" lon="4.6805">
        <ele>475.74257977847</ele>
        <time>2019-09-29T10:22:19.000Z</time>
      </trkpt>
      <trkpt lat="45.43461" lon="4.68051">
        <ele>475</ele>
        <time>2019-09-29T10:22:20.000Z</time>
      </trkpt>
      <trkpt lat="45.43454" lon="4.68052">
        <ele>475</ele>
        <time>2019-09-29T10:22:21.000Z</time>
      </trkpt>
      <trkpt lat="45.43447" lon="4.68054">
        <ele>475</ele>
        <time>2019-09-29T10:22:22.000Z</time>
      </trkpt>
      <trkpt lat="45.4344" lon="4.68056">
        <ele>473.74757667644</ele>
        <time>2019-09-29T10:22:23.000Z</time>
      </trkpt>
      <trkpt lat="45.43432" lon="4.68059">
        <ele>472.76288564567</ele>
        <time>2019-09-29T10:22:24.000Z</time>
      </trkpt>
      <trkpt lat="45.43424" lon="4.68062">
        <ele>472</ele>
        <time>2019-09-29T10:22:25.000Z</time>
      </trkpt>
      <trkpt lat="45.43416" lon="4.68064">
        <ele>471.73999692804</ele>
        <time>2019-09-29T10:22:26.000Z</time>
      </trkpt>
      <trkpt lat="45.43408" lon="4.68065">
        <ele>470.80153014862</ele>
        <time>2019-09-29T10:22:27.000Z</time>
      </trkpt>
      <trkpt lat="45.434" lon="4.68067">
        <ele>470.03816577587</ele>
        <time>2019-09-29T10:22:28.000Z</time>
      </trkpt>
      <trkpt lat="45.43392" lon="4.68069">
        <ele>469.74510271437</ele>
        <time>2019-09-29T10:22:29.000Z</time>
      </trkpt>
      <trkpt lat="45.43384" lon="4.68071">
        <ele>469</ele>
        <time>2019-09-29T10:22:30.000Z</time>
      </trkpt>
      <trkpt lat="45.43377" lon="4.68072">
        <ele>469</ele>
        <time>2019-09-29T10:22:31.000Z</time>
      </trkpt>
      <trkpt lat="45.43369" lon="4.68073">
        <ele>468.7984461511</ele>
        <time>2019-09-29T10:22:32.000Z</time>
      </trkpt>
      <trkpt lat="45.43362" lon="4.68073">
        <ele>468.02325812149</ele>
        <time>2019-09-29T10:22:33.000Z</time>
      </trkpt>
      <trkpt lat="45.43354" lon="4.68072">
        <ele>468</ele>
        <time>2019-09-29T10:22:34.000Z</time>
      </trkpt>
      <trkpt lat="45.43347" lon="4.68071">
        <ele>468</ele>
        <time>2019-09-29T10:22:35.000Z</time>
      </trkpt>
      <trkpt lat="45.43341" lon="4.6807">
        <ele>467</ele>
        <time>2019-09-29T10:22:36.000Z</time>
      </trkpt>
      <trkpt lat="45.43335" lon="4.68069">
        <ele>467</ele>
        <time>2019-09-29T10:22:37.000Z</time>
      </trkpt>
      <trkpt lat="45.4333" lon="4.68067">
        <ele>467</ele>
        <time>2019-09-29T10:22:38.000Z</time>
      </trkpt>
      <trkpt lat="45.43327" lon="4.68066">
        <ele>467</ele>
        <time>2019-09-29T10:22:39.000Z</time>
      </trkpt>
      <trkpt lat="45.43326" lon="4.68063">
        <ele>466.73999692804</ele>
        <time>2019-09-29T10:22:40.000Z</time>
      </trkpt>
      <trkpt lat="45.43324" lon="4.68061">
        <ele>466</ele>
        <time>2019-09-29T10:22:41.000Z</time>
      </trkpt>
      <trkpt lat="45.43322" lon="4.68059">
        <ele>466</ele>
        <time>2019-09-29T10:22:42.000Z</time>
      </trkpt>
      <trkpt lat="45.4332" lon="4.68058">
        <ele>466</ele>
        <time>2019-09-29T10:22:43.000Z</time>
      </trkpt>
      <trkpt lat="45.43318" lon="4.68057">
        <ele>466</ele>
        <time>2019-09-29T10:22:44.000Z</time>
      </trkpt>
      <trkpt lat="45.43316" lon="4.68056">
        <ele>466</ele>
        <time>2019-09-29T10:22:45.000Z</time>
      </trkpt>
      <trkpt lat="45.43315" lon="4.68054">
        <ele>466</ele>
        <time>2019-09-29T10:22:46.000Z</time>
      </trkpt>
      <trkpt lat="45.43313" lon="4.68053">
        <ele>466</ele>
        <time>2019-09-29T10:22:47.000Z</time>
      </trkpt>
      <trkpt lat="45.43311" lon="4.68051">
        <ele>466</ele>
        <time>2019-09-29T10:22:48.000Z</time>
      </trkpt>
      <trkpt lat="45.43309" lon="4.6805">
        <ele>466</ele>
        <time>2019-09-29T10:22:49.000Z</time>
      </trkpt>
      <trkpt lat="45.43307" lon="4.68048">
        <ele>466</ele>
        <time>2019-09-29T10:22:50.000Z</time>
      </trkpt>
      <trkpt lat="45.43304" lon="4.68046">
        <ele>465</ele>
        <time>2019-09-29T10:22:51.000Z</time>
      </trkpt>
      <trkpt lat="45.433" lon="4.68043">
        <ele>465</ele>
        <time>2019-09-29T10:22:52.000Z</time>
      </trkpt>
      <trkpt lat="45.43296" lon="4.68041">
        <ele>465</ele>
        <time>2019-09-29T10:22:53.000Z</time>
      </trkpt>
      <trkpt lat="45.43294" lon="4.68038">
        <ele>465</ele>
        <time>2019-09-29T10:22:54.000Z</time>
      </trkpt>
      <trkpt lat="45.43291" lon="4.68035">
        <ele>464.74000307204</ele>
        <time>2019-09-29T10:22:55.000Z</time>
      </trkpt>
      <trkpt lat="45.43289" lon="4.68032">
        <ele>464</ele>
        <time>2019-09-29T10:22:56.000Z</time>
      </trkpt>
      <trkpt lat="45.43287" lon="4.68029">
        <ele>464</ele>
        <time>2019-09-29T10:22:57.000Z</time>
      </trkpt>
      <trkpt lat="45.43284" lon="4.68025">
        <ele>464</ele>
        <time>2019-09-29T10:22:58.000Z</time>
      </trkpt>
      <trkpt lat="45.43281" lon="4.68021">
        <ele>463.74000307204</ele>
        <time>2019-09-29T10:22:59.000Z</time>
      </trkpt>
      <trkpt lat="45.43277" lon="4.68017">
        <ele>463</ele>
        <time>2019-09-29T10:23:00.000Z</time>
      </trkpt>
      <trkpt lat="45.43273" lon="4.68014">
        <ele>463</ele>
        <time>2019-09-29T10:23:01.000Z</time>
      </trkpt>
      <trkpt lat="45.43269" lon="4.68011">
        <ele>463</ele>
        <time>2019-09-29T10:23:02.000Z</time>
      </trkpt>
      <trkpt lat="45.43265" lon="4.68009">
        <ele>463</ele>
        <time>2019-09-29T10:23:03.000Z</time>
      </trkpt>
      <trkpt lat="45.43261" lon="4.68008">
        <ele>462.74509336412</ele>
        <time>2019-09-29T10:23:04.000Z</time>
      </trkpt>
      <trkpt lat="45.43258" lon="4.68008">
        <ele>462</ele>
        <time>2019-09-29T10:23:05.000Z</time>
      </trkpt>
      <trkpt lat="45.43255" lon="4.6801">
        <ele>462</ele>
        <time>2019-09-29T10:23:06.000Z</time>
      </trkpt>
      <trkpt lat="45.43251" lon="4.68012">
        <ele>461.74000307204</ele>
        <time>2019-09-29T10:23:07.000Z</time>
      </trkpt>
      <trkpt lat="45.43248" lon="4.68015">
        <ele>461</ele>
        <time>2019-09-29T10:23:08.000Z</time>
      </trkpt>
      <trkpt lat="45.43246" lon="4.68019">
        <ele>461</ele>
        <time>2019-09-29T10:23:09.000Z</time>
      </trkpt>
      <trkpt lat="45.43244" lon="4.68023">
        <ele>460.7984461511</ele>
        <time>2019-09-29T10:23:10.000Z</time>
      </trkpt>
      <trkpt lat="45.43243" lon="4.68025">
        <ele>460.02325812149</ele>
        <time>2019-09-29T10:23:11.000Z</time>
      </trkpt>
      <trkpt lat="45.43241" lon="4.68024">
        <ele>460</ele>
        <time>2019-09-29T10:23:12.000Z</time>
      </trkpt>
      <trkpt lat="45.43241" lon="4.68021">
        <ele>459</ele>
        <time>2019-09-29T10:23:13.000Z</time>
      </trkpt>
      <trkpt lat="45.43239" lon="4.68019">
        <ele>458.73999692804</ele>
        <time>2019-09-29T10:23:14.000Z</time>
      </trkpt>
      <trkpt lat="45.43238" lon="4.68017">
        <ele>458</ele>
        <time>2019-09-29T10:23:15.000Z</time>
      </trkpt>
      <trkpt lat="45.43237" lon="4.68014">
        <ele>458</ele>
        <time>2019-09-29T10:23:16.000Z</time>
      </trkpt>
      <trkpt lat="45.43236" lon="4.68011">
        <ele>457.74000307204</ele>
        <time>2019-09-29T10:23:17.000Z</time>
      </trkpt>
      <trkpt lat="45.43234" lon="4.68009">
        <ele>457</ele>
        <time>2019-09-29T10:23:18.000Z</time>
      </trkpt>
      <trkpt lat="45.43231" lon="4.68008">
        <ele>456.80000393848</ele>
        <time>2019-09-29T10:23:19.000Z</time>
      </trkpt>
      <trkpt lat="45.43227" lon="4.68008">
        <ele>456.03076938225</ele>
        <time>2019-09-29T10:23:20.000Z</time>
      </trkpt>
      <trkpt lat="45.43224" lon="4.68008">
        <ele>456</ele>
        <time>2019-09-29T10:23:21.000Z</time>
      </trkpt>
      <trkpt lat="45.4322" lon="4.68008">
        <ele>456</ele>
        <time>2019-09-29T10:23:22.000Z</time>
      </trkpt>
      <trkpt lat="45.43218" lon="4.68008">
        <ele>455.74000307204</ele>
        <time>2019-09-29T10:23:23.000Z</time>
      </trkpt>
      <trkpt lat="45.43215" lon="4.68007">
        <ele>454.73999692804</ele>
        <time>2019-09-29T10:23:29.000Z</time>
      </trkpt>
      <trkpt lat="45.43212" lon="4.68007">
        <ele>453.74000307204</ele>
        <time>2019-09-29T10:23:31.000Z</time>
      </trkpt>
      <trkpt lat="45.43209" lon="4.68007">
        <ele>453</ele>
        <time>2019-09-29T10:23:32.000Z</time>
      </trkpt>
      <trkpt lat="45.43205" lon="4.68008">
        <ele>452.74000307204</ele>
        <time>2019-09-29T10:23:33.000Z</time>
      </trkpt>
      <trkpt lat="45.43202" lon="4.68009">
        <ele>452</ele>
        <time>2019-09-29T10:23:34.000Z</time>
      </trkpt>
      <trkpt lat="45.43199" lon="4.68009">
        <ele>451.74000307204</ele>
        <time>2019-09-29T10:23:35.000Z</time>
      </trkpt>
      <trkpt lat="45.43196" lon="4.6801">
        <ele>451</ele>
        <time>2019-09-29T10:23:36.000Z</time>
      </trkpt>
      <trkpt lat="45.43193" lon="4.68012">
        <ele>451</ele>
        <time>2019-09-29T10:23:37.000Z</time>
      </trkpt>
      <trkpt lat="45.4319" lon="4.68013">
        <ele>450.73999692804</ele>
        <time>2019-09-29T10:23:38.000Z</time>
      </trkpt>
      <trkpt lat="45.43187" lon="4.68013">
        <ele>450</ele>
        <time>2019-09-29T10:23:39.000Z</time>
      </trkpt>
      <trkpt lat="45.43184" lon="4.68013">
        <ele>450</ele>
        <time>2019-09-29T10:23:40.000Z</time>
      </trkpt>
      <trkpt lat="45.43181" lon="4.68013">
        <ele>449.74000307204</ele>
        <time>2019-09-29T10:23:41.000Z</time>
      </trkpt>
      <trkpt lat="45.43179" lon="4.68013">
        <ele>449</ele>
        <time>2019-09-29T10:23:42.000Z</time>
      </trkpt>
      <trkpt lat="45.43177" lon="4.68014">
        <ele>449</ele>
        <time>2019-09-29T10:23:43.000Z</time>
      </trkpt>
      <trkpt lat="45.43174" lon="4.68014">
        <ele>449</ele>
        <time>2019-09-29T10:23:44.000Z</time>
      </trkpt>
      <trkpt lat="45.43171" lon="4.68014">
        <ele>449</ele>
        <time>2019-09-29T10:23:45.000Z</time>
      </trkpt>
      <trkpt lat="45.43168" lon="4.68014">
        <ele>449</ele>
        <time>2019-09-29T10:23:46.000Z</time>
      </trkpt>
      <trkpt lat="45.43163" lon="4.68013">
        <ele>448.73999692804</ele>
        <time>2019-09-29T10:23:47.000Z</time>
      </trkpt>
      <trkpt lat="45.43159" lon="4.68012">
        <ele>448</ele>
        <time>2019-09-29T10:23:48.000Z</time>
      </trkpt>
      <trkpt lat="45.43155" lon="4.68011">
        <ele>448</ele>
        <time>2019-09-29T10:23:49.000Z</time>
      </trkpt>
      <trkpt lat="45.43152" lon="4.68011">
        <ele>448</ele>
        <time>2019-09-29T10:23:50.000Z</time>
      </trkpt>
      <trkpt lat="45.4315" lon="4.6801">
        <ele>447.80302736458</ele>
        <time>2019-09-29T10:23:51.000Z</time>
      </trkpt>
      <trkpt lat="45.43148" lon="4.68009">
        <ele>447.04545895312</ele>
        <time>2019-09-29T10:23:52.000Z</time>
      </trkpt>
      <trkpt lat="45.43146" lon="4.68008">
        <ele>446.73999692804</ele>
        <time>2019-09-29T10:23:53.000Z</time>
      </trkpt>
      <trkpt lat="45.43144" lon="4.68006">
        <ele>445.74000307204</ele>
        <time>2019-09-29T10:23:54.000Z</time>
      </trkpt>
      <trkpt lat="45.43142" lon="4.68003">
        <ele>444.74257036765</ele>
        <time>2019-09-29T10:23:55.000Z</time>
      </trkpt>
      <trkpt lat="45.43139" lon="4.68">
        <ele>444</ele>
        <time>2019-09-29T10:23:56.000Z</time>
      </trkpt>
      <trkpt lat="45.43135" lon="4.67999">
        <ele>443.79999606156</ele>
        <time>2019-09-29T10:23:57.000Z</time>
      </trkpt>
      <trkpt lat="45.43131" lon="4.68">
        <ele>443.03076907929</ele>
        <time>2019-09-29T10:23:58.000Z</time>
      </trkpt>
      <trkpt lat="45.43127" lon="4.68003">
        <ele>442</ele>
        <time>2019-09-29T10:23:59.000Z</time>
      </trkpt>
      <trkpt lat="45.43123" lon="4.68008">
        <ele>442</ele>
        <time>2019-09-29T10:24:00.000Z</time>
      </trkpt>
      <trkpt lat="45.43119" lon="4.68012">
        <ele>442</ele>
        <time>2019-09-29T10:24:01.000Z</time>
      </trkpt>
      <trkpt lat="45.43114" lon="4.68017">
        <ele>441</ele>
        <time>2019-09-29T10:24:02.000Z</time>
      </trkpt>
      <trkpt lat="45.43109" lon="4.68022">
        <ele>440.73999692804</ele>
        <time>2019-09-29T10:24:03.000Z</time>
      </trkpt>
      <trkpt lat="45.43105" lon="4.68026">
        <ele>439.74000307204</ele>
        <time>2019-09-29T10:24:04.000Z</time>
      </trkpt>
      <trkpt lat="45.43101" lon="4.68029">
        <ele>438.73999692804</ele>
        <time>2019-09-29T10:24:05.000Z</time>
      </trkpt>
      <trkpt lat="45.43097" lon="4.68031">
        <ele>438</ele>
        <time>2019-09-29T10:24:06.000Z</time>
      </trkpt>
      <trkpt lat="45.43094" lon="4.68032">
        <ele>438</ele>
        <time>2019-09-29T10:24:07.000Z</time>
      </trkpt>
      <trkpt lat="45.43091" lon="4.68033">
        <ele>437.80000393848</ele>
        <time>2019-09-29T10:24:08.000Z</time>
      </trkpt>
      <trkpt lat="45.43087" lon="4.68034">
        <ele>437.03076938225</ele>
        <time>2019-09-29T10:24:09.000Z</time>
      </trkpt>
      <trkpt lat="45.43085" lon="4.68036">
        <ele>436.74510271437</ele>
        <time>2019-09-29T10:24:10.000Z</time>
      </trkpt>
      <trkpt lat="45.43082" lon="4.68038">
        <ele>436</ele>
        <time>2019-09-29T10:24:11.000Z</time>
      </trkpt>
      <trkpt lat="45.4308" lon="4.6804">
        <ele>436</ele>
        <time>2019-09-29T10:24:12.000Z</time>
      </trkpt>
      <trkpt lat="45.43077" lon="4.68042">
        <ele>435.73999692804</ele>
        <time>2019-09-29T10:24:13.000Z</time>
      </trkpt>
      <trkpt lat="45.43075" lon="4.68043">
        <ele>435</ele>
        <time>2019-09-29T10:24:14.000Z</time>
      </trkpt>
      <trkpt lat="45.43072" lon="4.68044">
        <ele>435</ele>
        <time>2019-09-29T10:24:15.000Z</time>
      </trkpt>
      <trkpt lat="45.4307" lon="4.68044">
        <ele>434.74000307204</ele>
        <time>2019-09-29T10:24:17.000Z</time>
      </trkpt>
      <trkpt lat="45.43067" lon="4.68041">
        <ele>433.73999692804</ele>
        <time>2019-09-29T10:24:19.000Z</time>
      </trkpt>
      <trkpt lat="45.43064" lon="4.68037">
        <ele>432.74000307204</ele>
        <time>2019-09-29T10:24:21.000Z</time>
      </trkpt>
      <trkpt lat="45.4306" lon="4.68033">
        <ele>431.7984461511</ele>
        <time>2019-09-29T10:24:23.000Z</time>
      </trkpt>
      <trkpt lat="45.43056" lon="4.68029">
        <ele>431.02325812149</ele>
        <time>2019-09-29T10:24:25.000Z</time>
      </trkpt>
      <trkpt lat="45.43053" lon="4.68026">
        <ele>430</ele>
        <time>2019-09-29T10:24:26.000Z</time>
      </trkpt>
      <trkpt lat="45.43049" lon="4.68023">
        <ele>429.74000307204</ele>
        <time>2019-09-29T10:24:27.000Z</time>
      </trkpt>
      <trkpt lat="45.43046" lon="4.6802">
        <ele>429</ele>
        <time>2019-09-29T10:24:28.000Z</time>
      </trkpt>
      <trkpt lat="45.43042" lon="4.68018">
        <ele>429</ele>
        <time>2019-09-29T10:24:29.000Z</time>
      </trkpt>
      <trkpt lat="45.43039" lon="4.68016">
        <ele>428</ele>
        <time>2019-09-29T10:24:30.000Z</time>
      </trkpt>
      <trkpt lat="45.43035" lon="4.68014">
        <ele>427.74747553108</ele>
        <time>2019-09-29T10:24:31.000Z</time>
      </trkpt>
      <trkpt lat="45.43032" lon="4.68012">
        <ele>427</ele>
        <time>2019-09-29T10:24:32.000Z</time>
      </trkpt>
      <trkpt lat="45.43028" lon="4.6801">
        <ele>427</ele>
        <time>2019-09-29T10:24:33.000Z</time>
      </trkpt>
      <trkpt lat="45.43025" lon="4.68009">
        <ele>426.73999692804</ele>
        <time>2019-09-29T10:24:34.000Z</time>
      </trkpt>
      <trkpt lat="45.43021" lon="4.68008">
        <ele>426</ele>
        <time>2019-09-29T10:24:35.000Z</time>
      </trkpt>
      <trkpt lat="45.43018" lon="4.68007">
        <ele>426</ele>
        <time>2019-09-29T10:24:36.000Z</time>
      </trkpt>
      <trkpt lat="45.43015" lon="4.68006">
        <ele>425.74000307204</ele>
        <time>2019-09-29T10:24:37.000Z</time>
      </trkpt>
      <trkpt lat="45.43012" lon="4.68003">
        <ele>425</ele>
        <time>2019-09-29T10:24:38.000Z</time>
      </trkpt>
      <trkpt lat="45.4301" lon="4.68001">
        <ele>425</ele>
        <time>2019-09-29T10:24:39.000Z</time>
      </trkpt>
      <trkpt lat="45.43008" lon="4.67999">
        <ele>424.73999692804</ele>
        <time>2019-09-29T10:24:40.000Z</time>
      </trkpt>
      <trkpt lat="45.43006" lon="4.67997">
        <ele>424</ele>
        <time>2019-09-29T10:24:42.000Z</time>
      </trkpt>
      <trkpt lat="45.43003" lon="4.67995">
        <ele>424</ele>
        <time>2019-09-29T10:25:44.000Z</time>
      </trkpt>
      <trkpt lat="45.43002" lon="4.67993">
        <ele>423.837504</ele>
        <time>2019-09-29T10:26:02.000Z</time>
      </trkpt>
      <trkpt lat="45.43" lon="4.67989">
        <ele>423.212504</ele>
        <time>2019-09-29T10:26:10.000Z</time>
      </trkpt>
      <trkpt lat="45.42998" lon="4.67985">
        <ele>423</ele>
        <time>2019-09-29T10:26:13.000Z</time>
      </trkpt>
      <trkpt lat="45.42996" lon="4.67981">
        <ele>422.73999692804</ele>
        <time>2019-09-29T10:26:14.000Z</time>
      </trkpt>
      <trkpt lat="45.42995" lon="4.67977">
        <ele>422</ele>
        <time>2019-09-29T10:26:15.000Z</time>
      </trkpt>
      <trkpt lat="45.42993" lon="4.67974">
        <ele>421.73999692804</ele>
        <time>2019-09-29T10:26:16.000Z</time>
      </trkpt>
      <trkpt lat="45.42992" lon="4.67972">
        <ele>421</ele>
        <time>2019-09-29T10:26:17.000Z</time>
      </trkpt>
      <trkpt lat="45.42991" lon="4.67969">
        <ele>420.75510364014</ele>
        <time>2019-09-29T10:26:18.000Z</time>
      </trkpt>
      <trkpt lat="45.42989" lon="4.67966">
        <ele>420</ele>
        <time>2019-09-29T10:26:19.000Z</time>
      </trkpt>
      <trkpt lat="45.42988" lon="4.67963">
        <ele>419.73999692804</ele>
        <time>2019-09-29T10:26:20.000Z</time>
      </trkpt>
      <trkpt lat="45.42987" lon="4.67961">
        <ele>419</ele>
        <time>2019-09-29T10:26:21.000Z</time>
      </trkpt>
      <trkpt lat="45.42985" lon="4.67958">
        <ele>419</ele>
        <time>2019-09-29T10:26:22.000Z</time>
      </trkpt>
      <trkpt lat="45.42983" lon="4.67955">
        <ele>418.74000307204</ele>
        <time>2019-09-29T10:26:23.000Z</time>
      </trkpt>
      <trkpt lat="45.42982" lon="4.67952">
        <ele>418</ele>
        <time>2019-09-29T10:26:24.000Z</time>
      </trkpt>
      <trkpt lat="45.42979" lon="4.67948">
        <ele>418</ele>
        <time>2019-09-29T10:26:25.000Z</time>
      </trkpt>
      <trkpt lat="45.42977" lon="4.67945">
        <ele>418</ele>
        <time>2019-09-29T10:26:26.000Z</time>
      </trkpt>
      <trkpt lat="45.42976" lon="4.67943">
        <ele>418</ele>
        <time>2019-09-29T10:26:27.000Z</time>
      </trkpt>
      <trkpt lat="45.42975" lon="4.67941">
        <ele>417.73999692804</ele>
        <time>2019-09-29T10:26:28.000Z</time>
      </trkpt>
      <trkpt lat="45.42974" lon="4.67937">
        <ele>416.74000307204</ele>
        <time>2019-09-29T10:26:29.000Z</time>
      </trkpt>
      <trkpt lat="45.42973" lon="4.67933">
        <ele>416</ele>
        <time>2019-09-29T10:26:30.000Z</time>
      </trkpt>
      <trkpt lat="45.42974" lon="4.6793">
        <ele>415</ele>
        <time>2019-09-29T10:26:31.000Z</time>
      </trkpt>
      <trkpt lat="45.42974" lon="4.67926">
        <ele>413.76288564567</ele>
        <time>2019-09-29T10:26:32.000Z</time>
      </trkpt>
      <trkpt lat="45.42975" lon="4.67921">
        <ele>413</ele>
        <time>2019-09-29T10:26:33.000Z</time>
      </trkpt>
      <trkpt lat="45.42976" lon="4.67916">
        <ele>412.73999692804</ele>
        <time>2019-09-29T10:26:34.000Z</time>
      </trkpt>
      <trkpt lat="45.42978" lon="4.6791">
        <ele>412</ele>
        <time>2019-09-29T10:26:35.000Z</time>
      </trkpt>
      <trkpt lat="45.42979" lon="4.67903">
        <ele>411.73999692804</ele>
        <time>2019-09-29T10:26:36.000Z</time>
      </trkpt>
      <trkpt lat="45.42981" lon="4.67896">
        <ele>411</ele>
        <time>2019-09-29T10:26:37.000Z</time>
      </trkpt>
      <trkpt lat="45.42981" lon="4.67888">
        <ele>410.74509336412</ele>
        <time>2019-09-29T10:26:38.000Z</time>
      </trkpt>
      <trkpt lat="45.42981" lon="4.67881">
        <ele>410</ele>
        <time>2019-09-29T10:26:39.000Z</time>
      </trkpt>
      <trkpt lat="45.4298" lon="4.67874">
        <ele>410</ele>
        <time>2019-09-29T10:26:40.000Z</time>
      </trkpt>
      <trkpt lat="45.42977" lon="4.67867">
        <ele>410</ele>
        <time>2019-09-29T10:26:41.000Z</time>
      </trkpt>
      <trkpt lat="45.42974" lon="4.67861">
        <ele>410</ele>
        <time>2019-09-29T10:26:42.000Z</time>
      </trkpt>
      <trkpt lat="45.4297" lon="4.67857">
        <ele>409</ele>
        <time>2019-09-29T10:26:43.000Z</time>
      </trkpt>
      <trkpt lat="45.42966" lon="4.67854">
        <ele>409</ele>
        <time>2019-09-29T10:26:44.000Z</time>
      </trkpt>
      <trkpt lat="45.42962" lon="4.67852">
        <ele>408.74000307204</ele>
        <time>2019-09-29T10:26:45.000Z</time>
      </trkpt>
      <trkpt lat="45.42958" lon="4.67852">
        <ele>408</ele>
        <time>2019-09-29T10:26:46.000Z</time>
      </trkpt>
      <trkpt lat="45.42954" lon="4.67853">
        <ele>408</ele>
        <time>2019-09-29T10:26:47.000Z</time>
      </trkpt>
      <trkpt lat="45.4295" lon="4.67854">
        <ele>407.73999692804</ele>
        <time>2019-09-29T10:26:48.000Z</time>
      </trkpt>
      <trkpt lat="45.42947" lon="4.67856">
        <ele>407</ele>
        <time>2019-09-29T10:26:49.000Z</time>
      </trkpt>
      <trkpt lat="45.42944" lon="4.67858">
        <ele>406.73999692804</ele>
        <time>2019-09-29T10:26:50.000Z</time>
      </trkpt>
      <trkpt lat="45.42942" lon="4.6786">
        <ele>406</ele>
        <time>2019-09-29T10:26:51.000Z</time>
      </trkpt>
      <trkpt lat="45.4294" lon="4.67861">
        <ele>406</ele>
        <time>2019-09-29T10:26:52.000Z</time>
      </trkpt>
      <trkpt lat="45.42938" lon="4.6786">
        <ele>406</ele>
        <time>2019-09-29T10:26:53.000Z</time>
      </trkpt>
      <trkpt lat="45.42937" lon="4.67858">
        <ele>406</ele>
        <time>2019-09-29T10:26:54.000Z</time>
      </trkpt>
      <trkpt lat="45.42936" lon="4.67855">
        <ele>406</ele>
        <time>2019-09-29T10:26:55.000Z</time>
      </trkpt>
      <trkpt lat="45.42936" lon="4.67852">
        <ele>406</ele>
        <time>2019-09-29T10:26:56.000Z</time>
      </trkpt>
      <trkpt lat="45.42936" lon="4.67849">
        <ele>406</ele>
        <time>2019-09-29T10:26:57.000Z</time>
      </trkpt>
      <trkpt lat="45.42937" lon="4.67846">
        <ele>406</ele>
        <time>2019-09-29T10:26:58.000Z</time>
      </trkpt>
      <trkpt lat="45.42937" lon="4.67843">
        <ele>406</ele>
        <time>2019-09-29T10:26:59.000Z</time>
      </trkpt>
      <trkpt lat="45.42937" lon="4.6784">
        <ele>406</ele>
        <time>2019-09-29T10:27:00.000Z</time>
      </trkpt>
      <trkpt lat="45.42937" lon="4.67838">
        <ele>406</ele>
        <time>2019-09-29T10:27:01.000Z</time>
      </trkpt>
      <trkpt lat="45.42938" lon="4.67835">
        <ele>406</ele>
        <time>2019-09-29T10:27:02.000Z</time>
      </trkpt>
      <trkpt lat="45.42938" lon="4.67832">
        <ele>406</ele>
        <time>2019-09-29T10:27:03.000Z</time>
      </trkpt>
      <trkpt lat="45.42938" lon="4.67829">
        <ele>406</ele>
        <time>2019-09-29T10:27:04.000Z</time>
      </trkpt>
      <trkpt lat="45.42939" lon="4.67826">
        <ele>406</ele>
        <time>2019-09-29T10:27:05.000Z</time>
      </trkpt>
      <trkpt lat="45.4294" lon="4.67823">
        <ele>406</ele>
        <time>2019-09-29T10:27:07.000Z</time>
      </trkpt>
      <trkpt lat="45.4294" lon="4.6782">
        <ele>406</ele>
        <time>2019-09-29T10:27:09.000Z</time>
      </trkpt>
      <trkpt lat="45.4294" lon="4.67816">
        <ele>406</ele>
        <time>2019-09-29T10:27:11.000Z</time>
      </trkpt>
      <trkpt lat="45.4294" lon="4.67813">
        <ele>406</ele>
        <time>2019-09-29T10:27:13.000Z</time>
      </trkpt>
      <trkpt lat="45.4294" lon="4.6781">
        <ele>406</ele>
        <time>2019-09-29T10:27:21.000Z</time>
      </trkpt>
      <trkpt lat="45.4294" lon="4.67807">
        <ele>406</ele>
        <time>2019-09-29T10:27:22.000Z</time>
      </trkpt>
      <trkpt lat="45.4294" lon="4.67803">
        <ele>406</ele>
        <time>2019-09-29T10:27:23.000Z</time>
      </trkpt>
      <trkpt lat="45.4294" lon="4.678">
        <ele>406</ele>
        <time>2019-09-29T10:27:24.000Z</time>
      </trkpt>
      <trkpt lat="45.4294" lon="4.67797">
        <ele>406</ele>
        <time>2019-09-29T10:27:25.000Z</time>
      </trkpt>
      <trkpt lat="45.42939" lon="4.67794">
        <ele>406</ele>
        <time>2019-09-29T10:27:26.000Z</time>
      </trkpt>
      <trkpt lat="45.42938" lon="4.67792">
        <ele>406</ele>
        <time>2019-09-29T10:27:27.000Z</time>
      </trkpt>
      <trkpt lat="45.42936" lon="4.67788">
        <ele>407</ele>
        <time>2019-09-29T10:27:28.000Z</time>
      </trkpt>
      <trkpt lat="45.42934" lon="4.67786">
        <ele>407</ele>
        <time>2019-09-29T10:27:29.000Z</time>
      </trkpt>
      <trkpt lat="45.42931" lon="4.67784">
        <ele>407</ele>
        <time>2019-09-29T10:27:30.000Z</time>
      </trkpt>
      <trkpt lat="45.42929" lon="4.67781">
        <ele>408</ele>
        <time>2019-09-29T10:27:31.000Z</time>
      </trkpt>
      <trkpt lat="45.42926" lon="4.67778">
        <ele>408</ele>
        <time>2019-09-29T10:27:32.000Z</time>
      </trkpt>
      <trkpt lat="45.42925" lon="4.67775">
        <ele>408</ele>
        <time>2019-09-29T10:27:33.000Z</time>
      </trkpt>
      <trkpt lat="45.42925" lon="4.67772">
        <ele>408</ele>
        <time>2019-09-29T10:27:34.000Z</time>
      </trkpt>
      <trkpt lat="45.42924" lon="4.67769">
        <ele>408</ele>
        <time>2019-09-29T10:27:35.000Z</time>
      </trkpt>
      <trkpt lat="45.42923" lon="4.67766">
        <ele>408.26000307196</ele>
        <time>2019-09-29T10:27:36.000Z</time>
      </trkpt>
      <trkpt lat="45.42922" lon="4.67763">
        <ele>409</ele>
        <time>2019-09-29T10:27:37.000Z</time>
      </trkpt>
      <trkpt lat="45.42921" lon="4.6776">
        <ele>409</ele>
        <time>2019-09-29T10:27:38.000Z</time>
      </trkpt>
      <trkpt lat="45.4292" lon="4.67757">
        <ele>409</ele>
        <time>2019-09-29T10:27:39.000Z</time>
      </trkpt>
      <trkpt lat="45.42919" lon="4.67754">
        <ele>409</ele>
        <time>2019-09-29T10:27:40.000Z</time>
      </trkpt>
      <trkpt lat="45.42919" lon="4.67751">
        <ele>409</ele>
        <time>2019-09-29T10:27:41.000Z</time>
      </trkpt>
      <trkpt lat="45.42918" lon="4.67748">
        <ele>409</ele>
        <time>2019-09-29T10:27:42.000Z</time>
      </trkpt>
      <trkpt lat="45.42917" lon="4.67746">
        <ele>409</ele>
        <time>2019-09-29T10:27:43.000Z</time>
      </trkpt>
      <trkpt lat="45.42916" lon="4.67743">
        <ele>409</ele>
        <time>2019-09-29T10:27:44.000Z</time>
      </trkpt>
      <trkpt lat="45.42915" lon="4.6774">
        <ele>409</ele>
        <time>2019-09-29T10:27:45.000Z</time>
      </trkpt>
      <trkpt lat="45.42914" lon="4.67737">
        <ele>409</ele>
        <time>2019-09-29T10:27:46.000Z</time>
      </trkpt>
      <trkpt lat="45.42912" lon="4.67735">
        <ele>409</ele>
        <time>2019-09-29T10:27:47.000Z</time>
      </trkpt>
      <trkpt lat="45.42911" lon="4.67732">
        <ele>409.25999692796</ele>
        <time>2019-09-29T10:27:48.000Z</time>
      </trkpt>
      <trkpt lat="45.42913" lon="4.67732">
        <ele>411</ele>
        <time>2019-09-29T10:27:49.000Z</time>
      </trkpt>
      <trkpt lat="45.42911" lon="4.67732">
        <ele>412</ele>
        <time>2019-09-29T10:27:50.000Z</time>
      </trkpt>
      <trkpt lat="45.4291" lon="4.67729">
        <ele>412</ele>
        <time>2019-09-29T10:27:51.000Z</time>
      </trkpt>
      <trkpt lat="45.42909" lon="4.67726">
        <ele>412</ele>
        <time>2019-09-29T10:28:30.000Z</time>
      </trkpt>
      <trkpt lat="45.42908" lon="4.67724">
        <ele>413</ele>
        <time>2019-09-29T10:28:49.000Z</time>
      </trkpt>
      <trkpt lat="45.42907" lon="4.67722">
        <ele>413</ele>
        <time>2019-09-29T10:28:51.000Z</time>
      </trkpt>
      <trkpt lat="45.42905" lon="4.67719">
        <ele>413</ele>
        <time>2019-09-29T10:28:52.000Z</time>
      </trkpt>
      <trkpt lat="45.42904" lon="4.67716">
        <ele>413</ele>
        <time>2019-09-29T10:28:53.000Z</time>
      </trkpt>
      <trkpt lat="45.42903" lon="4.67713">
        <ele>413</ele>
        <time>2019-09-29T10:28:54.000Z</time>
      </trkpt>
      <trkpt lat="45.42902" lon="4.6771">
        <ele>413.26000307196</ele>
        <time>2019-09-29T10:28:55.000Z</time>
      </trkpt>
      <trkpt lat="45.42901" lon="4.67708">
        <ele>414</ele>
        <time>2019-09-29T10:28:56.000Z</time>
      </trkpt>
      <trkpt lat="45.429" lon="4.67705">
        <ele>414</ele>
        <time>2019-09-29T10:28:57.000Z</time>
      </trkpt>
      <trkpt lat="45.42898" lon="4.67702">
        <ele>414</ele>
        <time>2019-09-29T10:28:58.000Z</time>
      </trkpt>
      <trkpt lat="45.42897" lon="4.67699">
        <ele>414.26000307196</ele>
        <time>2019-09-29T10:28:59.000Z</time>
      </trkpt>
      <trkpt lat="45.42896" lon="4.67697">
        <ele>415</ele>
        <time>2019-09-29T10:29:00.000Z</time>
      </trkpt>
      <trkpt lat="45.42895" lon="4.67693">
        <ele>415</ele>
        <time>2019-09-29T10:29:01.000Z</time>
      </trkpt>
      <trkpt lat="45.42894" lon="4.6769">
        <ele>415</ele>
        <time>2019-09-29T10:29:02.000Z</time>
      </trkpt>
      <trkpt lat="45.42894" lon="4.67687">
        <ele>415</ele>
        <time>2019-09-29T10:29:03.000Z</time>
      </trkpt>
      <trkpt lat="45.42893" lon="4.67685">
        <ele>415</ele>
        <time>2019-09-29T10:29:04.000Z</time>
      </trkpt>
      <trkpt lat="45.42892" lon="4.67682">
        <ele>415.26000307196</ele>
        <time>2019-09-29T10:29:05.000Z</time>
      </trkpt>
      <trkpt lat="45.42892" lon="4.67678">
        <ele>416</ele>
        <time>2019-09-29T10:29:06.000Z</time>
      </trkpt>
      <trkpt lat="45.42891" lon="4.67675">
        <ele>416</ele>
        <time>2019-09-29T10:29:07.000Z</time>
      </trkpt>
      <trkpt lat="45.42891" lon="4.67671">
        <ele>416</ele>
        <time>2019-09-29T10:29:08.000Z</time>
      </trkpt>
      <trkpt lat="45.4289" lon="4.67668">
        <ele>416</ele>
        <time>2019-09-29T10:29:09.000Z</time>
      </trkpt>
      <trkpt lat="45.4289" lon="4.67664">
        <ele>416</ele>
        <time>2019-09-29T10:29:10.000Z</time>
      </trkpt>
      <trkpt lat="45.4289" lon="4.67661">
        <ele>416</ele>
        <time>2019-09-29T10:29:12.000Z</time>
      </trkpt>
      <trkpt lat="45.4289" lon="4.67657">
        <ele>417</ele>
        <time>2019-09-29T10:29:14.000Z</time>
      </trkpt>
      <trkpt lat="45.42889" lon="4.67654">
        <ele>417</ele>
        <time>2019-09-29T10:29:20.000Z</time>
      </trkpt>
      <trkpt lat="45.42889" lon="4.6765">
        <ele>417</ele>
        <time>2019-09-29T10:29:22.000Z</time>
      </trkpt>
      <trkpt lat="45.42889" lon="4.67647">
        <ele>417</ele>
        <time>2019-09-29T10:29:23.000Z</time>
      </trkpt>
      <trkpt lat="45.42888" lon="4.67643">
        <ele>417</ele>
        <time>2019-09-29T10:29:24.000Z</time>
      </trkpt>
      <trkpt lat="45.42888" lon="4.6764">
        <ele>417.26000307196</ele>
        <time>2019-09-29T10:29:25.000Z</time>
      </trkpt>
      <trkpt lat="45.42887" lon="4.67637">
        <ele>418</ele>
        <time>2019-09-29T10:29:40.000Z</time>
      </trkpt>
      <trkpt lat="45.42886" lon="4.67633">
        <ele>418</ele>
        <time>2019-09-29T10:29:41.000Z</time>
      </trkpt>
      <trkpt lat="45.42886" lon="4.6763">
        <ele>418</ele>
        <time>2019-09-29T10:29:42.000Z</time>
      </trkpt>
      <trkpt lat="45.42885" lon="4.67626">
        <ele>418</ele>
        <time>2019-09-29T10:29:43.000Z</time>
      </trkpt>
      <trkpt lat="45.42884" lon="4.67623">
        <ele>418</ele>
        <time>2019-09-29T10:29:44.000Z</time>
      </trkpt>
      <trkpt lat="45.42884" lon="4.67619">
        <ele>418</ele>
        <time>2019-09-29T10:29:45.000Z</time>
      </trkpt>
      <trkpt lat="45.42883" lon="4.67615">
        <ele>418</ele>
        <time>2019-09-29T10:29:46.000Z</time>
      </trkpt>
      <trkpt lat="45.42883" lon="4.67611">
        <ele>418.26000307196</ele>
        <time>2019-09-29T10:29:47.000Z</time>
      </trkpt>
      <trkpt lat="45.42882" lon="4.67607">
        <ele>419</ele>
        <time>2019-09-29T10:29:48.000Z</time>
      </trkpt>
      <trkpt lat="45.42882" lon="4.67603">
        <ele>419</ele>
        <time>2019-09-29T10:29:49.000Z</time>
      </trkpt>
      <trkpt lat="45.42881" lon="4.67598">
        <ele>419</ele>
        <time>2019-09-29T10:29:50.000Z</time>
      </trkpt>
      <trkpt lat="45.4288" lon="4.67594">
        <ele>419</ele>
        <time>2019-09-29T10:29:51.000Z</time>
      </trkpt>
      <trkpt lat="45.4288" lon="4.6759">
        <ele>419</ele>
        <time>2019-09-29T10:29:52.000Z</time>
      </trkpt>
      <trkpt lat="45.42879" lon="4.67586">
        <ele>419.25742963235</ele>
        <time>2019-09-29T10:29:53.000Z</time>
      </trkpt>
      <trkpt lat="45.42879" lon="4.67582">
        <ele>420</ele>
        <time>2019-09-29T10:29:54.000Z</time>
      </trkpt>
      <trkpt lat="45.42879" lon="4.67578">
        <ele>420</ele>
        <time>2019-09-29T10:29:55.000Z</time>
      </trkpt>
      <trkpt lat="45.42879" lon="4.67575">
        <ele>420</ele>
        <time>2019-09-29T10:29:56.000Z</time>
      </trkpt>
      <trkpt lat="45.42878" lon="4.67572">
        <ele>420</ele>
        <time>2019-09-29T10:29:57.000Z</time>
      </trkpt>
      <trkpt lat="45.42879" lon="4.67569">
        <ele>420</ele>
        <time>2019-09-29T10:29:58.000Z</time>
      </trkpt>
      <trkpt lat="45.42879" lon="4.67566">
        <ele>420</ele>
        <time>2019-09-29T10:29:59.000Z</time>
      </trkpt>
      <trkpt lat="45.42879" lon="4.67563">
        <ele>420.25999692796</ele>
        <time>2019-09-29T10:30:00.000Z</time>
      </trkpt>
      <trkpt lat="45.42878" lon="4.67561">
        <ele>421</ele>
        <time>2019-09-29T10:30:01.000Z</time>
      </trkpt>
      <trkpt lat="45.42878" lon="4.67558">
        <ele>421</ele>
        <time>2019-09-29T10:30:02.000Z</time>
      </trkpt>
      <trkpt lat="45.42877" lon="4.67555">
        <ele>421</ele>
        <time>2019-09-29T10:30:03.000Z</time>
      </trkpt>
      <trkpt lat="45.42877" lon="4.67551">
        <ele>421</ele>
        <time>2019-09-29T10:30:04.000Z</time>
      </trkpt>
      <trkpt lat="45.42876" lon="4.67546">
        <ele>422</ele>
        <time>2019-09-29T10:30:05.000Z</time>
      </trkpt>
      <trkpt lat="45.42876" lon="4.67541">
        <ele>422</ele>
        <time>2019-09-29T10:30:06.000Z</time>
      </trkpt>
      <trkpt lat="45.42875" lon="4.67539">
        <ele>422</ele>
        <time>2019-09-29T10:30:07.000Z</time>
      </trkpt>
      <trkpt lat="45.42875" lon="4.67535">
        <ele>422</ele>
        <time>2019-09-29T10:30:08.000Z</time>
      </trkpt>
      <trkpt lat="45.42874" lon="4.67531">
        <ele>422</ele>
        <time>2019-09-29T10:30:09.000Z</time>
      </trkpt>
      <trkpt lat="45.42873" lon="4.67527">
        <ele>422.2015538489</ele>
        <time>2019-09-29T10:30:10.000Z</time>
      </trkpt>
      <trkpt lat="45.42873" lon="4.67523">
        <ele>422.97674187851</ele>
        <time>2019-09-29T10:30:11.000Z</time>
      </trkpt>
      <trkpt lat="45.42872" lon="4.67519">
        <ele>423</ele>
        <time>2019-09-29T10:30:12.000Z</time>
      </trkpt>
      <trkpt lat="45.42871" lon="4.67514">
        <ele>423</ele>
        <time>2019-09-29T10:30:13.000Z</time>
      </trkpt>
      <trkpt lat="45.4287" lon="4.6751">
        <ele>423</ele>
        <time>2019-09-29T10:30:14.000Z</time>
      </trkpt>
      <trkpt lat="45.4287" lon="4.67505">
        <ele>423.25999692796</ele>
        <time>2019-09-29T10:30:15.000Z</time>
      </trkpt>
      <trkpt lat="45.42869" lon="4.67501">
        <ele>424</ele>
        <time>2019-09-29T10:30:16.000Z</time>
      </trkpt>
      <trkpt lat="45.42868" lon="4.67496">
        <ele>424</ele>
        <time>2019-09-29T10:30:17.000Z</time>
      </trkpt>
      <trkpt lat="45.42867" lon="4.67492">
        <ele>424</ele>
        <time>2019-09-29T10:30:18.000Z</time>
      </trkpt>
      <trkpt lat="45.42867" lon="4.67487">
        <ele>424</ele>
        <time>2019-09-29T10:30:19.000Z</time>
      </trkpt>
      <trkpt lat="45.42866" lon="4.67482">
        <ele>424.26000307196</ele>
        <time>2019-09-29T10:30:20.000Z</time>
      </trkpt>
      <trkpt lat="45.42865" lon="4.67478">
        <ele>425</ele>
        <time>2019-09-29T10:30:21.000Z</time>
      </trkpt>
      <trkpt lat="45.42865" lon="4.67474">
        <ele>425</ele>
        <time>2019-09-29T10:30:22.000Z</time>
      </trkpt>
      <trkpt lat="45.42864" lon="4.67471">
        <ele>425</ele>
        <time>2019-09-29T10:30:23.000Z</time>
      </trkpt>
      <trkpt lat="45.42861" lon="4.67469">
        <ele>425</ele>
        <time>2019-09-29T10:30:24.000Z</time>
      </trkpt>
      <trkpt lat="45.42858" lon="4.67469">
        <ele>425</ele>
        <time>2019-09-29T10:30:25.000Z</time>
      </trkpt>
      <trkpt lat="45.42855" lon="4.6747">
        <ele>425</ele>
        <time>2019-09-29T10:30:26.000Z</time>
      </trkpt>
      <trkpt lat="45.42851" lon="4.67472">
        <ele>425</ele>
        <time>2019-09-29T10:30:27.000Z</time>
      </trkpt>
      <trkpt lat="45.42847" lon="4.67474">
        <ele>425</ele>
        <time>2019-09-29T10:30:28.000Z</time>
      </trkpt>
      <trkpt lat="45.42842" lon="4.67475">
        <ele>425</ele>
        <time>2019-09-29T10:30:29.000Z</time>
      </trkpt>
      <trkpt lat="45.42837" lon="4.67477">
        <ele>425</ele>
        <time>2019-09-29T10:30:30.000Z</time>
      </trkpt>
      <trkpt lat="45.42832" lon="4.67478">
        <ele>425</ele>
        <time>2019-09-29T10:30:31.000Z</time>
      </trkpt>
      <trkpt lat="45.42827" lon="4.6748">
        <ele>425</ele>
        <time>2019-09-29T10:30:32.000Z</time>
      </trkpt>
      <trkpt lat="45.42822" lon="4.67482">
        <ele>425</ele>
        <time>2019-09-29T10:30:33.000Z</time>
      </trkpt>
      <trkpt lat="45.42817" lon="4.67483">
        <ele>425</ele>
        <time>2019-09-29T10:30:34.000Z</time>
      </trkpt>
      <trkpt lat="45.42811" lon="4.67485">
        <ele>425</ele>
        <time>2019-09-29T10:30:35.000Z</time>
      </trkpt>
      <trkpt lat="45.42807" lon="4.67486">
        <ele>425</ele>
        <time>2019-09-29T10:30:36.000Z</time>
      </trkpt>
      <trkpt lat="45.42804" lon="4.67488">
        <ele>425</ele>
        <time>2019-09-29T10:30:37.000Z</time>
      </trkpt>
      <trkpt lat="45.42802" lon="4.6749">
        <ele>425</ele>
        <time>2019-09-29T10:30:38.000Z</time>
      </trkpt>
      <trkpt lat="45.42804" lon="4.6749">
        <ele>426</ele>
        <time>2019-09-29T10:30:39.000Z</time>
      </trkpt>
      <trkpt lat="45.42805" lon="4.67489">
        <ele>426</ele>
        <time>2019-09-29T10:30:40.000Z</time>
      </trkpt>
      <trkpt lat="45.42807" lon="4.67487">
        <ele>426</ele>
        <time>2019-09-29T10:30:41.000Z</time>
      </trkpt>
      <trkpt lat="45.42809" lon="4.67487">
        <ele>426</ele>
        <time>2019-09-29T10:30:42.000Z</time>
      </trkpt>
      <trkpt lat="45.42811" lon="4.67487">
        <ele>426</ele>
        <time>2019-09-29T10:30:43.000Z</time>
      </trkpt>
      <trkpt lat="45.42814" lon="4.67486">
        <ele>426</ele>
        <time>2019-09-29T10:30:44.000Z</time>
      </trkpt>
      <trkpt lat="45.42818" lon="4.67485">
        <ele>426</ele>
        <time>2019-09-29T10:30:45.000Z</time>
      </trkpt>
      <trkpt lat="45.42821" lon="4.67484">
        <ele>426.25999692796</ele>
        <time>2019-09-29T10:30:46.000Z</time>
      </trkpt>
      <trkpt lat="45.42825" lon="4.67483">
        <ele>427</ele>
        <time>2019-09-29T10:30:47.000Z</time>
      </trkpt>
      <trkpt lat="45.4283" lon="4.67481">
        <ele>427</ele>
        <time>2019-09-29T10:30:48.000Z</time>
      </trkpt>
      <trkpt lat="45.42834" lon="4.6748">
        <ele>427</ele>
        <time>2019-09-29T10:30:49.000Z</time>
      </trkpt>
      <trkpt lat="45.42839" lon="4.67479">
        <ele>427</ele>
        <time>2019-09-29T10:30:50.000Z</time>
      </trkpt>
      <trkpt lat="45.42844" lon="4.67478">
        <ele>427</ele>
        <time>2019-09-29T10:30:51.000Z</time>
      </trkpt>
      <trkpt lat="45.42848" lon="4.67476">
        <ele>427</ele>
        <time>2019-09-29T10:30:52.000Z</time>
      </trkpt>
      <trkpt lat="45.42851" lon="4.67476">
        <ele>427</ele>
        <time>2019-09-29T10:30:53.000Z</time>
      </trkpt>
      <trkpt lat="45.42855" lon="4.67476">
        <ele>427</ele>
        <time>2019-09-29T10:30:54.000Z</time>
      </trkpt>
      <trkpt lat="45.42858" lon="4.67478">
        <ele>427</ele>
        <time>2019-09-29T10:30:55.000Z</time>
      </trkpt>
      <trkpt lat="45.4286" lon="4.67479">
        <ele>427</ele>
        <time>2019-09-29T10:30:56.000Z</time>
      </trkpt>
      <trkpt lat="45.42862" lon="4.6748">
        <ele>427</ele>
        <time>2019-09-29T10:30:57.000Z</time>
      </trkpt>
      <trkpt lat="45.42864" lon="4.67481">
        <ele>427</ele>
        <time>2019-09-29T10:30:58.000Z</time>
      </trkpt>
      <trkpt lat="45.42866" lon="4.67481">
        <ele>427</ele>
        <time>2019-09-29T10:30:59.000Z</time>
      </trkpt>
      <trkpt lat="45.42868" lon="4.67479">
        <ele>427</ele>
        <time>2019-09-29T10:31:00.000Z</time>
      </trkpt>
      <trkpt lat="45.42868" lon="4.67474">
        <ele>428</ele>
        <time>2019-09-29T10:31:01.000Z</time>
      </trkpt>
      <trkpt lat="45.42867" lon="4.67472">
        <ele>428</ele>
        <time>2019-09-29T10:31:02.000Z</time>
      </trkpt>
      <trkpt lat="45.42865" lon="4.67469">
        <ele>428</ele>
        <time>2019-09-29T10:31:03.000Z</time>
      </trkpt>
      <trkpt lat="45.42862" lon="4.67468">
        <ele>427.74000307204</ele>
        <time>2019-09-29T10:31:04.000Z</time>
      </trkpt>
      <trkpt lat="45.4286" lon="4.67469">
        <ele>427</ele>
        <time>2019-09-29T10:31:05.000Z</time>
      </trkpt>
      <trkpt lat="45.42858" lon="4.6747">
        <ele>427</ele>
        <time>2019-09-29T10:31:06.000Z</time>
      </trkpt>
      <trkpt lat="45.42856" lon="4.67471">
        <ele>427</ele>
        <time>2019-09-29T10:31:07.000Z</time>
      </trkpt>
      <trkpt lat="45.42852" lon="4.67471">
        <ele>427</ele>
        <time>2019-09-29T10:31:08.000Z</time>
      </trkpt>
      <trkpt lat="45.4285" lon="4.67471">
        <ele>427</ele>
        <time>2019-09-29T10:31:09.000Z</time>
      </trkpt>
      <trkpt lat="45.42846" lon="4.67472">
        <ele>427</ele>
        <time>2019-09-29T10:31:10.000Z</time>
      </trkpt>
      <trkpt lat="45.42843" lon="4.67473">
        <ele>427</ele>
        <time>2019-09-29T10:31:11.000Z</time>
      </trkpt>
      <trkpt lat="45.42839" lon="4.67474">
        <ele>427</ele>
        <time>2019-09-29T10:31:12.000Z</time>
      </trkpt>
      <trkpt lat="45.42834" lon="4.67475">
        <ele>427</ele>
        <time>2019-09-29T10:31:13.000Z</time>
      </trkpt>
      <trkpt lat="45.4283" lon="4.67477">
        <ele>427</ele>
        <time>2019-09-29T10:31:14.000Z</time>
      </trkpt>
      <trkpt lat="45.42826" lon="4.67478">
        <ele>427</ele>
        <time>2019-09-29T10:31:15.000Z</time>
      </trkpt>
      <trkpt lat="45.42822" lon="4.67479">
        <ele>427</ele>
        <time>2019-09-29T10:31:16.000Z</time>
      </trkpt>
      <trkpt lat="45.42818" lon="4.6748">
        <ele>427</ele>
        <time>2019-09-29T10:31:17.000Z</time>
      </trkpt>
      <trkpt lat="45.42814" lon="4.67481">
        <ele>427</ele>
        <time>2019-09-29T10:31:18.000Z</time>
      </trkpt>
      <trkpt lat="45.4281" lon="4.67483">
        <ele>427</ele>
        <time>2019-09-29T10:31:19.000Z</time>
      </trkpt>
      <trkpt lat="45.42806" lon="4.67484">
        <ele>427</ele>
        <time>2019-09-29T10:31:20.000Z</time>
      </trkpt>
      <trkpt lat="45.42802" lon="4.67486">
        <ele>427</ele>
        <time>2019-09-29T10:31:21.000Z</time>
      </trkpt>
      <trkpt lat="45.42798" lon="4.67487">
        <ele>427</ele>
        <time>2019-09-29T10:31:22.000Z</time>
      </trkpt>
      <trkpt lat="45.42794" lon="4.67489">
        <ele>427</ele>
        <time>2019-09-29T10:31:23.000Z</time>
      </trkpt>
      <trkpt lat="45.4279" lon="4.67491">
        <ele>427</ele>
        <time>2019-09-29T10:31:24.000Z</time>
      </trkpt>
      <trkpt lat="45.42785" lon="4.67493">
        <ele>427</ele>
        <time>2019-09-29T10:31:25.000Z</time>
      </trkpt>
      <trkpt lat="45.4278" lon="4.67495">
        <ele>427</ele>
        <time>2019-09-29T10:31:26.000Z</time>
      </trkpt>
      <trkpt lat="45.42775" lon="4.67497">
        <ele>427</ele>
        <time>2019-09-29T10:31:27.000Z</time>
      </trkpt>
      <trkpt lat="45.42771" lon="4.67499">
        <ele>426.80303324153</ele>
        <time>2019-09-29T10:31:28.000Z</time>
      </trkpt>
      <trkpt lat="45.42766" lon="4.67502">
        <ele>426.0454501377</ele>
        <time>2019-09-29T10:31:29.000Z</time>
      </trkpt>
      <trkpt lat="45.42761" lon="4.67504">
        <ele>426</ele>
        <time>2019-09-29T10:31:30.000Z</time>
      </trkpt>
      <trkpt lat="45.42756" lon="4.67506">
        <ele>426</ele>
        <time>2019-09-29T10:31:31.000Z</time>
      </trkpt>
      <trkpt lat="45.42752" lon="4.67509">
        <ele>426</ele>
        <time>2019-09-29T10:31:32.000Z</time>
      </trkpt>
      <trkpt lat="45.42747" lon="4.67511">
        <ele>426</ele>
        <time>2019-09-29T10:31:33.000Z</time>
      </trkpt>
      <trkpt lat="45.42743" lon="4.67514">
        <ele>426</ele>
        <time>2019-09-29T10:31:34.000Z</time>
      </trkpt>
      <trkpt lat="45.42738" lon="4.67516">
        <ele>426</ele>
        <time>2019-09-29T10:31:35.000Z</time>
      </trkpt>
      <trkpt lat="45.42734" lon="4.67519">
        <ele>426</ele>
        <time>2019-09-29T10:31:36.000Z</time>
      </trkpt>
      <trkpt lat="45.4273" lon="4.67522">
        <ele>426</ele>
        <time>2019-09-29T10:31:37.000Z</time>
      </trkpt>
      <trkpt lat="45.42726" lon="4.67525">
        <ele>426</ele>
        <time>2019-09-29T10:31:38.000Z</time>
      </trkpt>
      <trkpt lat="45.42722" lon="4.67527">
        <ele>426</ele>
        <time>2019-09-29T10:31:39.000Z</time>
      </trkpt>
      <trkpt lat="45.42718" lon="4.6753">
        <ele>426</ele>
        <time>2019-09-29T10:31:40.000Z</time>
      </trkpt>
      <trkpt lat="45.42714" lon="4.67532">
        <ele>426</ele>
        <time>2019-09-29T10:31:41.000Z</time>
      </trkpt>
      <trkpt lat="45.42709" lon="4.67535">
        <ele>426</ele>
        <time>2019-09-29T10:31:42.000Z</time>
      </trkpt>
      <trkpt lat="45.42705" lon="4.67538">
        <ele>426.2015538489</ele>
        <time>2019-09-29T10:31:43.000Z</time>
      </trkpt>
      <trkpt lat="45.42701" lon="4.67541">
        <ele>426.97674187851</ele>
        <time>2019-09-29T10:31:44.000Z</time>
      </trkpt>
      <trkpt lat="45.42696" lon="4.67544">
        <ele>427</ele>
        <time>2019-09-29T10:31:45.000Z</time>
      </trkpt>
      <trkpt lat="45.42692" lon="4.67547">
        <ele>427</ele>
        <time>2019-09-29T10:31:46.000Z</time>
      </trkpt>
      <trkpt lat="45.42687" lon="4.6755">
        <ele>427</ele>
        <time>2019-09-29T10:31:47.000Z</time>
      </trkpt>
      <trkpt lat="45.42684" lon="4.67553">
        <ele>427</ele>
        <time>2019-09-29T10:31:48.000Z</time>
      </trkpt>
      <trkpt lat="45.4268" lon="4.67556">
        <ele>427</ele>
        <time>2019-09-29T10:31:49.000Z</time>
      </trkpt>
      <trkpt lat="45.42676" lon="4.67558">
        <ele>427</ele>
        <time>2019-09-29T10:31:50.000Z</time>
      </trkpt>
      <trkpt lat="45.42673" lon="4.6756">
        <ele>427</ele>
        <time>2019-09-29T10:31:51.000Z</time>
      </trkpt>
      <trkpt lat="45.42669" lon="4.67562">
        <ele>427</ele>
        <time>2019-09-29T10:31:52.000Z</time>
      </trkpt>
      <trkpt lat="45.42666" lon="4.67565">
        <ele>427</ele>
        <time>2019-09-29T10:31:53.000Z</time>
      </trkpt>
      <trkpt lat="45.42662" lon="4.67567">
        <ele>427.25999692796</ele>
        <time>2019-09-29T10:31:54.000Z</time>
      </trkpt>
      <trkpt lat="45.42658" lon="4.6757">
        <ele>428</ele>
        <time>2019-09-29T10:31:55.000Z</time>
      </trkpt>
      <trkpt lat="45.42655" lon="4.67572">
        <ele>428</ele>
        <time>2019-09-29T10:31:56.000Z</time>
      </trkpt>
      <trkpt lat="45.42651" lon="4.67575">
        <ele>428</ele>
        <time>2019-09-29T10:31:57.000Z</time>
      </trkpt>
      <trkpt lat="45.42647" lon="4.67577">
        <ele>428</ele>
        <time>2019-09-29T10:31:58.000Z</time>
      </trkpt>
      <trkpt lat="45.42643" lon="4.6758">
        <ele>428</ele>
        <time>2019-09-29T10:31:59.000Z</time>
      </trkpt>
      <trkpt lat="45.42639" lon="4.67582">
        <ele>428</ele>
        <time>2019-09-29T10:32:00.000Z</time>
      </trkpt>
      <trkpt lat="45.42635" lon="4.67585">
        <ele>428</ele>
        <time>2019-09-29T10:32:01.000Z</time>
      </trkpt>
      <trkpt lat="45.42632" lon="4.67587">
        <ele>428.25742022153</ele>
        <time>2019-09-29T10:32:02.000Z</time>
      </trkpt>
      <trkpt lat="45.42628" lon="4.6759">
        <ele>429</ele>
        <time>2019-09-29T10:32:03.000Z</time>
      </trkpt>
      <trkpt lat="45.42624" lon="4.67592">
        <ele>429</ele>
        <time>2019-09-29T10:32:04.000Z</time>
      </trkpt>
      <trkpt lat="45.42621" lon="4.67595">
        <ele>429</ele>
        <time>2019-09-29T10:32:05.000Z</time>
      </trkpt>
      <trkpt lat="45.42617" lon="4.67597">
        <ele>429</ele>
        <time>2019-09-29T10:32:06.000Z</time>
      </trkpt>
      <trkpt lat="45.42614" lon="4.67599">
        <ele>429</ele>
        <time>2019-09-29T10:32:07.000Z</time>
      </trkpt>
      <trkpt lat="45.4261" lon="4.67601">
        <ele>429</ele>
        <time>2019-09-29T10:32:08.000Z</time>
      </trkpt>
      <trkpt lat="45.42607" lon="4.67603">
        <ele>429</ele>
        <time>2019-09-29T10:32:09.000Z</time>
      </trkpt>
      <trkpt lat="45.42603" lon="4.67605">
        <ele>429</ele>
        <time>2019-09-29T10:32:10.000Z</time>
      </trkpt>
      <trkpt lat="45.42599" lon="4.67607">
        <ele>429.26000307196</ele>
        <time>2019-09-29T10:32:11.000Z</time>
      </trkpt>
      <trkpt lat="45.42596" lon="4.67609">
        <ele>430</ele>
        <time>2019-09-29T10:32:12.000Z</time>
      </trkpt>
      <trkpt lat="45.42592" lon="4.67611">
        <ele>430</ele>
        <time>2019-09-29T10:32:13.000Z</time>
      </trkpt>
      <trkpt lat="45.42588" lon="4.67613">
        <ele>430</ele>
        <time>2019-09-29T10:32:14.000Z</time>
      </trkpt>
      <trkpt lat="45.42584" lon="4.67615">
        <ele>430</ele>
        <time>2019-09-29T10:32:15.000Z</time>
      </trkpt>
      <trkpt lat="45.4258" lon="4.67616">
        <ele>430</ele>
        <time>2019-09-29T10:32:16.000Z</time>
      </trkpt>
      <trkpt lat="45.42576" lon="4.67617">
        <ele>430</ele>
        <time>2019-09-29T10:32:17.000Z</time>
      </trkpt>
      <trkpt lat="45.42571" lon="4.67618">
        <ele>430</ele>
        <time>2019-09-29T10:32:18.000Z</time>
      </trkpt>
      <trkpt lat="45.42567" lon="4.67618">
        <ele>430.2015538489</ele>
        <time>2019-09-29T10:32:19.000Z</time>
      </trkpt>
      <trkpt lat="45.42563" lon="4.67618">
        <ele>430.97674187851</ele>
        <time>2019-09-29T10:32:20.000Z</time>
      </trkpt>
      <trkpt lat="45.42559" lon="4.67618">
        <ele>430.73999692804</ele>
        <time>2019-09-29T10:32:21.000Z</time>
      </trkpt>
      <trkpt lat="45.42555" lon="4.67616">
        <ele>430</ele>
        <time>2019-09-29T10:32:22.000Z</time>
      </trkpt>
      <trkpt lat="45.42551" lon="4.67615">
        <ele>430.26000307196</ele>
        <time>2019-09-29T10:32:23.000Z</time>
      </trkpt>
      <trkpt lat="45.42547" lon="4.67612">
        <ele>431</ele>
        <time>2019-09-29T10:32:24.000Z</time>
      </trkpt>
      <trkpt lat="45.42543" lon="4.6761">
        <ele>431</ele>
        <time>2019-09-29T10:32:25.000Z</time>
      </trkpt>
      <trkpt lat="45.42539" lon="4.67607">
        <ele>431</ele>
        <time>2019-09-29T10:32:26.000Z</time>
      </trkpt>
      <trkpt lat="45.42536" lon="4.67603">
        <ele>431</ele>
        <time>2019-09-29T10:32:27.000Z</time>
      </trkpt>
      <trkpt lat="45.42533" lon="4.67599">
        <ele>431</ele>
        <time>2019-09-29T10:32:28.000Z</time>
      </trkpt>
      <trkpt lat="45.4253" lon="4.67595">
        <ele>431</ele>
        <time>2019-09-29T10:32:29.000Z</time>
      </trkpt>
      <trkpt lat="45.42528" lon="4.67591">
        <ele>431</ele>
        <time>2019-09-29T10:32:30.000Z</time>
      </trkpt>
      <trkpt lat="45.42525" lon="4.67587">
        <ele>431</ele>
        <time>2019-09-29T10:32:31.000Z</time>
      </trkpt>
      <trkpt lat="45.42523" lon="4.67583">
        <ele>431</ele>
        <time>2019-09-29T10:32:32.000Z</time>
      </trkpt>
      <trkpt lat="45.42521" lon="4.67578">
        <ele>431</ele>
        <time>2019-09-29T10:32:33.000Z</time>
      </trkpt>
      <trkpt lat="45.4252" lon="4.67574">
        <ele>431</ele>
        <time>2019-09-29T10:32:34.000Z</time>
      </trkpt>
      <trkpt lat="45.42518" lon="4.6757">
        <ele>431</ele>
        <time>2019-09-29T10:32:35.000Z</time>
      </trkpt>
      <trkpt lat="45.42516" lon="4.67565">
        <ele>431</ele>
        <time>2019-09-29T10:32:36.000Z</time>
      </trkpt>
      <trkpt lat="45.42515" lon="4.6756">
        <ele>431</ele>
        <time>2019-09-29T10:32:37.000Z</time>
      </trkpt>
      <trkpt lat="45.42514" lon="4.67556">
        <ele>431.25999692796</ele>
        <time>2019-09-29T10:32:38.000Z</time>
      </trkpt>
      <trkpt lat="45.42513" lon="4.67551">
        <ele>432</ele>
        <time>2019-09-29T10:32:39.000Z</time>
      </trkpt>
      <trkpt lat="45.42512" lon="4.67547">
        <ele>432</ele>
        <time>2019-09-29T10:32:40.000Z</time>
      </trkpt>
      <trkpt lat="45.42511" lon="4.67543">
        <ele>432</ele>
        <time>2019-09-29T10:32:41.000Z</time>
      </trkpt>
      <trkpt lat="45.4251" lon="4.67539">
        <ele>432</ele>
        <time>2019-09-29T10:32:42.000Z</time>
      </trkpt>
      <trkpt lat="45.42509" lon="4.67535">
        <ele>432</ele>
        <time>2019-09-29T10:32:43.000Z</time>
      </trkpt>
      <trkpt lat="45.42508" lon="4.67531">
        <ele>432</ele>
        <time>2019-09-29T10:32:44.000Z</time>
      </trkpt>
      <trkpt lat="45.42508" lon="4.67527">
        <ele>432</ele>
        <time>2019-09-29T10:32:45.000Z</time>
      </trkpt>
      <trkpt lat="45.42507" lon="4.67523">
        <ele>432</ele>
        <time>2019-09-29T10:32:46.000Z</time>
      </trkpt>
      <trkpt lat="45.42506" lon="4.67519">
        <ele>432</ele>
        <time>2019-09-29T10:32:47.000Z</time>
      </trkpt>
      <trkpt lat="45.42506" lon="4.67515">
        <ele>432</ele>
        <time>2019-09-29T10:32:48.000Z</time>
      </trkpt>
      <trkpt lat="45.42505" lon="4.67511">
        <ele>432.25742963235</ele>
        <time>2019-09-29T10:32:49.000Z</time>
      </trkpt>
      <trkpt lat="45.42504" lon="4.67508">
        <ele>433</ele>
        <time>2019-09-29T10:32:50.000Z</time>
      </trkpt>
      <trkpt lat="45.42504" lon="4.67504">
        <ele>433</ele>
        <time>2019-09-29T10:32:51.000Z</time>
      </trkpt>
      <trkpt lat="45.42503" lon="4.675">
        <ele>433</ele>
        <time>2019-09-29T10:32:52.000Z</time>
      </trkpt>
      <trkpt lat="45.42502" lon="4.67496">
        <ele>433</ele>
        <time>2019-09-29T10:32:53.000Z</time>
      </trkpt>
      <trkpt lat="45.42501" lon="4.67492">
        <ele>433</ele>
        <time>2019-09-29T10:32:54.000Z</time>
      </trkpt>
      <trkpt lat="45.42501" lon="4.67487">
        <ele>433</ele>
        <time>2019-09-29T10:32:55.000Z</time>
      </trkpt>
      <trkpt lat="45.425" lon="4.67483">
        <ele>433</ele>
        <time>2019-09-29T10:32:56.000Z</time>
      </trkpt>
      <trkpt lat="45.42499" lon="4.67478">
        <ele>433</ele>
        <time>2019-09-29T10:32:57.000Z</time>
      </trkpt>
      <trkpt lat="45.42498" lon="4.67474">
        <ele>433</ele>
        <time>2019-09-29T10:32:58.000Z</time>
      </trkpt>
      <trkpt lat="45.42497" lon="4.67469">
        <ele>433</ele>
        <time>2019-09-29T10:32:59.000Z</time>
      </trkpt>
      <trkpt lat="45.42496" lon="4.67465">
        <ele>433</ele>
        <time>2019-09-29T10:33:00.000Z</time>
      </trkpt>
      <trkpt lat="45.42495" lon="4.6746">
        <ele>433</ele>
        <time>2019-09-29T10:33:01.000Z</time>
      </trkpt>
      <trkpt lat="45.42494" lon="4.67455">
        <ele>433</ele>
        <time>2019-09-29T10:33:02.000Z</time>
      </trkpt>
      <trkpt lat="45.42494" lon="4.67451">
        <ele>433</ele>
        <time>2019-09-29T10:33:07.000Z</time>
      </trkpt>
      <trkpt lat="45.42493" lon="4.67446">
        <ele>433</ele>
        <time>2019-09-29T10:33:09.000Z</time>
      </trkpt>
      <trkpt lat="45.42492" lon="4.67441">
        <ele>433.2015538489</ele>
        <time>2019-09-29T10:33:26.000Z</time>
      </trkpt>
      <trkpt lat="45.42491" lon="4.67437">
        <ele>433.97674187851</ele>
        <time>2019-09-29T10:33:27.000Z</time>
      </trkpt>
      <trkpt lat="45.4249" lon="4.67432">
        <ele>434</ele>
        <time>2019-09-29T10:33:28.000Z</time>
      </trkpt>
      <trkpt lat="45.42489" lon="4.67427">
        <ele>434</ele>
        <time>2019-09-29T10:33:29.000Z</time>
      </trkpt>
      <trkpt lat="45.42488" lon="4.67422">
        <ele>434</ele>
        <time>2019-09-29T10:33:30.000Z</time>
      </trkpt>
      <trkpt lat="45.42486" lon="4.67417">
        <ele>434</ele>
        <time>2019-09-29T10:33:31.000Z</time>
      </trkpt>
      <trkpt lat="45.42485" lon="4.67412">
        <ele>434</ele>
        <time>2019-09-29T10:33:32.000Z</time>
      </trkpt>
      <trkpt lat="45.42484" lon="4.67408">
        <ele>434</ele>
        <time>2019-09-29T10:33:33.000Z</time>
      </trkpt>
      <trkpt lat="45.42483" lon="4.67403">
        <ele>434</ele>
        <time>2019-09-29T10:33:34.000Z</time>
      </trkpt>
      <trkpt lat="45.42482" lon="4.67399">
        <ele>434</ele>
        <time>2019-09-29T10:33:35.000Z</time>
      </trkpt>
      <trkpt lat="45.42481" lon="4.67394">
        <ele>434.26000307196</ele>
        <time>2019-09-29T10:33:36.000Z</time>
      </trkpt>
      <trkpt lat="45.4248" lon="4.6739">
        <ele>435</ele>
        <time>2019-09-29T10:33:37.000Z</time>
      </trkpt>
      <trkpt lat="45.42479" lon="4.67385">
        <ele>435</ele>
        <time>2019-09-29T10:33:38.000Z</time>
      </trkpt>
      <trkpt lat="45.42478" lon="4.6738">
        <ele>435</ele>
        <time>2019-09-29T10:33:39.000Z</time>
      </trkpt>
      <trkpt lat="45.42477" lon="4.67375">
        <ele>435</ele>
        <time>2019-09-29T10:33:40.000Z</time>
      </trkpt>
      <trkpt lat="45.42476" lon="4.67371">
        <ele>435</ele>
        <time>2019-09-29T10:33:41.000Z</time>
      </trkpt>
      <trkpt lat="45.42475" lon="4.67366">
        <ele>435</ele>
        <time>2019-09-29T10:33:42.000Z</time>
      </trkpt>
      <trkpt lat="45.42473" lon="4.67362">
        <ele>435</ele>
        <time>2019-09-29T10:33:43.000Z</time>
      </trkpt>
      <trkpt lat="45.42472" lon="4.67357">
        <ele>435</ele>
        <time>2019-09-29T10:33:44.000Z</time>
      </trkpt>
      <trkpt lat="45.4247" lon="4.67353">
        <ele>435</ele>
        <time>2019-09-29T10:33:45.000Z</time>
      </trkpt>
      <trkpt lat="45.42468" lon="4.67349">
        <ele>435</ele>
        <time>2019-09-29T10:33:46.000Z</time>
      </trkpt>
      <trkpt lat="45.42466" lon="4.67345">
        <ele>436</ele>
        <time>2019-09-29T10:33:47.000Z</time>
      </trkpt>
      <trkpt lat="45.42463" lon="4.67341">
        <ele>436</ele>
        <time>2019-09-29T10:33:48.000Z</time>
      </trkpt>
      <trkpt lat="45.42461" lon="4.67337">
        <ele>436</ele>
        <time>2019-09-29T10:33:49.000Z</time>
      </trkpt>
      <trkpt lat="45.42459" lon="4.67334">
        <ele>436</ele>
        <time>2019-09-29T10:33:50.000Z</time>
      </trkpt>
      <trkpt lat="45.42457" lon="4.6733">
        <ele>436</ele>
        <time>2019-09-29T10:33:51.000Z</time>
      </trkpt>
      <trkpt lat="45.42454" lon="4.67327">
        <ele>436</ele>
        <time>2019-09-29T10:33:52.000Z</time>
      </trkpt>
      <trkpt lat="45.42452" lon="4.67323">
        <ele>436</ele>
        <time>2019-09-29T10:34:09.000Z</time>
      </trkpt>
      <trkpt lat="45.42449" lon="4.6732">
        <ele>436</ele>
        <time>2019-09-29T10:34:11.000Z</time>
      </trkpt>
      <trkpt lat="45.42446" lon="4.67317">
        <ele>437</ele>
        <time>2019-09-29T10:34:14.000Z</time>
      </trkpt>
      <trkpt lat="45.42443" lon="4.67315">
        <ele>437</ele>
        <time>2019-09-29T10:34:40.000Z</time>
      </trkpt>
      <trkpt lat="45.4244" lon="4.67313">
        <ele>437</ele>
        <time>2019-09-29T10:34:42.000Z</time>
      </trkpt>
      <trkpt lat="45.42437" lon="4.67311">
        <ele>437</ele>
        <time>2019-09-29T10:34:44.000Z</time>
      </trkpt>
      <trkpt lat="45.42434" lon="4.67309">
        <ele>437</ele>
        <time>2019-09-29T10:34:45.000Z</time>
      </trkpt>
      <trkpt lat="45.4243" lon="4.67309">
        <ele>437</ele>
        <time>2019-09-29T10:34:46.000Z</time>
      </trkpt>
      <trkpt lat="45.42426" lon="4.67308">
        <ele>437.25999692796</ele>
        <time>2019-09-29T10:34:47.000Z</time>
      </trkpt>
      <trkpt lat="45.42423" lon="4.67308">
        <ele>438</ele>
        <time>2019-09-29T10:34:48.000Z</time>
      </trkpt>
      <trkpt lat="45.42419" lon="4.67307">
        <ele>438</ele>
        <time>2019-09-29T10:34:49.000Z</time>
      </trkpt>
      <trkpt lat="45.42415" lon="4.67307">
        <ele>438</ele>
        <time>2019-09-29T10:34:50.000Z</time>
      </trkpt>
      <trkpt lat="45.42412" lon="4.67307">
        <ele>438</ele>
        <time>2019-09-29T10:34:51.000Z</time>
      </trkpt>
      <trkpt lat="45.42408" lon="4.67307">
        <ele>438</ele>
        <time>2019-09-29T10:34:52.000Z</time>
      </trkpt>
      <trkpt lat="45.42405" lon="4.67308">
        <ele>438</ele>
        <time>2019-09-29T10:34:53.000Z</time>
      </trkpt>
      <trkpt lat="45.42401" lon="4.67309">
        <ele>438</ele>
        <time>2019-09-29T10:34:54.000Z</time>
      </trkpt>
      <trkpt lat="45.42398" lon="4.67309">
        <ele>438</ele>
        <time>2019-09-29T10:34:55.000Z</time>
      </trkpt>
      <trkpt lat="45.42394" lon="4.6731">
        <ele>438</ele>
        <time>2019-09-29T10:34:56.000Z</time>
      </trkpt>
      <trkpt lat="45.42391" lon="4.67311">
        <ele>438</ele>
        <time>2019-09-29T10:34:57.000Z</time>
      </trkpt>
      <trkpt lat="45.42387" lon="4.67313">
        <ele>438</ele>
        <time>2019-09-29T10:34:58.000Z</time>
      </trkpt>
      <trkpt lat="45.42383" lon="4.67314">
        <ele>438</ele>
        <time>2019-09-29T10:35:00.000Z</time>
      </trkpt>
      <trkpt lat="45.4238" lon="4.67315">
        <ele>438</ele>
        <time>2019-09-29T10:35:07.000Z</time>
      </trkpt>
      <trkpt lat="45.42376" lon="4.67315">
        <ele>438</ele>
      </trkpt>
      <trkpt lat="45.42373" lon="4.67316">
        <ele>438</ele>
      </trkpt>
      <trkpt lat="45.42369" lon="4.67317">
        <ele>438</ele>
      </trkpt>
      <trkpt lat="45.42365" lon="4.67318">
        <ele>438.26000307196</ele>
      </trkpt>
      <trkpt lat="45.42362" lon="4.6732">
        <ele>439</ele>
      </trkpt>
      <trkpt lat="45.42358" lon="4.67322">
        <ele>439</ele>
      </trkpt>
      <trkpt lat="45.42354" lon="4.67323">
        <ele>439</ele>
      </trkpt>
      <trkpt lat="45.4235" lon="4.67324">
        <ele>439</ele>
      </trkpt>
      <trkpt lat="45.42346" lon="4.67325">
        <ele>439</ele>
      </trkpt>
      <trkpt lat="45.42343" lon="4.67327">
        <ele>439</ele>
      </trkpt>
      <trkpt lat="45.42339" lon="4.67327">
        <ele>439</ele>
      </trkpt>
      <trkpt lat="45.42335" lon="4.67328">
        <ele>439</ele>
      </trkpt>
      <trkpt lat="45.42332" lon="4.6733">
        <ele>439</ele>
      </trkpt>
      <trkpt lat="45.42328" lon="4.67331">
        <ele>439.26000307196</ele>
      </trkpt>
      <trkpt lat="45.42324" lon="4.67332">
        <ele>440</ele>
      </trkpt>
      <trkpt lat="45.4232" lon="4.67333">
        <ele>440</ele>
      </trkpt>
      <trkpt lat="45.42317" lon="4.67334">
        <ele>440</ele>
      </trkpt>
      <trkpt lat="45.42313" lon="4.67335">
        <ele>440</ele>
      </trkpt>
      <trkpt lat="45.4231" lon="4.67336">
        <ele>440</ele>
      </trkpt>
      <trkpt lat="45.42306" lon="4.67337">
        <ele>440</ele>
      </trkpt>
      <trkpt lat="45.42302" lon="4.67338">
        <ele>440</ele>
      </trkpt>
      <trkpt lat="45.42298" lon="4.67339">
        <ele>440</ele>
      </trkpt>
      <trkpt lat="45.42295" lon="4.6734">
        <ele>440</ele>
      </trkpt>
      <trkpt lat="45.42291" lon="4.67342">
        <ele>440</ele>
      </trkpt>
      <trkpt lat="45.42287" lon="4.67343">
        <ele>440</ele>
      </trkpt>
      <trkpt lat="45.42284" lon="4.67344">
        <ele>440</ele>
      </trkpt>
      <trkpt lat="45.4228" lon="4.67345">
        <ele>440.25999692796</ele>
      </trkpt>
      <trkpt lat="45.42277" lon="4.67346">
        <ele>441</ele>
      </trkpt>
      <trkpt lat="45.42273" lon="4.67347">
        <ele>441</ele>
      </trkpt>
      <trkpt lat="45.42269" lon="4.67348">
        <ele>441</ele>
      </trkpt>
      <trkpt lat="45.42266" lon="4.6735">
        <ele>441</ele>
      </trkpt>
      <trkpt lat="45.42262" lon="4.67352">
        <ele>441</ele>
      </trkpt>
      <trkpt lat="45.42259" lon="4.67353">
        <ele>441</ele>
      </trkpt>
      <trkpt lat="45.42256" lon="4.67355">
        <ele>441</ele>
      </trkpt>
      <trkpt lat="45.42253" lon="4.67358">
        <ele>441.25252446892</ele>
      </trkpt>
      <trkpt lat="45.42252" lon="4.67361">
        <ele>442</ele>
      </trkpt>
      <trkpt lat="45.4225" lon="4.67363">
        <ele>442</ele>
      </trkpt>
      <trkpt lat="45.42248" lon="4.67364">
        <ele>442.26000307196</ele>
      </trkpt>
      <trkpt lat="45.42246" lon="4.67362">
        <ele>443</ele>
      </trkpt>
      <trkpt lat="45.42245" lon="4.67367">
        <ele>443</ele>
      </trkpt>
      <trkpt lat="45.42245" lon="4.67371">
        <ele>443</ele>
      </trkpt>
      <trkpt lat="45.42244" lon="4.67377">
        <ele>443</ele>
      </trkpt>
      <trkpt lat="45.42241" lon="4.67384">
        <ele>442.73999692804</ele>
      </trkpt>
      <trkpt lat="45.42239" lon="4.67392">
        <ele>442</ele>
      </trkpt>
      <trkpt lat="45.42236" lon="4.67399">
        <ele>442</ele>
      </trkpt>
      <trkpt lat="45.42233" lon="4.67406">
        <ele>442</ele>
      </trkpt>
      <trkpt lat="45.42231" lon="4.67414">
        <ele>442</ele>
      </trkpt>
      <trkpt lat="45.42229" lon="4.67422">
        <ele>442</ele>
      </trkpt>
      <trkpt lat="45.42227" lon="4.67431">
        <ele>442</ele>
      </trkpt>
      <trkpt lat="45.42226" lon="4.67439">
        <ele>442</ele>
      </trkpt>
      <trkpt lat="45.42225" lon="4.67448">
        <ele>441.73999692804</ele>
      </trkpt>
      <trkpt lat="45.42224" lon="4.67458">
        <ele>441</ele>
      </trkpt>
      <trkpt lat="45.42223" lon="4.67468">
        <ele>441</ele>
      </trkpt>
      <trkpt lat="45.42222" lon="4.67479">
        <ele>441</ele>
      </trkpt>
      <trkpt lat="45.42221" lon="4.67489">
        <ele>441</ele>
      </trkpt>
      <trkpt lat="45.4222" lon="4.675">
        <ele>440</ele>
      </trkpt>
      <trkpt lat="45.42219" lon="4.67511">
        <ele>439.76288564567</ele>
      </trkpt>
      <trkpt lat="45.42217" lon="4.67522">
        <ele>439</ele>
      </trkpt>
      <trkpt lat="45.42216" lon="4.67533">
        <ele>439</ele>
      </trkpt>
      <trkpt lat="45.42215" lon="4.67543">
        <ele>439</ele>
      </trkpt>
      <trkpt lat="45.42214" lon="4.67554">
        <ele>439</ele>
      </trkpt>
      <trkpt lat="45.42213" lon="4.67563">
        <ele>438.74510271437</ele>
      </trkpt>
      <trkpt lat="45.42212" lon="4.67571">
        <ele>438</ele>
      </trkpt>
      <trkpt lat="45.42211" lon="4.67577">
        <ele>438</ele>
      </trkpt>
      <trkpt lat="45.4221" lon="4.67582">
        <ele>438</ele>
      </trkpt>
      <trkpt lat="45.4221" lon="4.67585">
        <ele>438</ele>
      </trkpt>
      <trkpt lat="45.42208" lon="4.67587">
        <ele>436.81102409821</ele>
      </trkpt>
      <trkpt lat="45.42207" lon="4.6759">
        <ele>436</ele>
      </trkpt>
      <trkpt lat="45.42207" lon="4.67592">
        <ele>436</ele>
      </trkpt>
      <trkpt lat="45.42209" lon="4.6759">
        <ele>436</ele>
      </trkpt>
      <trkpt lat="45.4221" lon="4.67588">
        <ele>435.74000307204</ele>
      </trkpt>
      <trkpt lat="45.42212" lon="4.67585">
        <ele>435</ele>
      </trkpt>
      <trkpt lat="45.42214" lon="4.67584">
        <ele>435</ele>
      </trkpt>
      <trkpt lat="45.42216" lon="4.67584">
        <ele>435</ele>
      </trkpt>
      <trkpt lat="45.42219" lon="4.67586">
        <ele>435</ele>
      </trkpt>
      <trkpt lat="45.42223" lon="4.67586">
        <ele>435</ele>
      </trkpt>
      <trkpt lat="45.42226" lon="4.67586">
        <ele>435</ele>
      </trkpt>
      <trkpt lat="45.4223" lon="4.67586">
        <ele>435</ele>
      </trkpt>
      <trkpt lat="45.42233" lon="4.67587">
        <ele>435</ele>
      </trkpt>
      <trkpt lat="45.42236" lon="4.67589">
        <ele>435</ele>
      </trkpt>
      <trkpt lat="45.4224" lon="4.67591">
        <ele>435</ele>
      </trkpt>
      <trkpt lat="45.42244" lon="4.67594">
        <ele>435</ele>
      </trkpt>
      <trkpt lat="45.42247" lon="4.67595">
        <ele>435</ele>
      </trkpt>
      <trkpt lat="45.42249" lon="4.67598">
        <ele>435</ele>
      </trkpt>
      <trkpt lat="45.42251" lon="4.67601">
        <ele>435</ele>
      </trkpt>
      <trkpt lat="45.42253" lon="4.67604">
        <ele>435</ele>
      </trkpt>
      <trkpt lat="45.42255" lon="4.67606">
        <ele>435</ele>
      </trkpt>
      <trkpt lat="45.42255" lon="4.67607">
        <ele>435.20001220703</ele>
      </trkpt>
    </trkseg>
  </trk>
</gpx>